ECMWFFLT2_850_thetae_000.txt.gz
Theta_e
330 328 330 329 327 329 330 327 327 329 335 335 329 327 334 330 325 331 332 332 340 344 350 357 352 351 351 345 346 344 342 345 343 344 346 347 352 355 355 356 357 358 357 355 355 354 354 355 351 344 337 334 335 337 338 337 335 333 330 330 330 327 322
330 327 328 330 328 333 332 322 326 333 330 334 340 331 328 327 325 333 333 326 329 334 342 354 353 351 352 348 347 345 343 344 344 344 345 346 350 353 354 355 355 357 357 356 356 355 353 355 351 344 337 334 334 336 337 337 336 333 330 329 330 326 319
330 329 327 328 327 329 331 326 330 334 324 325 334 329 325 327 326 329 331 330 331 332 342 355 353 351 352 349 348 347 345 344 344 345 346 346 349 351 354 356 356 357 358 358 358 356 354 355 352 347 342 340 339 338 337 337 334 333 331 330 331 328 318
328 330 326 323 325 328 329 330 329 333 330 325 326 328 329 329 328 331 333 332 337 347 354 355 352 351 351 348 349 350 346 345 345 346 347 348 349 351 353 355 356 357 357 358 357 356 355 355 353 351 348 346 345 343 341 340 337 336 333 332 334 331 320
325 327 327 324 326 327 326 327 326 327 330 328 326 330 330 329 331 336 332 327 344 370 365 351 350 350 349 349 350 349 346 345 346 346 347 348 349 350 352 353 354 356 357 356 356 357 356 356 355 353 352 349 348 346 344 343 340 338 335 333 336 334 321
322 326 331 329 329 328 329 329 327 327 328 326 323 324 328 330 332 337 331 326 346 370 356 347 350 347 345 346 346 347 346 345 346 346 346 347 350 350 351 351 351 353 354 354 356 359 358 358 357 355 354 351 350 349 346 345 343 339 336 334 337 337 325
327 329 330 330 328 329 332 329 329 331 333 329 322 324 331 328 326 334 332 327 346 367 352 346 348 343 340 341 342 344 344 344 347 346 346 347 349 350 350 351 350 351 352 354 356 360 360 359 357 355 354 353 352 350 348 347 345 341 337 336 338 339 329
330 330 330 330 331 329 329 330 329 330 331 332 335 342 343 330 323 330 327 323 344 371 357 343 341 339 337 338 341 342 342 343 346 345 346 347 348 349 350 349 350 350 352 355 357 359 359 358 358 356 355 354 352 351 350 348 345 342 339 338 340 341 332
323 325 326 325 328 330 330 333 331 328 332 332 335 342 338 328 328 332 326 325 344 365 353 341 339 339 338 336 338 341 340 341 343 345 345 347 347 349 350 349 350 351 352 354 356 357 358 357 357 356 355 354 353 351 349 348 346 343 340 340 343 342 334
323 322 325 327 330 329 330 334 330 329 333 328 329 333 327 327 333 332 330 335 346 353 347 340 339 341 339 336 335 338 341 340 343 345 345 346 347 348 349 348 349 350 350 352 354 356 357 357 356 356 355 354 352 350 349 347 345 343 342 343 344 341 335
328 328 334 341 340 328 324 329 330 330 331 328 331 332 328 334 337 333 342 349 339 341 345 341 339 340 339 339 337 338 343 344 345 347 347 348 348 347 348 347 348 350 351 352 353 355 356 357 356 355 354 353 352 350 349 347 345 343 342 344 344 341 337
331 338 344 342 335 327 324 327 327 329 331 329 329 326 330 342 335 328 348 355 335 336 347 342 338 340 339 342 340 340 344 347 347 348 348 350 349 350 351 349 349 351 351 352 354 354 356 356 355 355 353 352 350 349 347 346 345 344 343 344 343 341 338
331 336 340 339 333 328 328 329 327 328 330 329 327 326 332 342 333 327 343 350 338 338 344 338 336 338 336 338 341 342 344 347 348 349 349 350 349 351 353 351 351 350 350 352 353 354 356 355 355 354 352 352 350 348 347 346 345 344 343 343 342 340 338
331 332 334 337 332 327 329 329 329 328 329 330 328 328 335 338 334 335 344 347 343 340 338 336 335 332 334 336 340 342 343 345 347 347 349 351 351 350 350 350 350 349 349 349 351 353 356 355 354 353 351 351 349 348 348 346 344 343 342 342 341 340 338
329 331 333 333 331 330 328 326 330 331 328 331 328 327 333 337 335 338 343 344 344 342 338 336 331 331 334 337 337 340 342 345 345 345 346 351 352 352 352 351 348 347 347 347 348 352 354 353 353 352 350 349 348 348 348 347 344 341 340 341 341 339 338
326 331 331 330 330 330 325 325 330 331 330 331 331 330 335 337 338 342 341 337 339 342 342 339 335 333 336 336 335 338 341 343 343 342 344 348 352 353 352 350 350 347 346 347 348 350 352 353 353 351 350 349 348 349 348 346 343 340 340 341 341 341 340
326 330 330 333 333 326 324 330 332 331 335 335 334 337 340 341 344 347 342 337 338 342 344 344 340 338 338 336 335 336 339 340 340 341 343 345 348 348 345 345 346 346 346 347 346 348 350 351 352 350 350 350 348 348 347 345 343 341 340 341 341 341 340
326 331 332 334 331 323 326 340 339 332 336 336 333 336 339 340 345 347 345 345 344 342 341 343 340 337 337 337 336 336 337 338 339 341 343 343 343 342 339 338 339 339 341 343 344 346 348 348 348 348 349 349 348 347 347 345 343 340 341 342 341 342 342
332 336 331 323 323 330 343 350 341 334 336 338 338 338 336 339 344 347 347 344 345 343 338 337 336 335 336 337 338 338 337 336 339 341 341 341 341 339 338 336 336 336 336 337 339 343 347 348 348 349 350 350 349 348 347 345 343 343 343 343 344 345 344
334 332 328 323 328 343 354 346 337 337 340 342 342 337 335 340 343 341 342 341 342 342 335 333 336 335 337 338 338 338 337 336 336 337 338 338 338 338 337 336 337 338 337 336 337 338 342 345 347 349 349 349 348 348 347 346 346 346 345 346 346 344 340
336 334 331 332 332 333 340 342 337 337 340 343 346 337 335 342 342 338 340 342 344 341 335 334 336 336 338 341 339 337 336 336 334 335 338 339 337 338 339 337 337 339 340 338 339 339 341 343 344 346 347 350 350 348 347 346 347 347 346 346 345 343 341
340 343 336 331 325 324 336 345 339 333 332 341 355 350 342 342 339 335 340 343 342 341 337 334 335 336 342 346 342 338 336 336 337 339 341 340 339 339 339 337 337 339 342 341 341 342 343 344 345 345 349 351 351 349 348 347 346 347 346 345 345 345 345
340 346 339 331 328 331 340 345 339 332 329 336 350 349 343 343 338 333 338 340 338 338 335 334 336 340 347 350 345 339 337 338 339 342 341 338 338 338 338 338 339 339 340 339 338 340 341 343 345 347 350 352 351 348 347 345 345 346 347 345 345 347 346
342 345 338 332 332 335 339 342 339 332 330 334 335 332 335 343 337 333 338 339 336 335 332 333 338 344 348 348 343 339 340 340 339 342 340 337 338 341 339 340 340 339 337 336 334 334 337 341 345 348 352 353 351 348 346 344 344 346 346 345 346 346 344
335 336 332 329 333 339 339 339 336 332 336 345 338 332 337 341 335 334 337 336 336 335 334 335 339 339 339 340 338 339 342 341 339 339 338 337 339 341 340 339 338 336 335 334 333 333 333 334 339 344 349 352 352 349 347 345 345 346 345 343 343 343 341
334 337 333 328 331 339 337 334 335 336 343 345 339 337 339 336 334 337 336 334 335 335 334 335 335 334 335 334 334 335 336 337 337 337 336 336 336 336 337 337 335 334 335 336 335 334 332 331 333 338 342 347 350 350 348 346 346 345 344 343 342 340 339
346 345 335 326 329 335 334 336 341 343 342 341 338 337 336 335 335 336 334 334 335 334 333 334 333 332 332 331 331 332 331 332 333 332 332 333 332 332 335 337 337 337 336 336 336 336 335 336 337 338 339 343 348 349 348 348 346 344 343 342 340 339 338
351 345 335 331 334 334 333 336 340 338 337 337 335 333 333 333 335 335 334 334 334 334 335 335 333 333 332 330 330 331 331 332 332 332 332 332 330 330 333 335 338 339 338 336 338 339 339 339 340 339 340 342 345 346 345 345 344 343 342 341 340 341 340
345 341 337 337 335 330 330 333 333 332 332 332 330 331 331 331 332 333 333 334 333 333 332 332 333 334 334 333 333 333 333 333 333 333 332 331 332 331 331 334 340 342 341 338 339 340 340 338 338 340 342 344 345 345 343 342 342 341 340 340 340 340 340
338 336 334 335 333 330 329 330 329 329 330 330 330 330 329 329 330 330 330 330 331 331 330 330 332 333 333 334 334 334 334 334 333 333 333 332 332 332 332 334 339 344 347 343 338 338 339 340 342 345 344 345 345 343 342 341 341 340 339 339 340 339 338
340 341 340 338 335 331 330 330 329 329 329 328 329 329 329 329 330 329 329 328 328 329 330 330 331 332 332 332 332 333 333 333 333 333 334 333 333 332 332 333 335 339 344 345 341 340 342 342 343 343 343 343 342 339 338 339 339 338 337 336 334 332 331
345 344 343 338 331 328 331 331 329 329 328 328 328 327 327 328 328 328 328 328 327 328 328 327 329 331 331 331 333 333 332 332 333 333 333 333 333 331 331 331 331 332 336 341 342 341 340 339 340 341 340 340 338 335 333 333 334 333 330 327 324 323 323
347 342 339 335 331 329 330 330 329 329 329 328 328 327 327 327 328 327 328 328 327 327 327 327 328 328 328 329 331 331 331 330 331 333 333 333 333 331 330 331 331 331 334 340 342 341 338 337 339 339 337 335 334 333 331 330 330 329 325 323 323 323 322
347 343 338 335 334 333 330 328 330 329 328 327 328 326 326 326 326 326 327 327 327 326 327 327 327 326 326 327 327 329 331 332 332 332 333 333 333 332 332 332 332 333 337 341 342 341 339 340 339 337 335 332 332 331 330 329 328 326 324 324 325 324 322
341 340 335 331 331 331 327 326 327 326 326 327 326 325 325 324 324 324 325 325 325 325 325 325 325 325 325 325 325 328 331 334 334 333 333 333 333 333 333 332 332 337 341 342 341 341 339 338 337 335 333 331 330 330 331 330 328 326 326 325 324 324 323
336 335 332 328 327 327 324 323 324 323 324 325 324 324 324 323 323 323 323 323 323 323 323 324 323 323 323 323 323 326 329 334 335 334 333 334 334 333 333 333 333 338 342 342 340 338 337 336 334 333 333 332 332 332 332 331 329 329 329 325 322 323 321
332 330 328 324 324 324 323 322 323 323 323 323 323 323 323 322 322 322 323 323 323 323 323 323 323 322 322 321 322 326 330 334 336 336 335 335 334 333 333 333 334 338 340 338 335 334 334 333 333 333 333 333 333 333 332 332 332 332 329 322 319 320 321

ECMWFFLT2_850_thetae_003.txt.gz
Theta_e
327 327 328 327 327 328 327 327 326 327 332 333 326 324 330 327 324 329 331 332 337 337 339 355 358 350 346 344 343 342 341 343 344 345 347 347 350 352 353 354 354 356 357 356 357 356 356 356 351 348 346 339 332 328 328 329 328 330 331 332 332 331 331
327 325 326 329 327 330 328 322 326 331 329 333 335 328 326 325 325 331 329 325 329 330 336 354 358 354 352 348 345 343 342 342 342 345 347 347 349 351 353 355 354 355 357 357 357 355 356 356 352 348 345 339 330 327 327 329 329 331 331 331 332 332 332
328 326 324 325 325 327 328 325 329 330 324 327 332 328 326 325 325 329 329 330 331 332 342 353 355 360 358 348 346 347 343 343 343 343 346 346 348 350 351 355 355 356 357 357 358 356 355 356 353 348 345 340 332 327 327 329 329 330 330 330 331 331 331
327 328 324 321 324 325 326 328 327 328 330 329 328 328 329 326 327 331 331 328 332 341 355 359 359 367 357 346 348 348 342 343 342 343 345 345 346 349 350 352 354 356 357 357 356 356 354 356 353 350 347 343 336 329 327 328 329 331 330 330 331 330 328
324 326 325 322 324 326 325 325 324 325 328 330 329 330 331 329 333 338 333 327 338 358 365 362 360 362 352 347 348 346 342 342 343 343 345 345 346 347 349 351 352 354 356 356 356 355 354 354 354 352 349 346 341 334 330 328 329 331 331 332 332 329 327
321 326 332 328 327 328 326 325 325 326 326 327 325 324 328 329 332 337 333 325 338 362 362 360 364 358 348 346 345 345 343 342 342 343 344 344 346 346 347 349 350 353 355 355 355 356 356 356 356 354 352 350 347 341 334 330 329 331 332 332 333 330 330
325 328 331 329 326 327 329 327 327 330 331 328 322 322 327 326 325 333 332 323 337 369 370 364 362 352 345 344 342 343 343 341 343 343 343 344 345 344 346 347 348 351 352 353 353 355 355 356 356 355 354 352 350 347 342 336 332 331 332 334 334 333 331
328 327 329 330 328 326 325 327 328 327 330 330 329 335 336 327 324 329 326 322 340 376 372 357 351 345 342 342 342 342 342 342 343 343 343 345 344 345 346 345 347 349 350 352 353 354 355 355 356 356 354 353 352 352 350 345 337 333 333 335 336 335 333
322 324 326 326 326 327 328 331 329 327 332 332 335 342 335 325 328 330 325 325 342 367 360 345 344 345 343 343 342 342 343 343 343 343 344 343 344 345 345 345 346 347 350 352 352 353 354 354 355 355 354 354 354 354 354 351 344 338 337 338 339 338 336
320 320 324 325 327 330 331 333 328 327 332 328 330 335 325 323 330 331 330 334 343 355 351 340 342 347 344 342 340 341 342 343 343 344 343 344 344 345 345 345 345 347 348 350 350 351 352 352 354 354 354 355 354 355 355 354 350 345 342 343 343 341 340
321 324 335 340 336 330 325 327 327 327 330 327 334 334 325 330 334 331 342 351 339 342 349 342 344 346 345 345 340 338 342 342 343 345 344 344 345 344 345 344 344 346 347 348 349 350 350 352 353 354 354 355 356 356 356 355 354 351 348 347 346 345 343
324 331 342 341 334 327 324 326 326 326 328 327 331 331 329 338 332 325 351 364 338 337 352 347 344 345 345 346 339 336 340 341 342 344 343 344 345 344 346 345 345 347 347 348 349 350 351 353 355 357 357 357 357 357 356 356 356 353 352 351 349 347 346
327 330 332 331 331 328 327 329 326 326 329 327 326 328 334 340 329 325 350 362 342 342 351 344 342 344 342 342 337 336 339 340 341 342 342 344 344 344 346 346 346 348 347 349 349 349 351 353 354 357 358 358 358 358 357 357 356 355 354 352 351 349 348
327 327 326 328 328 327 326 327 327 326 327 327 326 330 335 337 333 333 349 357 349 344 344 341 340 337 336 336 336 336 338 339 341 341 342 344 344 345 346 346 347 347 348 348 349 349 350 351 352 355 356 358 358 357 358 357 357 355 354 353 352 351 349
324 325 327 328 326 327 326 325 329 328 325 326 325 327 334 334 332 337 344 347 348 343 341 340 334 331 335 336 335 337 338 339 340 341 342 343 343 345 346 345 346 347 347 348 348 349 349 350 351 353 354 356 356 357 358 357 357 356 354 354 353 352 350
323 323 326 328 327 328 325 323 328 326 324 328 328 328 335 334 332 337 339 337 341 340 342 341 334 333 338 338 336 337 338 339 341 342 343 343 343 344 345 346 346 345 347 347 347 348 347 348 350 350 352 354 355 356 356 356 356 356 354 354 353 352 350
322 325 326 328 328 324 325 331 334 331 333 337 337 337 341 339 341 342 336 333 340 345 343 341 340 339 340 338 337 338 339 340 342 343 343 343 342 343 343 343 344 344 345 346 346 346 346 347 348 348 350 352 353 355 355 354 355 355 354 354 352 351 349
323 329 329 327 325 322 332 346 344 337 338 339 339 338 338 341 347 348 340 336 345 349 345 342 342 340 337 336 337 339 340 341 343 344 344 342 341 343 344 345 344 344 346 346 346 346 344 345 346 347 350 352 353 355 354 353 354 354 353 353 350 349 348
329 331 327 322 322 328 341 347 339 335 336 336 339 339 338 341 346 352 351 345 345 347 342 337 335 334 333 335 337 338 341 341 343 346 345 343 344 345 345 344 342 342 342 341 342 340 338 339 341 346 349 351 353 355 354 353 354 353 352 350 349 348 347
331 327 323 321 326 336 345 341 337 338 336 337 340 338 337 339 340 346 353 347 344 343 334 330 332 332 333 336 336 338 341 342 344 343 343 345 346 344 339 336 336 337 336 336 336 336 334 334 335 338 341 346 352 354 355 354 353 351 350 349 348 347 346
335 333 326 326 329 334 341 342 339 336 334 338 342 338 335 337 336 340 346 344 343 342 334 331 334 334 337 340 338 339 341 342 342 341 341 343 343 338 336 335 336 337 337 337 336 336 336 335 334 335 338 343 349 352 353 354 352 350 348 347 347 347 346
342 339 328 327 328 329 340 348 341 333 330 333 341 342 338 336 335 336 341 341 340 340 335 332 333 335 341 344 339 337 339 340 340 340 340 340 339 337 336 337 337 338 338 338 337 337 337 336 336 337 340 343 346 348 351 353 351 350 348 347 347 346 345
344 341 332 330 331 333 341 344 336 333 331 331 338 342 339 337 335 333 338 342 340 336 333 332 334 339 342 343 338 336 338 339 340 340 340 340 339 338 337 336 336 335 336 337 336 336 335 333 334 336 337 340 342 345 348 350 351 351 350 349 348 346 344
343 343 336 331 332 336 338 337 333 331 331 333 336 336 334 337 336 331 335 341 338 334 331 332 337 342 342 340 339 337 338 339 339 340 341 341 340 340 338 338 337 337 336 336 336 335 333 331 333 333 333 334 336 337 339 344 348 349 348 348 348 345 343
340 341 334 329 333 338 336 333 331 330 334 341 340 334 334 337 334 331 333 333 333 332 332 333 336 338 336 336 336 334 334 335 335 336 338 339 341 341 340 340 340 338 338 336 335 335 335 334 332 331 330 332 331 331 335 340 345 347 347 348 347 344 342
337 341 338 331 333 337 333 330 331 333 343 348 339 333 335 335 332 333 333 331 333 333 333 333 334 334 335 335 333 332 332 332 331 331 332 332 335 335 336 338 338 338 338 337 336 337 336 335 334 332 331 331 330 332 338 344 346 346 346 345 344 341 340
342 345 343 338 337 336 332 335 341 342 343 341 335 333 335 334 333 335 334 334 335 334 334 335 335 334 334 333 333 333 332 333 332 332 332 331 331 331 332 332 333 334 335 336 337 338 338 337 338 336 336 337 336 339 344 346 345 344 343 343 341 338 337
348 346 344 343 341 335 331 335 341 338 335 334 333 331 332 331 332 333 332 334 334 334 334 335 334 334 335 333 333 334 332 332 333 332 333 332 331 332 332 331 331 332 334 337 339 340 340 341 341 341 342 343 344 345 346 345 344 344 343 342 340 338 337
344 343 343 341 335 330 329 331 331 330 330 331 330 329 329 329 329 329 329 329 329 329 329 329 329 331 333 333 333 333 333 333 334 332 333 332 332 332 331 332 332 332 334 338 342 343 343 343 344 345 346 346 346 346 345 345 344 343 342 341 340 337 336
336 335 335 334 331 327 328 329 328 328 328 328 327 327 327 327 327 327 327 327 327 326 327 327 327 327 328 328 329 329 331 331 331 333 334 332 332 332 331 330 331 331 332 333 338 342 344 344 345 346 346 347 347 347 345 345 343 342 341 340 339 337 338
338 337 336 334 332 329 327 327 327 327 327 327 328 328 327 327 327 326 326 327 327 327 326 326 326 326 326 326 326 325 326 327 327 329 332 330 330 331 332 332 331 331 331 331 334 340 345 345 346 346 346 346 346 345 345 344 342 341 341 339 338 338 337
341 340 335 332 330 327 327 327 325 325 326 326 327 327 327 328 329 327 327 327 327 326 326 325 326 326 326 326 325 325 326 325 326 326 328 328 328 328 328 330 331 331 331 332 334 340 344 345 345 344 344 344 344 343 343 341 340 339 338 335 335 334 331
341 337 334 332 330 327 326 325 324 325 325 324 325 325 325 326 326 326 326 326 325 325 325 325 325 325 325 325 326 325 325 325 326 326 326 327 330 330 328 329 331 332 332 333 336 339 342 343 343 342 342 341 341 341 340 337 336 334 330 329 329 328 325
340 338 335 333 331 329 326 324 323 324 324 324 324 324 323 324 324 324 324 325 325 325 324 324 324 324 323 323 324 324 324 325 325 326 326 327 331 333 332 331 331 331 331 333 336 338 340 341 341 341 340 339 338 337 336 334 333 332 329 328 327 325 324
338 335 331 327 326 325 323 323 323 322 323 323 323 322 323 323 323 323 323 323 323 323 323 323 323 322 321 322 322 322 324 325 326 329 330 331 333 334 334 332 332 332 332 334 336 338 340 340 339 339 339 337 337 336 335 334 332 331 331 329 326 325 325
332 329 325 322 322 322 321 321 321 321 321 322 321 321 322 322 322 322 323 322 322 323 322 322 323 322 322 322 321 321 323 325 328 330 333 334 335 335 335 334 333 332 333 334 335 337 339 339 338 338 337 337 336 336 335 334 333 332 330 328 327 327 326
326 323 322 322 322 322 322 322 321 321 321 321 321 321 321 321 321 322 321 321 322 322 323 323 323 322 322 322 322 322 323 325 327 329 332 334 336 336 337 336 334 334 334 334 335 337 339 338 337 337 336 335 334 334 334 333 332 332 331 329 329 328 323

ECMWFFLT2_850_thetae_006.txt.gz
Theta_e
325 326 326 327 327 326 325 325 325 325 330 332 327 326 332 329 324 331 334 337 339 337 340 349 352 352 348 342 340 338 339 341 341 342 343 343 345 346 346 347 348 349 350 350 350 349 349 350 349 349 349 350 348 342 340 337 332 330 331 331 332 333 332
325 322 325 327 325 328 327 323 325 328 326 334 337 327 326 325 324 330 331 330 331 330 340 359 354 347 352 353 346 338 338 340 340 342 343 343 345 346 346 348 347 349 350 350 350 349 348 349 348 348 348 349 349 344 341 339 334 330 329 329 330 331 330
326 323 322 324 323 324 327 326 327 328 324 327 332 327 326 325 325 330 329 329 332 331 341 355 349 345 350 352 349 344 341 340 339 341 342 343 345 346 347 348 348 349 350 350 350 349 349 348 348 348 348 349 351 348 343 341 337 332 330 330 330 331 329
325 326 320 319 321 322 325 326 325 327 328 327 327 327 328 325 327 333 329 326 332 337 342 347 346 349 348 347 355 352 342 339 339 340 342 343 344 346 347 348 349 350 350 350 350 348 348 348 347 347 348 349 351 350 346 343 341 337 333 331 330 330 329
321 323 322 318 320 322 323 324 323 323 327 328 327 328 330 330 331 335 330 326 336 347 347 345 344 350 349 347 355 352 340 338 340 340 342 342 343 345 346 348 349 350 350 350 350 348 348 348 348 348 349 349 350 351 349 346 343 340 335 331 329 329 328
319 323 328 325 323 325 325 323 324 325 325 326 324 324 328 330 330 335 333 325 334 349 348 342 341 350 351 345 347 348 340 338 340 340 341 342 343 344 345 347 348 349 351 350 350 350 349 351 350 349 350 350 350 352 351 348 345 341 336 330 328 328 329
323 326 329 326 323 325 326 325 325 327 328 326 320 320 328 328 324 331 330 322 333 355 353 343 343 349 348 340 340 343 339 338 341 341 341 342 343 343 344 346 347 348 350 350 350 351 351 351 350 349 349 350 350 351 351 350 347 343 337 331 328 329 329
325 325 326 326 325 325 323 324 325 325 326 326 324 329 335 329 325 329 325 322 342 368 358 347 346 343 341 339 338 339 338 340 341 341 342 342 342 343 344 344 347 348 349 351 351 351 351 351 351 350 350 351 351 351 351 352 349 345 341 335 330 329 330
320 321 323 322 322 324 325 327 327 324 326 327 328 335 333 325 327 330 324 325 342 363 358 349 348 347 346 341 338 339 340 340 341 341 342 342 342 343 344 344 346 348 349 351 351 351 352 351 351 351 351 351 352 352 353 353 351 348 345 341 335 330 329
318 318 320 323 325 327 329 331 327 325 327 325 326 330 325 323 329 330 329 333 342 352 353 347 348 352 352 346 339 339 341 340 341 342 341 342 342 342 344 344 345 346 348 349 349 350 351 351 351 351 350 352 353 354 354 354 353 352 349 347 341 332 330
320 320 327 335 336 328 325 327 326 326 326 324 330 330 324 329 333 330 339 346 336 337 344 344 350 352 352 353 345 339 341 341 341 342 341 342 343 342 343 344 344 346 346 347 348 349 349 350 350 350 351 352 353 354 355 354 355 355 353 351 347 339 334
322 324 331 336 336 326 323 326 325 326 327 325 328 327 326 336 331 325 347 357 333 331 344 346 356 355 351 353 346 338 341 341 341 343 342 342 342 342 344 343 343 345 345 345 347 347 348 348 348 350 350 352 353 354 354 355 356 356 355 354 351 347 342
324 325 326 331 334 328 328 330 326 325 327 325 325 326 331 338 328 324 348 357 337 334 344 342 350 355 350 348 343 339 341 341 341 342 341 342 343 342 343 343 343 344 343 344 345 345 346 347 347 350 350 352 354 354 355 356 357 357 356 355 354 353 351
325 324 323 328 329 327 328 328 328 328 326 325 325 326 331 335 330 331 347 352 341 336 340 341 340 339 337 337 336 338 340 341 341 342 341 343 343 343 343 343 343 344 343 343 343 344 346 346 347 348 349 351 353 353 355 356 357 357 356 356 355 355 354
323 322 324 326 323 325 326 324 329 329 325 326 324 324 330 332 330 333 341 343 341 337 340 341 333 329 334 337 336 337 339 340 341 341 342 343 343 343 343 343 343 343 343 344 343 344 345 344 345 347 348 350 351 353 355 356 356 357 356 357 356 356 356
323 324 324 324 323 324 322 320 326 326 324 327 325 326 335 334 330 335 338 335 336 338 342 340 333 333 340 339 335 334 336 339 341 341 342 343 343 343 343 343 344 343 343 343 343 343 343 343 345 346 347 349 350 351 354 354 356 357 357 357 357 356 356
323 325 324 324 323 320 319 323 324 323 326 329 326 332 342 338 333 335 333 330 336 343 343 340 340 344 345 340 335 334 336 338 341 342 344 343 342 344 343 342 343 343 343 342 341 342 343 343 345 346 347 348 348 349 351 353 355 356 357 357 357 356 355
320 325 326 325 321 319 327 338 333 326 326 326 327 337 344 341 339 342 339 337 345 350 345 342 345 344 339 336 333 333 335 337 339 342 343 342 343 343 342 342 343 343 343 342 343 344 344 344 345 345 345 344 344 346 349 351 353 354 356 356 356 356 355
324 328 325 321 322 327 338 342 336 330 327 328 337 344 342 341 342 348 351 347 349 354 347 337 335 334 332 333 333 334 336 336 337 340 340 341 343 342 342 343 342 343 343 344 344 343 341 340 338 337 336 336 338 342 345 348 350 352 354 355 356 356 355
327 325 320 321 328 336 339 337 337 337 333 333 340 338 336 339 338 341 351 352 348 349 341 330 329 331 332 334 335 335 337 337 336 339 339 340 341 340 341 341 341 342 342 341 340 336 333 332 330 329 330 330 332 335 340 345 348 351 353 354 354 355 354
331 329 323 325 330 333 336 338 338 337 335 337 342 339 334 337 336 335 345 351 346 342 335 329 331 334 336 341 340 336 337 339 339 339 339 340 341 341 341 341 339 338 337 336 335 333 331 331 330 331 332 331 332 334 337 342 346 348 351 352 352 354 353
337 336 329 329 330 330 339 345 337 332 332 333 340 343 337 335 335 333 339 345 343 340 335 331 332 338 347 354 347 337 336 339 340 341 342 342 342 341 339 338 336 335 335 334 335 335 335 334 333 333 334 333 333 334 334 336 338 340 342 346 349 351 352
337 335 333 335 334 334 344 349 338 331 331 330 334 339 336 336 336 331 333 339 338 335 333 331 335 346 354 351 342 337 338 339 339 343 344 342 340 338 336 336 336 335 336 335 336 336 335 334 333 332 332 330 330 330 330 331 332 333 336 342 347 349 350
339 340 339 337 336 337 340 341 335 330 329 329 330 333 335 337 335 329 331 336 334 332 332 333 337 345 346 342 337 338 341 340 340 343 342 338 336 337 337 338 337 337 337 337 337 336 334 333 332 331 331 331 330 329 330 332 332 333 337 342 345 348 348
339 343 340 333 335 339 337 334 331 329 331 332 331 333 335 334 332 331 331 332 332 331 332 334 336 337 336 335 335 336 339 340 341 342 341 338 339 338 338 339 338 338 339 337 336 336 335 334 333 332 333 333 331 331 333 334 335 337 340 343 344 347 348
336 341 344 337 337 338 331 328 329 331 339 344 337 333 334 332 332 334 333 332 333 334 333 334 334 334 334 334 334 333 334 335 336 339 339 338 338 338 338 338 338 338 339 339 338 337 337 336 335 335 335 335 334 335 336 336 338 339 340 342 344 345 346
337 343 347 342 338 334 328 332 340 340 341 342 335 331 332 331 331 331 331 332 333 332 333 333 333 333 333 333 333 333 333 332 333 335 335 333 333 334 335 336 337 337 338 339 339 339 339 339 338 338 337 337 337 338 338 338 339 340 341 343 344 344 344
338 343 344 339 336 331 327 333 341 338 334 333 331 330 329 328 327 327 327 328 328 328 329 329 328 330 329 328 330 332 332 332 332 332 332 332 331 332 332 332 331 331 332 333 335 337 339 340 340 340 340 340 340 340 340 341 341 342 343 343 343 343 343
333 336 337 334 331 329 327 329 332 331 330 329 328 327 326 326 326 326 325 326 326 325 326 325 325 326 325 325 327 329 329 329 329 329 331 330 330 330 330 330 330 329 329 330 331 332 335 338 342 343 342 342 341 341 342 343 343 343 344 344 344 343 342
332 332 332 330 328 327 327 328 327 327 328 327 326 326 327 326 326 326 326 326 327 327 327 326 326 326 325 326 326 326 327 328 327 328 328 328 327 328 328 329 330 330 330 331 331 330 334 339 343 344 344 344 344 344 344 343 343 344 344 344 343 342 341
338 337 336 332 328 327 327 327 327 327 327 326 326 326 326 325 325 326 326 326 327 327 327 327 326 326 326 327 326 325 326 326 325 326 327 326 326 326 326 327 328 328 328 331 331 330 333 337 338 339 340 342 343 344 343 341 341 343 343 343 342 341 340
339 340 335 329 325 324 325 325 326 326 326 326 327 325 325 324 324 324 324 325 325 325 325 325 325 325 325 326 326 325 325 326 326 326 326 327 327 327 327 327 326 326 326 327 328 326 326 328 329 330 334 338 340 342 343 341 340 342 342 342 341 340 339
335 333 330 326 325 326 325 323 324 325 325 325 325 324 324 324 324 323 323 323 323 323 323 323 323 323 324 325 325 325 325 326 327 326 326 327 327 327 329 328 327 326 325 325 327 326 325 326 328 330 335 339 342 343 341 339 339 341 341 340 340 338 338
334 332 329 327 330 331 327 323 323 324 323 324 324 323 323 323 324 324 323 323 323 323 322 323 322 322 323 323 324 325 326 328 329 329 329 330 328 328 331 331 330 329 327 328 328 328 328 330 333 336 338 341 342 340 337 336 337 338 338 337 336 335 335
334 332 327 325 327 328 325 322 323 323 323 324 324 322 323 323 322 323 323 323 323 323 322 322 323 322 322 322 322 324 325 327 328 331 333 334 333 332 333 334 334 334 333 333 333 332 332 334 336 338 339 340 340 338 336 335 335 334 333 332 332 332 332
328 326 324 323 323 323 322 322 323 323 323 324 323 322 322 323 322 323 323 322 322 323 323 323 322 322 323 322 322 323 324 325 327 329 331 333 334 334 335 336 337 336 336 335 336 336 337 336 336 337 338 338 338 337 335 335 333 332 331 330 329 329 329
323 321 321 321 321 321 321 321 321 320 321 322 321 321 321 321 321 322 322 322 322 322 322 322 322 322 322 322 322 323 323 324 326 328 329 331 332 334 335 336 337 337 336 335 336 337 337 337 337 337 337 337 336 334 333 333 332 330 330 330 328 327 326

ECMWFFLT2_850_thetae_009.txt.gz
Theta_e
322 323 324 325 324 323 324 324 323 324 328 328 325 322 325 324 321 326 330 329 331 334 334 339 340 339 341 342 342 341 342 344 345 345 346 346 346 347 347 347 347 347 346 346 346 345 344 344 345 345 345 344 343 343 345 347 348 349 347 342 339 338 339
321 323 324 324 325 325 324 322 323 326 326 329 330 325 324 323 320 324 329 326 326 326 327 338 343 339 339 342 342 341 342 344 344 344 345 344 345 345 345 346 346 346 346 345 346 345 344 344 344 345 345 344 343 343 344 346 348 349 347 342 338 336 337
321 322 322 322 324 325 323 323 327 326 322 324 330 325 323 322 320 322 326 326 326 324 326 333 338 340 343 345 346 342 340 343 344 344 345 344 343 344 344 345 345 345 346 346 346 345 344 344 344 344 344 344 344 344 344 345 347 348 348 345 340 336 336
322 322 320 318 320 322 323 325 326 326 324 325 327 325 322 322 321 321 323 324 325 327 332 335 335 341 347 348 351 346 341 343 344 344 345 344 343 344 343 344 344 344 345 346 346 345 345 344 344 344 345 345 345 345 344 345 346 348 349 347 342 336 334
320 320 320 319 320 322 321 322 322 323 325 325 325 325 323 321 322 322 322 321 323 331 340 341 339 343 345 347 351 350 345 343 343 343 344 344 342 343 342 343 344 344 345 346 346 345 345 345 344 344 345 346 345 345 345 344 345 347 348 347 344 339 335
317 319 322 322 322 323 322 322 323 322 324 323 321 323 324 322 322 323 323 320 321 332 341 342 344 343 340 343 346 345 345 344 342 343 341 341 341 341 342 342 342 344 344 345 345 346 345 345 345 345 345 346 346 346 345 344 345 346 347 348 345 342 338
321 322 323 323 321 323 323 323 325 325 326 323 318 320 323 322 323 324 323 320 322 337 347 341 342 343 338 340 343 341 343 342 340 341 340 341 340 340 341 342 343 344 344 345 345 345 345 345 345 345 345 346 345 346 345 345 345 345 346 347 345 343 342
324 322 322 322 322 322 321 322 325 324 325 324 322 327 329 325 322 322 322 319 322 340 357 347 342 342 338 338 340 341 342 341 338 339 339 339 339 340 341 343 344 345 345 345 345 345 345 345 345 346 345 346 345 345 346 346 346 346 346 347 346 345 344
321 320 321 321 321 322 320 322 325 324 326 326 325 333 334 325 322 323 321 319 321 339 357 350 343 340 336 336 339 340 343 342 341 340 339 339 339 340 342 343 343 344 345 345 345 345 346 346 346 346 345 345 346 346 346 346 347 347 347 348 347 346 346
318 318 319 320 321 322 322 323 324 323 326 325 324 328 326 323 327 327 321 319 325 341 352 348 345 343 340 340 340 340 341 341 341 340 338 339 340 340 342 342 343 344 344 345 345 345 346 346 346 346 346 346 346 346 347 347 347 347 347 348 347 348 348
320 320 324 326 326 322 319 322 322 322 324 324 326 326 322 325 329 326 325 327 328 334 343 344 347 347 346 345 344 343 343 339 339 341 340 340 340 340 341 342 342 343 344 345 346 346 346 346 346 346 346 346 347 347 347 347 347 348 348 348 348 348 349
324 325 327 328 326 322 320 322 321 322 324 324 325 323 325 333 327 319 332 344 332 329 340 345 347 349 352 355 351 346 343 339 340 341 340 340 340 340 342 342 342 343 343 345 345 346 346 346 346 346 346 347 347 347 346 347 348 348 348 349 349 350 353
325 325 325 326 326 324 322 323 322 323 324 324 323 324 329 336 326 319 338 353 340 332 337 340 342 347 352 353 348 343 341 341 342 342 341 341 341 341 341 342 342 342 342 343 345 345 346 346 346 347 347 347 348 347 347 347 348 349 350 351 352 354 356
324 324 324 325 325 324 323 323 324 324 324 324 324 325 328 332 328 325 340 352 345 335 334 338 340 341 342 343 341 340 341 341 342 342 342 343 342 341 341 342 341 342 342 343 343 344 344 344 345 346 346 347 347 347 348 349 350 352 353 353 354 356 357
322 323 323 324 323 323 322 322 324 324 324 324 324 325 328 330 330 330 337 346 344 336 335 340 339 337 338 341 342 341 342 342 343 343 343 343 343 341 341 341 341 341 342 342 343 343 343 343 343 344 344 344 345 347 349 351 351 352 353 354 355 356 357
321 322 323 323 322 322 321 320 323 324 322 323 324 325 328 328 331 333 333 334 336 336 338 339 338 338 339 343 345 344 341 341 343 343 342 342 342 341 341 342 341 341 341 341 342 341 341 342 342 342 343 345 347 349 350 350 349 350 351 352 353 355 357
321 324 323 321 321 320 319 320 324 324 324 325 324 325 329 329 330 331 329 328 334 341 340 337 336 339 341 344 345 343 341 340 341 342 341 341 341 340 340 341 341 340 339 339 339 340 340 341 341 342 344 346 347 347 347 347 348 349 350 351 353 354 356
322 324 323 322 320 318 320 326 328 325 325 326 324 325 329 329 331 335 335 336 343 344 338 337 340 340 341 342 339 337 338 338 339 340 341 342 343 342 342 342 341 339 338 338 339 340 340 341 342 343 345 345 346 345 346 346 347 348 349 350 352 353 355
324 325 322 320 319 321 327 334 333 328 325 325 328 334 337 335 334 338 339 339 344 343 338 338 341 338 335 334 333 333 334 334 336 338 340 342 343 343 343 342 341 339 338 339 341 341 341 343 344 344 344 343 342 342 342 343 344 346 348 348 349 351 353
325 324 321 321 323 327 332 334 331 329 327 327 328 332 336 337 336 336 338 337 341 342 339 337 335 334 333 334 334 334 334 334 334 336 337 339 341 342 342 341 342 341 341 340 341 341 343 343 342 339 337 336 337 337 338 340 341 342 343 343 344 347 350
326 323 321 324 327 329 331 334 333 332 330 330 330 329 333 336 335 335 337 340 339 338 338 336 334 335 337 338 339 337 336 335 335 335 335 337 338 339 341 341 342 342 342 342 343 343 342 339 335 333 332 332 333 335 337 337 337 337 337 338 341 343 346
327 324 322 324 324 325 330 334 334 333 331 332 335 334 334 335 334 334 335 337 338 337 337 336 336 337 339 340 341 339 337 337 337 337 336 337 337 338 339 341 342 342 342 343 342 339 336 333 332 332 333 334 334 335 334 332 331 333 333 334 337 340 344
328 325 324 324 323 326 334 335 332 332 331 333 333 330 331 335 335 334 334 335 336 337 337 338 339 340 341 342 342 340 338 338 339 339 339 338 339 340 340 342 342 342 342 340 337 335 333 333 334 335 334 334 333 332 331 330 330 331 331 332 337 341 344
330 328 325 325 326 331 335 333 331 331 331 334 331 325 329 337 336 334 335 335 335 338 339 339 341 344 344 342 341 341 341 341 340 341 343 342 343 343 343 343 343 341 339 336 334 335 335 334 334 334 332 332 330 329 330 330 330 330 332 336 340 342 343
330 330 328 328 330 334 334 330 331 332 331 331 328 326 332 338 336 335 337 336 336 339 341 341 341 341 341 341 341 343 345 344 342 343 343 343 343 343 343 344 342 339 338 337 337 337 337 335 334 333 331 330 329 329 330 330 332 334 337 339 341 340 341
331 331 329 328 329 332 331 330 331 333 331 330 331 332 335 337 336 337 338 337 338 339 338 338 338 337 337 339 340 342 343 342 342 342 342 342 342 342 343 343 341 340 339 340 339 338 337 337 336 334 333 333 333 333 333 334 336 338 339 339 339 339 340
333 333 331 330 332 331 330 331 333 335 335 335 335 335 334 334 335 335 335 335 336 335 335 335 335 334 334 333 333 333 334 334 335 335 335 337 337 337 339 339 338 339 339 338 338 339 338 338 337 337 337 337 338 338 338 339 339 339 338 339 339 339 342
336 338 335 333 333 331 329 331 335 337 336 335 334 332 331 331 331 331 331 331 331 332 333 333 332 331 330 328 327 328 328 329 330 330 330 331 330 331 332 332 332 333 333 333 333 334 334 336 339 340 340 340 339 340 341 341 339 339 339 339 339 341 343
336 339 338 335 332 330 329 330 332 332 331 330 329 329 329 329 328 328 328 328 327 328 329 329 328 329 328 328 329 328 327 327 329 329 329 329 328 328 328 328 329 329 328 329 329 328 330 333 335 337 338 339 340 341 343 343 340 338 338 338 339 342 343
333 334 335 334 332 329 328 329 329 328 328 327 327 328 328 327 326 326 327 327 326 327 327 327 327 327 326 327 327 327 327 327 327 327 328 327 327 328 328 328 329 328 328 329 329 329 330 331 330 330 330 331 331 332 336 340 340 338 336 337 339 341 342
334 332 333 333 331 328 327 328 329 328 327 327 326 326 326 325 325 326 326 326 326 327 327 327 326 326 326 326 326 326 326 326 326 326 326 326 327 327 328 327 327 327 328 328 328 328 329 328 328 327 326 327 327 326 328 333 337 337 335 335 339 342 342
337 336 334 330 328 326 325 327 329 328 327 326 324 324 324 324 324 325 325 325 325 326 326 326 326 326 326 325 325 326 326 326 327 326 326 326 327 327 327 327 327 327 327 327 326 327 327 327 327 327 327 327 328 326 328 333 337 337 335 337 341 342 340
335 335 332 328 328 328 326 326 327 326 325 324 323 323 323 322 323 323 323 324 325 324 324 325 324 325 326 326 326 326 326 326 326 326 326 327 326 327 328 328 327 326 326 326 326 326 327 327 327 327 327 328 327 327 332 338 339 338 337 339 341 339 338
333 333 329 329 333 335 330 326 325 325 323 323 323 323 323 323 323 323 323 323 323 323 323 323 324 325 326 326 325 325 327 328 329 329 331 330 329 329 329 329 328 329 329 328 327 327 328 327 327 327 328 329 330 333 337 339 338 337 337 337 336 335 335
332 331 328 328 331 332 328 325 325 324 324 324 324 323 323 323 323 324 324 324 324 323 322 322 322 323 324 324 324 324 326 327 329 330 332 333 333 333 332 331 331 331 331 330 328 328 330 330 331 332 333 335 338 339 339 337 335 334 334 332 331 331 333
327 327 326 326 326 325 324 323 323 323 323 324 324 323 323 323 322 322 322 322 322 322 321 320 320 321 322 323 323 324 324 325 326 326 327 329 331 332 333 333 334 333 333 333 332 332 333 333 334 335 336 337 340 339 337 334 334 333 331 330 329 329 330
324 324 324 323 323 322 322 321 321 321 322 323 323 323 323 324 323 322 321 320 320 320 320 320 319 320 321 321 321 321 322 323 323 324 324 325 326 327 329 331 333 334 335 334 333 333 334 334 335 335 336 338 338 337 335 334 332 331 331 331 329 328 328

ECMWFFLT2_850_thetae_012.txt.gz
Theta_e
324 323 324 325 325 324 325 325 323 325 331 329 322 320 323 323 321 322 324 326 330 329 334 339 338 336 335 336 338 339 343 346 348 351 352 352 353 354 354 355 355 354 349 343 342 344 344 343 342 342 341 340 340 341 341 340 342 344 345 347 346 346 345
324 325 325 325 326 327 325 322 323 328 331 330 326 321 322 323 320 321 322 324 326 324 327 335 337 335 335 335 335 336 339 345 348 349 351 351 352 353 354 355 355 353 347 341 340 341 342 340 340 340 339 339 339 340 340 340 340 342 345 346 346 345 344
324 325 324 322 324 327 327 325 328 328 324 324 325 322 321 322 320 321 321 321 323 323 325 332 336 336 336 335 336 335 337 344 349 349 350 351 351 351 353 355 356 356 352 346 342 342 343 341 339 339 339 339 339 340 340 340 339 340 343 344 345 345 344
323 323 322 319 320 325 326 327 329 328 324 323 324 323 322 321 320 320 321 320 322 326 331 334 336 337 336 336 336 335 335 340 347 349 350 350 351 351 352 353 355 357 355 352 348 344 344 343 340 339 340 340 340 341 341 340 340 340 341 343 345 345 344
322 320 321 320 320 323 322 322 324 324 325 325 325 325 323 322 320 320 320 320 321 329 336 336 336 337 336 335 336 336 336 335 340 348 349 349 352 352 351 353 354 355 353 353 353 351 348 345 342 340 341 342 341 342 341 340 340 340 340 342 343 344 344
318 319 323 323 322 324 323 322 321 322 325 323 322 322 323 323 321 320 321 319 321 331 337 336 336 336 335 335 335 335 336 334 335 345 349 349 352 352 352 352 352 353 354 354 356 356 353 350 347 343 343 345 346 345 345 342 341 341 341 341 342 343 344
321 322 324 323 323 324 324 324 324 324 325 322 319 319 322 322 321 321 321 319 323 334 337 335 336 336 334 334 335 334 336 335 335 344 348 349 353 353 351 351 351 352 354 354 355 357 356 354 350 347 346 348 349 349 350 349 345 343 342 343 342 341 343
324 324 325 325 325 323 322 323 325 325 324 324 323 324 324 322 320 322 321 318 324 333 337 337 336 335 334 334 334 335 335 334 337 346 350 350 354 354 351 350 350 351 353 355 356 357 357 356 353 350 348 350 351 351 352 353 352 348 346 348 346 342 342
323 323 323 322 323 323 321 322 324 325 325 325 325 325 326 322 320 322 321 318 323 332 338 339 336 336 335 333 333 334 334 334 339 349 352 350 353 355 353 350 350 352 354 355 356 355 354 353 352 353 351 349 351 352 352 354 355 354 353 354 353 348 342
320 320 320 320 321 322 323 322 323 324 324 325 324 323 321 320 321 324 321 319 325 333 338 337 335 337 336 333 334 332 333 338 345 353 354 352 354 355 354 353 353 355 356 355 355 352 350 349 350 351 350 348 350 352 352 354 357 358 358 358 358 356 348
321 321 323 326 325 323 321 321 322 322 323 325 324 320 318 320 322 322 325 326 326 329 335 336 334 336 334 334 334 332 334 342 349 353 353 352 355 355 354 355 356 356 355 354 354 350 348 349 348 347 346 346 349 350 350 353 357 360 360 360 360 359 355
325 326 328 328 327 324 322 322 321 321 323 324 322 318 319 324 321 319 327 332 326 328 334 336 334 336 335 334 334 333 335 339 346 353 352 351 354 355 355 356 357 356 354 354 353 350 348 348 347 345 344 345 348 348 348 353 358 360 361 361 361 359 357
328 329 328 327 327 326 325 325 322 322 324 322 321 320 322 326 321 319 328 333 329 330 333 332 333 335 335 334 334 333 332 332 345 355 354 352 354 355 355 355 354 352 351 352 352 349 347 347 346 345 345 346 349 350 351 353 356 360 361 360 358 357 356
328 329 329 328 327 326 325 325 325 325 324 323 323 323 324 325 323 323 329 332 332 332 331 332 334 333 333 333 333 333 330 331 344 355 355 353 353 353 352 353 351 348 347 350 350 347 345 344 345 345 346 347 347 349 350 350 353 358 360 358 355 355 356
325 328 329 328 328 326 324 324 326 326 325 323 323 324 324 324 323 324 327 328 330 332 331 331 332 332 333 333 332 333 333 336 346 355 354 352 354 353 350 352 354 350 348 350 347 344 341 341 344 345 344 345 345 347 350 352 352 355 358 358 355 355 357
323 326 327 327 328 326 322 322 325 325 324 323 323 324 325 325 324 324 324 322 326 331 332 332 332 332 332 333 334 335 337 342 348 353 354 353 353 351 348 352 354 348 345 345 342 340 340 341 343 343 344 344 343 347 352 354 357 358 358 360 357 353 354
323 325 326 325 325 323 320 321 325 326 326 325 325 325 326 326 326 324 322 322 327 332 332 330 331 333 331 333 336 335 338 348 353 353 355 355 352 349 348 350 349 343 341 342 339 338 339 341 342 342 343 344 342 346 352 356 360 360 359 358 354 351 350
325 326 326 325 322 319 321 325 328 327 327 326 326 325 325 327 327 327 326 328 331 331 329 329 332 333 330 332 339 341 344 351 356 354 354 355 356 354 353 351 348 344 347 347 344 344 342 341 341 342 343 345 345 348 352 354 356 356 358 357 354 353 352
326 327 327 324 321 322 326 328 328 327 327 327 327 327 327 327 327 328 329 330 331 331 331 332 333 333 334 339 345 347 344 345 348 350 351 354 356 356 357 355 351 349 350 349 348 349 350 348 346 346 346 346 344 346 349 349 348 350 353 355 354 353 351
328 327 324 323 324 328 331 333 331 329 328 328 326 325 327 328 328 329 329 329 330 332 332 335 339 341 344 347 346 344 342 340 341 343 345 348 351 353 355 354 353 352 351 349 347 349 353 356 354 349 346 345 345 350 353 350 347 348 349 349 350 350 350
330 326 324 325 327 327 330 333 333 333 332 332 329 325 326 329 328 329 331 332 331 330 333 340 344 342 342 343 342 342 341 339 338 339 342 344 346 349 350 348 348 350 349 348 347 347 350 354 353 350 348 349 353 357 355 348 344 345 346 345 346 347 348
329 326 326 328 325 323 330 335 336 336 335 336 337 331 327 331 333 332 333 334 332 332 338 343 342 340 339 337 338 343 344 340 338 339 341 342 344 347 348 348 348 345 342 344 345 344 344 347 349 350 352 354 354 353 349 344 341 342 343 342 343 346 349
328 326 326 327 324 327 337 339 336 336 335 336 338 330 326 333 340 338 335 334 334 336 341 343 342 339 336 332 336 346 346 343 343 342 342 344 347 348 347 349 350 347 344 344 343 341 344 348 350 352 353 351 345 340 341 343 342 340 341 343 343 345 346
328 328 327 326 326 333 340 337 334 335 335 336 333 324 324 337 344 341 338 337 338 341 344 344 341 337 334 334 343 349 348 348 348 348 348 349 350 351 351 352 351 347 345 348 349 349 349 349 348 348 346 342 337 335 340 346 347 344 342 343 343 342 342
326 327 327 327 328 335 337 334 334 336 336 334 329 324 332 345 345 343 342 340 339 342 344 341 340 341 344 347 349 349 350 352 353 352 352 351 351 353 353 351 348 345 347 350 351 349 345 341 339 339 337 336 336 335 337 343 347 346 342 340 339 338 339
324 326 327 326 329 335 335 333 336 336 333 332 331 334 342 345 343 342 342 340 340 342 343 342 344 347 350 351 352 352 352 353 353 353 353 354 354 354 353 351 349 350 350 349 346 341 336 335 336 336 335 334 334 334 335 338 341 340 337 337 337 337 338
325 326 328 326 329 335 335 334 337 337 335 336 338 340 341 341 342 343 342 342 344 344 345 346 347 349 350 351 352 353 352 353 353 353 353 354 353 353 352 351 351 350 347 343 340 338 337 337 337 336 336 335 335 336 337 337 337 337 336 335 336 337 340
326 325 327 330 333 335 334 335 339 339 338 339 339 338 338 339 340 342 342 343 345 345 346 346 345 346 347 348 349 350 350 351 351 351 352 351 351 350 349 347 345 343 341 340 340 339 338 338 338 337 336 335 336 337 337 336 336 335 334 334 335 337 339
332 330 333 335 335 334 333 334 336 336 335 336 335 336 337 338 338 340 341 341 341 341 341 341 340 341 341 341 343 344 346 348 348 346 345 344 344 344 342 340 338 338 338 337 337 337 337 336 336 336 335 334 334 335 337 338 337 335 333 333 332 333 337
336 335 336 336 333 333 333 333 333 333 333 334 335 336 336 336 337 338 339 340 340 340 340 339 339 339 339 340 341 342 344 345 343 339 337 336 335 334 333 333 333 334 334 333 333 334 334 333 333 334 334 333 332 334 335 336 335 334 333 332 331 335 339
332 332 335 334 332 332 333 332 332 332 332 333 334 335 335 335 336 336 337 338 339 339 340 340 339 337 338 340 340 340 342 342 337 333 332 332 331 330 330 329 330 330 330 330 331 331 331 331 331 330 330 330 329 331 331 331 332 332 331 333 337 341 342
332 333 335 335 333 332 332 332 333 332 331 331 332 333 333 333 333 334 335 337 338 338 339 340 340 340 338 338 338 339 341 340 335 329 327 327 327 328 328 328 328 330 330 329 329 329 329 329 328 327 328 328 328 329 328 330 335 336 335 337 341 342 342
333 333 334 334 332 332 330 330 331 331 331 331 331 331 331 330 330 331 331 332 334 336 337 338 339 341 340 339 339 340 341 341 338 332 329 328 328 327 328 327 327 328 327 328 328 327 327 327 327 327 328 327 328 330 330 335 341 341 337 339 341 340 341
333 332 333 332 333 334 333 331 330 330 332 331 331 331 331 330 329 329 329 329 330 330 332 333 333 335 337 338 337 337 336 336 335 333 331 330 328 327 327 327 327 327 327 326 327 326 326 326 326 326 327 327 330 334 336 339 342 340 338 341 342 340 340
332 332 334 335 337 337 333 329 327 328 329 328 329 330 330 330 328 327 327 327 326 326 327 328 328 329 331 332 333 334 334 333 333 332 332 331 330 329 328 328 328 329 328 326 327 327 327 326 326 327 328 329 330 335 338 340 341 339 338 339 341 341 341
331 332 333 334 335 333 328 325 325 326 326 326 325 325 326 327 328 327 327 326 326 325 324 324 324 325 325 325 326 328 329 329 329 329 330 331 331 332 334 334 333 332 331 329 329 329 329 329 329 331 334 334 334 337 339 339 338 336 333 334 339 342 342
330 331 332 332 332 330 326 325 325 325 326 326 325 322 321 323 323 324 324 324 324 324 323 322 322 322 322 322 322 322 322 323 323 324 325 328 329 331 333 333 333 334 334 333 332 332 333 334 334 335 337 339 340 339 337 335 333 331 329 334 340 342 341

ECMWFFLT2_850_thetae_015.txt.gz
Theta_e
327 325 325 327 324 322 326 326 322 325 330 329 322 320 324 322 320 323 322 323 329 332 335 338 339 339 339 339 339 339 339 339 338 338 345 350 348 348 350 354 356 354 354 357 357 358 357 357 356 354 353 353 351 354 357 354 349 342 340 345 347 347 347
327 327 326 326 326 325 325 322 324 330 331 330 326 321 322 322 320 322 321 321 324 324 326 336 341 338 338 339 338 338 339 338 339 337 340 348 350 350 351 353 356 356 354 357 358 357 357 357 357 355 352 352 346 344 349 349 343 340 340 343 345 347 348
327 329 325 323 325 327 326 325 328 328 322 322 324 321 320 321 320 321 321 320 322 322 325 334 340 338 339 340 338 338 338 336 339 339 339 345 349 349 351 354 356 357 356 357 357 356 356 357 359 356 352 353 349 342 343 346 342 336 338 346 348 346 346
327 327 324 320 321 325 326 326 328 329 324 322 323 322 321 321 320 321 321 320 321 325 331 336 338 339 338 339 340 338 337 337 338 338 338 342 347 349 351 354 356 357 357 358 358 356 354 357 359 358 354 355 355 348 343 346 347 340 336 346 352 349 346
325 322 323 322 321 323 322 320 322 324 326 325 324 323 322 321 321 320 321 320 321 329 337 338 338 339 338 338 340 338 337 338 336 338 338 339 346 351 352 353 356 358 358 358 359 356 352 355 358 357 355 355 356 354 348 346 350 349 342 344 352 351 348
320 321 326 326 325 325 323 321 320 322 324 323 320 321 322 322 320 320 321 320 322 332 338 337 337 338 338 338 339 337 337 337 336 337 337 338 347 352 353 353 355 357 359 359 358 357 352 353 357 356 353 353 353 353 353 351 350 353 352 348 350 351 347
323 325 327 326 326 326 326 324 324 325 326 322 318 318 320 321 321 321 322 319 324 335 338 337 338 337 337 337 338 338 337 338 336 336 336 340 349 354 354 352 351 354 359 359 358 358 354 352 356 357 351 350 351 349 351 353 350 351 353 353 354 353 347
326 326 327 327 327 326 324 324 326 325 324 324 324 324 324 322 320 321 321 319 324 335 339 338 338 338 338 337 337 339 338 337 336 335 336 339 346 353 355 351 350 352 357 359 359 359 356 353 355 357 351 346 348 348 348 352 351 350 350 351 357 358 350
322 322 323 324 324 324 323 323 326 325 325 327 326 327 327 323 320 321 321 319 323 334 339 339 337 338 337 337 337 338 337 337 336 335 337 337 339 351 357 352 351 353 355 359 359 359 359 356 356 358 353 346 346 347 347 349 350 350 350 348 354 362 358
319 318 318 319 320 323 323 323 325 325 326 326 323 322 321 320 322 324 322 320 325 335 339 338 336 336 337 337 338 336 336 336 335 335 342 342 344 356 359 355 352 353 354 357 359 359 360 359 358 359 356 349 346 347 347 348 349 349 351 349 350 359 364
322 320 323 326 325 322 320 321 323 324 325 326 324 320 318 320 322 323 325 326 325 331 337 337 336 337 336 337 338 336 336 337 334 341 354 355 355 360 360 357 354 354 355 357 359 361 362 362 362 361 360 354 348 347 348 349 349 349 351 351 350 354 363
327 327 328 329 327 324 321 321 322 323 324 326 323 320 320 324 321 318 328 333 326 328 336 338 337 337 337 338 338 337 336 335 332 341 356 360 360 362 361 358 357 356 356 358 361 363 364 365 364 363 363 360 354 352 352 351 349 349 352 353 353 354 359
329 330 329 329 328 327 326 325 323 323 324 323 322 321 324 326 321 319 328 333 328 330 334 335 335 337 337 337 337 337 336 335 334 335 344 351 356 362 363 360 359 358 359 361 364 365 365 366 365 365 364 363 360 358 358 356 352 349 351 355 356 357 359
328 329 329 329 328 327 327 327 326 325 326 324 323 323 325 326 325 325 329 330 331 333 333 333 334 335 336 336 336 336 334 335 336 334 335 337 343 354 361 363 361 360 362 365 365 366 366 365 364 366 365 365 365 363 362 361 356 351 352 355 359 361 362
325 329 330 329 328 326 325 326 327 327 327 326 324 324 324 325 325 326 328 328 330 333 333 334 334 334 336 336 336 337 336 335 336 334 334 334 335 341 351 361 364 362 364 368 368 367 367 364 365 367 366 366 365 363 363 362 359 355 354 358 363 365 364
324 329 330 328 329 327 324 323 326 327 326 325 326 326 326 324 324 325 323 323 327 331 331 333 335 335 335 336 336 337 336 336 335 335 334 333 334 334 337 354 365 364 365 368 367 366 366 366 366 366 366 367 365 363 363 363 361 359 359 364 367 366 367
324 328 329 328 327 326 322 323 326 328 327 327 327 327 328 327 325 324 322 322 328 330 330 331 333 334 336 336 336 336 336 337 336 335 335 333 333 333 333 348 364 366 365 366 365 365 367 367 366 365 365 366 365 364 364 364 364 361 362 367 368 367 368
324 327 328 327 325 322 323 327 329 330 328 328 327 326 328 329 328 327 326 327 330 331 329 331 331 333 335 335 335 334 334 336 336 334 334 334 333 334 336 344 356 363 366 368 368 369 369 366 365 365 365 364 364 364 364 365 365 363 364 368 369 367 368
326 327 329 326 323 324 328 330 331 330 329 329 329 329 330 330 329 329 329 329 330 330 330 331 330 330 332 332 333 334 332 333 334 333 335 335 334 337 341 341 347 360 367 368 370 371 368 366 366 366 363 362 362 362 363 365 366 365 365 369 370 369 368
328 328 327 326 327 329 331 332 330 329 330 329 328 328 329 330 330 330 330 330 330 331 330 330 330 330 330 330 331 333 332 332 333 332 332 337 339 343 349 348 353 362 365 365 368 369 366 365 366 365 362 362 362 362 364 366 366 367 367 369 370 370 368
329 326 324 327 328 327 329 333 333 333 333 332 331 329 331 333 331 330 331 331 330 330 330 330 331 330 331 332 331 331 331 331 333 332 332 337 339 341 347 353 360 364 362 362 368 368 366 365 365 364 364 364 364 363 365 367 368 369 369 369 370 369 367
329 326 325 326 325 324 329 337 339 337 336 335 336 333 331 334 334 331 331 331 331 331 330 331 332 332 332 333 332 332 332 332 335 336 336 338 337 337 346 354 363 364 358 359 364 365 364 364 364 365 365 365 365 365 366 368 368 367 369 369 369 368 366
328 326 325 325 323 326 336 341 339 337 337 337 336 330 327 330 332 331 330 329 330 332 332 331 332 333 333 334 334 335 335 335 337 338 340 341 338 339 346 352 361 363 355 355 363 364 363 363 365 366 366 364 364 364 365 367 365 367 369 369 368 367 365
326 327 326 325 325 331 340 340 336 336 337 337 334 326 326 335 341 341 341 337 331 330 332 333 332 334 334 334 335 336 333 332 336 341 343 342 339 342 346 351 360 361 355 356 362 362 361 364 364 364 363 361 361 363 365 366 366 367 368 367 367 366 364
325 326 325 325 328 335 339 337 336 337 336 334 330 327 335 346 347 346 349 346 338 332 331 332 332 333 334 334 338 344 344 342 344 347 348 347 345 345 346 350 358 361 359 359 362 360 362 364 361 359 360 361 362 364 365 365 366 367 367 366 366 363 360
324 325 325 324 328 337 339 336 336 336 333 331 332 336 344 347 344 345 348 348 345 340 335 332 332 332 333 335 339 347 352 353 354 354 352 352 351 351 352 355 360 361 360 359 358 358 360 359 357 360 363 364 363 363 362 364 367 365 362 358 354 352 354
324 323 324 324 327 336 339 336 335 336 335 336 340 343 342 341 342 345 346 347 347 344 339 337 336 333 334 337 341 347 354 357 356 355 354 354 356 358 359 358 358 359 358 359 359 360 360 360 362 366 366 365 363 363 365 366 361 352 344 339 339 344 351
324 321 323 328 332 336 337 336 338 339 340 341 342 341 339 340 343 343 344 347 348 347 345 343 341 340 343 347 349 353 356 357 357 357 358 358 359 360 358 357 359 361 362 362 362 362 363 363 366 366 364 363 364 364 363 356 345 337 334 335 338 343 349
328 327 331 336 337 336 334 335 338 339 339 339 339 339 339 342 342 341 343 345 345 346 350 349 348 350 352 354 355 356 356 357 358 359 359 358 358 357 357 357 360 361 363 363 363 363 364 364 362 359 354 351 350 349 344 338 334 334 335 335 336 338 343
337 337 338 338 336 335 333 333 335 337 337 338 340 340 340 341 343 342 342 342 343 345 348 349 350 351 351 352 354 354 354 355 355 355 356 356 357 357 358 358 359 360 360 359 358 356 354 350 347 342 337 336 335 334 334 334 335 334 333 333 334 335 339
336 337 338 337 336 336 335 334 335 335 336 338 340 340 341 341 341 342 341 342 342 342 344 345 346 347 348 350 351 352 353 354 355 355 354 353 352 352 353 354 354 353 352 351 348 345 342 339 339 337 333 332 332 333 335 335 333 333 334 334 335 336 338
336 337 338 337 337 338 337 336 336 335 335 336 336 337 339 338 339 339 341 342 342 342 342 342 342 343 344 345 346 349 350 351 353 355 356 355 353 352 350 350 350 350 350 349 349 348 348 348 347 341 336 333 334 336 338 337 334 334 334 334 336 338 340
336 337 337 335 336 337 336 337 337 336 335 334 334 334 335 335 335 335 336 338 339 340 341 341 342 343 344 345 347 349 349 349 348 349 350 352 353 353 353 353 353 353 354 354 353 352 353 352 349 345 342 342 342 343 340 336 334 334 334 337 339 339 340
335 335 335 336 336 336 335 335 335 335 334 334 333 333 333 333 332 332 332 333 334 334 335 337 338 338 340 342 345 346 348 350 349 347 346 345 346 348 349 347 344 342 342 343 343 344 346 347 345 346 347 346 347 348 344 336 334 336 336 340 343 343 343
335 335 336 336 336 335 334 334 333 332 332 332 332 331 331 331 331 331 331 331 331 331 331 332 333 334 334 335 337 340 342 345 346 347 347 346 346 347 348 347 344 340 337 334 331 334 338 339 338 341 344 345 349 351 346 340 340 340 339 341 345 346 345
334 335 336 335 334 333 333 332 331 329 328 327 327 327 327 327 327 327 327 328 329 328 327 327 329 331 332 331 331 333 334 336 339 341 342 344 345 347 348 350 349 348 347 343 338 336 337 337 339 343 345 347 349 348 340 335 338 340 340 342 345 345 344
333 334 335 334 332 331 331 330 328 326 324 324 324 324 324 325 325 325 325 326 326 325 322 321 322 325 328 330 330 329 330 331 332 333 335 338 340 341 343 345 346 346 345 344 342 340 338 337 343 347 346 346 348 345 340 338 340 341 343 345 345 344 344

ECMWFFLT2_850_thetae_021.txt.gz
Theta_e
329 329 329 329 326 323 323 322 319 321 327 326 321 321 324 322 322 324 322 324 332 335 340 343 342 341 342 342 342 342 341 343 344 344 346 347 346 346 345 347 347 348 349 349 348 349 350 352 353 354 355 355 356 355 355 355 356 355 355 355 355 353 352
327 329 329 330 328 326 323 319 320 325 329 327 324 321 321 322 322 322 322 323 327 327 332 342 343 341 341 341 343 341 340 343 344 345 346 346 347 346 344 346 346 347 348 349 350 350 350 351 352 353 355 356 356 355 354 355 355 356 355 355 355 354 353
328 328 327 327 327 328 325 323 326 327 322 320 322 320 320 322 321 320 321 323 325 327 333 341 342 342 343 342 342 342 341 343 345 345 347 347 346 347 347 347 346 346 347 348 350 350 351 352 353 353 355 355 355 355 354 355 355 356 356 355 356 355 354
328 328 326 322 322 326 326 326 326 326 323 320 320 320 321 322 321 321 323 322 324 333 342 344 343 343 344 343 343 343 341 342 344 344 346 347 347 348 349 349 349 349 348 348 349 350 351 352 353 354 354 355 355 355 355 356 357 358 358 357 356 356 356
327 324 325 324 323 324 323 322 321 321 323 323 322 321 320 321 321 322 324 322 324 339 347 346 346 345 342 342 344 344 341 340 342 344 346 348 348 349 349 350 350 348 347 347 348 349 350 351 353 353 354 355 355 355 355 356 357 358 358 358 356 356 356
322 324 329 328 326 326 324 322 321 321 321 320 319 320 320 320 319 321 322 321 328 343 344 342 349 346 340 341 344 344 342 340 340 343 345 346 347 348 348 348 347 346 346 347 348 349 350 351 353 354 355 355 355 355 356 356 357 358 358 358 357 356 356
324 328 330 329 327 328 327 325 324 324 323 320 317 319 322 320 318 321 321 320 331 348 343 344 356 354 342 339 344 345 341 339 340 342 344 346 345 346 347 347 346 346 346 348 350 350 351 352 353 355 356 356 356 355 356 356 356 357 357 358 357 356 356
327 329 329 329 329 328 326 325 326 325 323 321 320 324 329 324 319 322 321 318 327 342 346 347 354 355 345 338 340 343 340 339 340 341 344 346 345 346 347 346 346 346 347 349 351 351 351 351 353 355 356 356 356 356 356 356 356 356 356 358 357 356 356
323 325 327 326 325 326 326 326 326 325 326 325 322 324 329 325 321 323 322 320 329 342 348 352 352 350 346 342 340 339 339 340 339 339 343 347 346 345 346 345 345 346 349 350 351 351 352 352 354 355 356 356 357 356 356 356 355 355 356 357 358 357 356
319 320 322 322 323 324 325 327 326 326 325 324 322 320 320 324 328 326 320 323 335 344 340 343 350 350 344 343 341 338 339 340 338 339 343 345 346 345 345 346 345 346 349 350 351 352 353 354 355 356 356 357 357 357 356 356 356 356 356 357 358 358 357
322 323 328 331 329 324 322 324 326 326 326 325 324 319 316 323 331 328 326 328 332 338 340 339 345 348 346 348 347 341 340 342 340 341 344 345 345 345 346 346 346 346 348 348 350 350 350 353 356 357 357 357 357 357 357 356 356 356 356 357 358 358 358
326 331 334 334 332 326 323 324 325 326 328 325 323 320 318 323 323 322 334 341 329 329 337 339 343 347 347 355 355 342 338 343 342 341 343 345 346 347 347 346 346 347 348 348 349 349 351 354 356 357 358 358 359 358 357 357 356 356 356 357 358 358 359
327 330 331 330 331 330 327 327 326 326 327 325 322 322 324 327 323 320 332 346 341 338 337 336 344 350 346 350 350 338 336 344 345 346 348 347 347 347 346 345 345 345 346 348 349 350 352 355 356 358 358 359 359 358 358 357 356 355 356 357 359 359 360
326 327 328 328 328 328 327 327 327 326 327 326 325 325 326 327 328 327 330 340 346 347 342 339 344 347 343 342 342 336 338 345 348 351 350 348 348 348 345 344 344 343 344 345 345 346 349 351 354 355 356 357 359 358 358 357 356 356 356 357 359 360 360
325 326 327 327 326 327 326 326 329 327 327 326 325 326 327 326 329 330 331 333 335 338 342 342 340 339 339 343 344 338 339 346 350 353 352 350 350 349 348 346 345 345 346 345 344 344 346 347 350 351 351 354 357 359 358 357 356 356 355 356 357 358 359
325 326 327 327 326 327 324 323 327 327 325 326 325 326 327 326 328 330 331 331 334 339 344 342 338 339 342 350 350 340 336 344 348 349 352 354 353 351 350 349 348 348 347 346 346 346 345 346 347 349 351 354 357 359 358 357 357 356 355 355 355 356 358
325 327 328 327 325 323 320 323 327 328 328 327 326 328 329 327 327 327 327 333 343 351 348 340 336 338 340 345 344 337 335 340 341 341 347 352 354 354 352 351 350 351 349 348 349 348 346 347 347 348 352 355 357 359 358 358 357 356 355 354 354 354 355
324 327 328 328 326 320 321 326 329 330 331 330 328 329 329 329 328 326 328 336 344 347 345 343 342 338 333 334 333 331 333 336 337 337 338 341 345 348 347 345 346 349 350 350 350 349 347 347 348 350 354 357 358 359 358 358 357 356 355 353 353 353 353
327 329 328 326 324 325 328 332 333 331 331 332 332 332 331 331 331 329 330 332 335 336 338 340 340 336 331 330 331 332 333 333 336 338 337 335 337 339 343 343 342 342 347 351 350 348 345 347 351 354 356 357 359 359 358 358 357 355 355 352 352 352 352
326 327 326 325 327 332 334 335 334 334 336 335 333 334 336 336 335 337 339 339 342 347 344 339 337 334 333 331 331 332 333 332 333 336 337 338 337 336 340 345 345 344 346 349 350 347 344 346 352 355 355 357 360 359 358 358 356 355 354 352 350 351 351
324 323 323 325 328 329 333 335 334 336 337 337 337 337 339 342 343 345 348 347 347 349 348 343 338 335 336 338 334 330 329 329 330 332 333 333 334 334 334 338 344 346 344 344 346 347 346 347 350 352 353 356 360 360 358 358 356 354 352 351 349 349 350
328 323 322 325 324 324 331 336 336 337 335 337 346 347 344 348 348 346 349 351 350 352 354 348 340 339 347 349 339 331 329 329 328 329 329 329 329 330 331 332 337 341 342 343 344 345 348 350 350 351 352 355 360 361 360 359 357 355 351 349 348 347 348
330 325 322 322 321 325 338 342 338 337 335 338 348 345 341 349 352 345 346 351 353 356 357 351 346 348 352 350 343 339 337 333 329 328 329 329 329 329 329 332 337 340 344 346 346 347 349 350 351 351 351 354 357 360 361 361 358 356 353 350 347 346 347
332 329 326 324 324 335 348 344 337 336 335 337 340 335 338 352 353 343 345 350 352 353 352 351 353 354 352 350 349 346 340 334 333 334 330 328 332 333 333 334 336 339 345 348 350 352 350 350 351 350 350 355 356 357 360 362 362 360 357 354 349 346 348
332 331 328 326 331 343 350 343 337 337 336 338 337 336 346 354 347 343 346 347 346 348 349 351 355 355 353 352 351 348 344 341 339 341 339 334 335 336 337 338 338 340 343 346 351 352 346 345 351 350 350 355 356 355 359 363 363 362 361 358 354 349 350
330 334 335 332 333 340 344 341 338 337 338 341 340 343 348 347 343 345 346 343 344 348 348 349 352 352 352 352 350 349 352 352 349 347 346 344 342 341 339 338 337 338 340 340 345 350 346 345 353 354 353 356 356 354 359 363 363 363 363 361 359 355 355
333 341 344 341 337 338 336 338 344 347 348 347 345 344 345 344 344 346 345 344 346 346 346 346 348 350 351 352 352 351 352 354 354 353 352 349 348 347 345 343 340 343 345 342 341 349 354 355 357 356 354 356 357 357 360 363 363 363 364 365 363 361 362
336 339 340 338 337 339 336 339 348 350 348 345 342 342 342 343 344 344 345 346 345 343 345 346 346 348 350 350 351 352 352 353 354 354 354 354 353 351 351 352 351 350 355 358 356 358 361 360 360 359 357 358 359 361 364 365 364 365 366 366 366 366 366
338 339 337 336 336 338 338 339 342 342 342 341 341 342 341 341 342 343 346 348 346 345 345 344 344 346 347 347 349 350 350 352 353 354 355 357 357 355 353 357 358 355 356 362 364 364 364 363 361 360 359 359 360 364 367 366 365 366 367 368 369 369 369
338 338 337 336 336 335 337 337 337 339 341 341 340 339 337 336 338 340 342 346 347 345 344 343 344 344 343 344 346 347 349 350 351 353 354 355 356 355 352 355 359 358 357 361 362 362 361 362 364 365 362 361 364 366 367 367 366 367 369 370 371 370 370
337 339 339 338 337 335 335 336 337 339 339 338 336 335 333 333 335 336 337 341 343 342 342 342 342 341 342 343 344 346 348 349 349 351 352 352 353 354 353 353 354 355 357 361 362 360 357 358 363 366 366 365 366 367 366 367 367 368 370 371 371 370 369
335 339 338 336 335 334 333 334 337 337 336 335 334 332 331 332 332 333 333 335 336 337 338 339 338 337 337 338 341 344 345 346 347 349 351 352 352 352 352 353 351 352 355 357 358 357 355 355 360 362 363 366 369 369 369 370 370 370 370 370 368 366 364
334 337 337 335 336 336 333 331 333 333 333 332 331 330 330 331 330 330 330 331 331 331 332 332 333 333 332 333 335 338 341 344 345 347 348 350 351 350 351 353 353 352 355 359 361 360 360 361 363 361 357 358 363 366 365 365 366 365 363 362 361 358 358
335 337 335 335 338 338 335 332 331 331 331 330 330 329 329 329 328 327 326 327 328 329 329 329 329 329 329 330 331 333 336 339 342 344 347 348 348 349 350 352 352 351 353 358 361 361 359 360 362 360 354 352 355 358 358 358 360 359 358 358 357 355 356
333 333 333 333 335 336 333 331 331 330 330 329 329 328 327 327 326 325 324 323 323 324 325 326 327 327 328 328 329 330 331 332 334 338 342 344 345 347 348 350 350 349 349 352 356 358 356 354 354 355 353 351 352 353 353 353 354 354 354 356 358 357 356
331 331 332 332 333 333 331 330 329 329 329 328 327 326 325 324 324 324 323 322 321 320 320 321 322 323 324 326 328 329 330 331 332 333 336 339 341 343 347 349 349 348 348 349 350 353 353 350 348 349 350 350 352 353 351 347 347 350 353 355 356 356 355
330 331 332 331 331 331 330 329 328 328 328 328 328 327 324 323 323 324 323 322 322 321 320 319 318 318 319 321 324 326 327 330 333 336 338 339 340 341 345 348 349 349 349 347 348 349 351 350 349 349 350 350 351 353 352 348 349 353 355 355 353 353 352

ECMWFFLT2_850_thetae_024.txt.gz
Theta_e
327 326 328 326 323 324 324 321 317 321 326 322 321 325 326 322 322 325 326 329 336 338 338 341 340 341 342 341 343 342 341 343 343 343 342 342 342 342 342 343 342 343 343 343 345 346 347 348 349 350 351 352 352 352 353 353 353 352 352 352 352 351 351
326 325 328 327 326 327 324 318 319 325 326 323 323 321 319 318 319 323 324 323 327 329 333 343 344 341 342 343 343 343 341 342 342 343 344 342 343 343 343 344 343 343 344 344 344 345 346 347 347 348 350 351 352 352 352 353 353 353 352 352 352 352 351
326 327 326 325 327 325 324 324 324 326 321 318 322 321 318 318 317 320 322 324 328 329 335 347 343 340 343 341 342 344 343 343 342 342 344 344 344 344 343 344 344 344 344 344 345 345 345 346 347 348 350 351 353 352 352 353 353 352 352 352 353 353 352
326 327 325 322 323 325 327 326 324 326 323 318 319 320 321 321 320 321 321 322 328 337 346 350 342 341 344 341 342 343 341 342 342 341 343 344 344 344 344 344 345 345 345 344 345 345 345 346 347 348 350 351 352 353 352 353 353 353 353 353 353 353 353
324 323 324 323 323 324 325 322 321 322 321 321 320 319 323 326 326 328 324 320 330 349 356 352 344 341 340 340 342 342 340 340 341 342 342 343 344 345 344 345 345 345 345 345 345 345 346 346 347 349 351 351 352 352 352 353 353 354 354 354 353 353 353
320 322 327 327 326 326 324 322 322 320 320 322 317 316 322 323 325 331 328 322 331 348 350 348 349 343 338 339 339 339 340 338 339 342 342 342 344 345 345 345 345 345 346 345 346 346 346 347 348 349 350 351 352 353 353 353 353 354 354 355 354 353 353
322 325 328 327 326 327 327 325 325 323 323 321 317 321 329 323 320 329 329 322 329 347 354 351 351 345 337 337 338 338 338 337 339 341 342 342 343 344 345 345 345 346 345 346 347 346 346 347 348 349 350 351 352 352 353 353 354 354 354 355 355 354 353
324 325 328 327 327 327 325 324 326 324 322 321 322 334 340 327 319 323 323 317 324 347 356 344 346 348 339 334 335 337 336 336 339 341 342 343 342 343 345 345 346 346 345 347 347 347 348 347 348 350 350 351 352 352 354 353 354 354 355 355 355 354 354
321 322 322 322 324 325 324 325 325 324 325 323 322 331 333 324 322 323 318 315 329 355 355 334 338 349 347 340 335 335 337 336 338 341 342 343 343 343 345 345 346 346 345 346 347 348 349 348 349 350 350 352 352 352 354 354 354 355 355 356 355 355 354
319 318 320 324 326 323 323 326 324 324 326 322 320 322 319 320 326 326 320 322 339 356 348 331 332 340 345 346 337 334 338 337 337 340 342 343 344 343 344 344 345 346 345 346 346 347 349 349 349 350 350 352 352 352 353 354 355 355 355 355 356 355 355
320 318 326 337 335 323 320 324 323 324 325 323 323 320 316 323 329 323 327 337 337 338 339 334 332 330 334 343 342 337 337 336 337 339 341 344 344 343 345 345 345 346 347 346 347 347 348 348 349 350 351 352 352 353 354 354 355 355 355 356 356 356 356
324 324 328 333 331 324 321 323 322 323 325 323 322 318 319 330 326 315 330 348 332 329 342 339 335 335 335 345 349 340 335 336 338 337 339 344 344 344 345 345 345 346 346 347 347 347 348 349 349 349 350 351 352 353 353 354 355 356 355 355 356 357 357
325 325 326 326 327 327 326 325 323 323 324 323 321 321 323 330 323 315 334 354 338 334 342 336 335 340 340 344 345 337 336 339 338 337 339 342 343 344 345 345 346 347 346 347 347 347 348 348 349 350 350 351 352 353 353 354 354 355 356 356 357 357 357
325 324 326 326 325 327 326 327 326 323 324 323 322 324 325 327 326 324 337 351 345 342 346 341 336 335 334 336 336 333 337 338 338 339 340 341 343 344 344 345 345 345 346 346 346 347 347 347 348 349 350 351 352 352 353 354 354 355 356 356 357 357 357
324 322 326 326 324 326 325 326 328 325 324 324 322 323 325 325 326 327 332 338 338 342 349 344 336 332 334 339 339 336 337 339 340 341 340 341 342 342 343 345 345 345 346 346 346 346 346 347 348 349 349 350 351 352 353 354 355 356 356 357 357 357 356
325 323 324 325 324 325 323 323 327 325 323 324 323 324 326 326 327 329 328 327 331 339 346 341 335 336 342 347 345 338 339 343 344 342 341 342 342 342 343 343 343 345 345 345 346 345 345 347 347 348 349 350 351 353 354 354 355 356 356 356 356 356 356
328 325 323 324 323 321 319 321 325 326 326 326 324 326 327 327 330 331 326 327 338 347 345 338 335 339 345 348 343 337 340 346 346 343 343 343 342 343 344 343 344 345 345 345 345 343 344 345 345 346 347 349 351 352 353 354 355 356 356 356 356 356 356
328 325 324 324 319 318 322 326 328 328 327 329 327 327 328 327 328 329 327 331 343 351 347 342 338 337 339 338 334 334 340 346 348 346 343 343 344 344 344 345 345 344 345 345 344 343 342 342 341 344 346 348 350 351 353 355 355 356 356 356 356 356 356
329 327 325 321 317 323 334 337 333 329 328 330 333 335 337 335 330 331 335 336 338 345 345 337 333 332 331 332 333 334 336 341 346 348 341 340 343 343 344 346 345 345 346 344 343 343 341 340 339 342 345 347 349 352 355 356 356 356 356 356 357 357 356
329 328 326 323 324 333 341 338 333 334 332 330 335 339 343 346 342 341 347 348 347 351 346 335 330 331 331 336 340 338 335 336 339 342 341 337 338 339 342 343 342 343 345 344 343 341 339 340 341 343 345 347 349 353 355 355 356 356 357 357 357 356 356
331 328 326 327 328 329 333 335 336 338 338 334 336 340 345 351 349 344 349 356 356 356 350 338 331 331 335 345 349 344 342 340 336 337 340 339 339 340 341 342 342 341 342 343 342 340 339 340 342 343 346 347 350 353 355 356 356 356 356 357 356 356 357
333 329 326 326 325 326 334 339 339 339 340 340 345 348 349 355 353 346 353 361 358 360 361 345 334 336 348 358 356 350 349 348 340 335 337 338 342 345 344 346 346 344 344 344 341 340 340 342 343 344 345 348 350 352 353 354 355 356 356 356 356 356 356
334 330 327 324 324 332 340 341 338 336 335 339 348 351 350 357 354 346 352 359 356 359 364 354 350 361 371 367 358 353 352 352 347 340 335 333 335 337 337 339 342 342 343 343 342 343 343 343 344 345 346 349 350 351 351 351 353 354 355 355 355 356 356
334 332 330 327 328 336 338 336 336 335 334 337 341 342 346 355 350 344 348 354 353 350 350 356 369 379 377 370 360 353 351 352 350 346 341 338 337 336 333 333 335 336 336 336 338 343 346 346 347 347 348 349 350 349 349 351 353 354 354 355 355 355 356
335 333 333 331 333 338 336 334 335 335 335 335 337 337 346 350 344 343 345 347 349 348 346 356 367 362 357 357 353 350 350 351 350 349 348 345 345 346 345 342 338 336 336 335 335 337 340 344 346 347 349 349 348 348 348 352 354 353 353 354 354 355 357
336 335 336 335 335 336 334 332 335 336 334 337 339 342 347 344 342 346 347 345 349 349 347 350 352 348 348 349 350 351 352 350 348 350 349 346 345 347 348 347 343 340 338 338 338 339 340 342 345 347 349 348 345 344 345 349 351 350 352 355 355 356 357
339 337 338 338 337 335 333 334 338 339 339 341 343 343 344 344 345 347 346 346 349 348 347 346 347 347 348 348 349 351 351 351 351 351 350 350 349 348 347 347 346 344 343 342 344 345 347 349 352 353 354 354 352 350 350 347 346 348 353 356 357 357 356
340 338 337 339 337 334 333 334 337 337 337 340 342 343 343 345 347 346 346 347 347 347 347 347 346 348 348 347 348 349 349 351 351 351 351 352 352 351 350 350 350 350 349 348 349 350 351 352 355 356 357 357 358 359 360 358 357 358 358 358 357 356 355
339 339 338 338 335 333 332 333 335 334 334 335 338 341 342 343 345 345 345 344 344 345 346 345 346 347 347 347 348 348 348 350 350 351 351 351 352 352 351 351 354 353 352 350 352 355 356 356 357 358 359 359 360 360 361 361 361 362 361 360 358 356 355
336 336 335 335 334 333 332 332 332 332 331 332 333 336 338 340 342 343 343 342 343 343 344 344 344 344 345 346 347 347 348 349 349 349 350 350 351 351 350 350 352 353 353 353 354 357 360 360 360 362 362 362 362 362 361 361 361 362 363 363 361 358 356
336 336 335 334 334 334 332 332 332 331 330 329 329 330 332 335 338 339 338 338 339 339 340 342 341 340 343 345 345 346 346 347 347 348 348 348 349 349 350 350 350 350 352 353 353 355 358 360 363 364 365 366 365 363 363 363 362 363 364 364 363 362 359
337 338 335 332 332 332 330 330 331 330 329 329 328 327 328 330 332 333 334 334 335 335 337 337 338 338 339 340 342 343 344 345 345 346 346 347 347 348 348 348 349 349 351 352 352 353 355 357 360 362 364 365 365 363 362 363 363 363 361 362 365 366 364
336 337 334 332 333 334 331 329 330 329 329 328 327 325 325 327 327 329 330 331 333 333 334 335 337 336 335 336 339 340 341 342 343 344 346 347 348 348 348 348 349 350 351 353 355 354 355 356 356 358 360 360 360 359 358 358 359 360 359 359 363 364 363
337 335 332 332 334 335 333 330 328 328 327 327 325 324 324 325 325 326 327 328 330 332 333 334 335 334 334 335 337 338 339 341 342 344 346 347 347 347 347 348 349 350 351 354 356 356 356 356 356 356 356 356 355 355 353 354 355 358 360 360 361 363 363
334 331 330 331 332 333 332 329 327 326 326 325 324 322 322 322 322 325 327 327 328 329 330 331 333 334 335 337 338 338 339 340 342 344 345 345 346 346 346 347 347 348 349 352 354 356 357 356 357 357 356 356 356 354 356 359 361 363 364 361 358 357 355
330 329 329 330 332 332 330 328 327 325 324 324 323 322 321 321 320 321 323 324 324 325 327 328 331 334 336 338 339 339 339 340 342 343 343 343 344 345 345 346 346 346 346 348 351 353 353 353 354 354 353 354 356 356 358 361 360 358 357 353 349 346 344
327 327 327 329 330 330 328 327 327 326 325 324 324 323 322 322 321 320 320 321 320 321 322 322 324 328 333 336 337 337 338 339 340 341 342 343 344 344 344 345 345 345 345 345 346 348 350 350 350 349 349 350 351 353 357 359 355 349 347 345 344 344 341

ECMWFFLT2_850_thetae_027.txt.gz
Theta_e
325 324 325 325 322 323 322 320 319 320 323 322 318 321 325 321 318 322 325 329 334 334 336 340 337 338 341 338 338 338 336 336 335 335 336 337 338 339 339 342 342 344 345 345 346 346 346 347 347 348 348 348 348 348 349 350 350 350 350 350 350 349 349
324 323 324 325 323 325 322 318 318 322 321 321 322 319 317 316 316 321 324 323 325 328 335 345 343 339 341 340 339 339 337 338 336 335 336 336 338 338 338 340 341 342 344 344 345 346 345 346 346 346 347 347 348 348 348 349 350 350 350 350 350 350 349
324 324 322 323 323 323 322 321 321 323 319 317 321 320 316 316 314 317 323 325 325 327 334 344 342 340 342 341 340 340 338 338 338 337 337 336 337 338 338 339 340 340 342 343 344 344 345 345 345 345 346 347 348 348 348 349 349 349 350 349 350 350 350
323 325 322 320 321 323 323 322 321 323 323 317 318 321 319 318 317 316 320 321 322 330 339 343 342 343 343 340 341 342 339 338 338 338 339 338 337 338 338 339 339 340 341 342 342 343 343 345 345 345 346 347 349 349 349 350 350 350 350 350 350 350 350
321 322 323 321 322 323 321 320 318 319 321 319 318 320 320 322 323 323 320 315 321 337 346 347 348 346 342 340 341 340 339 338 338 340 340 339 339 338 338 339 339 339 340 340 341 342 342 343 344 345 347 348 348 349 349 350 350 351 351 351 350 350 350
319 321 325 325 324 325 323 321 319 318 319 320 317 317 320 322 323 328 324 314 319 338 343 342 351 349 340 340 340 338 339 337 338 340 340 341 341 339 339 339 339 339 340 340 341 341 342 344 345 346 347 347 348 349 350 350 351 351 351 351 351 351 351
321 323 325 325 324 326 325 323 323 321 321 321 315 315 321 321 320 327 327 317 320 340 345 341 350 350 339 336 337 338 337 336 339 340 340 341 341 341 340 340 340 340 340 340 340 341 342 343 345 346 346 347 348 349 349 350 351 351 351 351 351 351 351
323 323 325 325 325 325 324 323 325 323 321 321 320 324 327 323 318 322 324 317 320 338 347 342 343 344 337 333 334 336 336 336 339 339 340 341 341 341 342 340 340 341 340 340 340 341 342 342 344 345 346 347 348 348 350 350 350 350 351 352 352 351 351
319 321 322 321 322 323 323 324 324 323 324 322 322 329 328 321 320 323 320 316 324 345 351 342 339 341 341 338 333 333 335 336 337 338 339 340 341 341 342 341 342 342 341 342 341 341 342 342 343 344 345 346 348 348 350 349 349 350 351 352 352 352 352
318 317 320 323 324 322 322 326 324 323 326 323 320 322 320 320 324 323 320 322 333 348 345 336 339 342 344 343 334 331 335 335 336 338 338 339 340 341 342 342 342 342 342 342 342 342 342 342 343 344 344 346 347 348 349 349 350 350 351 352 352 352 353
322 320 324 331 332 323 319 323 323 323 325 324 323 320 317 324 326 321 328 338 334 333 338 338 340 339 337 340 337 332 334 334 335 337 337 338 339 340 342 343 342 343 343 342 343 343 343 343 343 344 344 345 346 348 348 349 350 350 351 352 352 352 353
325 323 324 327 327 322 320 322 322 323 325 323 323 319 320 331 325 316 334 349 330 329 347 347 342 340 335 336 335 331 330 332 334 336 336 337 338 339 341 341 342 343 343 343 343 343 343 344 344 344 344 345 346 347 348 349 350 351 352 352 352 352 352
323 323 324 324 324 323 323 324 322 322 324 322 321 321 325 332 324 316 334 346 329 331 347 344 342 345 337 332 331 328 329 331 333 334 335 336 336 338 340 340 341 343 343 344 344 343 344 344 344 345 345 345 346 347 348 349 350 351 352 352 351 352 352
322 322 324 324 323 323 322 323 324 323 324 323 321 323 325 327 324 323 335 342 334 331 335 335 335 334 329 327 328 327 329 331 331 333 334 335 336 338 339 340 341 341 342 344 344 344 345 344 345 345 345 345 346 347 348 350 350 350 351 352 351 351 352
323 322 324 324 322 323 321 322 325 324 323 323 322 323 324 325 324 325 331 336 335 334 336 335 329 324 325 332 333 332 332 331 333 334 335 335 336 337 338 340 341 341 342 343 344 344 345 344 345 346 346 346 347 347 348 349 350 350 351 352 352 351 351
324 322 323 324 323 324 321 320 323 323 322 322 322 322 324 324 324 325 325 326 330 335 336 336 332 328 335 343 337 331 333 332 333 334 335 336 336 336 338 339 340 342 342 342 344 344 344 345 345 345 346 347 347 348 348 348 349 350 351 352 352 351 351
324 322 321 323 324 324 321 320 322 323 323 323 322 324 326 325 324 324 322 322 327 332 331 331 332 333 336 339 331 327 332 336 335 335 334 335 336 337 338 339 340 342 342 342 343 344 344 345 345 345 345 346 347 348 348 348 350 351 351 352 352 352 352
323 320 321 325 326 322 322 325 326 325 325 325 323 323 325 324 325 325 324 325 327 328 328 330 331 330 330 330 328 330 335 336 336 340 339 337 337 337 337 339 340 341 342 343 343 343 344 344 344 345 345 345 346 346 347 348 350 351 351 352 352 352 353
322 322 324 328 331 329 328 332 331 325 323 326 326 327 329 328 327 325 326 330 330 330 331 330 326 328 332 335 338 341 341 339 338 340 341 341 341 339 337 339 340 340 342 343 343 344 344 344 345 345 346 346 346 346 348 349 349 350 351 351 352 353 353
323 326 327 330 334 333 331 334 335 331 330 327 325 331 340 345 343 334 329 335 342 343 336 327 323 330 338 343 346 347 347 345 342 339 340 342 342 340 340 339 339 340 341 341 343 344 344 345 345 346 346 346 346 347 348 349 349 350 351 351 352 353 354
322 326 330 332 331 329 331 336 336 334 335 333 329 330 341 355 354 344 337 342 357 358 341 327 326 333 340 347 351 349 349 349 345 341 340 340 341 342 342 341 341 341 340 340 341 342 344 345 345 345 346 345 347 347 347 348 349 349 351 351 352 353 354
326 328 332 334 329 329 335 336 333 333 333 332 332 332 340 358 356 346 347 352 359 358 343 330 330 333 341 355 358 351 349 350 346 342 339 337 339 341 340 341 342 341 342 343 342 342 343 344 344 345 345 345 346 347 347 347 349 350 351 351 351 351 353
329 332 335 335 331 334 339 334 331 332 331 334 335 329 337 357 354 345 350 355 353 351 340 332 334 335 344 368 366 353 350 351 348 343 341 338 337 338 339 341 342 342 344 344 343 344 344 343 344 345 344 345 347 347 347 346 348 349 350 350 351 351 351
332 334 335 334 334 339 338 332 332 333 332 335 333 326 337 356 351 343 348 352 352 348 338 338 350 352 353 368 364 352 349 351 350 347 345 343 341 340 339 340 342 343 346 346 345 345 344 343 345 344 345 347 347 347 347 347 347 348 347 347 348 349 350
338 336 335 334 335 338 336 331 332 334 334 333 328 330 343 350 345 343 347 347 347 345 341 348 360 355 350 354 352 348 350 351 350 349 349 347 347 345 342 341 339 339 342 344 347 347 346 345 345 344 345 346 347 347 348 348 346 343 342 343 345 346 350
338 337 336 335 335 335 333 332 333 335 337 335 332 335 340 342 343 346 347 344 346 346 343 346 349 346 346 350 350 349 350 350 349 349 348 348 348 349 347 346 342 338 337 339 341 344 346 347 347 347 347 346 346 348 349 348 345 340 341 343 343 345 350
335 336 336 336 337 336 333 332 334 335 337 337 331 331 337 343 345 346 345 344 345 345 344 344 345 346 348 349 349 349 349 349 349 348 348 347 348 347 347 347 347 345 343 340 339 340 341 343 345 347 349 350 350 349 349 348 347 347 348 348 348 350 352
337 336 335 335 337 336 333 333 334 333 333 332 328 330 338 345 345 343 344 344 344 345 346 344 344 345 346 346 348 349 349 349 349 348 348 348 348 348 347 347 347 348 348 346 344 343 343 344 345 346 348 351 353 353 352 350 349 350 351 351 352 353 354
337 337 336 336 335 334 332 333 333 331 329 328 327 330 335 340 342 343 343 343 343 345 346 344 343 344 344 345 346 347 347 348 348 348 348 348 348 348 348 347 347 348 348 347 345 345 343 343 345 349 352 353 354 353 354 354 354 353 353 353 354 354 355
336 335 334 334 334 333 332 331 330 329 327 325 325 326 329 333 338 341 341 342 342 342 343 343 342 342 343 344 345 345 346 346 346 347 348 347 348 348 348 348 348 348 347 348 348 348 347 344 342 344 350 355 357 357 356 356 357 357 356 356 355 354 355
335 334 333 333 333 332 331 330 328 327 327 325 324 324 324 328 332 334 336 337 339 339 341 341 340 340 342 343 343 344 345 345 345 346 346 346 346 346 346 347 347 346 347 347 348 349 350 350 349 347 347 352 358 361 361 360 359 358 359 359 358 358 357
334 334 332 332 332 330 329 328 327 326 326 326 325 325 325 327 329 330 333 336 338 339 340 340 340 341 341 342 343 343 344 344 345 345 345 345 345 344 344 345 344 345 346 345 346 347 347 348 350 351 352 353 357 360 363 363 362 362 361 360 360 360 359
332 333 332 331 332 332 329 328 327 326 326 326 326 325 325 326 327 329 333 335 336 337 338 339 340 341 341 342 343 343 343 344 344 345 345 345 344 344 344 344 345 345 346 347 348 349 349 348 348 349 351 353 356 358 362 363 363 363 362 362 362 362 360
331 333 332 332 335 336 332 328 327 326 326 326 326 324 322 322 324 328 331 333 335 336 338 339 339 340 341 342 342 343 344 345 345 345 345 344 344 344 344 344 345 346 348 349 350 352 352 352 352 351 351 352 353 355 356 357 358 358 359 359 361 362 362
330 331 330 331 333 334 330 327 326 326 325 325 325 324 321 320 323 326 330 334 335 336 337 338 339 340 341 341 342 343 344 344 344 345 345 345 344 344 343 344 345 346 347 348 350 352 353 352 352 353 353 353 354 354 355 355 355 356 356 358 359 361 362
328 329 329 330 331 330 328 326 325 324 324 323 323 323 321 320 321 323 328 332 334 336 337 338 339 340 340 341 341 342 343 344 345 345 345 344 343 343 343 344 344 346 347 348 349 350 350 350 351 352 352 352 353 353 353 354 354 355 356 357 358 359 360
327 327 327 328 329 329 327 326 324 323 322 322 322 322 321 320 319 320 322 325 329 332 334 335 336 337 338 338 339 339 340 342 343 344 344 345 344 344 344 344 345 346 346 347 348 348 349 349 350 351 351 350 350 350 350 351 353 354 355 356 356 357 357

ECMWFFLT2_850_thetae_030.txt.gz
Theta_e
324 325 325 324 323 325 322 321 320 321 323 321 320 321 323 319 316 321 325 327 333 332 332 340 335 332 336 335 334 334 332 335 335 335 337 339 341 342 343 344 344 345 345 345 346 345 345 346 345 346 346 346 347 346 346 346 345 347 347 347 347 347 348
322 321 325 324 323 325 322 319 320 322 322 322 323 320 318 318 317 321 323 324 327 326 331 345 341 334 336 336 336 335 332 333 333 333 335 336 339 340 341 343 343 344 345 345 345 345 345 345 345 344 344 344 345 346 346 345 345 346 346 346 347 347 348
322 321 323 323 321 322 321 322 323 324 321 319 322 322 319 319 318 319 322 326 326 324 331 343 339 336 339 337 336 337 335 334 332 332 334 334 336 338 339 341 342 343 344 344 345 345 344 345 344 344 344 344 346 346 346 346 344 343 343 344 346 346 347
322 321 321 320 320 321 321 322 321 323 323 319 319 322 321 320 320 319 321 321 322 327 336 343 342 342 341 337 338 339 336 334 333 333 334 334 334 335 337 339 340 341 343 343 343 344 344 344 345 344 345 345 346 346 346 346 345 345 345 345 345 346 347
320 320 321 320 321 321 320 320 319 319 320 320 319 320 320 321 320 320 320 316 319 333 342 342 344 347 343 338 338 339 336 334 334 334 335 334 334 334 335 337 338 340 341 342 343 343 343 344 344 344 345 346 346 346 346 346 346 346 346 346 345 346 346
317 320 322 322 323 323 321 320 319 318 319 319 318 318 320 320 320 324 322 314 319 336 342 340 344 349 347 341 337 337 336 334 335 336 335 336 335 335 335 335 336 338 339 340 341 342 343 344 344 345 345 346 346 346 346 346 346 346 345 345 345 345 346
320 323 324 322 322 323 322 322 321 321 321 319 317 318 320 319 320 325 325 317 322 338 341 339 346 349 343 337 334 335 334 333 335 337 336 337 337 336 336 335 335 336 337 339 340 341 343 343 344 345 344 345 346 346 346 346 346 346 344 345 345 346 346
324 323 324 324 324 323 321 322 322 320 320 319 319 322 324 322 318 321 322 317 322 341 344 338 340 340 333 330 330 332 332 332 335 335 336 338 337 337 337 336 335 336 336 337 338 339 341 342 343 344 344 345 345 345 346 346 346 345 345 346 346 347 347
320 319 322 322 322 323 322 323 323 321 321 321 319 323 325 321 319 320 320 316 325 350 353 339 335 335 335 333 330 329 331 332 333 334 336 337 337 337 338 337 337 337 336 337 338 338 340 340 342 343 343 344 345 345 346 346 345 345 345 346 347 347 347
319 318 323 323 322 323 323 324 323 322 322 320 318 321 319 319 323 322 318 321 336 351 346 335 335 337 338 336 329 327 330 331 331 334 335 336 337 337 338 338 338 338 337 337 337 337 338 339 340 342 342 343 344 344 345 345 345 345 345 346 347 348 348
322 321 325 326 324 322 322 322 323 322 323 321 320 319 317 323 328 322 321 331 335 334 333 335 338 337 336 339 335 329 329 331 331 333 334 335 337 337 338 339 339 339 338 338 337 338 338 338 339 340 341 342 343 343 344 344 345 345 346 346 347 348 348
324 322 323 322 322 323 323 323 323 322 323 323 320 318 320 329 326 318 327 338 328 326 336 339 339 340 339 342 340 329 326 330 332 332 332 334 335 336 338 338 339 340 339 339 339 338 338 338 338 339 340 341 341 342 343 344 345 346 346 346 347 348 348
321 320 320 320 321 323 323 323 323 321 322 322 320 320 324 330 323 317 329 339 329 331 341 340 340 342 337 336 334 326 324 328 329 330 330 331 332 334 336 337 338 340 340 340 340 339 339 339 338 339 340 340 341 342 343 343 344 345 345 346 346 347 348
320 319 320 321 321 322 322 322 322 321 321 321 320 322 324 326 324 323 331 337 333 332 337 338 336 330 326 328 327 324 325 327 327 328 329 328 330 332 333 335 337 338 339 340 340 340 340 339 339 340 339 340 341 341 342 343 344 344 345 346 347 347 348
321 320 321 321 319 320 321 322 323 321 320 321 320 322 323 323 324 326 329 332 333 332 335 337 328 321 322 326 325 324 326 326 327 329 328 329 331 331 332 333 335 336 339 339 340 341 341 340 341 340 340 340 341 340 341 342 343 344 345 346 347 347 347
323 321 320 319 318 320 322 323 325 324 322 321 320 321 324 324 324 325 324 325 328 332 335 334 327 324 329 332 326 323 324 326 327 329 330 331 330 330 331 331 333 335 336 338 340 341 341 342 341 341 341 341 341 341 341 342 342 344 345 346 347 347 347
325 322 318 318 320 323 323 321 324 325 323 323 322 322 325 325 323 324 322 322 326 332 333 332 330 329 333 332 325 321 323 325 327 329 331 330 329 330 330 331 331 333 334 336 338 338 340 342 342 342 342 341 342 342 342 342 343 344 345 345 346 346 347
325 320 317 320 324 325 323 323 328 330 327 324 323 322 324 326 323 324 324 325 328 330 329 330 331 329 329 328 326 326 328 328 328 331 330 330 331 331 330 331 332 333 334 335 336 338 339 341 341 342 342 342 343 342 343 343 343 344 345 345 346 346 347
323 321 321 325 328 326 323 325 331 333 331 328 327 324 323 324 323 324 325 328 328 329 328 327 325 327 329 333 336 338 339 336 334 333 330 330 333 331 330 331 331 334 336 335 336 337 337 339 340 342 342 342 343 343 343 343 344 344 345 345 345 346 347
322 323 325 328 327 324 326 331 333 335 336 334 336 333 324 323 327 324 323 327 329 329 328 322 320 327 334 341 346 345 345 342 338 336 333 332 333 332 333 332 332 336 338 337 337 337 337 339 340 340 342 342 343 343 344 344 344 345 346 346 347 347 348
322 323 325 327 326 326 334 339 335 334 335 334 337 340 337 337 340 333 324 325 328 330 326 319 320 332 339 346 350 347 346 346 341 339 339 337 337 337 337 336 337 340 340 338 338 338 338 340 340 341 342 343 343 344 344 344 345 345 346 347 347 347 348
322 322 322 325 329 332 337 337 333 331 333 332 332 336 341 342 341 337 333 328 327 333 333 323 324 335 341 346 352 348 346 347 345 343 342 340 340 340 338 338 339 341 341 340 339 339 339 340 340 341 342 342 343 344 345 345 346 346 347 347 346 347 348
322 321 321 325 331 334 336 334 331 330 332 332 331 333 338 339 334 332 337 337 331 331 334 329 331 337 339 344 354 351 347 347 347 346 345 344 344 344 342 340 341 341 342 341 341 341 341 341 341 342 342 343 343 344 345 346 346 346 346 346 346 346 347
321 322 324 327 330 333 335 334 332 331 331 332 331 332 336 336 330 329 335 339 338 330 326 329 336 339 335 339 349 350 348 348 347 347 348 348 348 347 345 342 340 341 341 342 344 344 343 343 343 342 342 343 344 344 345 345 346 346 346 345 345 346 347
318 320 321 324 329 333 336 334 332 331 332 331 330 332 334 330 328 331 336 340 342 336 327 327 337 343 340 341 346 348 349 348 348 347 348 348 349 350 349 347 345 343 340 340 342 344 346 346 345 343 343 343 344 345 345 345 346 346 345 345 346 346 347
321 325 322 322 327 332 334 334 331 330 335 336 332 330 329 327 329 336 339 341 343 340 334 333 339 344 344 346 348 348 348 348 348 348 347 347 348 349 350 350 350 348 345 342 342 343 345 347 346 346 345 344 344 346 346 346 346 345 346 347 347 348 349
325 330 327 326 331 332 331 335 336 334 336 337 330 326 327 328 329 333 338 341 342 341 340 340 342 344 345 347 347 347 347 348 348 348 347 347 346 346 347 348 349 349 348 347 347 346 346 347 347 347 347 346 345 345 345 345 346 346 347 348 347 349 349
327 331 329 330 335 334 331 335 339 335 331 330 327 326 327 328 327 328 333 338 340 340 341 341 341 342 342 344 345 346 346 346 346 347 347 347 346 346 346 346 346 347 347 348 351 353 352 352 351 350 350 350 349 348 347 347 347 347 348 348 349 349 349
328 331 333 333 333 332 331 332 333 331 328 326 326 327 329 330 329 328 329 333 337 340 340 340 340 340 340 341 344 344 345 345 345 345 345 345 345 345 346 346 346 345 345 347 349 352 354 356 357 356 355 355 354 353 352 351 350 350 349 349 349 349 350
326 329 333 333 331 331 331 330 328 328 327 326 325 326 328 331 333 332 331 332 334 337 338 336 336 337 338 341 344 344 344 343 342 341 341 340 340 340 341 342 343 344 345 345 346 347 349 351 354 356 358 358 358 358 357 357 356 355 353 352 352 351 351
326 329 332 333 331 331 330 328 328 328 326 326 327 325 324 327 330 333 336 337 336 337 337 336 334 335 339 343 344 343 342 341 340 339 338 337 336 335 335 337 338 339 340 342 343 344 345 346 347 349 352 355 357 358 359 360 360 359 358 357 356 355 355
324 328 331 331 330 329 327 325 327 328 327 327 328 327 325 325 327 329 333 338 340 340 341 339 338 338 341 343 343 343 343 342 341 339 339 339 338 338 337 336 336 336 336 337 339 340 341 343 343 344 345 347 349 351 354 357 359 361 361 360 359 359 359
320 325 330 331 331 330 328 325 326 329 329 329 329 329 327 326 326 327 329 333 338 340 341 342 341 340 341 343 344 343 343 343 343 342 342 342 341 341 341 340 339 338 338 338 338 338 340 341 341 342 342 342 342 343 346 349 353 357 359 360 361 361 361
320 325 330 332 333 332 329 327 327 328 329 330 329 330 330 328 326 326 327 329 334 338 340 341 341 340 338 340 342 343 342 343 343 343 343 343 342 342 342 341 341 340 340 339 340 341 342 341 342 342 342 341 342 342 343 345 348 351 353 354 356 357 358
321 324 326 329 331 331 329 327 326 326 327 328 329 329 329 330 329 327 325 326 330 336 338 339 342 341 337 336 340 343 342 342 343 342 343 344 344 344 343 343 343 344 343 343 343 343 343 342 343 344 344 344 344 344 344 345 346 347 348 349 349 351 353
317 320 323 325 328 329 328 327 326 326 327 328 329 328 328 329 330 329 327 325 326 332 336 338 340 340 335 333 339 344 343 343 343 343 343 344 344 344 344 345 345 346 346 346 346 346 345 344 344 344 345 346 346 345 344 344 344 344 346 346 346 346 347
317 320 323 324 325 327 328 325 325 326 326 327 329 330 329 329 329 328 327 326 326 329 333 336 338 336 332 332 338 343 343 342 343 343 343 343 343 342 343 343 344 345 345 345 345 346 346 346 345 344 344 345 345 344 344 344 345 346 346 346 346 346 346

ECMWFFLT2_850_thetae_033.txt.gz
Theta_e
323 323 323 323 323 322 322 321 320 321 323 321 317 317 320 318 315 318 319 318 321 324 326 329 330 330 331 332 335 337 339 341 343 344 346 347 347 348 349 349 349 349 349 347 345 344 343 343 343 343 342 340 340 339 339 340 341 343 344 345 347 347 347
323 324 324 323 323 323 321 320 321 323 324 323 321 319 319 318 315 318 318 316 317 318 321 329 332 331 331 331 332 334 337 339 340 342 343 344 346 347 347 348 347 348 348 348 347 345 344 343 341 340 340 339 340 340 340 339 340 341 342 343 345 346 346
322 323 324 322 323 324 322 322 324 323 320 321 323 320 319 318 316 318 318 317 317 316 319 327 332 332 333 333 333 333 334 337 338 339 340 341 342 345 346 347 347 347 347 347 347 347 345 343 342 341 340 340 340 341 341 341 340 340 341 342 344 345 346
321 322 323 321 320 322 321 322 323 323 321 321 323 321 319 318 317 317 318 317 317 319 323 325 329 334 335 335 336 336 334 336 338 337 338 338 339 341 343 345 345 345 345 346 346 346 346 345 343 342 341 342 341 341 341 342 342 342 343 344 344 344 345
320 321 322 322 322 321 320 320 320 321 321 321 322 321 319 318 318 318 318 316 316 323 328 327 327 333 336 337 338 337 336 337 337 337 336 336 336 336 338 340 342 343 344 345 345 345 346 345 344 344 344 343 342 342 342 341 342 343 343 344 344 344 345
317 320 322 324 325 324 322 321 320 320 320 319 319 319 319 318 318 318 318 316 317 324 330 329 328 330 333 337 338 337 337 337 336 336 334 334 335 333 335 336 338 341 343 344 345 346 345 346 345 345 345 345 343 343 343 342 342 343 342 343 343 343 344
319 320 322 322 323 324 324 323 323 322 322 320 317 318 319 318 318 319 318 317 320 328 336 334 331 332 331 334 338 337 338 337 336 336 334 334 335 334 334 335 337 340 342 343 345 345 345 345 345 345 345 345 344 344 343 342 343 342 341 342 342 342 343
321 320 321 321 321 322 322 323 324 323 322 322 320 322 323 319 317 318 319 318 320 329 341 338 334 335 332 332 336 337 338 338 336 335 334 334 335 335 335 335 335 337 338 340 342 343 344 344 344 345 345 345 345 344 344 343 342 342 341 343 343 342 342
320 320 321 320 319 319 320 322 323 322 323 323 321 326 326 320 318 318 318 317 320 330 341 338 333 333 332 331 333 333 335 336 335 334 333 333 334 335 336 335 335 334 335 337 338 340 342 342 344 344 344 345 345 344 344 343 342 342 342 343 343 342 343
320 321 321 320 319 321 321 322 323 322 323 322 321 323 321 319 321 321 318 318 322 329 337 336 332 332 334 336 335 332 332 332 331 332 331 332 333 334 335 336 336 336 335 335 336 337 339 340 342 343 344 344 344 344 344 343 343 343 343 344 343 343 343
323 323 323 322 321 322 321 321 323 323 322 322 322 321 320 322 324 321 321 324 323 324 332 337 336 336 338 341 339 335 334 330 328 330 330 330 332 332 334 335 335 336 336 335 336 336 337 338 339 341 342 343 343 343 343 343 343 344 344 344 343 343 343
320 320 321 320 320 321 321 321 323 323 323 323 321 319 323 328 322 317 325 333 326 323 330 336 340 343 342 342 341 337 334 330 328 329 329 330 331 330 332 333 334 336 336 336 336 336 336 337 337 338 340 341 342 342 341 342 343 344 343 344 343 343 344
318 317 318 319 320 321 321 321 322 323 324 324 321 321 325 328 322 319 331 340 330 325 327 329 336 343 340 337 337 334 331 329 327 327 328 329 329 329 329 330 332 334 335 336 337 336 336 336 336 338 338 339 340 341 341 342 343 343 343 343 343 343 343
317 317 318 319 319 320 320 320 321 321 322 323 323 324 324 325 323 323 331 339 334 327 327 326 329 335 334 330 330 328 328 327 325 325 327 327 327 327 328 329 329 330 332 334 336 337 337 337 337 337 338 338 339 340 340 341 341 342 343 342 342 343 343
317 317 318 318 318 319 319 319 320 321 322 323 322 324 324 323 325 323 325 332 332 329 329 331 331 331 328 329 331 329 327 327 326 326 327 327 327 327 327 328 329 330 331 332 335 337 337 337 337 337 337 338 338 339 339 340 340 341 342 342 342 343 343
317 317 318 317 317 319 319 319 321 321 322 322 323 325 325 323 324 324 323 324 327 329 330 331 332 330 329 332 334 332 328 326 326 326 326 326 327 327 326 327 328 329 330 331 332 334 336 337 338 338 338 338 338 338 339 339 339 340 341 341 342 342 342
317 316 316 317 318 318 319 319 321 324 324 323 323 323 325 325 324 324 323 322 326 331 332 330 330 330 331 334 334 331 328 327 327 325 326 327 327 326 327 326 327 329 329 330 331 331 333 336 337 338 338 338 338 338 339 339 340 340 340 340 341 342 342
316 316 316 317 318 319 319 320 324 328 329 328 327 325 325 325 323 324 325 326 329 332 331 331 331 331 331 333 331 328 328 327 327 325 325 326 326 326 326 326 327 329 329 330 331 331 332 334 336 338 338 339 339 339 339 339 340 340 340 340 341 341 342
314 316 317 319 320 320 320 322 328 331 331 332 332 331 329 327 327 325 324 324 330 333 333 332 331 330 331 331 330 329 328 326 326 326 326 326 326 326 326 326 327 327 328 328 328 330 333 334 335 337 338 339 339 339 339 339 340 340 340 341 341 341 342
314 316 317 319 321 319 318 324 331 332 332 333 334 332 331 333 334 334 331 328 328 330 331 331 329 329 332 335 335 333 331 330 329 328 328 328 328 327 327 327 327 327 327 328 328 331 335 336 335 336 337 338 339 340 340 339 340 340 340 341 342 343 343
314 315 316 318 319 317 319 329 333 331 332 334 334 334 335 335 335 336 337 337 335 333 332 328 326 329 332 336 338 336 334 334 333 331 332 331 330 330 328 327 327 328 329 330 331 334 337 337 336 336 336 338 339 340 340 340 340 340 340 341 341 342 344
314 314 315 317 317 318 325 332 332 331 332 333 332 334 336 335 334 334 335 337 338 340 340 333 328 330 332 332 335 336 334 336 337 336 336 335 334 333 331 329 330 332 333 333 334 337 339 338 338 337 337 338 339 340 340 340 341 341 341 341 341 342 343
314 313 313 316 317 320 329 333 331 331 333 333 332 331 333 334 334 333 335 336 337 341 344 341 334 330 329 328 332 334 335 339 342 341 340 340 338 337 335 335 336 335 336 336 337 339 340 339 338 338 338 338 339 339 340 341 341 341 341 341 342 342 343
315 315 314 314 316 320 327 330 330 332 333 333 331 328 330 333 333 333 335 336 337 341 345 343 337 331 330 335 340 340 339 342 344 343 344 344 343 342 340 339 339 339 339 339 340 341 341 341 341 340 339 339 340 340 340 341 341 342 341 341 342 343 343
314 315 315 314 315 319 324 328 332 333 333 333 331 329 332 333 332 333 335 336 338 341 343 343 340 338 340 343 344 345 345 345 345 346 347 349 349 347 346 343 341 340 340 341 343 343 344 343 342 341 341 341 341 341 341 341 341 342 342 342 343 343 344
313 315 316 316 316 320 326 330 333 333 330 330 332 332 332 332 333 334 335 335 337 338 341 343 342 341 343 343 344 346 346 346 347 349 350 352 354 354 352 348 344 341 340 342 344 345 345 344 343 343 342 342 342 342 342 342 342 342 343 343 343 344 344
313 314 315 316 319 324 329 330 330 331 329 330 332 332 332 333 334 334 334 335 336 336 338 341 341 341 343 344 344 345 345 345 346 347 349 351 354 356 356 353 351 348 344 344 345 345 346 346 345 345 344 343 343 343 343 344 343 344 344 344 345 345 345
314 314 315 319 323 328 331 331 330 331 332 332 332 331 332 333 332 331 331 334 336 336 337 340 341 341 342 342 342 343 344 345 345 345 346 347 349 352 353 354 355 354 351 348 349 349 350 349 347 346 345 345 345 345 345 345 345 345 346 346 346 346 346
316 316 318 322 324 326 329 333 334 333 331 330 330 330 331 331 329 328 328 330 333 336 338 339 340 340 340 340 342 342 342 343 343 344 344 345 346 348 349 350 352 353 352 352 352 353 354 353 352 351 349 347 346 346 346 346 346 346 347 347 347 347 347
316 317 320 321 322 324 328 332 333 332 330 329 329 328 329 328 327 326 327 328 330 334 338 338 337 338 339 340 341 341 341 341 342 342 343 343 344 345 346 347 348 348 349 349 349 351 353 355 355 355 354 353 351 350 349 349 349 349 349 349 348 348 348
315 317 320 322 323 325 328 330 331 330 329 328 327 327 328 328 327 327 328 329 330 332 336 337 337 337 338 339 340 340 340 340 341 341 342 343 343 343 345 345 346 346 346 346 345 345 347 348 350 351 353 355 356 355 355 355 354 354 354 353 352 351 350
315 316 318 320 319 319 321 325 329 330 329 327 327 328 329 329 328 329 331 332 333 331 331 333 336 336 336 337 338 340 340 340 341 342 342 342 343 343 344 344 345 345 344 344 345 345 344 345 346 347 348 351 352 354 356 357 358 359 359 358 357 355 354
314 314 316 318 320 320 321 324 328 329 329 328 328 328 329 330 330 330 332 333 335 334 332 331 333 335 335 336 336 338 339 340 340 341 341 342 342 343 344 344 345 345 344 343 343 343 344 346 347 347 347 348 348 349 350 352 354 356 358 359 360 359 358
314 315 317 320 323 324 323 323 326 328 328 328 328 327 328 329 330 331 332 332 333 335 335 334 332 332 334 337 337 337 338 339 339 341 342 343 343 344 344 344 345 345 345 344 343 342 344 346 346 346 346 346 346 346 346 347 349 351 353 356 358 359 360
314 315 316 318 320 320 319 319 323 327 328 327 326 325 325 327 329 331 332 331 331 332 334 335 333 331 333 337 339 339 338 338 339 341 343 343 344 343 343 344 344 345 344 344 344 344 344 344 345 345 345 345 344 344 344 345 345 346 348 350 353 355 357
313 313 314 315 317 318 318 318 321 325 328 327 326 325 326 326 327 330 331 331 329 329 332 334 334 334 335 337 339 340 339 338 339 341 342 342 342 343 343 343 343 343 343 343 344 344 344 344 344 345 344 344 343 344 344 344 344 345 345 346 347 348 350
313 313 313 314 316 316 317 317 319 324 327 327 326 326 326 326 327 330 331 330 329 329 332 334 334 335 337 338 338 339 338 338 339 340 341 341 341 342 342 342 342 341 341 342 343 343 344 344 344 344 344 343 342 342 343 344 344 343 343 343 343 343 343

ECMWFFLT2_850_thetae_036.txt.gz
Theta_e
325 324 324 325 324 322 324 322 319 322 324 323 318 317 319 318 316 318 318 318 321 323 326 328 329 329 330 331 331 331 333 334 335 340 346 348 349 351 353 355 357 357 358 359 358 356 354 351 348 347 346 344 342 340 338 337 336 337 337 337 337 338 339
324 325 324 324 325 325 323 320 321 324 325 324 321 317 317 317 315 316 316 316 318 318 321 327 328 328 329 330 330 331 333 335 337 342 347 348 349 350 352 355 356 357 358 359 359 357 354 350 345 343 342 341 340 339 337 336 336 337 337 337 337 337 338
324 326 324 323 324 326 324 323 325 324 320 319 320 318 317 317 316 316 315 315 317 317 321 327 329 327 329 330 330 331 331 333 336 341 345 347 348 349 352 354 356 357 357 358 358 356 353 348 344 342 342 341 341 340 338 336 336 336 336 337 337 337 337
324 324 323 320 321 325 325 325 326 325 322 320 320 319 318 317 317 317 316 315 317 321 325 327 329 331 330 329 331 331 331 333 335 337 341 346 348 349 351 353 355 357 356 357 357 356 355 352 348 346 346 344 342 340 339 337 336 336 336 336 336 336 337
323 322 322 321 322 323 322 322 322 322 323 323 322 321 319 318 317 317 317 316 317 324 329 329 329 331 331 330 331 332 332 331 332 334 336 341 348 350 350 351 353 355 356 355 355 356 356 356 354 353 351 348 346 345 342 338 338 337 336 335 335 336 336
320 321 324 325 325 325 323 323 322 322 322 321 320 321 320 318 317 317 317 316 318 325 329 329 329 329 329 330 330 331 332 332 332 334 335 339 347 349 350 351 351 353 355 355 355 356 356 355 356 356 354 352 351 349 345 341 341 340 338 337 335 335 336
322 325 326 325 325 327 326 325 325 325 324 321 318 318 320 320 318 318 317 316 321 327 330 329 329 329 328 329 330 330 331 332 332 333 335 340 347 349 348 348 349 350 353 354 353 354 355 355 355 355 355 354 354 351 349 348 346 342 340 340 338 336 336
324 325 325 326 326 326 325 324 325 325 324 323 322 322 323 321 318 318 317 316 321 329 331 329 329 329 329 329 331 330 331 332 332 334 336 340 345 348 346 344 345 347 349 352 353 353 353 352 353 355 355 354 353 352 352 352 348 342 341 343 342 339 338
322 321 322 323 324 325 325 325 326 326 326 326 324 324 323 321 319 319 317 316 321 329 334 333 330 330 329 329 330 330 331 332 330 333 340 345 348 349 346 344 343 343 345 349 351 351 351 350 351 353 354 354 353 352 352 352 350 346 344 346 345 341 338
319 319 320 320 322 323 324 325 326 326 325 325 323 321 319 319 321 322 319 317 322 330 334 332 330 329 329 330 331 330 331 332 334 338 345 348 346 341 341 344 344 343 345 346 347 347 348 349 351 352 352 353 353 352 352 351 351 351 350 350 348 343 340
323 323 325 325 325 323 320 322 325 325 326 326 324 320 318 321 322 320 321 323 323 327 330 329 330 330 329 331 331 330 331 334 339 342 343 345 342 336 336 342 343 342 341 341 340 341 344 350 351 351 351 352 352 353 353 352 352 353 353 353 350 347 345
325 325 326 325 325 324 321 321 323 324 326 326 323 320 320 325 322 318 324 329 324 325 329 330 330 331 330 331 330 330 333 335 338 341 339 340 343 341 336 335 336 336 336 336 337 338 342 348 351 351 351 351 351 351 352 353 353 353 354 354 352 349 347
322 323 323 323 324 325 324 324 323 323 324 324 323 322 324 326 322 320 327 330 326 328 331 330 330 331 331 331 331 331 333 332 334 338 336 335 341 343 338 331 330 330 331 333 334 335 339 344 348 350 350 351 350 350 351 352 353 353 354 354 352 350 349
321 321 322 323 323 324 324 325 325 325 325 324 323 324 325 326 325 325 329 330 329 330 330 329 330 330 329 329 329 330 331 330 330 334 335 332 332 337 339 339 336 330 329 330 331 333 335 338 343 347 350 350 350 349 350 351 352 352 353 354 352 350 348
320 321 321 322 322 323 322 323 324 324 325 325 325 325 326 326 326 327 328 328 328 329 330 331 330 330 331 330 330 330 329 330 329 329 332 332 331 332 337 343 341 332 328 328 327 330 332 333 337 342 345 347 348 349 351 351 351 351 352 353 351 348 347
320 320 320 321 321 321 320 321 323 323 323 323 324 325 326 326 326 326 325 325 327 329 329 330 331 331 330 330 330 329 329 329 330 329 331 333 335 332 332 338 339 332 329 329 327 327 329 330 334 336 339 343 345 347 349 351 351 351 352 353 350 347 346
319 319 320 319 320 320 319 321 323 324 324 325 324 325 326 326 326 325 324 324 328 330 329 329 330 329 329 330 330 330 330 330 330 331 332 331 332 332 330 336 339 333 331 332 329 326 328 330 331 334 336 340 341 342 346 351 352 352 352 352 350 349 347
320 319 319 319 319 319 321 324 326 325 324 325 324 324 325 326 326 326 326 327 329 330 329 329 330 330 330 329 329 329 329 332 333 333 333 333 334 333 331 333 338 333 329 329 328 327 328 331 334 336 336 336 337 339 344 349 350 351 352 354 352 350 349
319 318 319 319 320 320 323 327 328 327 327 328 328 329 329 328 327 327 327 328 329 329 329 330 330 330 330 329 331 333 331 333 337 336 334 332 333 334 335 337 338 333 327 326 327 326 328 330 334 337 336 337 341 342 343 345 345 346 349 353 353 350 347
318 319 318 320 321 321 323 327 328 328 330 330 328 327 327 328 329 330 331 331 330 329 330 329 328 329 331 332 334 335 332 334 338 335 332 332 335 338 340 339 337 331 327 327 326 326 328 328 331 336 339 342 344 345 346 346 345 345 346 348 349 347 344
318 318 318 319 321 320 321 327 330 331 331 332 330 327 329 333 335 336 337 336 334 333 333 336 337 336 335 333 331 331 329 333 337 335 334 337 340 340 337 332 330 328 326 327 327 327 329 329 330 337 343 345 345 345 347 348 347 347 346 344 343 343 342
317 318 318 319 319 319 322 327 332 333 332 333 334 331 332 338 339 339 340 339 339 340 341 344 346 342 336 332 331 332 331 333 339 342 343 342 342 341 336 331 331 333 330 330 330 330 331 332 333 336 342 345 346 346 347 348 349 350 347 342 340 340 340
315 316 317 318 318 320 326 330 331 331 331 333 332 326 328 338 341 340 341 341 342 344 345 347 349 344 335 329 335 347 349 347 349 351 351 351 348 344 342 340 339 337 334 332 333 333 333 334 335 337 341 344 346 347 346 347 350 350 345 339 339 340 340
315 316 317 317 317 320 327 330 329 329 331 334 331 324 327 338 341 339 341 342 342 345 346 346 347 344 339 337 344 352 352 352 352 351 350 349 347 346 349 349 343 338 338 339 341 341 339 337 338 338 340 341 344 347 348 347 348 349 345 342 342 341 341
314 315 316 317 317 319 323 325 328 330 329 328 326 325 330 337 338 339 342 342 342 344 344 344 346 347 347 347 347 348 349 350 352 351 349 349 349 350 351 350 344 344 349 349 348 347 342 338 340 341 341 342 346 347 347 346 348 350 350 348 345 342 340
314 314 315 315 316 319 321 321 323 327 324 322 326 331 335 338 338 340 342 342 343 344 343 344 345 345 346 346 345 347 348 349 351 352 351 352 354 353 351 349 348 351 353 353 351 350 345 341 341 342 342 345 347 346 343 342 343 348 352 350 345 341 341
314 314 315 314 315 320 325 324 323 324 322 325 332 336 336 337 339 340 341 342 343 342 341 343 343 343 344 345 345 346 346 348 351 351 351 352 353 352 352 351 351 354 355 353 351 349 346 343 343 342 344 347 348 347 345 341 343 349 351 348 343 341 342
315 314 314 316 319 322 325 325 327 330 329 331 336 337 335 338 340 339 340 342 341 340 340 341 342 343 344 344 344 345 345 347 349 350 350 351 351 352 352 352 352 354 356 355 352 349 346 344 343 343 344 346 347 349 348 344 345 349 349 345 343 342 343
316 316 316 318 320 321 322 324 328 331 332 332 334 336 336 338 338 338 339 340 339 338 339 341 341 342 343 342 343 344 345 346 347 348 349 349 350 351 351 351 352 353 355 356 354 353 350 347 344 343 344 345 346 347 346 343 342 345 344 343 343 344 344
316 317 317 318 319 319 321 323 326 327 329 332 333 334 336 337 337 337 338 338 338 337 338 340 342 342 342 342 343 343 344 345 345 346 347 348 348 349 350 351 351 352 353 354 354 354 353 351 349 346 343 344 344 344 344 344 344 345 344 345 345 345 345
314 316 317 318 319 320 321 322 323 324 327 331 332 332 334 335 336 336 337 337 337 336 336 338 340 340 340 341 342 343 343 344 344 345 346 346 347 348 348 350 351 351 352 352 353 354 354 354 354 353 350 349 348 346 346 346 345 346 346 346 347 347 347
314 315 316 317 318 318 318 319 320 321 326 329 330 330 332 333 334 336 336 336 336 336 335 336 337 338 338 338 340 342 343 343 344 344 345 345 346 347 348 349 350 350 351 351 351 352 352 353 354 355 354 355 354 354 353 352 354 355 353 350 351 351 351
313 314 315 316 316 317 317 317 319 322 325 326 327 328 330 332 333 335 336 336 336 336 336 335 336 337 336 336 338 340 341 342 343 343 344 344 345 346 347 347 348 349 349 349 349 350 350 350 351 352 352 353 355 356 357 358 360 361 359 357 358 358 358
313 313 315 317 318 318 319 320 322 323 323 323 325 327 329 331 332 334 336 337 335 335 335 335 335 335 335 336 337 338 339 340 341 342 343 344 344 345 345 346 346 347 347 348 348 348 348 348 349 349 349 350 351 352 354 356 359 361 360 360 360 360 360
313 313 314 316 316 317 318 319 320 320 320 322 323 325 327 329 330 332 335 337 336 335 335 335 336 336 336 336 337 338 338 338 339 341 341 342 343 344 344 345 345 345 345 346 347 347 348 348 348 347 347 348 348 348 349 351 354 356 357 358 359 359 359
313 313 314 314 314 315 315 316 317 318 319 321 321 322 325 328 329 331 333 334 335 335 335 336 337 337 336 336 338 338 338 338 339 340 341 342 343 343 343 343 344 344 345 345 345 346 347 347 347 347 347 347 348 347 347 347 348 350 351 353 356 357 357
313 313 313 313 313 314 315 315 316 317 317 319 320 321 325 328 329 331 331 331 333 335 335 335 336 336 336 337 338 339 339 338 339 339 340 341 342 342 342 343 343 344 344 344 345 345 346 346 346 346 347 347 347 346 345 345 346 346 347 349 350 350 351

ECMWFFLT2_850_thetae_039.txt.gz
Theta_e
329 328 328 328 326 324 325 324 320 323 327 325 319 319 321 319 317 319 319 319 322 326 328 331 331 332 333 333 334 334 337 339 336 339 345 343 339 343 346 352 357 359 360 362 363 362 363 364 364 362 360 357 357 357 353 347 341 338 337 337 337 337 336
328 329 328 327 328 327 325 321 322 326 327 326 323 319 320 320 318 319 319 318 319 320 323 329 332 331 331 332 332 333 335 337 336 336 341 343 341 341 344 351 357 359 360 362 363 362 363 364 364 363 361 356 353 353 351 347 343 340 338 336 337 337 336
327 329 327 325 326 329 327 324 326 325 320 319 320 319 318 318 317 318 318 318 319 319 322 328 332 331 330 333 332 332 333 333 335 335 336 342 342 341 343 348 355 360 360 361 363 363 363 363 364 365 363 361 358 353 350 347 342 338 337 336 337 337 336
325 327 326 322 322 326 327 328 328 326 322 320 320 320 319 317 317 318 317 316 318 322 327 330 332 333 332 332 333 333 333 333 336 335 335 338 340 341 342 345 352 359 359 360 362 362 362 364 364 365 364 364 362 358 352 349 344 340 339 337 336 336 336
324 323 324 323 322 324 323 323 323 323 323 322 321 321 320 318 317 318 318 316 317 324 330 331 333 334 332 331 333 333 333 334 334 337 337 339 341 341 341 344 350 357 360 359 361 362 362 363 364 365 364 364 364 362 358 353 349 345 342 339 336 336 336
321 322 326 327 326 326 324 323 323 323 323 321 319 319 319 319 317 318 318 317 319 328 332 332 333 334 333 332 334 333 333 333 334 335 338 341 343 344 344 346 351 356 360 359 359 361 361 361 363 364 364 364 363 364 361 357 355 349 343 340 336 335 336
324 327 328 327 326 327 327 325 326 327 325 321 317 317 318 319 318 318 318 317 320 330 334 332 332 333 332 333 333 333 334 333 333 336 336 338 342 344 344 346 347 351 357 359 358 361 362 361 363 363 364 364 363 364 362 361 360 354 348 345 340 335 336
327 328 327 328 328 327 326 325 326 327 326 324 323 322 323 320 318 317 317 316 321 330 333 331 331 330 330 332 333 333 333 332 333 334 335 338 340 345 346 346 346 348 353 358 358 360 362 360 362 363 363 363 362 362 362 361 361 357 355 354 349 339 333
322 323 324 324 325 325 325 326 327 327 328 328 326 326 327 322 319 320 317 316 321 330 334 332 330 330 330 331 332 332 332 334 333 334 336 340 343 347 347 345 345 348 353 358 357 358 361 360 360 362 363 363 362 361 362 360 359 359 358 358 357 347 334
319 319 320 320 322 324 325 326 327 327 328 327 325 323 322 320 322 323 318 317 324 333 335 332 332 332 330 331 331 332 332 333 337 340 341 343 347 350 348 345 346 348 353 357 359 359 360 360 360 361 362 362 361 361 361 360 359 360 359 358 360 355 343
322 323 326 327 327 323 321 324 326 326 327 328 326 322 319 320 322 321 322 324 326 331 335 333 332 331 331 331 333 333 333 335 338 339 338 342 349 351 350 349 349 348 350 355 359 360 359 359 360 359 360 361 360 360 360 360 359 360 360 359 361 359 352
328 331 331 330 329 325 323 323 325 326 328 327 326 321 322 325 322 318 326 331 327 328 333 333 331 331 333 333 333 333 335 336 336 336 336 340 347 349 350 351 349 348 347 350 356 360 357 356 358 358 359 360 359 360 360 359 359 358 360 360 360 362 359
329 332 329 328 329 327 327 326 325 326 327 325 324 324 326 328 322 320 329 334 329 330 333 332 332 334 334 333 333 333 335 336 334 334 333 336 340 344 348 350 349 346 343 342 348 356 357 354 356 356 356 357 358 359 359 359 359 357 358 360 360 362 362
328 331 329 328 329 327 328 328 327 327 327 326 326 326 328 330 327 327 333 333 332 332 333 333 332 334 332 332 333 332 333 333 332 333 334 332 335 339 344 350 350 350 348 341 338 346 353 354 357 357 356 355 356 357 358 358 358 357 357 359 360 361 361
326 328 328 328 327 327 327 327 327 327 327 327 327 327 328 328 327 329 332 332 332 334 333 334 334 334 334 333 333 332 332 333 332 332 332 331 333 336 338 343 348 353 357 354 344 338 341 346 352 356 356 357 355 355 356 356 357 356 356 358 360 361 362
324 325 326 326 327 327 324 324 327 328 326 326 326 327 328 327 327 328 327 327 331 334 333 333 333 334 334 334 334 334 333 331 332 332 332 333 333 335 333 334 339 343 351 357 354 348 345 346 348 349 352 356 355 354 355 355 355 356 355 357 360 360 361
322 324 325 324 324 324 322 323 327 328 327 328 328 329 330 329 328 327 326 327 332 335 333 333 333 333 333 333 334 333 332 332 333 332 332 333 332 333 334 334 335 335 339 348 352 352 352 353 352 348 347 350 354 355 354 354 354 355 354 356 358 360 361
321 323 324 324 322 321 323 327 329 328 328 328 327 328 328 329 329 329 330 331 333 333 333 332 332 332 332 333 332 333 332 333 333 333 333 334 335 335 335 333 334 334 336 343 345 342 344 349 352 353 350 348 351 353 353 353 354 355 354 355 356 359 360
321 322 323 321 320 322 325 327 328 328 327 328 328 329 328 329 329 329 330 331 332 333 332 333 334 333 333 332 331 332 332 332 334 334 335 335 334 335 334 333 341 347 347 348 350 347 345 344 346 349 352 351 351 352 353 353 354 354 355 355 355 359 360
322 322 321 321 323 324 326 328 329 330 329 328 327 327 327 328 328 328 329 329 329 331 331 332 332 332 332 332 332 333 333 333 333 333 333 334 334 333 333 338 350 357 352 347 349 347 342 342 344 344 347 351 351 351 352 352 353 353 355 356 356 357 359
322 321 319 321 323 324 326 329 330 330 330 328 327 325 327 329 329 329 331 331 331 331 332 331 333 333 335 336 335 332 330 329 332 332 330 330 332 334 339 346 352 352 347 345 344 337 331 334 340 341 343 347 349 351 351 352 353 354 354 356 355 356 359
321 320 319 321 321 321 324 328 331 332 331 331 330 328 328 331 331 331 333 334 335 334 334 335 337 339 340 336 332 334 337 338 342 346 342 338 342 347 351 352 353 353 355 357 352 341 333 334 339 342 342 344 348 350 351 352 353 353 355 356 354 353 357
319 318 319 320 320 322 327 330 330 331 331 333 333 327 327 332 335 335 334 334 335 336 338 341 344 340 335 329 333 346 350 349 353 356 355 352 353 353 352 354 359 359 354 349 343 337 336 339 342 344 345 347 348 351 351 352 352 353 354 355 354 353 355
319 318 318 319 320 324 330 330 329 329 330 332 328 322 326 336 340 339 338 337 339 343 346 347 344 337 331 332 343 351 351 351 354 356 355 355 354 353 353 356 359 357 352 349 350 352 353 354 353 353 352 351 349 351 352 351 352 353 353 354 355 355 355
317 318 318 318 321 325 328 329 330 330 328 329 327 325 332 340 340 339 339 340 341 344 347 346 343 341 341 344 347 348 348 351 353 354 354 354 354 356 358 356 353 352 357 362 363 362 361 357 353 353 354 354 351 352 353 352 351 353 354 354 355 356 356
316 317 318 318 320 325 327 327 328 327 326 328 329 332 337 339 337 338 339 338 341 345 344 345 345 344 345 346 346 348 349 350 350 351 353 355 355 355 357 357 354 355 362 365 363 363 363 359 355 354 354 354 354 353 353 354 353 352 354 356 357 359 360
315 316 317 318 320 325 327 325 326 328 330 331 333 334 337 336 336 337 338 339 343 345 344 345 345 345 346 346 346 348 349 349 349 350 353 355 355 354 356 358 356 356 361 364 364 364 362 360 360 360 357 356 356 356 355 357 355 353 354 357 357 360 364
315 315 317 320 322 325 325 325 327 330 331 332 334 334 334 334 336 337 339 341 344 344 344 345 344 345 346 347 347 348 348 347 349 350 352 354 354 353 356 357 355 355 360 363 363 361 358 354 353 357 361 360 358 357 359 359 358 356 355 358 360 362 363
319 318 319 321 323 323 323 325 326 328 328 331 333 334 334 335 337 338 339 341 342 342 343 343 343 345 346 346 346 346 346 347 348 349 350 351 352 353 355 355 353 355 358 360 358 358 358 354 349 354 363 365 362 363 364 363 362 360 357 360 365 366 365
319 319 319 320 322 323 322 322 324 324 325 327 331 333 334 335 336 337 338 340 341 341 341 341 343 344 344 344 344 345 346 347 347 348 349 350 351 352 353 353 353 354 356 356 355 356 358 356 355 356 362 364 365 365 363 362 363 363 364 367 368 367 367
317 318 319 320 320 321 320 321 321 323 323 325 329 331 332 333 334 335 337 339 339 340 340 341 341 342 342 343 343 344 346 346 347 348 348 349 350 350 351 352 352 353 354 354 354 355 356 357 358 358 359 361 363 362 360 360 360 359 360 365 367 365 366
317 317 318 318 318 318 319 319 320 321 321 323 328 329 330 331 332 334 335 337 338 340 340 340 340 341 341 341 341 343 345 345 347 347 348 349 349 350 351 351 352 353 353 353 354 355 355 356 356 356 357 359 360 360 361 363 363 358 355 361 365 365 364
315 315 317 317 317 317 317 317 318 320 323 325 326 326 327 329 331 332 333 335 337 339 339 339 340 340 340 340 341 342 342 343 345 346 347 348 349 349 350 350 350 351 352 352 352 353 353 353 353 354 355 356 357 359 360 362 365 364 360 360 364 365 364
314 315 316 316 316 317 317 318 319 322 323 323 323 324 325 327 328 330 332 334 336 338 339 339 340 340 340 340 340 340 341 342 342 343 345 346 347 348 348 348 349 350 350 351 351 351 351 351 351 352 353 353 355 356 358 361 363 365 364 363 364 364 364
314 315 315 316 316 317 317 318 319 319 320 321 322 323 324 325 326 328 330 333 335 337 339 339 339 339 340 340 340 341 341 341 342 342 343 345 346 347 347 347 348 349 349 349 350 350 350 350 350 350 351 352 352 352 355 358 360 362 363 363 363 362 362
314 314 314 315 315 316 316 316 317 318 318 319 320 321 322 323 324 326 329 332 334 335 337 339 339 340 339 340 341 341 341 341 342 343 344 345 346 345 346 347 347 347 347 347 348 349 349 349 349 350 349 350 350 351 352 354 356 358 359 359 359 360 360
314 314 314 315 315 315 316 316 316 317 317 318 319 320 320 321 322 324 327 331 333 334 336 338 339 339 340 341 341 341 341 342 343 343 343 344 344 345 346 346 347 346 347 347 348 348 348 348 348 348 348 349 349 349 350 351 352 354 355 356 356 356 356

ECMWFFLT2_850_thetae_042.txt.gz
Theta_e
331 330 329 331 328 325 325 324 321 322 326 326 319 318 319 318 315 317 318 318 322 325 327 331 332 332 334 333 335 336 338 345 346 346 347 342 342 346 347 348 350 350 351 351 351 351 353 358 361 362 362 360 359 358 356 352 347 341 337 338 338 337 336
330 332 330 331 330 328 324 320 321 326 327 326 322 319 319 318 316 317 317 317 318 319 321 329 331 331 333 334 334 333 335 340 343 345 347 345 343 343 346 349 350 350 352 352 352 353 354 358 362 362 361 360 359 358 357 355 350 343 338 336 337 336 335
330 331 330 328 329 330 328 325 327 325 320 320 322 319 318 318 318 318 318 318 318 318 321 327 330 331 332 333 334 334 334 337 338 342 347 346 343 342 345 348 348 348 350 353 356 355 356 360 363 363 362 361 360 360 359 356 348 342 338 337 336 337 336
329 330 328 324 325 328 328 328 329 326 322 320 321 320 319 319 318 319 319 318 318 322 327 330 331 332 332 333 336 335 333 335 337 340 345 347 345 343 343 346 348 346 345 350 356 356 353 359 364 364 362 363 362 363 364 360 353 346 342 339 337 338 337
326 326 327 326 326 326 326 324 324 324 323 323 323 322 320 319 319 319 320 318 319 326 333 334 334 335 334 333 335 336 335 334 336 339 345 347 345 342 341 344 348 348 348 350 355 356 354 357 363 365 363 363 363 365 367 364 360 353 347 343 339 338 337
323 324 329 329 329 328 325 324 323 323 323 321 319 319 319 319 319 319 319 317 320 328 335 335 335 336 335 333 334 334 335 334 334 338 344 345 342 340 342 344 347 348 349 350 351 351 353 356 362 364 364 363 363 365 368 367 365 360 352 347 341 338 336
326 328 330 329 329 329 328 327 327 329 325 321 316 316 319 319 318 319 319 317 322 332 337 335 334 337 334 334 334 334 333 334 334 335 337 343 342 339 341 344 346 347 346 346 345 346 349 354 361 364 364 364 364 365 367 368 368 364 357 350 346 341 339
330 329 329 329 330 329 328 326 328 328 326 324 322 322 322 319 317 318 317 316 323 332 338 335 334 336 333 333 334 334 334 333 334 334 336 342 344 339 341 344 344 346 346 348 349 349 352 356 362 366 365 364 364 364 366 367 368 367 362 357 352 345 342
327 325 324 326 327 328 327 326 328 328 329 329 326 326 326 321 319 319 317 316 321 332 338 336 333 334 333 333 333 334 333 333 333 334 337 342 343 340 340 343 345 347 350 352 354 354 357 360 363 366 365 365 365 365 366 367 368 368 367 364 359 352 344
322 320 319 321 323 325 327 328 328 327 329 328 325 323 321 319 322 323 318 316 323 333 337 334 331 332 332 334 334 334 337 338 340 345 344 344 343 341 341 343 343 344 345 349 350 353 359 362 364 364 365 366 365 365 365 366 366 368 367 366 364 358 350
324 324 325 327 327 325 323 324 327 327 328 328 327 322 319 322 324 322 324 325 326 329 334 334 331 331 333 333 333 336 342 343 345 349 349 347 346 343 342 344 343 341 343 347 350 352 357 362 362 364 366 365 365 365 366 365 366 367 367 365 364 362 357
329 333 333 332 331 326 323 324 325 325 327 327 326 321 322 329 324 319 332 340 329 328 336 336 333 334 336 335 334 338 342 340 340 345 346 346 347 346 346 346 345 343 344 350 355 356 359 362 362 363 364 365 365 365 365 365 364 365 365 364 362 363 362
330 334 334 332 332 329 328 327 325 325 327 325 325 324 327 332 326 323 338 344 333 332 335 333 333 337 335 335 334 337 339 337 337 342 343 343 346 348 348 349 346 344 347 354 358 359 362 363 362 363 363 364 365 364 364 365 365 364 364 363 363 362 362
328 330 332 332 332 331 330 329 327 327 327 326 326 327 329 331 330 330 337 339 335 334 334 331 333 334 333 335 336 335 337 336 335 338 340 341 342 344 346 347 346 345 352 357 358 359 362 362 361 361 362 363 364 363 364 364 364 363 363 362 362 361 361
326 328 331 331 331 330 329 329 328 328 327 327 327 328 328 330 331 330 333 336 336 336 335 334 334 335 335 336 337 336 336 336 335 335 337 339 340 342 342 341 338 339 345 352 356 358 359 360 361 361 359 361 363 363 363 363 363 363 362 362 360 360 360
324 327 329 329 331 330 327 327 328 326 326 327 326 328 329 329 329 330 329 330 334 335 335 335 334 335 336 335 337 337 334 333 334 332 333 335 338 342 346 346 344 343 342 341 342 347 349 352 356 359 359 359 360 361 361 361 361 361 361 362 361 359 360
323 327 328 328 328 326 324 326 329 329 329 329 328 329 330 330 330 329 327 328 336 339 337 335 334 335 336 336 336 335 333 333 334 333 334 335 334 337 343 348 349 349 352 351 347 349 351 352 352 354 357 358 358 359 359 359 360 361 360 361 361 361 360
323 325 327 327 325 323 324 329 331 331 331 330 328 328 329 330 331 330 331 335 340 339 336 336 336 335 336 336 335 334 335 333 332 333 333 332 334 336 335 338 340 342 348 355 354 351 354 355 354 352 354 357 358 357 356 357 359 359 359 359 359 361 360
323 324 325 325 322 324 328 331 331 332 331 330 332 330 330 330 330 331 333 335 338 338 336 336 336 336 335 335 335 334 333 333 333 334 333 333 335 336 333 337 345 346 345 348 350 351 349 349 354 357 355 354 357 357 356 356 356 357 358 358 358 360 360
323 323 323 323 325 328 330 332 331 331 331 331 330 329 331 331 330 331 333 335 336 337 335 335 335 334 334 334 333 333 333 334 333 333 335 336 333 332 337 345 352 352 348 346 347 347 345 341 344 352 355 355 355 355 355 355 354 357 357 356 357 358 359
323 322 321 323 325 326 327 330 331 330 331 331 329 327 330 332 332 333 334 334 334 333 333 335 334 334 334 334 333 333 332 333 333 337 345 348 343 342 346 351 354 352 349 349 348 347 347 345 344 345 348 351 353 353 354 355 355 355 356 356 355 356 358
323 322 322 323 322 322 325 329 330 330 330 330 331 328 328 331 332 331 332 334 333 332 332 333 333 334 334 335 336 339 341 344 349 351 354 355 353 353 355 357 359 354 348 350 352 349 348 348 349 347 345 345 350 352 352 354 354 354 354 355 355 355 356
321 321 322 323 321 323 328 329 330 330 330 332 332 326 326 333 334 331 331 332 333 336 337 337 338 338 336 337 343 346 348 353 356 354 356 356 356 356 360 362 360 350 345 348 348 345 349 353 354 354 349 343 344 349 352 351 353 354 354 354 356 356 355
320 320 321 323 324 327 331 330 330 330 331 334 330 324 328 341 342 337 337 334 335 342 345 343 342 341 339 342 348 349 349 353 353 352 354 356 355 358 359 359 355 344 344 357 359 357 363 366 363 362 359 351 346 345 350 352 351 353 353 353 355 356 356
319 319 320 322 327 327 329 330 332 332 330 330 328 328 334 342 342 339 340 341 342 345 346 344 343 343 344 346 347 348 350 352 351 351 352 354 356 356 354 356 356 348 350 363 363 359 363 366 363 363 361 357 352 347 348 352 352 352 353 353 352 355 355
318 320 319 321 327 328 327 328 332 331 330 332 332 334 338 339 339 341 342 343 345 345 345 345 345 345 345 347 348 349 350 350 349 350 353 355 357 354 350 356 359 355 355 364 365 363 366 365 364 365 362 358 357 352 348 352 352 351 353 353 352 355 355
318 319 318 321 329 331 327 329 333 333 334 335 336 336 337 338 340 341 341 343 344 344 344 344 344 345 346 348 349 349 349 349 349 350 352 354 355 354 352 357 359 355 357 364 366 365 364 361 359 361 363 362 360 356 352 353 354 353 353 354 355 354 354
317 318 319 323 327 328 325 329 332 331 331 334 335 335 337 338 338 338 340 341 341 342 343 342 343 345 346 346 347 348 348 348 349 351 352 352 353 353 354 357 357 354 357 363 363 362 362 360 354 350 356 363 362 359 357 357 356 356 355 355 356 356 354
319 320 321 322 324 324 323 326 327 326 327 330 332 334 335 336 336 337 339 339 340 341 341 341 342 344 343 344 344 345 346 347 348 349 350 351 352 353 353 355 355 353 356 360 360 358 360 362 357 352 358 365 365 362 362 360 358 357 356 356 359 357 355
319 319 320 321 322 323 322 322 323 324 325 326 329 332 333 333 334 335 337 338 339 340 340 340 341 342 342 343 343 344 345 347 348 349 350 351 351 351 352 354 353 352 355 357 357 357 359 361 361 360 364 368 367 367 367 364 362 360 357 359 361 360 360
318 319 320 320 321 322 321 321 322 323 323 325 328 330 329 330 332 333 334 336 337 339 339 340 340 341 341 342 342 343 345 345 347 348 349 350 351 351 352 353 353 353 355 356 355 357 358 358 359 360 363 365 365 366 366 365 364 361 359 363 365 364 365
318 318 320 319 319 319 319 319 320 321 323 325 327 326 326 328 329 330 331 334 336 338 339 340 340 340 341 341 342 343 344 344 345 346 347 349 350 351 351 351 351 354 355 355 356 356 356 355 356 358 359 359 361 363 364 365 365 363 363 367 369 367 367
316 317 318 318 318 318 318 318 319 321 323 324 323 324 324 326 327 328 329 331 334 336 338 340 340 340 341 341 342 342 343 344 344 344 345 347 348 349 350 349 349 351 354 354 354 354 354 354 354 356 356 356 358 361 362 364 366 366 364 365 368 367 367
316 317 317 318 318 318 318 318 319 320 322 322 321 322 324 324 325 326 327 329 331 333 337 339 340 341 341 342 342 342 343 343 343 343 344 345 347 349 349 349 349 351 352 353 354 353 353 352 353 354 354 354 355 357 359 362 366 367 364 364 365 366 365
316 316 316 316 317 317 317 318 318 319 320 320 320 321 322 323 324 324 325 326 328 330 334 337 339 341 341 341 342 343 343 343 343 344 345 345 347 348 348 348 350 351 351 352 352 352 351 352 352 352 352 352 354 356 358 361 364 366 365 366 367 366 365
315 315 315 316 316 316 316 317 317 318 318 319 320 320 321 321 322 323 324 325 325 327 331 335 338 339 341 342 342 343 343 343 343 345 345 346 347 347 348 348 349 349 350 351 351 351 351 351 351 350 350 350 352 354 357 359 361 363 364 366 366 366 365
315 315 315 315 316 316 316 317 317 317 317 318 319 319 319 320 320 321 322 323 323 324 328 334 337 339 340 342 342 343 343 343 343 345 345 345 346 347 348 348 348 349 349 349 349 350 350 351 350 349 349 348 349 351 355 357 358 361 363 363 362 362 363

ECMWFFLT2_850_thetae_045.txt.gz
Theta_e
329 328 328 329 328 325 325 324 321 324 327 325 321 320 322 320 320 322 320 320 325 327 330 333 333 334 332 333 334 335 341 346 344 345 349 350 350 351 350 351 351 353 353 352 352 352 353 355 356 356 357 357 358 358 358 358 356 353 350 348 345 340 337
328 330 329 329 330 328 324 321 322 327 329 325 322 321 322 321 319 320 319 318 322 321 323 330 332 332 332 334 334 334 339 343 344 345 348 349 350 349 350 351 350 351 352 352 352 352 352 352 353 354 355 356 357 358 358 358 357 356 352 349 347 343 339
328 330 329 327 329 331 327 324 327 327 322 320 321 320 320 322 320 319 319 319 319 320 322 328 329 329 331 335 334 332 338 342 343 347 348 348 349 348 350 351 351 351 352 351 352 352 351 351 351 353 355 355 357 357 358 359 358 357 354 350 349 347 344
329 329 328 324 324 329 330 327 328 327 322 322 323 320 320 322 322 321 321 319 320 326 329 328 329 329 330 336 339 336 338 342 344 346 348 348 346 348 348 350 350 351 351 351 352 351 351 352 352 353 354 355 356 358 359 359 359 358 356 354 351 350 348
326 325 327 326 325 327 326 325 323 323 324 324 324 322 321 322 323 324 324 321 324 334 336 330 330 331 330 335 340 339 339 342 344 345 346 347 346 346 347 348 348 349 350 350 350 350 351 352 352 353 353 354 356 357 359 359 359 359 358 356 353 351 350
322 324 329 331 329 329 328 325 323 322 322 321 319 321 321 319 320 324 325 325 330 340 338 334 331 331 332 334 337 339 338 338 344 346 345 346 347 347 347 347 348 349 349 349 348 349 350 350 352 352 353 355 357 359 359 359 360 359 359 358 355 352 351
325 327 330 331 329 329 330 328 326 326 324 320 318 319 323 319 318 321 321 321 334 348 342 336 334 331 332 333 336 339 335 333 341 346 344 346 346 347 347 346 348 348 349 350 348 349 349 349 351 354 355 357 358 359 360 360 360 360 360 359 356 354 352
328 329 330 331 331 331 328 328 328 327 324 323 324 327 328 322 318 320 319 318 334 355 346 336 336 334 332 332 333 335 334 332 340 346 345 344 344 346 346 346 347 347 347 349 349 349 350 351 352 354 357 358 360 361 361 361 361 361 360 360 358 356 353
323 327 327 326 329 329 328 328 329 327 328 327 325 329 330 325 320 321 320 319 334 354 352 339 337 335 334 333 331 332 331 332 341 346 345 344 344 346 348 347 348 348 347 350 350 350 352 352 352 353 353 356 359 359 361 362 362 362 361 360 359 358 354
324 325 326 324 325 327 328 330 328 327 329 326 325 326 325 325 327 324 322 323 332 343 346 341 338 338 336 335 336 338 337 337 343 345 345 343 343 346 348 349 348 348 349 349 348 349 350 352 354 353 353 355 357 357 358 361 362 362 363 362 361 359 358
329 329 333 334 328 325 325 327 326 328 328 327 327 324 322 331 333 326 329 334 330 332 337 338 336 339 340 342 344 347 347 345 344 344 345 345 343 344 347 350 348 349 349 348 347 348 351 354 355 354 354 355 356 358 359 361 362 364 365 365 364 362 361
332 331 334 335 330 326 324 326 327 327 328 328 326 322 327 341 333 324 338 346 332 330 337 339 340 341 342 345 347 347 347 347 345 344 345 344 342 343 346 348 348 347 347 348 348 349 351 355 355 354 354 355 356 360 362 363 363 364 366 367 366 365 363
330 331 332 332 332 329 327 327 327 326 326 326 325 324 333 341 334 334 350 351 338 336 338 339 345 343 341 342 344 344 346 348 346 345 344 344 344 345 346 348 348 348 348 350 351 352 354 354 352 353 354 356 359 361 363 363 363 364 365 367 367 367 365
329 330 332 333 332 332 330 328 328 327 327 326 325 327 334 337 336 344 356 351 341 339 337 339 342 339 337 339 340 341 344 347 347 346 346 348 349 349 349 348 347 347 348 349 349 351 351 348 349 352 355 358 360 363 363 364 363 364 365 366 368 367 366
330 331 331 332 331 331 330 330 330 329 327 327 326 326 330 335 334 338 349 348 342 338 337 341 339 336 337 338 337 339 342 344 346 345 347 350 352 351 349 350 349 347 346 346 347 348 349 349 351 356 359 360 362 364 364 364 364 364 365 365 367 367 367
330 331 331 330 330 330 328 328 331 332 327 326 326 326 328 334 334 336 340 339 338 338 341 342 338 337 339 341 336 335 336 338 341 343 344 347 349 348 348 349 349 349 350 349 348 349 349 352 357 360 363 364 364 365 364 365 365 364 364 366 367 367 367
328 330 331 330 328 328 328 329 331 334 333 329 326 327 330 334 335 337 340 342 343 343 340 339 339 339 340 341 337 334 335 335 336 339 340 344 347 348 347 347 349 351 350 350 351 352 350 351 357 361 364 364 364 365 365 365 365 365 365 365 365 366 366
324 325 327 330 329 327 331 334 333 334 334 331 328 326 327 331 334 339 345 351 348 343 339 339 340 340 339 336 334 333 332 332 333 335 337 340 344 344 344 346 345 344 344 346 353 359 360 358 361 362 363 362 363 363 365 365 365 365 365 364 365 365 366
323 324 328 330 329 330 334 334 335 334 332 332 333 332 330 331 334 335 339 346 345 341 341 340 339 337 335 333 337 338 337 339 341 342 342 340 340 342 343 345 346 343 341 345 350 352 353 354 358 361 362 362 362 362 363 364 365 365 364 364 364 365 365
325 330 332 329 330 334 334 334 334 333 333 334 334 337 340 341 340 341 338 338 341 339 337 335 334 334 334 341 349 350 350 353 352 352 356 356 355 355 354 353 351 347 345 348 349 346 346 347 349 351 354 357 359 361 361 361 363 363 363 364 363 363 364
325 327 328 329 333 338 336 333 334 332 333 334 335 337 340 340 339 343 342 336 336 337 336 334 333 334 339 349 354 354 354 356 356 358 362 363 361 361 358 356 355 352 350 351 351 348 348 349 350 350 347 347 350 354 356 358 361 361 361 362 362 362 362
322 322 327 329 331 334 332 329 331 331 332 332 334 340 342 340 338 343 345 342 339 337 335 333 333 339 349 355 355 353 352 354 356 357 359 360 360 359 356 353 351 353 351 346 344 346 342 340 346 352 352 349 348 348 349 351 355 357 358 359 360 360 361
318 323 331 332 329 332 333 330 329 332 334 333 333 342 343 340 338 343 345 345 345 343 340 337 338 346 354 356 353 351 351 353 355 356 356 355 355 355 355 349 347 354 356 347 344 351 349 341 340 343 349 352 351 351 350 349 348 349 351 355 357 359 360
319 324 330 331 331 332 330 328 330 333 334 333 339 346 343 339 338 342 344 343 344 345 345 345 345 351 353 354 351 349 350 352 355 356 356 353 352 353 355 350 347 352 356 352 354 361 361 357 351 345 345 348 350 351 354 353 351 349 347 350 353 355 357
318 325 330 329 330 330 326 326 332 334 334 339 345 345 341 337 339 342 342 342 342 343 345 347 348 349 349 349 349 349 350 352 353 354 353 349 350 354 357 357 352 347 350 356 363 365 364 363 360 353 351 351 351 352 353 353 355 353 351 350 350 351 354
317 329 335 332 332 330 325 326 331 334 339 344 343 340 338 336 339 341 339 340 342 341 343 344 345 345 345 346 347 347 349 350 350 351 349 347 349 354 357 358 355 351 353 361 365 363 362 362 361 359 358 357 357 356 355 353 354 354 355 354 351 351 352
317 326 330 332 334 331 324 326 332 336 340 340 338 337 336 336 338 338 338 339 340 340 342 343 342 344 344 344 345 345 347 349 349 350 350 350 351 354 354 355 354 353 357 361 361 359 359 357 355 355 357 357 358 358 357 355 353 352 354 355 354 352 352
322 326 329 332 333 328 323 326 329 332 336 336 333 333 334 333 335 336 336 338 339 340 341 341 341 342 342 342 343 345 346 348 348 350 351 351 352 352 352 353 353 352 356 359 358 356 356 355 352 352 356 358 359 360 357 356 355 353 353 355 355 355 354
324 328 330 329 327 323 321 324 324 325 330 332 330 330 330 330 332 333 333 336 338 339 340 340 340 341 342 342 341 342 345 345 346 347 350 351 352 352 352 352 350 350 354 357 356 355 356 358 358 360 364 365 363 362 360 357 356 355 354 356 356 356 356
322 323 324 323 322 320 320 321 320 322 326 327 326 327 327 328 329 329 330 333 337 338 340 340 339 340 341 342 340 340 342 343 343 343 345 348 350 351 351 350 349 350 353 355 355 356 357 358 359 362 365 366 366 365 364 361 358 356 356 356 356 355 357
320 321 321 320 319 318 319 319 320 322 325 325 324 324 325 326 327 327 328 330 333 336 339 339 340 340 341 341 341 340 341 342 342 341 342 344 347 349 350 349 349 351 354 355 355 354 354 355 357 359 361 364 365 366 366 364 361 358 358 358 356 356 358
318 320 321 318 317 318 318 318 319 321 323 323 322 323 324 325 324 325 326 327 329 332 336 338 340 341 340 340 340 340 341 343 342 341 341 342 344 347 349 349 348 350 353 354 354 353 353 352 353 356 358 359 362 364 364 363 362 360 360 361 362 361 361
316 318 318 317 317 318 318 317 318 319 319 320 321 321 322 323 322 321 323 325 326 327 331 336 338 340 341 341 340 340 342 343 342 342 342 343 343 346 348 348 348 350 352 353 353 353 352 351 352 354 355 354 356 360 363 364 364 361 361 364 366 365 364
317 317 317 316 317 317 318 317 317 317 318 319 320 320 321 322 321 320 320 322 323 324 326 331 335 338 340 341 341 341 342 344 343 342 343 344 345 347 348 348 350 350 351 352 352 352 351 350 350 352 352 351 353 357 360 363 365 363 362 364 367 367 366
316 316 316 316 316 316 316 316 316 316 317 318 318 319 319 320 321 320 320 321 322 321 321 323 330 336 339 340 342 342 342 342 343 343 344 345 345 346 347 348 349 349 349 351 351 350 351 351 351 351 350 349 352 356 358 362 366 365 364 364 366 366 366
315 314 315 315 315 316 316 315 315 316 316 317 317 318 318 318 319 319 320 320 320 320 319 320 326 333 336 338 340 342 342 342 343 343 344 345 345 346 347 347 348 348 349 349 349 350 350 351 350 350 349 348 351 355 358 361 365 366 365 366 366 366 364
314 314 314 314 314 315 315 314 314 315 316 316 317 317 317 318 319 320 321 321 321 322 322 321 325 331 333 334 337 340 341 343 344 343 344 345 345 346 347 347 348 348 347 347 348 349 350 349 349 349 347 346 348 353 357 359 362 364 365 366 366 366 365

ECMWFFLT2_850_thetae_048.txt.gz
Theta_e
326 327 326 325 327 326 326 325 322 324 330 327 323 324 328 324 321 323 323 325 328 328 331 334 331 333 335 334 339 343 343 345 346 347 348 347 348 350 350 351 352 352 352 351 351 351 350 351 352 352 352 352 353 352 352 352 352 352 351 350 349 347 347
326 326 327 325 327 328 326 323 323 327 328 326 324 324 325 321 319 324 324 322 325 323 327 338 334 329 334 333 337 344 344 344 346 347 348 348 348 350 350 351 352 352 352 351 351 351 351 351 352 352 352 352 353 353 352 353 352 352 352 351 350 348 348
326 326 325 325 327 327 326 325 327 327 323 321 323 322 322 320 318 322 322 321 324 324 328 337 331 328 332 331 334 343 345 344 346 347 347 348 348 349 350 351 352 352 352 352 352 352 351 352 352 352 352 352 353 353 352 353 352 352 352 352 351 349 349
326 326 324 322 323 326 327 326 326 329 325 321 322 321 322 323 321 321 321 320 324 329 334 334 330 330 332 327 331 341 347 346 346 347 348 349 348 349 350 351 352 352 353 352 352 352 352 352 352 352 353 353 353 353 353 353 353 353 353 352 351 351 350
323 324 324 324 324 324 325 322 322 324 324 323 323 321 323 328 328 324 321 321 326 332 332 330 330 329 329 328 329 338 347 347 347 347 347 348 349 349 350 351 352 352 352 352 352 352 351 351 352 353 353 353 353 353 353 354 354 353 353 353 352 352 351
322 323 325 327 327 326 325 322 322 322 323 321 320 321 322 324 329 332 328 323 329 336 330 328 330 328 328 329 326 334 346 346 346 348 348 348 349 348 350 350 351 352 352 352 351 352 352 352 353 353 353 354 354 354 355 355 354 355 354 354 354 353 352
322 323 325 327 327 328 327 325 325 325 324 321 317 319 321 317 322 331 329 322 330 346 343 331 328 327 327 328 326 332 343 346 346 347 346 348 349 348 350 349 351 352 352 352 352 351 351 352 353 353 353 354 354 355 355 355 355 355 355 355 354 354 354
325 325 327 326 327 329 326 327 328 325 324 323 321 327 329 320 318 321 321 319 328 350 356 339 331 330 326 327 325 330 340 345 345 346 345 348 348 348 350 349 350 351 351 352 352 351 352 352 352 353 353 353 355 354 355 356 356 356 356 356 356 355 355
329 324 326 326 326 327 326 327 327 324 326 326 325 331 329 321 319 319 320 321 328 349 362 344 335 332 328 327 326 329 340 343 342 345 346 347 348 347 348 349 350 351 351 352 352 351 352 351 352 352 352 354 354 355 356 356 356 357 356 356 357 356 356
332 326 329 329 325 325 326 328 327 326 327 324 324 328 323 320 325 322 320 323 329 346 354 339 332 331 327 328 327 330 338 342 342 345 346 346 347 347 347 348 350 350 350 351 351 351 352 351 351 352 352 354 354 355 355 356 356 356 356 356 357 357 356
326 325 329 328 326 326 326 326 326 327 326 324 327 328 322 326 331 324 324 327 327 336 344 337 335 335 330 333 334 333 336 340 344 345 345 347 347 346 348 348 349 350 350 350 351 351 351 351 351 351 351 352 353 354 355 355 356 356 356 357 357 356 357
319 319 320 320 322 326 326 326 326 327 327 324 324 324 326 334 331 322 330 336 327 333 347 341 342 348 347 348 349 340 335 339 344 344 345 346 345 345 347 348 349 350 349 349 350 350 351 351 351 351 351 352 352 353 354 354 355 356 356 357 357 357 357
315 315 316 317 321 326 328 328 326 326 328 325 323 323 330 338 331 324 334 340 331 335 346 342 343 351 352 352 352 343 336 339 344 344 344 346 344 346 346 347 348 348 348 349 349 350 350 350 351 350 350 352 352 352 354 355 355 356 356 357 357 358 358
314 315 318 322 326 329 329 329 328 327 329 325 324 326 331 336 338 337 342 342 338 339 341 342 340 340 341 344 345 341 339 341 342 342 344 344 344 345 346 346 347 346 348 347 348 349 349 349 349 350 349 351 351 352 352 354 355 357 357 358 359 359 359
314 317 321 325 329 331 329 329 329 327 327 327 325 326 331 332 334 343 347 344 342 339 339 340 336 333 337 342 343 342 341 340 343 343 343 343 344 345 345 345 346 346 347 348 348 349 349 348 349 348 348 349 350 351 353 354 356 358 360 361 361 361 361
315 317 319 322 327 331 329 329 332 329 326 328 324 324 334 334 330 338 342 338 337 338 336 337 335 332 338 340 337 338 341 341 342 342 342 342 343 344 345 345 345 346 346 347 348 348 347 348 348 347 348 349 350 352 354 355 357 359 360 361 361 361 361
316 316 317 320 327 333 331 330 330 331 330 331 328 332 341 342 338 339 339 338 342 341 333 334 336 335 338 341 336 335 341 344 344 343 342 342 342 344 345 345 345 346 346 347 347 346 347 348 347 346 347 348 350 351 352 354 355 356 359 360 360 361 361
314 315 319 325 329 332 332 330 329 331 335 341 343 342 342 343 343 343 342 341 340 337 334 341 347 347 348 351 348 343 343 345 345 345 345 344 345 345 346 346 346 345 346 347 347 348 347 346 346 348 348 349 350 351 352 353 353 354 357 360 361 362 362
315 320 328 334 337 336 333 330 328 329 333 339 343 343 342 342 342 344 348 344 336 338 347 351 352 353 354 356 359 356 353 352 352 352 351 349 348 348 347 348 347 347 348 347 348 349 348 348 348 349 351 352 352 351 352 353 354 356 358 360 362 363 363
319 324 327 333 339 340 334 329 328 329 329 333 341 346 343 340 342 344 347 347 340 342 351 353 351 354 354 354 356 357 357 357 356 356 357 354 352 352 352 351 351 350 349 348 348 349 348 348 350 350 352 352 351 352 352 353 354 358 360 361 362 363 363
322 320 321 329 339 341 336 331 328 327 328 330 337 345 344 339 340 341 343 349 350 347 349 351 351 352 354 354 354 353 354 355 355 354 356 357 357 356 356 357 357 356 356 354 354 353 352 353 354 353 353 351 350 353 356 358 358 359 361 363 363 363 364
319 316 322 335 342 342 337 329 325 325 328 328 331 342 345 339 338 341 341 346 352 352 349 348 349 352 356 356 354 352 353 354 355 353 353 356 359 359 357 357 356 356 357 356 355 355 356 358 358 359 359 358 358 360 362 363 363 363 363 364 363 364 364
314 314 324 335 337 335 332 326 322 325 329 329 332 342 346 340 337 340 340 341 345 347 347 347 349 353 357 355 352 350 351 354 356 355 354 355 357 358 357 357 356 356 356 355 353 351 352 354 355 356 358 358 360 361 362 363 364 364 364 364 363 364 364
314 317 326 333 332 329 326 324 322 324 329 332 337 345 346 340 336 338 340 341 342 343 345 346 348 351 353 352 351 350 351 354 355 356 356 355 354 355 355 355 356 356 354 353 352 351 351 353 354 353 354 356 355 356 357 359 361 362 362 363 363 364 364
314 318 325 331 330 326 324 323 323 326 332 338 342 345 343 338 336 337 339 341 341 341 343 344 345 347 348 348 349 350 351 352 353 354 355 355 354 352 350 349 347 347 347 349 354 357 358 358 356 353 353 354 354 354 354 354 356 357 358 359 359 360 361
316 321 327 330 330 325 322 323 325 329 337 342 341 339 335 332 333 335 337 340 340 340 341 342 342 343 345 346 349 350 351 351 351 351 351 351 352 350 348 345 340 337 338 343 349 353 354 355 354 353 353 353 353 355 354 354 354 354 355 354 355 355 356
322 327 328 328 329 325 321 324 328 331 336 336 334 332 330 328 329 331 334 337 339 340 341 341 341 342 343 343 345 346 348 350 350 350 349 347 349 349 348 348 346 341 336 336 340 342 342 343 344 345 345 349 352 353 355 355 354 353 354 354 354 353 353
325 328 327 327 328 324 321 324 328 330 330 329 327 328 328 326 326 327 329 333 336 339 341 341 340 341 341 342 342 342 343 346 348 349 349 347 347 347 347 348 349 348 345 344 345 346 345 343 341 340 340 342 347 352 355 355 354 353 353 354 354 354 354
323 325 325 324 323 321 321 323 325 325 325 325 324 325 325 324 324 325 325 327 331 335 339 341 341 341 341 341 342 341 341 342 344 347 348 347 347 346 346 347 348 348 349 350 351 350 349 348 347 348 348 346 348 352 355 355 354 354 352 353 353 353 354
322 322 320 318 318 320 321 322 321 321 322 323 323 322 322 321 322 322 322 324 326 329 334 338 340 340 341 341 342 342 342 341 341 343 346 347 345 344 344 346 348 349 349 349 350 350 350 349 350 353 355 356 357 358 358 357 357 355 353 353 352 352 353
319 319 318 315 316 319 318 317 317 318 319 321 321 321 321 321 320 319 320 321 321 322 327 333 337 340 341 341 342 342 342 341 341 342 344 345 345 344 343 344 346 347 348 349 349 349 348 347 347 350 354 358 360 362 361 361 360 359 357 354 353 351 353
317 319 317 314 315 317 316 316 316 317 317 318 318 318 319 320 320 319 318 319 319 319 322 329 334 338 340 341 342 342 342 342 342 342 343 344 344 345 346 345 345 346 348 349 350 350 349 348 346 348 351 354 357 360 362 363 362 361 359 358 356 354 353
315 317 316 314 315 316 315 315 315 315 315 315 316 317 318 318 318 318 318 319 320 319 319 325 332 334 336 338 341 341 342 343 343 342 343 344 345 346 347 347 347 347 349 350 350 350 350 349 347 348 349 350 352 354 357 360 362 362 361 360 361 360 356
314 315 315 314 315 316 315 314 315 315 314 314 314 316 317 316 317 319 319 320 321 320 319 323 329 331 333 335 338 341 341 343 343 343 343 343 344 345 345 346 346 347 348 349 348 348 349 349 347 347 348 349 348 348 350 355 360 361 360 361 364 365 362
312 312 312 313 313 313 313 313 314 314 314 314 314 315 316 317 318 320 320 320 321 321 320 322 326 330 331 333 337 339 340 342 343 343 343 343 344 344 344 344 345 346 347 347 347 347 347 347 347 346 348 348 347 347 349 354 359 362 360 360 365 368 367
310 310 311 311 311 311 311 312 312 313 314 314 313 314 316 317 318 319 318 319 320 321 320 320 323 328 331 332 335 337 339 341 343 343 343 344 344 344 343 344 345 346 346 346 346 346 346 347 347 347 347 347 345 345 351 355 360 363 363 361 363 367 368
309 309 310 310 310 310 311 311 312 312 312 313 313 315 316 317 317 317 317 318 318 318 318 318 319 326 331 332 331 333 337 339 341 343 343 344 345 345 345 344 344 345 345 346 346 346 346 347 346 345 346 344 343 346 351 356 360 363 364 362 362 364 366

ECMWFFLT2_850_thetae_051.txt.gz
Theta_e
327 330 329 327 328 328 328 329 327 328 329 327 325 327 327 321 321 324 323 324 329 328 330 332 331 336 339 337 339 339 340 342 343 344 345 344 345 346 348 349 349 349 349 348 348 348 349 349 349 349 349 349 350 349 350 350 350 350 350 349 349 348 349
325 327 330 327 327 329 328 326 327 328 329 328 326 324 323 320 320 325 325 321 321 321 329 336 332 333 335 337 338 338 338 341 342 344 345 345 345 345 347 348 348 349 350 349 349 349 348 349 349 350 350 349 350 350 350 350 350 350 350 350 349 349 349
323 323 327 327 326 328 328 327 328 328 325 324 325 323 323 322 320 322 324 324 322 320 327 334 330 330 332 334 337 338 338 340 342 343 345 345 345 345 346 347 349 349 350 350 349 349 349 350 350 350 350 350 350 350 350 350 350 350 350 350 350 349 349
319 321 324 324 323 325 326 326 328 329 327 323 324 324 323 324 324 322 321 321 323 327 331 330 329 330 329 330 335 339 337 339 341 342 345 346 345 346 346 347 348 349 349 349 349 349 349 350 349 350 350 350 350 350 350 350 350 350 350 350 350 349 350
320 323 325 324 324 323 323 323 323 325 325 324 324 323 323 327 328 327 322 318 325 337 339 332 329 330 328 328 334 339 338 338 340 342 343 346 346 346 347 347 347 349 349 350 349 349 349 349 350 350 350 351 350 351 351 350 351 350 350 350 350 350 350
321 323 323 323 325 323 322 322 322 323 323 323 322 322 324 326 327 330 326 318 324 339 337 330 331 331 328 326 330 336 338 337 340 342 343 344 346 346 347 347 348 349 349 349 350 350 350 349 350 350 350 351 351 351 351 351 351 350 350 350 350 350 350
319 319 319 320 321 322 323 323 323 325 325 322 320 321 323 322 322 329 327 318 325 340 336 328 329 331 329 325 325 331 336 337 340 341 342 343 345 346 347 347 348 349 349 350 349 349 350 350 350 350 350 351 351 351 351 351 351 351 351 350 350 350 350
318 319 320 321 321 322 324 324 323 324 324 323 323 327 328 323 320 323 323 318 325 343 347 337 330 329 326 324 323 326 332 337 340 340 342 344 344 345 346 346 347 348 349 350 350 350 350 350 350 350 350 351 351 351 352 351 351 351 351 351 350 350 351
326 321 320 324 325 323 320 322 323 323 325 325 325 329 327 322 321 320 321 320 323 338 350 342 335 333 331 326 323 324 330 336 340 340 341 343 344 345 346 346 347 348 349 351 350 350 351 350 350 350 350 351 351 351 352 352 352 352 351 351 351 351 351
325 322 323 325 324 319 317 320 321 321 324 323 324 326 321 321 324 322 319 320 324 332 338 334 333 336 337 331 324 323 329 334 338 341 342 343 344 344 345 347 348 348 350 350 350 350 350 350 351 350 351 351 351 351 351 352 352 352 352 352 352 352 351
318 318 319 318 316 316 316 318 317 317 320 322 325 326 321 325 329 322 321 324 324 325 329 326 328 334 339 336 327 324 329 333 338 340 341 343 344 345 346 346 347 348 349 350 350 350 350 350 351 351 351 351 351 352 352 352 353 352 353 353 352 352 352
314 314 315 314 315 316 315 316 316 317 320 322 323 322 323 331 327 320 329 335 324 322 327 327 325 334 345 341 328 325 329 333 338 341 342 344 345 344 346 346 347 348 350 350 350 350 350 351 351 351 352 352 352 352 352 352 353 352 352 352 352 352 353
314 314 314 314 314 315 315 315 316 318 320 322 322 321 327 333 323 320 335 342 329 324 326 326 324 332 343 339 327 325 329 334 340 341 342 344 345 345 346 347 347 349 349 350 350 350 351 351 351 351 351 352 352 353 353 352 353 353 353 353 353 353 353
313 313 313 313 314 315 316 318 320 320 323 325 323 324 330 332 327 327 337 340 333 327 327 331 330 329 335 337 331 328 331 336 339 341 343 344 344 345 346 346 348 348 349 350 349 351 351 350 351 351 351 352 352 352 353 353 353 354 353 354 354 354 354
313 313 314 314 315 316 318 324 328 329 330 327 322 325 329 328 328 331 334 333 334 335 338 339 333 328 335 342 337 332 332 337 338 340 343 344 344 346 346 346 348 348 349 350 349 350 351 351 351 350 350 351 352 352 353 353 353 354 354 355 355 355 354
314 314 314 314 316 318 323 328 331 331 334 332 330 337 341 339 336 336 330 327 334 341 341 343 344 346 356 362 348 335 332 337 340 340 342 344 345 345 346 347 348 347 349 349 350 350 351 350 350 350 350 350 351 352 352 353 353 354 355 355 355 355 355
316 314 312 315 320 328 334 334 329 329 335 341 344 345 344 343 346 345 335 332 339 344 343 351 363 364 367 367 354 341 335 337 340 341 342 343 345 345 346 346 347 348 349 348 349 349 349 350 349 348 348 349 350 350 351 352 353 354 354 355 356 356 355
316 313 314 322 330 335 337 333 326 325 333 341 345 344 341 341 344 346 345 343 346 351 353 357 362 360 357 357 354 348 342 337 339 342 342 342 344 345 345 346 347 347 348 348 349 349 348 348 348 348 349 348 348 350 351 352 353 353 355 355 356 356 355
315 315 319 332 340 336 332 329 324 324 328 331 337 341 340 338 340 343 346 348 350 356 358 354 353 353 352 352 353 352 349 342 339 341 341 342 344 343 344 345 346 346 347 347 348 348 349 349 349 349 350 350 350 350 351 352 352 353 354 355 355 354 353
317 316 320 331 338 333 330 328 324 324 325 326 332 342 342 337 337 340 344 346 349 354 353 349 351 353 351 352 353 354 354 351 345 342 342 343 343 342 344 344 344 346 347 347 348 348 349 349 349 350 349 350 350 351 350 351 352 352 353 354 354 354 353
318 316 315 323 333 335 333 329 324 322 324 323 327 338 343 337 335 338 341 343 345 348 348 347 349 350 352 354 353 352 354 356 354 349 345 343 342 343 344 344 344 346 346 347 347 348 348 348 349 349 350 349 350 350 350 350 350 351 353 354 355 355 355
318 316 316 323 335 338 332 326 321 320 323 322 322 332 342 338 332 335 339 342 343 345 346 347 347 350 355 357 354 351 353 356 358 358 355 350 347 346 345 345 345 345 346 347 347 347 348 349 349 349 349 349 349 350 350 349 349 350 352 353 355 356 355
315 314 317 324 331 332 327 322 320 321 323 322 324 335 345 338 331 332 337 340 342 344 345 347 349 354 360 358 353 351 352 354 357 359 359 357 356 352 350 349 348 348 347 347 348 349 349 349 350 350 350 350 350 350 349 350 350 350 351 353 354 355 354
314 315 318 323 327 326 323 321 321 322 324 324 331 343 346 336 330 332 335 339 342 342 343 345 347 352 357 355 350 349 351 353 354 357 358 359 359 358 357 355 354 355 354 352 353 354 354 354 354 353 352 352 352 352 351 351 351 352 352 352 353 353 354
315 315 317 323 326 323 321 322 323 324 328 331 336 340 336 330 329 330 332 337 340 341 342 343 344 346 347 346 347 349 349 351 353 355 356 357 359 359 359 358 357 358 357 356 358 357 357 359 359 357 357 357 356 356 356 356 355 355 355 355 355 355 356
317 318 321 326 327 322 319 322 325 325 330 335 335 331 327 325 326 326 327 330 334 338 341 341 341 342 342 344 347 348 348 350 352 353 354 354 355 355 355 356 357 357 357 357 358 358 358 359 359 358 359 359 359 360 360 360 360 360 360 359 359 359 360
321 322 324 327 326 322 320 323 326 327 329 331 328 326 324 323 322 322 323 324 325 331 338 340 340 341 342 342 344 346 348 348 349 351 353 353 353 352 349 348 348 349 352 352 350 351 352 354 355 356 358 358 359 359 359 359 360 360 360 361 360 360 361
320 321 322 323 323 321 320 322 324 324 324 324 323 323 323 321 320 320 321 322 322 325 332 338 340 341 341 342 343 344 347 347 347 349 351 352 353 352 350 347 342 338 337 337 336 336 337 340 342 345 348 352 354 356 357 357 358 358 357 358 357 357 357
318 319 320 320 321 320 318 318 319 318 317 318 319 321 321 320 319 319 319 321 322 324 327 333 337 339 341 342 342 343 345 346 346 347 348 350 351 352 352 350 348 343 337 335 333 332 332 332 333 333 336 339 343 347 350 352 354 356 355 355 355 354 354
316 318 318 317 318 318 317 316 315 313 313 313 314 318 320 320 318 317 318 320 322 324 327 329 332 337 340 341 342 343 344 344 346 347 347 348 349 349 350 350 349 347 344 340 337 337 337 336 335 334 335 337 339 343 346 347 348 351 351 352 353 353 353
316 320 319 316 315 316 316 315 313 313 312 311 311 313 317 318 318 317 318 320 322 325 326 327 329 334 338 340 342 343 343 344 345 346 347 348 348 348 348 348 347 346 344 341 340 340 339 339 339 338 338 339 342 345 347 349 350 350 350 351 351 352 351
314 318 317 313 312 315 316 314 313 313 312 311 311 311 313 315 316 316 317 318 320 323 325 326 328 332 336 338 340 342 343 343 344 345 346 347 348 348 348 348 347 345 342 342 342 340 340 340 340 339 338 338 338 340 342 345 347 349 351 353 355 354 352
312 315 314 311 311 315 316 314 313 313 312 311 311 311 312 314 316 317 316 316 317 320 322 324 325 328 332 335 337 340 343 343 343 343 344 345 346 346 346 346 346 344 343 342 341 340 340 341 340 340 340 339 338 338 337 337 339 342 347 352 356 358 357
312 313 312 310 310 313 314 313 313 312 311 311 311 311 311 313 316 318 318 317 316 316 318 321 322 324 328 332 334 336 340 343 343 343 343 343 344 345 345 345 344 344 343 343 343 342 342 341 341 341 341 342 342 341 339 337 337 337 340 345 353 358 360
310 310 310 310 310 310 310 311 311 311 310 310 311 310 310 312 316 318 318 317 316 314 315 317 317 319 326 330 331 333 337 340 342 344 344 344 344 344 344 344 344 343 343 343 344 344 343 341 340 341 342 343 343 342 341 341 341 341 342 344 348 355 360
309 309 309 309 309 310 310 310 310 310 310 310 311 311 310 311 314 316 317 317 316 314 315 316 315 315 324 331 332 331 334 338 340 342 344 344 344 344 344 343 343 343 343 343 343 343 341 339 338 340 341 342 341 340 341 342 344 347 350 350 351 355 361
309 309 309 310 309 310 310 310 310 311 310 310 311 312 311 311 313 315 316 317 316 315 316 318 316 313 321 331 333 330 331 334 337 340 342 343 344 344 343 343 343 344 344 343 342 340 338 336 337 339 340 340 340 341 344 346 348 350 353 355 356 358 361

ECMWFFLT2_850_thetae_054.txt.gz
Theta_e
317 320 322 323 326 328 327 327 326 326 329 328 326 328 328 323 323 326 325 326 328 327 331 331 329 332 333 335 338 340 341 343 343 344 346 346 348 348 349 349 348 349 348 348 348 347 347 347 348 348 349 349 350 350 350 350 349 349 349 348 349 348 348
319 317 319 322 324 329 328 326 326 328 329 328 327 325 324 323 324 328 327 323 322 323 330 336 334 335 335 335 337 339 340 341 342 343 344 345 347 347 348 349 348 348 349 348 348 347 348 347 347 348 348 349 349 350 349 350 349 349 349 348 348 348 349
319 316 319 323 325 327 328 327 327 329 329 326 326 326 326 327 326 326 325 324 324 324 328 335 334 335 339 336 336 339 340 340 341 341 343 344 346 347 347 348 348 348 349 348 348 348 347 347 347 347 348 348 349 349 349 349 349 349 349 348 349 348 348
317 318 321 324 325 326 327 327 328 331 330 326 326 327 327 328 328 326 323 321 323 328 331 332 332 335 338 337 337 338 338 339 340 341 342 343 344 346 346 346 348 348 348 348 348 349 347 348 348 347 348 348 348 349 349 349 348 348 349 349 349 348 348
319 322 322 323 324 325 325 325 326 328 328 326 327 326 324 328 331 328 323 321 327 336 336 333 333 334 334 336 338 338 336 336 339 340 341 342 343 344 345 346 347 347 348 349 349 348 348 348 348 347 348 348 348 348 348 349 349 349 349 349 348 349 349
320 321 319 319 320 320 321 322 324 326 326 326 327 326 323 324 327 329 327 322 328 339 334 330 332 332 329 332 336 337 335 334 337 339 340 341 343 343 344 345 346 346 347 348 349 349 348 348 348 348 347 348 348 348 348 348 348 348 349 349 349 349 349
317 316 316 315 316 316 317 320 322 324 326 325 325 327 326 322 323 329 329 322 327 340 338 329 328 329 325 326 330 333 334 334 336 338 339 341 342 343 344 344 344 345 346 347 348 348 349 348 348 348 348 348 348 348 348 348 349 348 348 348 349 349 349
318 317 316 315 316 316 317 320 318 319 321 320 320 327 330 325 322 324 326 323 326 340 345 333 327 327 323 321 325 329 331 333 335 336 337 340 341 342 344 344 344 345 345 347 347 348 349 348 349 348 348 348 348 348 349 348 348 349 348 348 349 349 349
323 321 321 321 321 317 315 316 316 315 318 317 318 324 325 323 323 323 324 323 323 335 345 337 329 331 329 323 322 324 329 331 333 335 337 338 340 341 343 343 344 344 344 346 347 347 349 348 348 349 348 349 348 348 349 348 348 348 348 349 349 349 349
325 323 324 322 320 315 313 315 314 314 316 315 319 323 321 322 325 323 322 323 323 329 337 334 332 335 334 329 323 321 324 327 329 333 336 337 339 340 342 343 344 344 344 346 347 347 348 348 348 349 348 348 348 348 349 348 348 349 349 349 349 349 349
320 320 318 315 313 314 313 315 314 314 315 315 318 321 320 325 329 324 323 326 325 326 330 331 334 333 331 334 331 324 323 323 325 329 332 336 338 339 341 343 344 344 345 345 346 347 348 348 348 348 348 349 348 349 349 349 349 349 349 349 349 349 350
315 314 313 312 313 314 314 314 314 314 315 315 317 320 321 327 327 321 325 332 326 324 328 331 331 330 330 335 333 326 324 325 326 327 329 332 337 339 340 342 343 344 345 345 347 347 347 348 348 348 349 349 349 349 349 349 350 350 349 349 350 350 349
313 312 313 313 313 313 313 314 314 314 315 315 317 319 319 323 324 320 328 339 330 324 327 327 327 330 329 330 329 325 325 327 327 326 326 329 335 338 340 342 343 344 345 346 347 347 348 348 348 348 349 349 350 350 349 350 350 349 350 350 350 350 350
313 313 312 313 313 313 313 314 314 314 316 318 320 321 319 321 323 322 327 337 333 326 329 329 328 329 326 324 326 326 327 327 326 325 325 328 335 338 339 341 342 343 345 345 347 348 348 349 348 349 349 349 350 349 349 350 350 349 350 350 350 350 350
315 313 313 314 313 314 313 314 316 317 321 327 328 328 327 324 323 323 325 328 330 331 333 335 338 340 341 341 341 339 337 332 328 327 327 330 336 337 339 341 342 342 345 346 347 348 348 349 348 348 349 349 349 350 350 350 350 350 350 350 350 350 350
317 315 315 314 313 314 316 318 322 324 328 334 335 336 335 332 332 335 326 321 328 336 337 343 349 352 357 358 351 347 348 341 330 329 332 334 337 338 339 341 342 343 345 346 347 348 348 349 348 348 349 349 349 350 350 350 350 350 350 351 351 351 350
319 316 313 314 316 321 325 326 327 327 328 332 336 340 340 336 340 344 333 329 338 340 343 354 359 355 356 354 349 349 352 347 335 331 335 336 337 340 340 341 343 343 344 346 346 347 348 348 348 348 349 350 349 349 350 350 350 351 351 351 350 350 351
319 316 313 317 323 327 329 328 324 325 327 328 331 338 339 336 338 340 339 341 343 342 348 356 356 352 352 352 350 351 354 352 343 333 336 337 338 339 340 341 342 343 344 345 346 346 347 348 348 348 349 349 350 350 350 351 351 351 351 351 351 351 351
318 316 316 326 332 329 327 325 322 324 327 324 325 334 337 333 332 335 336 340 342 343 347 349 350 351 351 351 352 352 354 354 349 337 334 339 339 340 342 342 342 343 344 345 347 347 347 348 349 349 350 350 351 350 350 351 351 351 352 351 351 351 351
317 317 320 327 330 327 327 326 322 323 325 324 326 334 338 332 329 331 332 335 341 343 343 345 347 349 350 351 352 353 353 356 353 345 337 338 340 341 343 343 343 344 345 345 346 347 348 349 349 349 350 349 350 350 351 351 351 352 351 352 351 351 352
316 317 317 321 325 329 331 329 324 322 323 323 324 331 337 331 326 328 329 333 341 343 343 345 346 346 351 355 353 351 353 355 355 351 340 338 341 341 342 345 344 344 345 346 347 348 348 349 349 349 350 350 351 351 351 351 352 352 352 352 351 351 351
316 316 317 322 329 333 331 326 322 320 322 323 322 327 335 331 325 325 327 331 337 341 343 346 347 351 361 361 353 350 352 354 355 354 345 339 342 342 342 345 345 345 346 347 347 348 349 348 349 349 350 350 350 351 350 351 352 351 351 352 350 351 351
313 314 317 322 329 330 325 321 320 320 322 323 323 330 338 331 323 324 326 327 331 337 342 345 348 357 363 357 349 347 349 353 355 355 351 345 342 342 343 344 344 345 347 346 347 348 348 349 349 349 349 349 350 350 351 351 351 351 351 351 350 350 350
313 314 316 319 325 326 321 319 320 321 322 323 329 339 340 328 323 324 325 326 327 332 340 343 345 352 355 349 346 346 349 353 355 356 355 351 346 343 343 343 344 345 346 346 347 348 348 348 349 349 350 349 350 350 350 351 351 351 351 350 349 349 350
313 315 315 318 324 324 319 319 321 320 323 328 333 337 331 323 322 323 323 325 326 328 338 344 342 344 346 344 345 347 350 354 354 355 357 355 351 348 345 345 345 345 346 346 347 347 347 348 348 348 349 349 350 350 350 350 351 351 351 351 350 349 350
313 314 316 320 325 322 318 320 320 319 326 331 328 326 323 320 322 322 321 324 325 325 333 340 341 342 343 344 345 347 350 352 352 354 356 355 355 354 352 350 348 345 346 347 346 347 347 347 347 348 348 349 349 349 350 350 351 351 351 352 352 351 352
317 318 320 323 325 320 317 319 319 317 320 322 318 318 319 319 319 321 320 321 322 323 328 333 339 342 343 344 346 347 349 351 352 353 354 354 356 357 356 355 354 352 351 350 350 349 348 348 348 348 348 349 349 350 350 351 350 351 351 351 352 352 352
319 321 322 322 321 318 315 317 318 315 314 314 313 315 316 315 315 318 319 320 320 321 323 326 333 339 341 343 345 346 348 350 352 352 353 353 354 356 356 358 358 358 357 358 357 357 355 353 351 351 350 350 350 350 351 351 352 353 352 353 353 354 354
316 318 320 318 317 317 315 314 314 313 312 312 312 312 313 313 312 314 317 320 319 319 320 322 325 331 336 341 343 345 347 349 350 351 351 351 352 353 353 355 356 358 359 360 361 361 360 359 358 356 354 354 354 355 355 355 356 357 357 358 358 358 358
313 316 317 314 312 314 315 314 312 311 310 310 310 311 311 311 311 311 314 318 318 317 318 319 320 323 331 337 341 343 345 347 348 349 350 349 350 350 350 350 351 352 354 356 357 358 360 360 360 360 359 358 358 358 359 359 360 360 359 360 359 359 359
314 317 315 311 310 313 315 314 312 311 311 310 310 311 310 310 310 310 312 316 317 316 316 317 317 320 327 333 338 342 344 345 346 347 349 349 349 349 349 348 347 347 347 348 349 351 352 354 356 357 358 358 358 358 358 359 359 359 359 358 358 357 357
313 315 312 310 311 314 315 314 312 312 312 311 310 311 310 310 310 310 312 315 316 315 316 316 316 320 325 329 333 338 341 344 345 346 346 348 348 348 348 347 347 346 346 345 345 344 344 345 346 346 347 349 349 350 352 353 353 354 354 355 354 355 355
311 312 311 309 311 314 315 314 313 313 312 311 311 311 310 310 310 310 312 315 315 315 316 316 316 319 321 324 329 334 337 341 345 346 345 346 346 346 347 346 346 346 346 346 345 345 343 343 341 339 338 337 337 338 339 340 341 342 344 347 348 349 350
310 310 310 309 310 311 312 311 311 311 311 310 310 311 310 310 310 309 311 314 315 315 316 315 314 316 317 319 324 330 333 337 342 345 345 345 345 345 346 345 346 347 346 345 345 344 344 343 342 340 338 337 336 335 334 333 334 335 337 340 343 344 346
310 309 309 309 309 310 310 310 310 310 310 310 311 311 311 311 311 309 310 312 315 316 316 314 314 314 314 314 319 326 330 334 338 341 344 345 344 345 345 346 345 346 345 344 344 343 342 341 340 340 340 339 337 337 336 337 338 338 340 342 345 348 349
310 309 310 310 310 309 310 310 311 311 311 311 311 311 311 311 311 310 310 312 314 315 315 315 314 313 313 313 316 323 330 333 335 338 342 344 344 344 345 345 345 345 344 344 343 343 341 340 340 339 339 339 340 340 339 341 343 345 346 348 349 351 353
310 310 310 310 310 311 312 312 312 312 312 312 312 312 312 312 311 311 311 312 312 312 314 315 314 313 313 312 315 323 330 333 334 336 339 342 344 344 344 343 344 345 344 344 344 343 341 341 340 339 339 339 340 341 341 341 343 346 348 351 352 353 355

ECMWFFLT2_850_thetae_057.txt.gz
Theta_e
317 319 319 321 322 323 324 324 322 323 325 324 321 320 323 322 320 321 320 320 323 324 326 328 328 330 331 332 333 336 341 344 347 349 350 350 351 351 350 350 350 349 349 348 348 348 348 348 348 348 348 348 348 348 349 349 349 349 349 349 349 349 349
319 318 319 320 321 323 323 322 323 325 326 325 323 322 323 322 321 322 320 318 319 320 323 328 329 329 330 331 331 333 338 342 346 348 348 349 350 350 350 350 350 349 349 348 348 348 347 347 347 347 348 347 348 348 348 348 349 349 349 349 349 349 349
318 318 319 321 322 323 323 324 325 325 323 323 324 323 323 322 321 322 320 319 319 319 321 327 330 329 330 332 333 332 335 341 344 345 347 349 349 350 351 350 350 350 349 348 348 348 348 347 347 347 347 347 348 348 348 348 348 347 348 348 349 349 349
317 318 319 320 322 324 324 325 326 326 324 323 324 324 323 323 322 322 321 319 319 321 324 326 329 332 331 333 335 335 335 340 343 343 346 348 349 350 350 350 350 350 349 349 348 348 348 348 347 347 347 347 347 348 348 349 348 348 347 347 348 348 349
316 319 320 320 321 323 323 323 324 325 325 324 325 324 323 322 323 323 322 320 319 323 328 327 327 331 332 333 337 337 336 338 341 343 345 347 348 349 349 349 350 350 349 349 349 348 348 348 347 347 347 347 348 348 348 348 348 348 347 347 347 347 348
317 319 319 319 319 319 319 321 322 323 323 323 323 324 323 322 322 323 323 321 321 325 330 328 326 329 330 333 336 337 337 338 339 342 344 345 346 346 347 348 349 349 349 349 349 349 349 349 348 347 347 348 348 348 348 348 348 348 347 347 347 347 348
317 318 317 317 317 316 317 318 320 321 322 322 322 324 324 322 323 323 322 322 323 328 334 331 328 330 330 332 335 336 337 337 338 340 342 342 342 342 344 346 348 349 348 348 349 349 349 348 348 347 347 348 347 347 347 347 347 347 347 347 347 347 347
316 316 316 316 316 317 317 318 318 319 319 319 320 321 323 322 323 323 323 323 324 329 339 337 331 330 328 327 330 332 335 337 337 337 339 341 341 340 343 346 348 348 348 349 349 349 349 348 348 348 347 347 347 347 347 347 347 346 346 347 347 346 346
318 319 319 319 318 318 318 318 317 316 317 318 319 321 322 322 323 323 324 323 324 330 340 340 333 330 328 326 326 327 329 333 335 336 339 341 340 340 343 345 347 347 348 349 349 348 349 348 348 348 347 347 347 347 347 347 347 347 347 347 347 346 346
320 322 321 319 318 318 317 316 316 316 316 317 319 322 322 321 323 324 323 323 326 331 336 335 332 329 329 330 330 327 325 327 329 332 335 338 340 341 342 343 344 346 347 347 347 348 348 348 348 348 348 348 348 347 347 347 347 347 347 347 347 346 347
319 319 317 314 315 316 316 316 316 316 316 316 318 321 322 323 323 322 324 326 325 327 332 331 330 329 330 332 332 330 328 325 325 326 329 332 336 339 342 343 343 344 345 346 346 347 347 348 348 348 348 348 348 348 347 347 347 347 347 347 347 347 347
315 315 314 313 313 314 315 316 316 316 316 316 318 320 322 324 323 321 326 330 326 325 329 331 331 332 333 335 334 333 332 328 326 326 325 327 330 333 337 341 342 344 345 345 346 346 347 347 348 348 348 348 348 348 347 348 348 347 347 347 347 347 347
313 313 313 313 313 313 314 315 315 315 316 317 318 320 320 323 324 324 328 333 331 327 326 328 331 333 334 333 331 330 328 327 327 326 325 326 329 331 334 337 340 342 343 344 345 345 346 347 348 348 348 348 348 348 348 348 348 348 347 347 347 347 347
312 312 312 312 313 313 314 315 315 315 316 317 318 320 321 322 324 325 327 331 330 326 328 334 336 340 341 336 329 331 334 335 334 333 330 329 328 331 333 334 336 339 341 343 343 344 346 346 347 347 348 348 348 348 348 348 348 348 348 347 347 347 347
313 313 313 313 313 314 315 315 315 316 316 317 321 326 328 328 327 327 327 328 329 330 337 343 344 347 350 346 341 346 349 349 347 346 342 336 331 330 329 330 332 335 339 341 342 344 345 346 346 347 347 348 348 348 348 348 348 348 348 347 348 347 347
314 314 314 314 314 314 315 315 316 316 318 322 328 334 336 335 333 331 327 327 332 338 343 346 348 350 352 352 353 355 353 353 354 353 350 345 338 333 329 329 330 332 336 340 342 343 344 345 346 346 347 347 348 348 348 348 348 348 348 347 348 348 348
314 314 314 315 315 317 318 319 318 318 322 329 333 336 337 336 336 335 332 332 337 340 342 347 350 350 351 353 353 353 352 353 354 354 354 351 345 340 336 333 330 331 335 338 339 341 343 344 345 346 346 347 347 348 348 348 348 348 348 348 348 348 348
314 314 314 316 318 320 322 323 321 321 326 332 334 335 333 332 331 332 333 333 334 335 339 345 349 350 351 352 352 352 353 352 352 353 355 354 349 342 337 334 332 331 333 337 338 339 341 343 344 346 346 346 347 348 348 348 348 348 348 348 348 348 348
313 314 315 319 321 322 324 325 325 325 328 330 333 332 329 326 326 327 328 329 329 330 335 341 347 350 350 351 352 352 351 351 352 353 353 354 352 344 337 336 335 332 332 336 339 339 341 344 346 346 347 347 347 348 348 348 348 348 348 348 348 349 349
313 314 316 321 322 322 324 325 324 325 327 329 334 335 329 323 323 324 325 325 326 328 331 335 343 350 349 349 352 351 351 351 351 352 354 355 353 345 339 337 336 335 334 336 338 340 343 346 346 346 347 347 348 348 348 348 348 349 349 349 349 349 349
314 315 316 318 320 323 327 326 323 323 325 326 332 337 332 323 321 322 323 323 324 326 329 332 339 348 350 350 352 351 350 351 352 352 354 355 351 344 339 339 337 337 338 338 341 343 345 346 346 346 347 347 348 348 349 348 349 349 349 349 349 349 349
314 314 316 317 319 325 328 325 321 321 323 323 325 332 333 325 321 322 322 322 322 324 327 329 337 347 352 352 352 351 348 350 352 353 354 353 348 341 339 339 338 338 339 340 343 345 346 347 347 346 347 348 348 349 349 349 349 349 349 349 349 349 349
313 314 315 318 319 323 324 322 320 321 323 323 324 333 336 326 320 321 321 320 322 323 324 327 337 349 354 352 350 348 347 351 353 353 354 351 345 340 341 340 339 340 340 341 343 344 346 347 347 347 347 348 348 349 349 348 349 349 349 349 349 349 349
313 313 315 316 318 321 321 319 320 321 321 322 328 338 337 324 319 319 318 319 321 322 322 325 333 344 348 348 347 345 346 352 353 352 354 352 347 342 342 342 341 341 342 342 343 345 345 346 347 347 348 348 348 349 349 349 349 349 349 349 348 348 349
312 314 315 315 317 320 319 318 320 319 320 326 334 336 328 319 317 317 315 317 320 321 321 323 326 329 332 338 344 344 347 352 353 352 353 353 351 347 343 343 344 343 343 344 344 345 345 346 347 348 348 348 349 349 349 349 349 349 348 348 349 349 349
312 313 314 315 318 319 316 318 319 318 323 331 330 323 318 316 316 315 314 315 317 318 319 321 322 322 324 331 339 343 347 352 353 352 353 353 352 351 346 344 345 345 345 345 345 345 346 346 347 348 348 348 349 349 349 349 348 348 348 348 349 349 350
314 314 314 316 319 318 315 318 319 317 319 322 318 314 316 316 313 312 313 314 313 314 317 319 320 321 322 326 334 340 347 351 351 351 353 352 352 352 350 348 347 346 346 346 346 347 347 347 348 348 348 349 349 349 349 349 349 349 349 349 350 350 350
316 317 317 317 317 316 315 316 317 315 314 314 313 314 316 314 311 310 311 312 311 312 315 318 319 318 318 322 330 338 345 350 350 351 352 352 352 353 352 351 350 348 347 347 347 348 348 348 349 349 348 349 349 349 349 349 349 349 349 349 350 350 350
313 316 316 314 314 314 314 314 314 313 313 312 312 314 314 313 311 310 310 311 311 311 315 318 319 317 316 319 326 334 342 347 350 349 350 351 352 353 353 354 352 351 350 348 348 348 349 349 349 349 349 349 349 349 349 349 349 349 349 349 349 349 349
312 314 314 312 311 312 314 313 312 312 312 312 313 313 313 312 311 310 310 310 310 311 315 318 317 316 315 317 323 331 339 345 349 348 348 349 350 351 353 354 354 354 353 351 350 349 349 349 349 350 350 349 349 350 349 349 349 348 348 348 349 349 350
312 314 313 311 311 312 314 315 314 313 313 313 313 313 312 311 311 311 311 311 310 311 314 317 318 316 314 315 321 329 337 343 346 347 347 348 348 349 350 351 353 354 354 354 353 351 350 349 349 349 349 350 349 349 349 349 349 349 350 350 350 350 351
312 312 312 311 311 313 315 315 314 313 312 312 312 312 312 311 312 312 311 311 311 311 313 316 317 316 314 314 318 326 334 340 345 346 346 346 347 347 347 348 350 351 352 353 353 353 353 353 352 351 351 351 350 350 350 350 349 350 351 352 353 355 356
311 311 311 311 311 314 315 314 313 311 311 311 312 312 312 311 312 312 312 311 311 311 312 314 316 317 315 313 316 322 330 337 342 345 345 345 346 346 346 346 346 347 347 349 350 351 353 354 355 355 355 354 354 354 353 353 353 354 356 357 358 359 358
311 311 311 310 311 312 312 312 311 311 312 312 312 312 312 312 312 313 312 312 312 312 312 312 314 316 316 314 314 320 327 334 339 343 345 345 344 345 345 345 345 344 343 344 345 346 347 349 352 355 356 357 358 358 358 358 358 359 360 360 360 359 359
311 311 310 310 310 310 311 311 311 311 312 312 312 312 312 312 312 312 312 312 311 312 312 312 312 314 315 314 313 317 326 333 336 339 344 345 343 343 344 344 344 343 342 341 342 342 343 344 345 347 350 353 355 357 359 360 361 361 361 360 360 359 359
310 310 310 310 310 310 311 311 311 312 312 313 313 313 313 312 312 312 312 312 311 311 312 312 311 312 314 314 312 315 323 331 334 336 341 344 342 342 343 343 344 344 343 342 342 342 343 344 344 344 345 345 346 348 349 351 353 355 356 357 357 357 357
310 309 309 309 310 310 311 311 311 313 314 314 314 314 314 313 313 312 311 312 311 311 312 312 312 312 313 313 312 314 319 328 333 334 337 341 342 341 342 342 343 343 343 343 344 344 345 346 347 347 348 347 347 348 349 348 346 345 344 347 349 349 350

ECMWFFLT2_850_thetae_060.txt.gz
Theta_e
323 324 325 325 324 322 323 321 318 320 322 321 319 317 318 319 319 320 320 320 323 324 326 329 330 331 332 333 335 336 337 337 339 342 345 347 350 352 353 354 354 355 357 357 357 357 357 357 356 356 355 353 351 348 345 345 346 347 346 347 347 347 347
322 324 325 325 325 325 323 321 321 322 323 323 320 318 318 318 319 320 319 318 320 319 322 327 329 328 330 331 333 334 335 336 338 340 341 343 347 350 353 354 354 355 356 356 356 357 356 357 356 355 354 353 351 348 345 345 346 346 347 347 347 347 347
322 323 323 322 324 326 324 324 326 324 320 320 321 320 320 320 319 319 318 317 318 318 321 325 327 327 327 330 330 332 334 336 338 338 341 343 344 349 352 353 354 355 355 356 356 357 356 356 356 356 355 353 352 348 345 344 346 346 347 347 348 348 348
321 321 322 320 322 324 324 325 327 325 322 321 321 321 321 320 319 320 319 317 318 321 324 326 328 329 327 328 330 330 331 334 337 338 341 343 345 348 352 354 354 355 355 355 355 356 356 355 357 357 356 355 353 350 346 345 345 345 346 348 347 348 348
319 319 321 321 321 322 322 322 323 324 324 324 323 323 321 320 320 320 321 319 319 324 328 327 328 330 330 330 330 331 332 333 335 337 340 341 345 349 350 352 354 355 355 354 354 355 355 356 356 357 357 356 355 354 351 347 346 345 345 346 346 347 348
317 319 321 322 322 323 323 322 322 323 323 323 321 321 321 321 320 320 321 320 321 326 330 327 327 329 330 331 332 331 334 334 334 337 339 340 345 350 351 352 354 354 354 355 354 355 355 355 356 357 356 357 356 356 355 351 350 349 347 346 345 346 346
318 319 321 322 321 321 322 322 324 325 324 322 321 320 321 322 321 321 320 320 323 328 330 329 328 329 328 329 330 331 333 334 335 337 338 340 345 350 351 352 352 354 354 355 354 355 355 355 355 356 356 357 356 357 356 354 353 351 349 349 347 345 345
319 319 320 321 320 320 321 322 324 326 325 324 324 323 324 323 321 321 321 320 323 329 332 331 330 330 329 330 330 330 331 331 333 335 336 338 345 350 351 351 352 353 354 355 355 354 355 354 355 355 356 356 357 357 357 355 354 352 352 353 351 346 343
318 318 318 319 321 320 320 323 324 325 325 326 326 325 325 325 323 322 322 320 323 330 333 331 331 330 330 331 331 330 331 331 332 335 336 338 344 350 352 351 351 352 354 356 355 355 356 354 354 355 355 356 357 356 356 355 355 354 354 355 354 350 344
318 318 319 319 320 321 321 322 324 323 324 325 325 324 323 324 324 325 323 321 324 331 334 332 332 331 329 331 332 331 331 331 331 333 336 340 346 352 353 352 352 352 354 356 356 356 356 355 354 355 355 356 356 356 356 355 355 356 356 356 356 353 348
319 320 321 320 318 319 320 321 322 322 322 324 325 324 322 324 325 324 325 325 326 329 334 333 332 331 330 329 331 331 333 332 331 334 336 339 344 348 352 353 353 352 354 357 357 356 355 355 354 354 355 355 355 355 355 355 356 357 356 357 357 355 352
317 318 319 317 317 317 318 319 320 321 322 322 323 323 324 327 326 323 327 331 327 328 333 334 332 333 332 332 332 334 333 332 332 334 336 336 337 342 347 350 352 354 355 357 358 357 356 355 354 355 355 355 354 355 355 355 356 356 357 356 357 356 353
313 314 315 315 315 316 317 317 318 319 321 321 321 323 325 328 326 325 329 332 329 331 333 331 331 335 337 336 338 336 333 336 337 338 337 335 333 336 342 348 352 353 354 358 358 356 355 355 355 355 355 355 355 355 355 356 355 355 357 357 356 356 354
312 312 313 314 314 315 316 317 317 318 319 320 321 322 324 326 326 327 329 332 331 331 332 334 336 338 338 337 338 337 337 342 344 343 342 339 336 334 335 343 350 351 353 356 357 354 353 354 355 355 355 355 354 354 355 355 356 356 357 357 357 356 353
312 312 313 314 314 315 316 316 316 317 318 319 320 321 323 323 325 326 328 329 329 329 335 341 342 340 339 337 337 340 344 348 349 349 345 343 345 343 339 339 344 349 351 354 356 354 351 351 352 354 355 354 354 354 355 355 355 355 356 357 356 353 351
311 312 313 314 314 315 315 316 317 317 318 319 320 320 322 324 325 328 327 326 329 333 338 342 343 342 341 338 339 345 350 351 353 353 350 350 352 353 352 348 345 346 349 352 354 352 348 349 351 353 355 355 354 354 355 355 356 355 356 356 355 353 352
311 311 313 314 315 317 317 317 317 318 318 320 320 321 327 332 331 329 328 329 334 337 337 339 341 341 343 344 346 351 354 355 354 354 354 354 355 356 358 358 354 349 346 348 351 349 347 349 351 352 354 354 354 354 355 355 355 354 355 357 356 354 353
310 312 314 316 316 316 318 319 320 320 319 320 320 323 332 336 334 331 332 334 336 335 334 336 338 339 342 346 349 352 354 354 354 355 355 355 356 357 358 359 359 357 351 346 348 350 348 346 348 351 353 353 354 354 355 355 355 355 355 357 357 355 353
310 311 313 316 317 318 320 324 324 323 321 320 323 329 333 334 333 333 334 335 333 332 333 334 336 338 340 343 346 349 352 353 354 354 354 355 356 357 358 359 360 361 356 348 345 351 351 348 349 352 355 354 354 355 355 355 355 356 356 357 358 356 353
310 310 313 316 318 318 322 326 326 326 326 325 329 332 331 330 330 331 332 333 331 330 332 333 334 337 340 342 345 349 350 352 353 352 353 355 356 356 358 358 359 361 359 349 342 347 352 350 350 353 354 355 355 355 355 355 355 356 356 357 358 357 352
311 311 312 315 317 318 321 327 328 327 329 329 331 333 330 328 327 328 329 329 327 328 331 332 333 337 340 342 345 347 349 350 351 351 352 354 355 356 357 358 360 359 356 348 342 346 352 351 350 352 353 354 355 354 354 355 355 356 356 356 356 354 351
311 311 312 315 317 318 322 327 327 325 327 327 327 332 331 326 324 326 326 325 325 326 328 329 331 337 342 344 345 345 344 343 345 347 350 353 354 356 357 359 359 354 350 346 343 347 351 351 350 351 353 354 354 354 354 355 355 356 356 355 353 351 349
311 311 313 315 317 320 324 325 322 322 326 325 326 332 332 325 323 324 323 322 322 323 324 326 330 338 344 345 343 338 334 337 341 344 348 353 355 355 356 359 357 351 347 347 345 347 352 352 349 351 353 354 354 354 355 356 356 357 357 354 350 347 347
311 311 313 314 315 320 323 321 320 322 324 324 328 335 331 324 322 323 322 321 320 319 321 324 327 331 335 336 332 328 327 333 340 345 349 353 354 355 357 359 357 351 349 349 348 349 353 351 350 353 354 353 354 354 356 356 356 356 355 351 348 346 347
310 311 313 314 315 318 320 320 321 322 323 327 332 331 326 321 321 320 319 319 319 317 319 322 323 324 324 324 323 324 326 332 340 348 351 353 354 355 356 358 356 352 351 352 350 350 352 350 352 354 354 354 354 355 356 356 356 356 354 350 347 347 346
310 311 312 313 315 318 318 319 320 320 323 329 328 321 318 319 320 319 318 317 317 317 318 319 320 321 322 321 322 323 326 333 341 348 352 353 353 354 356 357 356 354 353 353 350 350 353 353 354 354 354 353 355 355 355 354 354 356 355 351 347 347 347
310 311 312 314 316 316 317 319 319 319 321 322 318 316 317 319 318 317 317 316 315 316 317 317 318 320 320 321 321 322 326 333 340 346 351 353 353 353 355 356 357 357 355 352 351 352 354 353 353 354 354 354 353 352 351 351 353 356 355 350 346 347 347
312 312 313 315 316 316 316 317 318 317 317 315 314 316 318 318 317 317 317 316 315 315 316 316 317 319 320 320 321 322 325 332 339 345 350 353 353 353 354 354 357 358 358 354 351 353 355 354 354 355 355 353 350 348 347 350 353 354 353 350 348 347 347
314 314 315 315 315 315 315 316 317 315 314 314 314 315 316 317 316 316 316 316 315 315 315 315 316 317 317 319 320 320 322 328 336 344 349 352 353 353 353 354 355 358 359 358 356 355 355 355 355 357 357 352 348 348 349 349 352 354 353 351 349 348 348
313 313 314 314 314 314 315 315 316 315 314 314 315 315 315 315 315 315 315 316 316 315 315 315 315 314 315 318 319 318 320 326 335 343 348 350 351 352 353 353 354 355 357 359 361 361 359 357 357 358 360 355 349 349 350 349 350 353 352 349 348 348 348
312 313 314 313 313 313 314 315 316 315 315 315 314 314 314 315 315 315 315 316 316 316 315 315 313 312 314 317 317 317 320 325 334 342 347 348 349 350 351 352 353 354 355 356 359 361 361 362 362 362 362 359 353 349 349 349 350 351 349 349 349 349 349
312 313 314 312 312 313 315 316 316 315 315 314 314 314 314 314 314 315 315 316 317 317 316 315 313 312 315 317 316 316 319 324 332 340 345 347 348 347 348 350 351 352 353 354 356 357 358 360 362 362 363 363 359 352 348 350 351 350 348 349 350 350 350
312 313 313 312 312 314 316 316 315 314 313 313 313 314 314 315 315 315 315 316 317 317 316 315 313 312 314 316 315 316 319 323 330 338 343 345 346 345 346 348 349 350 351 352 353 354 355 356 356 357 359 359 357 353 351 351 351 350 348 349 351 350 350
312 312 311 311 312 313 314 313 313 313 313 313 313 314 315 315 315 315 315 316 317 317 316 315 313 313 314 314 314 316 319 322 328 335 341 344 344 343 344 345 346 348 349 349 351 353 353 354 355 355 355 355 353 351 351 350 350 350 350 351 351 351 351
310 310 310 310 311 312 312 312 313 313 313 314 314 314 315 315 315 315 315 316 316 316 315 314 314 313 314 314 314 316 319 322 327 333 339 341 342 342 343 343 344 346 346 347 349 350 352 353 355 355 355 355 355 353 353 352 351 351 350 349 351 352 352
309 309 309 310 310 311 312 312 312 313 314 314 315 315 316 316 316 316 315 316 316 317 316 315 314 314 314 313 314 316 319 322 326 331 335 339 341 342 342 342 343 344 345 346 347 348 350 352 353 354 355 356 357 358 358 358 358 357 355 352 353 356 355
308 309 309 309 310 311 311 311 312 313 314 315 316 316 317 316 316 316 315 316 316 316 316 315 316 316 314 314 315 316 317 321 325 327 330 335 340 340 340 341 342 342 344 345 346 347 348 350 351 352 353 354 356 358 359 361 362 363 363 362 362 363 364

ECMWFFLT2_850_thetae_063.txt.gz
Theta_e
323 324 325 325 323 321 323 323 320 322 326 323 319 317 320 321 319 319 319 318 322 323 326 329 330 331 333 334 337 339 341 340 341 344 348 348 347 348 350 352 352 353 355 357 360 360 361 361 359 360 360 361 361 362 362 358 353 350 346 345 344 343 344
323 324 325 325 324 324 322 320 321 324 325 324 321 318 318 320 319 320 319 319 320 319 321 328 331 331 331 333 335 337 339 340 342 343 345 347 348 348 350 351 351 353 355 357 360 361 360 361 360 360 360 360 361 362 362 359 356 353 347 344 345 345 345
324 324 324 323 324 325 322 322 325 324 320 319 320 319 317 319 319 319 319 319 320 320 322 326 329 329 331 333 334 335 336 340 341 342 342 345 348 348 349 350 352 355 355 356 360 361 360 362 361 361 361 361 362 362 363 362 357 351 344 343 346 345 345
322 322 322 320 321 324 324 323 325 325 322 320 320 319 318 319 319 318 318 318 319 322 327 330 330 331 331 332 333 334 335 337 339 339 339 342 345 348 349 350 352 354 353 354 358 360 361 361 362 361 361 361 361 362 362 363 361 356 349 344 344 344 344
318 318 320 321 320 323 322 321 321 323 324 323 321 321 319 319 318 319 320 318 319 325 330 331 331 332 332 331 333 334 334 335 336 336 337 340 344 346 349 349 350 351 352 353 355 358 359 360 361 362 360 361 361 361 362 362 363 361 356 349 345 344 343
316 317 320 322 322 323 323 322 322 322 324 322 320 320 320 319 318 319 320 319 320 328 331 329 330 331 331 332 332 332 333 334 334 335 336 338 341 343 347 348 346 347 350 352 354 355 357 359 361 361 361 361 361 360 361 361 361 361 359 356 351 345 343
317 320 321 322 322 322 323 323 323 324 324 322 319 318 320 319 318 320 320 319 322 329 333 331 331 330 330 332 332 331 333 331 331 334 336 339 339 342 345 346 345 344 348 351 353 355 355 358 361 361 361 361 361 360 360 360 361 361 359 358 355 348 344
319 320 321 322 322 322 321 321 324 323 322 323 323 323 323 320 319 320 320 318 323 330 334 332 331 332 331 333 332 331 333 331 331 332 334 338 340 341 344 345 345 344 344 349 353 354 355 358 361 361 361 361 360 360 361 360 359 359 358 358 358 354 347
317 318 318 320 320 320 320 321 323 324 323 325 325 325 325 322 320 322 321 318 322 329 335 332 331 332 330 331 331 331 333 333 333 333 334 337 340 342 345 346 344 345 344 347 351 353 355 358 360 362 361 362 361 359 360 360 358 358 357 356 359 359 354
316 316 318 318 319 321 321 321 322 323 324 325 323 322 322 321 323 325 323 320 324 331 334 333 331 331 330 331 332 330 332 332 333 335 335 337 338 342 345 345 343 344 345 348 351 354 357 359 360 361 362 361 361 360 360 359 358 358 357 356 357 360 359
318 318 320 321 321 321 321 321 322 322 323 325 325 321 319 321 323 323 325 326 327 330 332 333 333 333 331 330 331 331 331 332 333 334 336 338 339 342 345 346 344 345 346 349 354 357 359 360 359 360 362 361 360 361 360 360 359 358 357 357 357 359 361
317 318 319 319 320 319 320 320 321 322 323 324 324 322 322 325 323 322 328 330 327 329 334 334 334 335 333 331 332 334 333 332 334 334 336 338 340 343 347 349 348 348 348 352 358 360 359 360 359 360 361 361 360 361 360 360 360 358 358 357 357 359 361
314 315 316 316 317 318 318 319 320 321 323 323 322 322 324 327 324 323 329 331 329 331 334 336 337 339 338 338 337 336 336 335 337 338 336 335 337 339 344 348 350 351 351 354 359 361 360 360 359 358 360 361 360 360 361 360 359 359 359 357 357 359 360
313 313 314 314 315 315 316 318 318 320 321 322 322 323 325 326 326 327 330 331 331 332 332 337 341 340 338 340 338 336 338 341 341 339 338 335 334 336 337 343 348 351 352 356 361 363 362 360 359 358 358 360 361 360 361 361 359 359 359 358 358 360 360
312 312 313 313 313 314 315 316 318 319 320 321 322 323 324 325 325 327 329 329 330 331 332 335 340 340 338 339 338 338 340 343 344 343 341 340 341 341 341 342 346 348 350 355 360 364 363 361 359 358 358 359 360 360 360 361 360 359 359 360 360 360 361
311 312 312 313 313 314 314 315 318 318 319 321 321 322 324 324 324 326 326 326 329 331 331 334 338 338 337 338 339 341 342 343 346 344 343 343 342 343 344 346 348 348 349 350 357 362 363 361 360 358 358 358 359 360 360 359 359 359 360 360 361 361 362
311 311 312 313 313 313 313 314 317 319 319 320 320 322 323 324 324 325 325 326 329 329 331 336 338 337 338 342 342 342 342 342 342 342 343 344 343 342 345 347 349 350 350 350 353 358 361 361 359 357 357 358 359 358 358 359 359 359 360 360 361 361 363
311 311 312 313 314 314 315 315 317 319 320 320 320 321 322 323 324 325 326 327 329 331 335 338 338 339 340 342 342 340 340 339 338 339 342 343 344 345 346 346 349 353 358 359 357 356 358 359 359 358 356 357 359 358 358 358 359 359 359 360 362 362 363
311 311 312 313 313 314 315 316 317 318 319 320 321 321 322 323 323 324 325 327 329 334 338 337 338 339 339 339 340 339 339 339 340 342 344 345 348 350 349 349 353 358 361 362 361 357 355 354 356 358 358 357 358 358 357 358 359 359 359 360 362 362 363
311 311 312 312 313 314 315 316 317 319 320 320 320 321 322 321 323 327 329 329 331 334 337 336 336 338 338 338 338 337 338 341 343 344 347 348 350 351 352 353 356 359 360 361 362 362 359 356 353 354 357 356 357 357 357 357 359 359 359 360 362 363 363
311 310 311 312 313 313 313 317 321 324 325 325 326 327 327 324 325 330 332 333 332 332 334 334 335 337 337 336 336 337 339 338 339 340 342 344 346 349 351 352 355 358 360 360 361 362 362 359 354 352 354 355 355 357 357 357 358 359 360 359 362 363 364
311 310 310 312 313 313 316 322 325 325 326 326 327 330 332 331 330 331 331 331 331 330 332 332 333 336 337 335 337 339 336 334 336 337 339 342 345 347 350 352 355 357 358 359 361 361 360 357 354 353 354 355 354 357 357 357 358 358 359 360 362 363 364
311 310 310 311 312 315 322 325 323 322 325 325 326 331 333 331 330 329 329 329 329 329 329 329 332 337 338 335 336 335 331 332 333 334 337 341 344 347 350 352 354 356 357 360 361 361 358 353 350 350 353 354 354 356 356 357 358 359 359 360 362 363 363
312 311 311 311 311 317 324 324 321 322 323 323 326 331 332 328 327 327 327 327 327 327 326 329 332 336 337 336 334 330 329 330 332 334 336 339 344 348 351 352 354 356 358 360 360 358 355 352 348 349 353 355 355 356 357 357 358 359 359 360 362 364 364
312 311 312 311 311 317 322 321 321 322 321 323 328 329 326 324 324 324 324 324 324 323 324 327 330 331 331 330 328 327 328 328 331 335 337 339 345 350 352 353 355 356 357 359 359 357 354 351 348 349 354 355 355 356 357 358 358 358 359 360 363 364 364
312 312 312 312 312 317 320 320 320 321 321 324 326 323 320 321 323 322 322 322 321 320 321 323 324 325 325 324 324 325 325 326 329 334 338 343 348 352 353 355 355 356 357 359 358 357 354 351 349 351 354 354 356 357 357 358 358 359 359 361 363 364 363
312 312 312 312 313 316 318 319 319 321 321 322 320 319 319 321 321 321 321 321 320 319 321 321 321 322 322 321 321 322 323 325 327 333 339 343 348 352 353 355 355 356 357 358 359 357 354 351 350 353 354 354 355 357 357 358 358 359 360 362 364 364 362
313 313 313 314 315 316 317 318 319 320 320 318 318 318 319 319 319 319 320 320 319 319 320 320 321 321 320 319 320 321 322 324 327 333 339 342 346 351 353 354 355 356 357 358 360 356 353 353 353 353 353 354 356 357 357 358 358 359 361 362 364 364 363
314 314 314 316 317 316 316 316 318 319 318 317 317 318 318 318 318 318 318 318 318 318 319 320 321 320 319 318 319 320 320 322 325 330 335 340 344 349 352 354 355 356 357 359 360 357 353 354 354 353 354 356 356 357 358 359 359 360 362 363 364 364 364
314 315 315 316 316 316 316 316 317 318 318 318 317 317 318 318 317 316 317 317 318 318 319 320 320 320 318 318 319 319 319 321 323 327 331 339 345 348 352 354 354 357 359 360 362 362 357 353 354 355 356 358 358 359 360 361 360 362 364 364 364 365 364
314 314 315 317 316 316 316 316 317 318 318 318 317 317 317 317 317 316 316 317 317 318 319 320 319 319 319 318 318 317 318 319 322 324 329 337 344 348 350 352 353 356 359 361 363 366 363 359 358 356 356 360 361 362 363 362 361 363 367 366 365 366 367
313 314 315 315 314 314 315 316 316 317 317 316 316 317 316 316 317 317 316 316 317 318 319 319 319 319 319 318 316 316 317 319 321 323 328 337 344 346 349 351 353 356 358 359 362 364 365 366 365 361 359 362 364 364 364 362 361 366 369 368 368 369 368
313 313 313 313 313 314 316 316 315 315 315 315 316 316 316 317 317 317 316 316 317 318 319 319 319 319 319 317 316 316 318 319 320 323 328 336 342 345 346 349 351 353 355 357 359 361 363 365 365 364 364 364 364 364 364 363 364 368 370 369 368 368 367
312 313 312 311 312 313 314 314 314 314 314 315 316 316 317 317 317 317 317 317 317 318 319 319 319 319 318 317 315 316 318 319 320 322 327 333 339 343 345 347 349 351 353 354 356 357 359 361 363 365 366 366 366 365 364 363 365 367 368 368 368 368 368
311 311 310 310 311 312 313 313 313 313 314 315 316 317 317 317 317 318 318 318 318 318 319 319 319 318 317 316 316 316 318 320 321 323 326 330 335 340 343 344 347 349 351 353 355 355 355 356 358 361 363 365 366 367 366 365 366 367 368 368 368 368 368
309 309 309 310 310 311 312 312 312 312 313 315 315 316 317 318 318 318 318 318 318 318 318 319 319 317 317 316 316 315 317 320 321 322 325 328 331 337 341 343 344 347 349 351 353 354 354 355 356 357 359 361 362 364 366 366 366 367 368 367 367 367 367
308 308 308 309 310 311 311 311 312 312 313 314 315 316 317 318 318 319 319 318 318 318 318 319 318 317 317 317 317 316 317 321 322 322 324 326 329 332 337 340 343 345 347 349 351 353 354 355 355 356 357 358 360 361 362 363 365 367 367 367 366 366 366

ECMWFFLT2_850_thetae_069.txt.gz
Theta_e
322 323 324 326 325 323 325 323 320 322 324 324 320 320 321 319 320 322 321 321 324 324 329 329 327 328 326 331 345 348 350 354 354 353 354 351 351 352 353 354 355 355 354 352 351 351 352 353 354 354 355 355 355 356 355 355 354 352 349 346 343 337 333
320 320 322 323 325 325 323 320 321 324 325 324 321 320 321 321 320 321 320 322 322 319 324 329 327 330 325 328 343 348 349 354 356 354 353 352 352 352 353 355 355 355 355 353 352 352 352 353 353 355 355 355 355 355 356 356 355 354 351 349 346 342 337
318 318 320 322 324 326 324 323 324 324 321 321 321 319 320 321 321 320 320 322 321 321 325 326 326 330 328 331 344 350 351 354 356 354 353 353 354 354 355 356 355 354 354 353 352 352 353 354 354 355 354 355 355 356 356 356 356 355 353 351 349 345 341
316 317 319 320 321 324 325 324 325 324 322 321 322 321 320 321 321 321 322 321 321 327 331 327 326 329 329 334 347 353 353 354 353 352 353 353 354 354 355 355 356 354 353 353 352 353 354 355 354 355 355 355 355 356 356 356 357 356 355 353 351 348 345
315 315 318 319 318 320 322 322 321 322 323 323 322 322 320 320 322 322 323 323 324 331 334 332 331 331 329 335 348 352 352 352 352 352 352 353 353 354 354 355 355 354 354 353 353 354 354 353 354 354 355 356 355 355 356 356 357 357 356 355 353 350 348
315 315 317 318 317 318 319 320 320 320 322 322 321 322 322 320 320 321 322 322 325 332 335 335 334 332 330 331 342 350 353 351 350 352 351 352 353 353 353 355 355 355 354 354 354 354 355 354 354 353 354 355 356 356 356 357 357 357 357 356 355 353 351
316 316 317 317 318 318 318 319 321 321 321 320 319 321 325 322 320 320 321 320 324 331 334 334 333 334 331 329 335 345 353 351 350 351 351 351 352 352 353 353 355 356 355 355 354 353 354 354 355 354 355 356 356 357 357 357 357 357 358 357 356 354 353
316 316 316 315 317 318 318 319 321 322 322 321 320 323 324 322 320 321 320 320 322 328 334 335 336 336 332 329 330 336 345 349 351 352 351 351 351 350 352 354 354 355 355 355 355 353 353 354 354 354 355 355 356 356 357 357 358 358 358 358 358 357 356
319 316 314 317 321 320 318 320 322 322 323 322 322 323 324 323 322 322 323 322 323 329 338 338 338 339 337 338 338 333 335 340 345 351 352 350 350 350 351 352 353 353 354 355 355 355 354 354 355 355 354 355 356 356 357 357 358 359 359 359 359 359 358
321 320 319 321 322 319 317 319 320 321 322 322 321 323 325 326 325 325 326 326 328 332 337 339 338 339 340 342 342 340 339 338 339 346 351 349 349 350 349 350 352 353 354 354 354 355 355 354 355 355 355 356 356 357 357 357 358 359 360 360 361 360 359
318 319 319 319 318 316 316 316 316 318 319 320 321 323 325 327 326 327 329 329 328 330 334 340 339 337 341 342 341 341 341 340 340 344 348 348 348 350 350 350 352 353 354 354 354 355 356 354 354 355 355 356 357 357 357 357 358 359 359 361 362 362 361
314 314 314 314 315 314 314 314 314 316 318 320 321 322 324 327 327 329 332 330 327 326 330 338 340 339 341 343 341 341 340 339 341 343 347 348 348 350 351 351 352 353 354 355 354 355 355 353 353 355 356 355 356 357 357 357 358 358 359 360 362 362 362
311 311 312 313 313 313 313 314 314 315 316 318 319 319 321 324 325 326 328 328 327 326 327 335 339 339 341 341 341 341 339 338 340 344 348 349 349 350 350 351 353 353 354 355 355 354 353 353 354 354 355 356 355 356 357 356 358 358 358 359 361 362 363
311 311 311 311 312 312 313 313 313 314 315 316 316 317 319 320 322 323 324 327 328 327 327 335 339 338 339 340 340 340 340 340 342 345 348 348 348 348 347 349 352 354 355 356 356 357 355 354 355 354 355 355 355 355 356 355 357 358 358 359 361 362 363
312 311 312 312 312 312 312 313 313 314 314 315 315 317 318 320 323 323 324 327 329 329 331 337 339 338 340 340 341 342 342 342 342 344 346 347 348 348 346 347 350 351 353 356 357 359 358 356 356 355 355 355 355 356 356 356 357 357 357 358 360 362 363
312 312 312 312 312 312 312 312 313 313 312 314 315 316 318 320 322 322 323 326 329 329 332 339 341 340 341 339 339 340 340 339 340 341 341 343 345 347 347 347 348 348 350 353 355 357 360 359 359 358 356 357 356 356 357 357 358 357 357 358 360 361 363
313 312 312 312 313 314 313 312 313 314 313 314 314 315 318 318 319 321 322 324 329 330 333 339 340 340 341 337 335 336 336 336 336 337 338 339 340 342 344 345 347 348 349 352 353 354 356 357 358 359 358 358 357 357 358 358 359 358 359 359 359 360 361
314 313 313 314 314 314 315 314 314 314 313 314 315 316 318 319 319 319 320 325 331 332 333 335 336 338 339 335 331 331 332 333 334 334 335 336 336 338 339 341 343 345 347 349 351 351 352 353 355 356 357 357 359 359 359 359 359 359 359 359 359 359 360
314 313 314 315 315 315 315 314 314 316 317 319 321 321 321 324 325 323 325 330 331 331 331 332 333 335 335 332 329 329 329 330 332 332 332 333 333 334 336 337 339 341 343 347 349 350 352 353 354 355 355 356 359 360 359 359 359 359 358 358 358 358 359
315 314 314 315 315 315 314 313 316 321 325 325 328 329 328 327 328 328 329 330 329 329 329 329 331 333 335 333 330 327 327 328 329 330 331 331 330 331 333 335 337 340 342 343 347 349 351 351 353 354 355 354 355 356 357 359 360 359 358 358 357 356 356
315 315 314 314 315 314 314 315 320 325 326 326 330 332 329 326 326 327 328 328 327 327 327 329 330 332 335 336 330 327 326 326 326 328 329 328 328 330 333 335 336 339 341 343 344 345 348 352 354 355 356 355 355 354 354 355 357 358 358 358 357 356 356
316 315 316 316 315 314 314 320 325 324 322 323 325 328 328 326 324 325 326 326 326 325 326 328 330 334 343 342 331 327 326 325 325 326 327 327 328 330 332 334 336 337 340 343 345 345 345 350 353 356 356 357 356 355 353 352 353 355 355 356 355 356 357
315 315 316 316 314 314 318 324 324 321 320 321 322 325 328 325 323 324 324 324 324 324 325 326 328 333 342 337 328 325 326 325 325 325 325 327 328 329 332 334 336 337 339 342 346 348 347 348 350 353 355 355 355 355 354 351 352 352 353 353 354 354 354
316 315 316 315 314 315 320 321 320 319 320 319 320 325 327 324 322 324 323 323 323 322 323 325 325 326 329 328 324 324 325 324 324 324 325 327 328 330 332 334 335 338 340 342 345 346 347 348 350 353 355 355 356 356 355 353 351 351 351 351 352 354 353
316 315 315 315 315 317 319 317 317 319 319 318 320 324 325 321 321 323 323 322 322 321 321 322 323 323 323 323 324 323 323 323 324 324 324 326 328 329 331 333 336 337 340 343 345 346 345 347 350 354 357 357 357 358 357 356 353 350 349 350 351 354 354
316 315 315 315 316 317 316 315 316 319 321 321 321 322 322 320 321 322 322 321 322 321 321 321 321 321 321 322 323 322 322 323 323 323 324 326 328 329 331 333 335 338 339 342 344 346 346 346 349 351 354 356 357 358 359 359 357 352 351 351 351 352 353
316 316 316 316 317 317 315 315 317 319 321 321 320 320 320 321 321 322 321 321 321 321 320 320 320 320 321 322 322 322 322 322 322 323 325 326 327 329 331 332 334 338 340 343 345 347 348 348 348 349 352 354 354 356 358 359 359 357 354 351 351 351 353
315 316 316 316 316 316 315 315 316 317 317 318 318 318 320 320 319 320 321 320 320 320 320 320 320 320 320 321 322 322 322 320 321 323 325 326 328 328 330 332 335 337 340 343 346 348 349 350 350 352 356 359 359 359 360 359 361 362 359 353 350 351 352
314 315 316 315 315 314 314 314 316 316 316 316 317 318 319 319 319 320 320 319 319 319 319 319 320 319 320 320 321 322 321 319 320 323 325 326 327 328 329 332 334 337 340 342 345 348 349 350 351 355 358 361 362 363 361 360 361 363 362 356 350 350 351
313 313 314 314 314 313 313 313 315 315 315 316 316 317 317 318 318 319 319 319 319 318 318 319 319 319 319 319 320 322 321 319 320 322 323 324 327 329 329 331 334 337 340 342 344 347 348 348 351 355 358 360 363 363 360 359 361 361 360 358 354 351 351
312 313 314 313 311 311 311 313 314 314 314 314 314 314 315 316 316 317 318 318 318 318 318 319 319 319 319 319 320 322 321 318 319 321 321 323 326 328 329 330 333 336 339 342 344 345 346 347 350 354 357 360 363 363 362 362 360 357 357 356 352 352 353
311 313 313 311 309 310 312 313 312 311 312 313 313 313 314 314 315 316 316 317 318 319 319 319 319 319 319 319 320 321 321 319 318 319 320 322 324 326 328 331 332 335 338 341 341 342 343 345 348 351 354 358 361 363 365 365 361 356 356 354 350 351 353
310 311 311 310 309 310 311 311 310 310 311 311 311 312 313 314 314 315 316 317 318 318 319 319 319 319 319 319 320 321 321 320 318 318 320 322 323 325 327 330 331 333 336 338 338 339 342 345 348 350 353 355 360 362 365 368 366 361 357 353 350 351 352
310 310 310 309 309 309 309 309 309 310 310 310 311 312 313 313 314 315 315 316 317 318 319 319 320 319 320 320 320 321 321 320 318 318 320 322 323 323 325 328 331 332 334 335 336 338 342 346 349 351 352 354 357 360 364 368 369 368 363 357 354 356 356
310 310 309 309 309 308 309 309 309 309 310 310 311 312 312 313 313 314 315 315 316 317 318 318 319 320 320 320 320 321 320 319 318 318 319 321 323 322 322 325 329 331 332 332 333 336 341 345 348 351 352 353 354 358 362 365 368 370 368 362 360 361 360
310 309 308 307 307 308 308 308 308 309 309 310 311 312 312 312 312 313 314 315 315 316 317 318 319 320 320 320 320 320 320 319 318 318 319 321 322 321 320 322 326 329 330 330 331 333 337 342 346 350 352 354 354 356 359 362 366 370 371 367 363 363 362
309 308 307 306 307 307 307 307 307 308 309 310 310 311 311 312 312 312 313 314 314 315 316 317 318 319 320 320 320 320 320 319 318 317 318 321 322 321 320 321 323 326 328 328 329 332 335 339 343 347 350 353 354 355 357 360 363 368 371 369 365 365 366

ECMWFFLT2_850_thetae_072.txt.gz
Theta_e
316 315 316 315 318 324 327 323 321 324 327 325 322 323 329 323 318 325 327 324 329 328 328 332 326 330 339 342 347 346 344 348 352 354 355 354 354 352 351 352 352 352 352 351 352 351 351 351 351 351 351 350 350 349 349 349 349 348 346 344 342 340 336
316 315 316 317 317 321 323 320 322 328 326 326 327 323 324 323 320 326 326 322 328 326 326 336 332 324 330 339 346 344 345 348 350 352 354 353 353 351 350 351 350 352 352 351 352 351 351 352 351 351 351 351 351 351 350 350 350 350 349 347 346 344 341
316 316 317 318 317 317 318 318 322 327 323 323 328 323 321 323 321 324 326 325 327 326 327 334 331 324 325 334 344 346 346 349 350 351 352 351 352 351 350 351 350 351 352 351 351 351 352 352 351 352 352 351 352 351 351 351 351 351 351 350 349 347 344
315 317 318 317 316 315 317 316 318 323 322 322 325 324 323 324 323 324 328 329 330 331 333 333 331 333 331 332 344 347 346 350 351 351 351 350 350 350 350 350 351 351 352 351 351 351 351 352 352 352 352 352 352 352 352 352 352 352 351 350 350 349 347
315 317 316 315 315 314 314 315 315 318 321 323 323 324 324 324 325 326 325 328 333 333 334 335 337 341 338 336 344 346 345 350 351 350 352 350 349 350 349 350 351 351 352 352 351 351 351 351 352 352 352 352 353 353 352 353 352 352 352 352 351 351 349
315 315 315 315 315 315 314 315 317 318 319 321 320 323 326 323 324 328 326 326 330 331 333 338 340 341 340 337 340 344 345 348 351 351 351 350 350 349 349 351 352 352 352 352 351 351 351 351 352 353 353 353 353 353 353 353 353 353 352 353 352 351 350
315 315 316 316 316 318 317 316 318 318 317 319 319 322 327 322 322 329 329 325 327 329 331 337 341 340 339 337 338 342 344 346 350 351 350 351 350 349 349 351 352 353 353 352 353 352 351 351 352 353 353 353 353 354 353 353 354 353 354 353 353 352 352
316 313 316 318 317 317 317 316 316 315 315 317 318 321 324 324 325 328 325 320 323 327 327 331 340 341 339 339 340 341 342 344 348 351 351 351 350 350 349 350 352 353 352 352 353 352 352 352 351 352 353 353 353 354 354 354 354 354 354 354 354 353 353
318 315 321 323 318 314 315 315 315 314 314 315 317 322 327 328 326 325 324 323 324 327 325 329 338 341 339 341 342 341 343 344 345 348 352 351 350 351 350 350 352 353 353 353 353 352 352 351 352 352 352 353 353 354 354 354 355 355 355 354 355 354 354
319 318 322 321 316 313 313 313 313 313 313 313 316 321 327 328 325 324 325 325 324 324 324 327 336 340 340 342 342 341 344 345 345 345 350 353 352 351 352 352 352 353 353 354 353 353 353 352 353 352 352 353 354 354 354 355 354 355 355 355 355 355 355
318 316 316 315 313 312 311 312 312 313 313 313 315 320 324 324 324 326 329 326 323 323 322 327 336 340 340 340 340 339 341 344 347 346 348 351 351 351 352 352 353 353 353 353 353 353 353 353 352 353 353 354 354 354 354 355 355 355 355 356 355 356 355
315 313 312 312 311 311 310 311 311 312 313 313 314 317 320 319 321 327 331 328 323 321 323 330 338 340 339 339 339 338 338 340 344 347 349 350 350 351 351 352 353 354 353 354 353 353 353 352 353 352 353 354 354 354 355 354 356 356 355 356 356 356 357
312 311 311 311 311 311 310 311 311 312 313 313 313 315 315 316 319 323 327 328 325 323 329 337 338 338 339 338 337 337 336 336 338 341 344 345 346 347 348 350 352 353 353 354 354 354 354 353 353 353 353 354 354 355 355 355 356 356 356 356 356 357 357
312 311 311 312 311 311 311 310 311 311 312 312 313 313 313 315 318 321 323 326 327 327 334 339 336 334 336 336 336 336 335 334 334 335 336 337 339 340 342 343 346 348 351 354 354 355 355 354 354 354 354 355 354 354 354 355 355 355 356 357 357 357 357
313 312 312 312 312 312 312 311 312 312 312 313 312 313 315 316 318 320 321 325 329 332 336 338 334 331 332 333 334 334 333 333 333 332 333 333 335 337 338 339 341 344 347 351 354 355 356 356 355 355 355 356 356 355 355 355 356 356 357 358 358 358 358
314 312 313 313 312 313 312 312 313 313 312 312 312 313 314 315 317 317 318 325 334 336 335 335 332 329 330 330 332 332 331 331 331 331 330 331 332 335 336 337 339 341 342 346 350 352 354 357 356 356 356 356 356 357 356 356 356 356 357 358 358 359 359
316 313 312 313 313 314 314 314 314 312 313 314 314 316 318 320 321 320 320 329 336 334 331 332 331 328 328 328 328 329 329 329 329 329 329 328 330 332 334 336 337 339 340 342 346 349 350 354 357 356 356 355 356 357 357 357 357 357 357 357 358 359 359
318 315 314 315 315 314 315 316 312 312 316 320 322 324 325 326 327 326 326 330 331 328 327 330 330 328 326 326 326 326 327 327 327 327 327 327 328 330 332 334 336 338 338 337 342 348 348 349 352 354 353 353 355 356 356 356 357 357 357 357 358 358 359
317 317 316 317 318 316 314 314 312 313 319 324 326 326 325 325 325 326 327 327 325 325 326 327 328 328 326 326 325 325 324 324 325 325 325 326 327 328 330 332 334 337 336 332 336 343 345 345 348 350 352 353 354 356 356 356 356 357 357 357 358 358 358
317 317 316 316 317 316 312 312 315 318 321 323 326 329 327 324 324 325 325 324 323 324 324 324 326 327 327 327 325 324 324 323 323 324 324 325 327 328 329 331 332 334 336 335 337 340 343 344 346 350 353 353 353 355 357 356 356 356 356 357 356 357 356
315 316 316 316 315 314 312 314 319 320 318 319 323 328 327 323 322 323 324 323 322 323 322 324 324 325 330 332 326 323 323 323 322 323 323 324 326 327 328 330 331 331 333 335 337 339 341 343 346 349 353 354 353 353 355 357 358 357 357 357 356 356 357
315 314 315 316 314 313 313 317 320 318 316 316 319 322 325 322 320 322 323 322 322 321 321 322 322 324 335 337 327 322 323 322 322 323 323 324 325 326 327 328 329 329 329 331 333 336 339 343 345 347 351 353 354 354 354 356 357 357 357 358 358 358 357
315 314 314 314 313 313 316 319 318 315 315 317 318 319 323 321 318 319 322 321 321 321 321 321 321 324 331 330 323 321 323 322 322 322 322 324 325 325 326 328 328 328 327 327 329 331 335 340 344 347 350 351 353 354 355 356 356 356 356 357 358 358 358
316 315 315 314 314 315 317 316 315 314 315 318 319 320 322 319 317 319 321 321 321 321 320 321 321 322 323 323 321 321 322 321 322 321 321 324 325 325 326 327 328 328 327 327 327 327 330 335 340 343 347 351 353 355 357 357 357 356 356 355 355 357 357
316 316 315 315 315 317 316 315 314 314 315 318 321 321 319 317 317 319 320 321 321 320 320 320 321 321 321 320 320 321 321 322 322 321 320 323 325 326 326 327 328 328 327 326 326 326 328 333 339 343 345 348 352 355 355 356 356 357 357 357 356 356 355
316 316 315 315 316 316 314 314 314 315 318 321 321 318 316 316 317 319 320 320 320 320 319 319 319 319 319 319 320 320 321 321 322 320 320 322 324 326 326 327 327 328 328 327 325 326 326 330 337 344 347 346 347 351 352 354 354 355 358 359 359 359 358
315 315 315 315 316 315 314 315 316 317 319 319 317 315 316 317 318 318 318 318 319 319 319 319 318 318 319 319 319 319 320 321 321 321 319 320 323 325 326 327 327 328 329 329 328 327 326 328 333 341 347 348 347 346 345 345 347 351 356 359 361 363 362
314 315 316 316 316 314 313 314 316 316 316 316 315 316 316 316 315 316 316 316 317 317 318 318 318 318 318 318 319 318 319 320 320 321 319 318 321 324 326 327 328 328 329 331 332 330 328 329 332 337 342 347 349 347 345 346 348 352 355 358 360 362 363
313 314 315 314 313 313 312 312 313 313 313 314 314 314 313 313 313 314 314 314 315 315 316 317 318 318 318 319 319 319 318 319 319 320 320 319 319 322 325 327 329 330 330 332 334 334 332 330 332 334 337 342 346 348 348 350 354 356 357 358 359 360 361
312 312 312 312 311 311 310 309 311 312 312 312 311 311 311 311 311 312 312 313 314 315 316 317 317 318 318 319 319 319 319 319 319 319 320 319 319 321 324 326 328 330 331 332 334 335 335 334 334 334 335 337 342 346 348 351 353 356 358 359 359 359 360
311 311 312 312 310 309 308 309 310 311 310 310 309 309 309 309 310 311 312 313 313 314 315 315 317 317 318 318 319 319 319 319 318 319 320 319 319 321 323 324 326 328 330 332 334 334 335 336 335 335 335 336 339 344 346 348 351 353 355 357 359 360 361
310 310 311 310 309 309 309 310 310 309 309 309 309 308 309 309 309 311 312 312 313 313 314 315 315 316 317 318 319 319 319 319 319 319 320 319 319 320 322 323 324 326 328 330 332 333 334 335 336 336 337 337 339 341 343 346 348 350 353 355 358 361 362
310 310 310 309 309 309 309 309 309 308 308 308 308 308 308 309 309 311 312 312 312 312 313 314 315 315 316 317 318 319 320 320 320 319 320 319 318 319 321 322 322 324 326 328 330 331 333 334 336 336 337 338 339 340 342 344 346 348 350 353 356 360 363
311 311 310 310 310 309 309 308 307 307 306 307 307 308 308 309 310 311 311 311 311 311 312 313 314 315 315 316 317 318 319 320 320 320 320 319 318 319 321 322 322 323 325 327 329 330 332 334 335 336 338 339 340 341 342 343 345 347 349 351 354 358 363
311 309 308 309 309 308 308 307 307 306 306 307 307 308 308 309 310 310 310 311 311 311 311 312 313 313 314 315 316 317 318 319 320 320 320 319 318 318 320 321 321 322 324 326 328 329 331 333 334 335 337 339 340 341 342 343 344 346 347 350 352 356 361
310 308 308 308 308 307 307 306 306 306 306 306 306 307 307 308 309 309 310 310 310 310 311 311 312 312 313 314 315 316 317 319 320 320 320 319 318 318 319 321 321 320 322 324 326 327 329 332 334 335 336 338 340 341 342 343 344 345 346 348 351 354 359
309 309 308 308 308 307 307 306 306 306 306 305 305 306 306 307 308 309 309 310 310 311 311 311 311 312 312 313 314 315 316 318 320 320 319 319 319 317 318 320 321 320 320 322 324 325 326 330 332 334 335 337 339 340 342 344 345 346 347 347 350 352 356

ECMWFFLT2_850_thetae_075.txt.gz
Theta_e
316 315 315 315 315 320 323 321 318 317 319 326 325 323 330 327 319 324 325 322 330 330 325 331 332 332 334 336 342 346 347 349 349 351 353 353 353 354 353 352 351 351 351 350 350 349 349 349 348 347 346 346 346 347 347 348 347 347 346 345 342 342 342
317 314 315 316 313 316 320 317 318 319 318 323 327 324 328 325 320 326 326 320 327 329 324 330 339 340 338 338 338 339 344 348 348 351 352 352 354 353 353 353 352 352 351 350 351 350 350 349 349 348 347 347 347 347 348 348 348 347 347 346 344 342 342
315 314 315 318 314 314 317 316 318 321 319 323 327 323 322 324 323 325 324 322 326 328 328 332 337 341 342 341 338 336 339 345 347 349 351 352 354 353 354 353 352 352 351 351 351 350 350 350 349 349 348 347 347 347 347 348 348 349 348 347 346 344 343
315 316 316 317 315 314 316 316 315 319 320 320 322 322 323 325 326 325 324 325 327 331 334 331 332 340 343 341 342 339 336 339 345 348 350 352 354 354 354 353 352 353 352 351 351 351 350 350 349 350 349 349 348 347 348 348 348 349 348 348 347 346 345
315 316 316 315 315 315 315 316 313 314 318 319 319 321 321 324 329 330 328 327 331 337 334 325 327 339 342 340 341 341 338 338 341 346 349 352 353 354 354 353 353 353 352 351 351 351 351 350 350 350 350 349 349 348 348 348 348 349 348 348 348 348 347
315 316 316 314 315 315 314 314 314 312 314 318 322 325 324 323 324 326 326 326 331 338 330 321 326 337 341 339 338 340 342 341 341 343 346 349 352 353 354 353 353 352 352 352 351 351 351 350 350 350 350 350 349 349 348 348 348 348 349 348 348 348 348
315 314 315 313 314 315 314 312 312 313 313 315 318 323 324 322 320 325 330 327 331 339 328 320 328 337 338 338 337 338 341 342 344 344 344 348 351 352 353 353 352 352 352 351 351 351 351 351 351 351 350 350 350 350 349 348 349 348 349 349 348 349 349
317 314 316 315 313 312 313 312 311 312 312 312 313 316 319 321 323 328 330 325 329 335 324 321 332 338 336 336 336 336 337 340 346 347 346 347 349 351 352 352 352 351 351 351 351 351 351 351 351 350 351 350 351 350 349 349 349 349 348 348 349 349 349
319 320 323 321 314 311 311 311 311 311 311 312 314 315 321 326 323 322 325 325 326 326 321 327 337 338 336 335 334 335 334 336 341 347 350 349 348 349 349 350 351 351 351 351 351 351 351 351 351 351 351 351 351 351 350 350 350 349 349 349 349 349 349
316 321 324 320 314 312 312 310 310 311 311 312 314 316 323 327 321 320 325 324 323 322 324 334 338 336 337 336 332 333 333 333 335 339 344 347 348 350 349 349 350 350 351 351 350 351 351 350 351 351 351 351 351 351 351 351 351 350 350 350 349 350 350
319 322 322 317 314 313 311 310 310 310 310 312 314 315 320 321 318 324 331 325 321 324 330 336 336 334 336 336 333 332 331 331 332 333 336 339 342 346 349 350 351 351 352 351 351 351 351 351 351 350 351 351 351 352 352 351 351 351 351 351 351 351 350
317 318 316 313 312 311 310 311 311 310 310 312 313 314 317 317 316 325 335 328 320 324 333 336 334 333 334 335 335 333 330 330 330 330 332 334 336 339 343 347 350 352 352 352 351 352 351 351 351 350 351 351 351 352 352 352 352 352 351 352 351 352 351
313 312 312 312 311 311 311 312 312 311 311 311 312 313 314 315 315 319 324 322 320 325 335 335 330 330 333 333 333 333 330 329 329 328 330 330 332 334 337 340 343 347 351 352 352 352 351 352 352 350 351 351 352 352 352 352 352 352 353 353 352 353 352
314 313 313 312 311 312 313 313 313 313 311 311 311 312 313 314 316 318 317 318 324 330 333 332 328 328 330 329 330 331 329 328 328 328 328 328 329 332 333 336 338 341 345 349 351 352 352 352 352 351 351 351 351 352 352 353 353 353 353 353 353 353 353
316 314 313 312 312 313 313 312 313 312 312 313 312 311 312 313 316 319 317 319 328 331 329 329 328 326 326 326 327 328 327 327 327 327 327 328 328 330 332 334 336 337 340 345 348 350 351 352 352 351 352 352 351 352 352 352 353 353 354 354 354 354 354
315 315 313 313 314 312 312 313 314 313 312 315 315 316 318 319 319 321 318 320 328 329 326 328 327 324 325 325 324 325 325 326 326 326 326 326 327 328 330 332 334 335 337 340 344 346 348 351 353 353 353 352 353 353 352 353 353 353 354 354 354 355 354
317 316 314 315 315 311 313 316 313 312 313 314 320 326 327 325 324 323 322 323 326 325 324 326 326 324 324 324 323 323 323 323 324 324 325 325 326 327 327 328 330 333 335 337 340 343 346 348 350 352 353 354 353 354 354 354 354 354 354 355 355 354 355
318 318 315 315 314 312 316 316 311 312 316 318 326 330 327 324 325 324 324 324 324 323 323 324 325 324 324 323 322 322 322 322 322 323 323 324 325 326 326 326 327 329 332 334 337 339 342 346 348 350 352 354 355 354 354 354 354 354 354 355 355 356 355
317 319 316 315 315 315 314 312 311 316 319 320 325 327 323 321 322 323 324 323 322 322 322 322 323 324 324 323 322 322 322 321 321 322 322 323 324 325 326 326 327 327 328 330 334 335 338 342 347 349 351 352 353 355 355 355 355 354 354 353 354 356 357
316 317 316 314 315 314 312 312 316 320 320 320 323 326 325 321 319 320 322 322 321 321 321 321 321 322 323 323 322 321 321 321 321 321 321 323 324 325 325 326 327 328 327 327 329 331 334 339 343 345 348 351 352 353 355 355 355 355 354 353 352 353 356
315 315 315 314 313 313 314 317 319 319 318 319 321 323 325 321 318 318 320 320 321 320 320 320 320 320 324 325 323 321 320 321 322 321 321 322 323 325 325 325 326 327 328 326 325 326 330 335 340 343 345 349 352 352 353 353 354 354 354 354 352 352 355
315 314 315 316 315 314 315 317 317 316 315 315 317 320 324 322 317 317 318 319 321 320 319 320 319 320 326 328 323 320 320 320 321 322 321 321 323 324 325 325 326 326 327 326 325 325 324 329 335 340 344 347 350 352 353 354 354 354 354 354 354 354 355
315 313 314 316 315 315 316 317 316 314 313 315 316 319 323 321 316 315 317 318 320 320 319 320 319 320 325 325 321 319 319 320 320 321 321 320 322 324 324 324 325 326 326 325 324 323 322 323 328 333 339 344 347 350 353 354 354 355 355 355 355 355 356
316 315 315 314 314 315 316 316 315 314 314 316 315 318 322 318 314 316 317 317 319 320 319 319 319 320 322 321 319 318 319 319 319 320 321 320 321 323 325 324 325 325 325 325 324 322 320 321 323 327 330 335 341 345 349 352 354 355 357 357 357 356 356
316 315 315 314 315 316 315 314 314 314 315 315 315 317 318 315 314 317 317 316 317 318 318 318 318 319 319 318 318 318 318 319 319 319 319 319 320 322 324 325 325 326 326 325 324 324 323 322 322 324 325 327 331 339 345 348 350 353 355 357 358 359 358
315 315 315 315 315 315 313 313 313 313 315 317 316 316 315 314 314 316 315 314 315 315 315 316 316 317 318 318 318 318 318 319 319 318 318 319 319 320 323 325 326 327 328 327 326 325 323 323 322 323 324 323 324 331 338 344 346 347 350 352 354 357 359
314 314 314 315 316 315 312 313 314 315 316 316 314 314 314 314 313 313 312 313 313 313 313 314 314 315 316 317 318 318 318 319 319 319 319 318 319 319 321 324 326 327 328 329 328 327 325 323 322 323 324 322 321 324 330 334 337 341 345 347 349 352 356
313 314 315 315 314 313 312 312 313 313 313 313 312 312 313 312 310 310 310 311 311 311 312 313 314 315 315 316 317 317 318 319 318 319 319 319 319 319 319 322 325 327 328 328 329 330 329 325 325 327 328 325 322 323 326 326 327 332 340 346 348 350 352
314 314 315 313 311 311 311 311 311 310 311 311 311 310 310 309 309 309 309 309 309 310 311 312 313 313 314 315 316 316 317 318 318 319 319 319 319 319 319 320 323 326 328 328 329 330 331 329 328 328 330 329 326 325 325 324 324 328 334 342 346 348 349
312 311 312 310 309 310 310 310 309 309 310 310 310 309 309 308 308 308 308 308 308 309 311 312 312 312 313 314 314 315 316 317 318 318 319 319 319 320 319 319 320 323 326 328 329 330 331 331 330 329 331 332 332 331 329 326 327 330 332 337 342 345 347
310 311 312 311 310 310 310 309 309 309 309 309 309 308 308 307 307 307 307 308 308 309 311 312 311 312 312 312 313 314 315 315 316 317 318 319 319 320 320 319 319 321 323 326 329 330 330 331 332 332 332 333 334 335 334 331 330 332 333 334 338 341 344
310 310 311 309 309 310 309 308 309 309 309 308 307 307 307 307 307 307 307 307 308 309 310 311 311 311 311 311 312 313 314 315 315 316 318 319 319 320 320 319 319 320 321 324 327 329 330 331 332 333 333 333 335 335 336 335 334 335 335 335 335 338 340
310 310 309 308 308 309 308 308 310 309 308 307 307 306 307 307 306 306 307 307 308 308 309 310 310 310 311 311 311 312 312 313 314 315 317 318 319 319 320 319 319 319 320 322 324 327 329 330 331 333 334 334 335 335 336 337 337 337 337 337 336 337 338
312 311 310 309 309 310 309 308 309 308 307 307 306 307 306 306 306 306 306 306 306 307 308 309 309 310 310 310 310 310 311 312 313 314 315 317 318 319 319 319 319 319 319 320 322 325 327 328 330 332 333 333 335 335 336 337 337 337 337 337 338 338 338
312 310 309 308 308 309 309 308 308 308 307 306 306 306 306 306 305 305 305 305 306 306 307 308 309 309 309 310 310 310 310 311 312 313 314 315 317 318 319 319 319 319 319 320 320 322 325 327 328 330 332 332 332 334 335 335 336 336 337 337 337 339 340
310 309 309 308 308 308 308 309 309 308 307 307 307 306 306 306 305 305 305 305 306 306 307 307 308 309 309 309 309 309 309 310 311 312 313 314 316 318 319 319 319 318 318 319 320 321 323 324 326 328 330 330 330 331 334 335 335 336 337 338 339 340 341
310 310 309 309 309 309 309 309 308 308 308 307 307 306 306 306 305 305 306 306 306 306 307 307 307 308 308 308 309 308 309 309 310 311 312 313 314 317 319 319 319 319 318 318 319 320 321 323 323 325 327 329 328 329 332 334 335 337 338 339 340 341 341

ECMWFFLT2_850_thetae_078.txt.gz
Theta_e
314 314 313 313 315 318 321 320 320 319 319 328 327 322 329 329 320 322 323 324 330 327 323 327 326 328 336 339 338 339 339 340 344 349 351 351 350 350 350 349 350 350 350 350 351 350 350 349 348 347 347 346 347 346 346 345 345 345 346 345 346 344 341
316 313 313 314 312 315 321 320 319 318 315 324 328 323 328 328 320 321 324 326 332 330 327 328 327 328 335 339 337 337 339 340 342 346 349 351 351 350 351 350 349 350 350 350 351 350 350 350 348 348 348 347 347 347 346 346 345 345 346 346 346 346 343
316 313 313 317 314 313 318 317 316 318 320 323 325 323 323 323 323 322 322 330 334 329 326 326 326 331 336 338 336 336 337 339 340 343 345 348 352 351 351 351 350 350 350 350 350 350 350 350 349 348 348 347 347 347 346 346 346 346 346 346 347 346 345
314 315 316 317 316 314 314 313 312 315 322 322 319 322 322 322 328 324 321 332 334 329 326 325 330 336 337 336 335 335 336 337 340 342 344 346 349 352 352 351 351 350 350 350 350 350 350 349 349 349 348 347 347 347 347 346 346 346 346 347 347 347 347
314 315 315 314 315 314 312 312 312 311 316 319 318 320 320 323 330 330 332 335 329 325 325 327 334 338 334 335 335 334 335 336 337 340 343 344 346 351 352 352 352 351 350 351 350 350 350 349 349 349 348 347 347 347 347 347 346 346 347 347 347 347 347
314 314 313 312 312 312 310 311 311 310 312 319 325 323 318 322 326 327 335 335 324 321 323 327 336 336 333 334 333 333 334 334 335 337 341 344 345 348 351 352 352 352 351 351 350 350 350 349 349 349 348 348 347 347 347 347 347 347 347 347 347 347 347
313 312 311 311 311 310 311 310 309 311 311 314 323 324 319 323 324 323 333 334 325 322 324 330 337 335 333 334 331 331 332 332 333 335 338 344 346 348 351 352 352 352 352 351 350 351 350 349 349 349 349 348 347 348 347 347 347 347 347 347 347 348 348
322 317 313 312 311 311 312 311 309 310 310 310 316 319 321 325 322 321 331 331 324 324 325 331 335 334 335 334 330 331 330 330 332 333 335 340 344 348 350 351 352 352 352 352 351 351 350 350 350 349 349 349 347 348 347 347 347 347 348 348 347 348 348
324 321 319 317 315 312 312 311 310 310 310 311 314 316 324 328 320 319 329 331 326 323 325 330 332 331 334 333 331 331 329 329 331 331 333 336 339 344 347 349 352 351 352 352 351 351 351 350 350 349 349 349 348 348 347 347 348 347 347 348 348 348 348
320 320 322 320 316 314 312 311 311 311 310 311 315 318 324 327 320 320 329 329 322 319 324 330 329 329 331 331 330 331 329 329 329 329 331 333 336 339 341 345 348 349 350 351 351 352 351 350 350 349 349 349 349 348 348 348 348 348 348 347 348 348 348
318 318 319 317 316 314 312 312 312 312 311 312 316 321 323 320 318 323 330 323 315 318 328 330 327 327 329 328 328 330 328 328 328 328 329 330 332 335 337 341 344 346 348 349 350 351 350 351 351 349 350 349 349 349 348 348 348 348 348 348 347 348 348
313 314 314 313 314 312 311 313 313 313 313 312 314 317 318 318 317 325 334 326 314 319 329 329 326 326 327 326 327 327 327 327 327 327 328 328 329 332 336 339 340 342 345 347 349 350 350 350 350 350 351 349 349 350 349 349 349 348 348 348 348 348 348
312 314 313 312 313 312 312 314 314 314 314 313 312 314 317 319 317 320 328 323 315 321 328 327 324 325 325 324 325 325 325 326 326 326 327 326 327 328 331 335 336 338 341 344 346 348 348 350 350 349 350 349 350 350 349 350 350 349 349 348 348 349 348
313 313 313 313 313 312 313 314 314 314 314 313 311 312 313 315 316 317 319 316 317 323 326 325 324 324 323 323 323 323 324 325 325 325 325 325 326 326 327 329 332 334 337 340 344 346 347 349 349 349 350 349 350 350 350 350 350 350 350 349 349 349 349
313 313 314 313 313 314 313 314 314 314 314 314 313 312 313 314 315 316 314 315 322 324 323 325 324 323 322 322 322 322 323 323 324 324 324 324 325 326 326 326 328 330 332 337 341 345 346 347 348 349 349 349 350 350 350 351 350 350 350 350 350 350 349
314 313 313 314 314 313 312 313 314 313 313 314 315 317 320 320 319 319 317 321 328 326 322 324 324 322 322 322 321 322 322 322 323 323 323 323 324 325 325 325 326 326 328 331 335 340 345 347 348 349 350 350 350 350 350 351 350 351 351 350 351 351 351
317 314 314 315 313 311 313 314 312 312 314 315 318 323 326 323 322 323 323 325 326 323 321 322 323 323 322 321 321 322 321 321 322 322 322 321 323 325 325 325 325 325 325 326 328 332 338 344 346 348 349 350 351 350 350 351 351 351 351 351 351 351 351
318 317 317 316 311 310 314 313 309 311 315 318 323 327 325 322 323 324 324 323 322 321 321 321 321 322 323 321 320 320 320 321 321 321 321 320 321 323 324 325 325 324 324 324 324 325 329 335 341 345 348 350 351 352 351 351 352 352 351 351 351 351 352
316 318 319 315 312 312 313 311 310 314 317 319 324 325 321 319 322 322 322 322 321 320 321 320 319 321 321 321 320 318 319 320 320 320 321 320 320 321 322 323 324 324 324 324 323 323 323 325 331 338 345 349 350 351 352 351 352 352 352 352 352 351 352
315 317 316 313 312 313 313 315 316 318 319 320 322 323 321 318 319 320 320 321 321 320 319 319 319 319 320 323 322 318 317 319 319 319 320 320 320 320 320 322 323 324 325 324 323 323 323 322 323 328 338 346 348 348 351 351 352 353 353 353 353 353 352
315 315 315 314 314 314 317 321 319 317 318 318 319 322 321 317 316 317 318 319 319 319 319 319 318 319 321 323 322 318 317 318 318 318 318 319 319 320 320 320 321 323 325 325 324 322 322 323 322 322 328 338 342 344 346 349 350 352 353 353 353 353 353
316 315 315 316 316 315 317 319 316 314 314 314 314 319 321 317 314 316 317 317 318 318 319 318 318 319 323 324 320 318 317 318 318 318 318 318 319 320 320 320 321 323 325 326 325 324 322 322 324 323 323 328 334 339 343 347 349 351 352 352 352 352 352
316 314 314 316 316 316 318 317 314 313 313 313 314 317 319 316 313 315 316 316 316 316 317 317 316 319 323 322 318 317 318 318 318 318 318 318 318 319 319 319 320 322 324 326 326 326 323 322 324 324 323 323 327 331 336 343 348 350 351 352 352 352 352
315 314 315 315 314 316 318 317 314 313 313 314 315 317 318 315 312 314 316 315 315 314 314 315 315 317 319 317 316 317 318 318 318 318 318 318 318 319 319 319 320 321 323 325 326 326 324 324 324 324 323 323 325 327 328 335 342 345 347 349 350 352 354
315 315 315 315 314 317 317 315 314 313 313 313 314 316 316 313 312 313 313 312 313 312 312 312 313 314 315 314 315 316 317 317 318 317 317 317 317 318 319 319 319 320 322 324 326 327 327 326 325 326 326 326 326 326 327 329 334 338 340 343 345 349 352
314 314 315 314 315 316 315 313 312 312 314 315 314 313 313 312 312 312 311 311 311 311 311 311 311 312 313 314 314 315 316 316 317 317 317 316 316 316 318 319 319 319 321 322 324 326 328 328 327 327 328 327 325 324 326 328 331 332 333 333 334 340 345
313 313 313 313 315 315 312 312 313 313 316 316 313 311 312 313 312 310 310 311 311 310 310 310 310 311 312 313 314 314 315 315 316 316 317 316 316 315 316 318 319 319 320 320 322 324 326 328 329 329 328 327 323 321 324 327 330 332 332 330 327 330 338
314 314 312 312 315 314 311 312 313 313 314 312 310 310 311 311 310 310 310 310 310 310 309 309 310 311 311 312 312 312 313 314 314 315 316 316 316 315 315 316 317 319 320 320 321 322 324 327 329 329 330 329 323 319 322 327 331 332 333 334 331 329 334
314 315 314 312 312 312 311 311 311 310 310 310 309 310 310 309 309 309 309 309 309 309 308 308 309 309 310 311 311 311 311 312 312 313 314 315 315 315 314 315 316 318 319 320 320 321 323 325 327 329 330 331 329 325 325 328 331 333 332 333 333 332 332
311 311 312 310 309 311 310 310 310 310 310 309 309 309 309 309 308 308 307 307 307 307 307 307 308 308 309 309 310 310 310 311 311 312 312 313 313 314 314 314 315 317 319 319 320 322 322 323 325 327 330 331 332 332 331 330 331 333 333 333 333 333 331
311 312 313 309 308 310 310 309 310 310 310 309 308 308 308 307 306 307 306 306 306 306 306 306 306 307 308 308 309 309 309 310 310 310 311 311 312 312 313 313 315 317 318 319 320 321 322 323 324 325 328 330 331 332 333 333 333 334 334 333 333 332 330
311 312 312 309 308 310 309 309 310 309 309 309 308 308 308 307 306 307 306 305 306 305 305 306 306 306 306 307 308 308 309 309 310 310 310 311 311 311 312 313 315 317 318 319 319 320 322 323 323 324 326 328 330 331 332 333 334 334 334 334 333 333 331
310 311 310 308 308 309 309 308 309 308 308 309 308 308 308 307 307 307 306 306 305 305 305 305 305 305 306 306 307 307 308 308 309 309 310 310 310 311 311 312 314 316 317 318 319 319 321 322 322 323 324 326 327 329 330 331 332 332 333 333 333 333 333
312 311 310 309 310 311 310 308 308 308 308 309 308 308 308 307 307 307 306 306 305 305 305 305 305 305 306 306 306 307 307 307 308 308 309 309 309 309 310 311 312 314 316 318 318 319 321 322 321 321 322 324 325 326 327 328 329 331 332 333 333 332 332
313 310 309 308 309 310 309 308 308 308 308 308 308 308 308 308 307 307 306 306 306 305 305 305 305 305 305 305 306 306 306 307 307 308 308 308 308 309 309 310 311 312 314 317 318 319 320 321 321 320 321 322 324 325 325 325 327 329 331 332 333 334 333
310 310 310 309 308 308 309 309 309 308 308 308 308 308 308 308 307 307 307 306 306 305 305 305 305 305 305 305 305 306 306 306 306 307 307 308 308 308 308 309 311 311 313 315 318 319 319 320 321 320 320 322 323 324 324 324 324 326 329 331 333 334 335
311 311 311 309 309 309 309 309 309 309 308 309 308 308 308 308 307 307 307 306 306 305 305 305 305 305 305 305 305 305 306 306 306 306 307 308 308 308 308 309 310 311 312 315 317 318 318 319 320 320 320 321 322 323 324 324 323 324 326 328 330 332 334

ECMWFFLT2_850_thetae_084.txt.gz
Theta_e
318 318 319 319 319 320 323 323 321 323 325 324 320 319 320 318 318 319 319 323 330 334 335 339 340 340 341 341 342 343 344 346 346 347 349 349 351 353 354 355 355 355 356 355 354 354 353 354 354 354 354 354 353 350 348 348 347 347 347 347 346 346 345
318 318 319 319 320 320 321 320 321 323 324 324 322 320 320 318 318 319 318 321 325 325 330 338 340 339 340 339 341 342 343 344 345 346 347 347 348 349 351 354 355 355 356 356 355 354 354 354 354 354 354 354 352 349 349 349 348 348 348 347 347 346 345
318 318 319 318 320 321 320 321 322 323 320 319 321 320 319 317 317 318 318 322 326 327 331 338 339 339 339 338 339 340 341 342 343 344 345 347 347 347 349 352 354 355 355 356 356 355 354 354 354 354 353 353 353 351 350 350 349 349 348 348 347 346 346
318 319 318 317 318 320 321 321 322 323 321 319 320 320 319 317 316 318 320 322 328 333 336 338 338 339 338 338 337 338 339 341 341 343 344 346 346 347 349 351 352 354 355 355 356 355 355 353 353 354 354 353 354 353 352 351 351 351 349 349 348 347 346
317 318 317 316 317 318 319 320 319 321 321 321 321 320 320 318 316 318 320 322 329 336 337 337 338 337 336 336 337 338 339 339 340 341 342 344 346 347 349 351 351 353 354 354 355 355 354 353 353 354 354 354 354 354 354 353 353 353 352 351 350 349 347
315 315 315 315 316 316 318 319 318 319 320 320 320 320 320 319 319 319 319 323 332 335 335 335 336 336 336 337 338 338 337 338 338 339 339 342 344 345 347 349 350 352 353 354 354 354 354 354 354 353 353 354 354 354 354 354 354 354 354 354 353 350 348
315 314 315 315 315 316 317 318 318 319 320 319 318 318 319 318 319 320 319 326 333 334 334 336 336 336 337 337 337 337 336 336 336 336 337 339 341 343 344 345 347 350 352 353 353 354 354 354 354 353 353 353 353 353 353 353 354 354 354 355 354 352 350
316 315 315 316 315 316 317 317 317 318 319 320 319 321 323 319 318 319 318 325 332 333 334 337 336 336 337 336 336 336 334 334 334 334 335 336 337 339 341 342 345 347 350 351 352 353 354 354 353 353 354 353 353 353 353 353 353 354 354 354 355 353 350
316 316 316 316 316 316 317 316 316 316 318 320 319 322 324 321 321 321 317 323 331 333 334 336 335 335 336 335 335 335 333 333 332 332 333 333 334 336 337 340 342 345 347 349 350 352 353 354 354 354 353 353 353 353 353 353 352 353 354 353 355 354 352
316 317 317 316 316 316 316 315 316 316 316 318 319 321 321 320 324 325 322 327 333 335 334 334 333 333 334 334 334 334 333 332 331 331 330 330 332 332 334 336 339 342 344 345 348 350 351 352 353 353 353 353 352 352 352 353 352 352 353 353 354 355 354
317 318 318 317 316 316 316 314 315 315 315 317 319 320 320 320 323 324 325 332 336 335 334 334 332 331 332 333 333 333 333 332 330 330 329 328 329 329 330 332 335 338 341 342 345 346 348 350 351 352 353 352 352 352 352 352 352 352 352 352 353 354 354
316 317 316 315 315 316 315 314 314 314 315 316 318 319 319 322 322 321 325 331 333 332 333 332 331 331 331 332 332 331 331 331 330 329 329 328 327 327 326 327 329 331 334 337 341 344 345 346 348 350 352 351 351 352 351 351 351 351 351 352 352 353 354
314 315 314 314 315 315 314 314 314 314 314 315 317 317 317 320 321 321 323 327 330 331 330 330 330 331 331 331 331 330 330 330 330 329 328 328 327 326 326 325 325 326 327 329 334 338 342 345 346 348 349 351 351 351 350 351 351 351 351 351 352 353 353
313 313 313 313 313 313 313 313 313 313 313 314 315 315 315 317 319 320 322 325 328 329 328 329 330 331 331 331 330 330 329 329 329 329 328 327 327 327 326 326 325 325 325 325 326 331 336 342 345 347 347 348 350 351 351 350 350 350 350 350 351 353 352
313 312 312 312 312 312 312 312 312 312 313 313 313 314 316 316 317 318 320 323 325 327 328 330 329 329 330 330 330 330 329 328 328 328 328 328 327 327 327 326 325 324 325 325 325 326 328 333 339 344 346 347 348 349 350 351 351 349 349 350 350 352 353
313 312 312 311 311 311 310 311 312 312 312 313 315 317 319 320 320 318 317 319 324 328 329 330 329 329 329 329 329 329 328 327 327 327 327 327 327 327 327 327 326 325 324 325 326 326 325 326 330 335 339 343 346 348 350 351 351 351 350 351 350 351 352
313 312 311 311 311 310 310 312 313 313 314 314 316 320 322 323 323 321 318 321 326 328 328 328 328 328 328 328 328 327 327 327 326 326 326 326 326 327 326 326 326 325 324 324 325 327 327 326 326 326 329 334 339 346 349 350 351 352 352 352 351 350 351
314 312 312 312 311 311 313 314 313 315 316 316 317 320 323 323 323 323 323 324 325 325 325 326 327 327 327 327 326 325 325 326 325 325 325 325 325 325 325 326 326 326 325 324 324 325 327 328 327 325 325 326 330 338 346 349 350 352 352 352 352 351 351
314 313 313 313 312 313 314 314 314 316 318 319 320 322 323 322 323 323 324 323 323 324 324 325 325 326 326 325 326 324 323 324 325 324 324 324 323 324 324 325 325 325 326 325 323 324 325 327 328 327 325 324 325 332 342 347 349 351 352 352 352 351 351
315 314 313 313 314 315 314 314 314 316 317 318 321 322 322 321 322 322 323 323 324 325 324 324 324 324 325 325 326 324 322 322 323 323 323 323 322 322 322 323 323 324 324 325 324 324 323 324 327 329 328 325 323 327 336 343 346 349 351 352 352 352 351
316 315 313 315 316 315 314 315 316 318 318 318 320 321 321 322 322 321 322 323 324 324 323 323 323 323 324 326 326 324 321 321 321 321 322 322 321 322 321 322 322 322 322 324 324 324 324 323 324 327 329 328 325 324 328 335 341 346 349 349 350 351 351
316 315 314 315 314 315 317 319 318 318 319 320 319 318 318 322 323 321 322 323 323 323 322 322 322 323 323 325 326 323 321 320 319 320 321 321 320 320 320 321 321 321 321 322 323 324 324 323 323 324 327 328 328 327 326 328 333 339 344 346 348 349 349
316 315 314 314 314 316 320 319 318 317 317 318 318 316 316 321 322 321 321 321 321 321 321 321 322 322 322 323 324 321 319 318 318 319 320 320 319 319 319 319 320 320 320 321 321 322 323 323 323 324 325 326 329 329 327 325 328 334 339 342 345 347 348
316 315 315 314 315 318 319 318 317 317 316 317 318 318 318 321 320 319 320 320 319 319 319 320 321 321 321 321 321 318 317 317 317 317 318 318 318 318 318 318 318 319 320 320 320 321 321 321 322 324 324 324 326 328 328 326 326 329 334 337 339 341 344
316 315 314 314 315 317 318 317 317 317 316 316 317 318 320 320 319 318 319 318 318 318 318 318 319 319 319 319 317 316 315 315 316 316 316 316 316 317 317 317 317 317 319 319 319 319 320 319 320 323 324 324 325 327 328 328 326 326 328 332 335 335 336
315 315 315 314 315 317 318 317 317 316 315 315 317 319 319 319 318 319 318 317 317 317 317 317 318 317 317 316 315 315 315 315 315 315 315 315 315 315 315 315 316 317 318 318 318 318 319 319 318 320 322 323 325 327 328 329 329 327 325 327 331 332 332
314 314 314 314 314 317 317 316 316 316 315 316 318 318 318 317 317 317 317 317 317 316 316 316 316 316 315 315 315 315 314 314 314 314 314 314 314 314 314 314 315 316 316 316 317 317 318 318 317 316 318 320 322 325 327 328 328 328 325 325 327 329 330
313 313 314 314 315 317 317 315 315 316 316 317 318 318 316 316 316 316 316 316 316 316 315 315 314 314 314 314 314 314 314 314 313 313 313 313 312 312 313 313 313 313 314 315 316 316 316 316 315 314 314 315 318 321 324 325 326 327 327 327 326 326 328
313 313 315 316 316 316 316 314 314 316 317 317 317 316 315 315 315 315 315 315 315 315 314 313 313 313 313 313 313 313 313 313 313 313 312 312 311 311 312 312 311 311 312 312 313 314 316 315 314 314 313 313 314 317 319 322 323 325 327 328 328 327 324
315 315 315 316 315 314 315 314 314 315 316 316 315 315 314 314 314 314 314 314 314 313 313 313 313 313 313 313 313 313 313 313 312 312 312 312 310 310 310 310 309 308 309 310 310 312 313 313 313 313 313 313 313 313 315 319 321 323 324 326 327 329 326
315 314 315 315 315 314 314 314 314 315 315 315 315 314 313 313 313 314 313 313 312 312 312 313 313 313 313 313 313 313 313 312 312 312 312 312 311 309 308 308 307 307 308 309 310 310 310 311 312 313 313 313 313 313 314 317 320 322 322 323 325 327 328
315 315 315 316 315 315 314 313 314 314 314 314 314 313 313 313 313 313 313 312 312 312 312 312 313 313 313 313 313 313 312 312 312 312 312 312 311 309 308 307 307 307 309 310 310 310 309 309 310 311 311 312 313 313 313 313 316 319 321 323 324 325 326
315 315 316 316 316 315 315 314 313 313 313 313 314 313 313 313 313 313 313 312 312 312 312 312 312 312 312 312 312 312 312 312 312 312 312 312 311 310 309 308 309 310 311 311 311 311 311 310 310 310 310 311 312 312 313 312 312 315 318 321 323 324 325
314 315 316 315 315 315 315 315 314 313 313 313 313 314 314 313 313 313 313 312 312 312 311 311 311 311 311 311 311 311 311 311 311 311 311 311 311 311 311 311 311 311 312 312 312 312 311 311 311 310 309 310 311 311 312 314 313 313 315 320 322 322 324
314 315 315 315 315 315 315 314 314 313 313 313 313 313 314 313 313 313 313 313 312 312 311 310 310 310 310 310 310 310 310 310 310 310 310 310 310 311 311 311 312 312 312 312 312 312 312 312 312 313 312 312 312 312 312 314 314 314 317 321 322 322 323
315 315 315 315 316 315 315 314 314 313 314 313 313 313 314 313 313 313 312 312 312 311 310 310 310 310 310 309 309 309 309 309 309 309 309 310 310 310 310 311 311 311 312 312 312 313 313 313 313 314 314 314 315 316 316 317 317 317 320 322 322 321 322
315 314 315 316 316 315 314 314 314 314 314 313 313 314 314 313 313 313 312 312 311 310 310 310 310 309 309 309 308 308 308 308 308 308 309 309 309 310 310 310 311 311 312 312 312 312 313 313 314 315 315 315 315 317 318 319 318 317 319 322 323 322 322

ECMWFFLT2_850_thetae_087.txt.gz
Theta_e
324 324 325 325 323 321 324 325 323 324 327 326 320 318 319 319 318 318 319 327 336 339 341 343 342 343 343 344 346 347 348 349 349 350 352 352 353 353 354 355 356 355 354 353 353 352 353 354 354 353 353 354 356 358 358 353 349 349 347 345 344 343 341
322 323 323 323 324 324 322 321 323 326 327 326 323 319 319 318 317 318 318 325 331 334 338 343 342 342 343 342 344 345 346 348 348 349 350 351 352 353 354 355 355 356 356 355 353 352 353 353 354 355 354 356 357 357 359 356 351 349 349 347 345 346 344
320 322 321 321 323 325 324 322 325 325 321 321 323 321 320 318 316 317 318 321 326 327 333 341 342 342 342 342 343 343 345 346 346 347 348 349 350 352 354 354 354 355 355 354 353 353 353 353 353 354 354 355 356 357 359 357 351 349 349 349 349 347 345
321 321 320 318 319 323 324 323 325 325 322 322 322 322 322 318 317 319 317 319 326 330 335 341 341 341 341 342 342 342 344 345 344 345 346 347 349 350 352 353 353 354 354 353 353 353 353 353 352 353 353 355 356 357 358 356 353 352 350 352 354 350 346
319 319 319 319 320 320 321 321 322 322 323 324 322 322 322 319 318 319 316 321 332 337 338 340 339 340 340 340 341 342 343 344 343 344 345 346 347 348 350 351 352 354 354 354 353 353 353 352 352 354 354 355 356 356 356 355 355 355 352 353 356 352 349
317 318 321 321 321 321 322 321 321 321 322 321 319 319 320 318 319 318 318 327 335 338 336 338 337 338 338 340 341 341 341 342 342 343 343 344 345 346 347 348 349 351 353 354 354 353 354 353 352 354 354 355 355 355 355 354 355 356 353 353 355 355 354
318 319 321 321 320 322 322 322 323 324 323 320 317 318 319 318 319 318 321 332 338 337 336 338 336 338 338 339 340 340 340 341 341 342 342 342 343 344 345 345 346 348 350 352 353 354 354 354 354 355 354 354 354 354 354 354 354 355 355 355 356 357 357
320 320 320 321 321 322 321 322 323 323 323 323 320 322 322 319 319 316 322 334 338 336 337 339 336 338 339 337 339 339 339 340 339 340 340 340 340 341 342 343 344 345 347 350 352 352 354 355 355 355 353 352 353 353 353 353 353 354 354 355 356 358 359
318 318 318 319 320 321 320 322 323 322 323 324 323 324 325 322 321 318 321 331 336 336 338 338 335 337 337 337 338 337 338 339 337 337 337 338 338 339 340 341 341 343 346 348 349 349 351 353 354 353 352 352 353 352 352 352 353 354 354 354 356 357 358
317 318 318 317 318 320 320 321 322 322 322 322 322 322 321 321 322 321 324 331 336 336 338 336 334 335 336 336 337 336 337 337 336 335 336 336 337 337 337 338 338 340 343 344 346 347 348 350 351 353 353 353 352 352 351 352 352 353 354 354 353 355 357
319 321 321 321 321 319 318 319 320 321 321 322 323 320 320 321 321 323 331 336 336 336 337 336 335 335 334 336 337 336 336 335 335 335 334 334 335 334 335 335 335 337 339 341 343 345 346 348 349 351 352 353 353 352 352 352 352 352 353 353 353 354 356
319 320 319 320 321 319 318 318 318 319 320 322 323 320 322 325 321 325 337 340 335 336 338 335 335 334 334 335 335 335 335 335 334 334 334 334 334 332 333 333 332 333 335 337 339 342 344 347 348 350 351 352 352 353 353 353 352 352 352 352 353 354 355
317 318 317 318 320 319 319 318 318 319 319 321 322 321 323 327 324 328 339 341 336 337 336 334 334 334 334 335 334 334 334 334 334 334 333 333 332 332 331 331 331 330 331 333 335 338 340 344 347 348 350 351 351 351 352 352 351 351 352 351 352 353 354
317 317 316 316 317 317 317 317 317 318 318 319 321 321 322 327 328 330 336 337 337 335 333 333 334 334 334 334 333 333 333 333 333 333 333 332 332 332 331 331 331 330 329 330 331 333 336 340 343 346 348 350 350 349 350 352 351 351 351 351 351 352 353
315 315 315 315 315 315 315 316 316 317 318 318 318 320 321 324 327 329 332 334 334 333 333 333 332 333 334 334 333 333 332 332 332 331 331 331 331 331 331 331 331 330 329 328 328 330 332 334 337 341 344 347 348 349 349 350 351 352 351 352 352 352 352
314 314 314 313 314 315 313 314 316 316 316 317 317 320 321 322 324 325 328 330 331 332 332 331 331 333 333 332 333 333 331 331 331 330 330 331 331 331 331 331 331 331 330 329 328 328 329 330 332 334 337 341 345 348 349 349 351 352 352 352 351 351 352
313 313 313 313 313 312 312 313 315 316 316 318 320 322 324 325 324 323 325 327 329 331 331 329 329 331 331 331 331 331 331 331 329 329 329 329 329 330 330 330 330 330 331 330 329 328 327 328 329 329 329 332 338 344 347 348 350 352 353 352 350 350 351
314 314 313 313 311 311 313 315 317 317 317 318 320 322 323 325 326 326 328 329 329 329 330 329 329 330 330 329 329 329 330 330 329 328 328 327 327 328 328 328 328 328 329 330 330 329 328 327 327 328 327 327 330 337 343 346 348 350 352 352 351 351 352
315 315 312 311 312 314 317 318 317 319 319 318 321 325 325 324 325 327 329 329 328 328 329 329 328 328 328 328 328 328 328 328 329 327 326 326 326 326 326 327 326 326 327 328 329 329 329 327 326 328 328 327 329 334 338 342 345 348 350 351 351 352 354
316 315 312 312 315 317 318 318 315 316 318 319 321 324 324 323 324 327 327 327 327 328 327 327 327 326 327 327 327 326 325 326 326 326 325 325 324 324 324 325 326 325 325 326 326 328 329 328 326 327 328 327 329 333 334 335 339 344 347 349 350 350 352
316 315 312 315 319 318 317 317 317 318 320 320 321 322 323 322 323 325 326 325 326 327 326 325 325 325 326 327 327 325 324 324 324 325 324 323 323 323 322 323 324 324 323 324 324 325 327 327 326 327 327 324 326 331 333 333 336 338 340 344 347 348 350
316 315 315 317 317 316 318 320 320 321 321 320 320 320 321 324 324 323 325 325 325 325 325 325 324 325 326 327 327 325 323 322 322 323 323 322 322 322 321 322 322 322 322 323 324 323 324 324 324 326 327 326 326 329 331 334 335 333 331 335 340 343 346
316 315 315 314 314 318 322 321 319 319 318 318 318 316 318 323 324 322 323 324 323 323 324 324 323 324 325 326 326 324 322 321 321 321 321 320 321 320 320 321 321 320 321 322 322 322 323 323 323 323 326 327 327 327 329 333 334 329 326 329 333 335 338
315 316 315 313 316 322 324 321 319 318 317 317 317 315 318 323 324 321 322 323 322 322 322 322 322 324 324 324 323 322 320 320 320 320 319 319 319 319 319 320 319 319 320 321 321 321 322 322 323 322 323 325 325 323 325 331 332 326 321 324 327 327 329
315 315 315 314 318 323 322 319 319 318 316 316 317 318 321 324 322 321 321 321 320 320 320 320 321 322 322 321 320 319 319 319 319 318 318 318 318 319 318 319 318 318 319 320 320 320 320 321 322 322 322 324 323 321 322 327 329 328 325 324 323 322 325
315 316 315 314 317 322 322 319 319 317 316 317 319 322 323 323 321 321 320 319 319 319 319 319 319 320 320 319 319 319 318 318 318 318 318 317 318 318 318 318 318 318 319 319 319 319 319 320 320 321 322 322 320 319 320 323 324 324 324 324 323 321 322
315 315 315 314 317 321 321 319 318 317 316 319 322 322 322 320 320 320 319 318 319 318 318 318 318 319 319 318 318 318 317 317 317 317 317 317 317 317 317 317 317 317 317 318 318 319 319 319 319 321 322 321 317 317 320 320 317 316 318 320 324 325 323
315 314 315 316 318 321 319 317 317 318 318 320 321 321 320 319 319 318 318 318 318 317 318 318 317 317 317 317 317 317 317 317 317 316 317 317 317 316 316 316 316 317 317 317 318 318 318 319 320 320 321 319 316 316 319 318 315 314 314 315 319 323 324
317 315 317 319 320 320 318 315 316 317 319 320 320 319 319 319 317 317 317 316 317 317 317 317 316 316 316 316 316 317 316 316 316 316 317 317 317 316 316 316 316 316 315 316 316 317 318 319 320 320 319 318 318 318 318 317 315 314 317 319 318 318 321
318 317 318 319 319 319 318 316 316 316 317 319 318 317 317 316 316 316 316 316 316 316 316 316 316 316 316 316 316 317 316 316 316 316 316 317 317 317 316 316 316 315 314 314 315 316 317 318 319 320 320 320 321 319 316 315 316 319 324 325 320 314 314
316 316 317 318 318 317 317 316 316 316 317 317 317 317 316 316 315 316 316 316 316 316 315 316 316 316 316 316 316 316 316 316 316 316 316 316 316 317 317 317 316 316 315 315 315 314 315 315 315 317 318 319 320 319 318 317 319 321 323 323 319 315 314
316 316 317 318 318 317 317 316 316 316 317 317 317 317 317 316 316 315 316 316 315 315 315 315 315 316 316 315 315 315 315 315 315 315 315 315 315 316 316 315 316 316 317 316 315 314 313 312 312 313 314 316 317 318 318 317 316 316 316 316 316 316 314
316 316 317 318 317 318 318 317 316 316 316 316 316 316 316 316 315 315 315 315 315 315 315 315 315 315 315 314 314 313 313 313 313 313 314 314 314 314 314 315 315 315 316 317 317 316 314 313 313 313 312 312 313 313 314 314 314 313 314 314 314 314 314
316 317 318 318 318 318 318 318 317 317 316 315 315 315 315 315 315 315 316 315 315 314 314 314 314 314 314 314 313 312 313 313 312 313 313 313 313 313 313 314 314 314 315 316 316 317 316 316 316 316 314 313 312 312 314 316 316 317 318 319 318 318 319
316 317 317 318 318 318 318 318 317 317 316 315 315 315 315 315 315 315 315 315 314 313 313 313 313 313 313 312 312 312 312 312 312 312 312 312 312 312 312 313 313 314 314 315 315 316 317 317 317 317 317 316 314 314 316 318 320 321 322 323 324 323 323
318 317 317 318 318 318 319 319 318 317 316 315 315 315 315 315 315 314 314 314 313 313 313 312 312 311 312 312 311 311 311 311 311 311 311 311 311 311 311 312 313 313 314 314 315 315 316 316 317 317 317 317 317 317 318 319 321 322 323 325 326 326 325
318 318 318 318 318 318 319 319 318 317 316 316 315 315 315 315 315 314 314 314 314 313 313 312 312 311 311 311 311 310 310 310 310 310 310 310 310 311 311 312 312 313 313 313 314 314 315 315 316 316 316 316 316 316 317 318 319 320 321 323 324 325 326

ECMWFFLT2_850_thetae_093.txt.gz
Theta_e
326 327 327 326 327 329 331 326 325 329 332 330 326 324 325 323 322 330 339 344 347 347 350 353 351 350 350 349 351 351 352 354 354 353 354 355 355 355 354 355 356 355 354 353 352 351 350 348 349 350 347 347 348 348 348 349 347 343 339 338 338 337 336
325 326 328 326 327 330 329 324 325 332 330 329 329 325 324 322 322 333 342 342 344 346 348 353 353 352 354 350 349 351 352 353 353 353 355 356 357 357 357 356 355 355 355 354 353 352 351 350 350 351 350 349 350 348 349 349 349 346 340 337 337 337 337
324 326 326 326 327 327 327 326 328 331 325 325 328 324 323 322 323 337 346 342 342 343 345 349 350 351 354 351 348 350 351 352 353 353 354 355 356 358 359 357 355 355 354 355 355 354 354 353 352 352 352 352 352 351 351 351 351 349 344 340 339 338 337
324 326 323 322 325 326 329 328 327 329 326 325 326 324 324 322 323 339 347 344 345 346 346 350 352 351 349 347 347 347 348 350 351 351 352 352 353 354 356 356 356 356 356 355 355 354 355 354 354 354 353 352 353 354 354 353 352 351 349 347 346 344 342
322 322 323 323 324 325 327 326 324 324 325 326 325 324 324 321 323 338 346 345 346 346 347 349 352 353 349 345 346 345 345 347 347 349 350 351 352 353 353 354 355 355 356 356 356 356 355 354 354 354 354 353 353 353 355 355 354 352 350 348 348 350 350
320 321 323 324 324 325 326 325 324 323 324 323 322 324 325 319 323 335 343 345 345 345 347 346 345 348 348 345 344 344 344 345 345 346 347 348 350 351 351 351 353 355 356 356 356 356 354 353 355 355 354 354 353 353 356 357 356 355 353 350 349 350 351
321 322 324 324 324 324 324 325 326 325 325 323 320 322 326 325 328 335 340 343 345 345 346 345 343 344 346 345 344 343 343 344 344 345 345 346 347 348 348 348 350 354 357 357 357 357 355 354 354 355 355 354 353 353 354 354 355 356 355 354 351 349 351
325 323 324 323 323 323 322 324 326 324 325 325 323 325 329 331 335 340 342 344 346 345 343 344 343 343 344 343 344 343 343 343 343 342 343 344 345 345 346 345 346 351 355 356 357 357 356 355 354 355 354 353 353 352 351 351 352 353 355 356 354 352 352
327 327 326 323 322 323 322 323 324 324 324 325 328 329 331 335 336 338 343 346 348 346 343 343 343 343 342 342 343 343 342 342 342 341 340 340 342 343 343 344 344 346 350 353 354 354 355 355 355 354 354 353 353 352 351 351 350 351 353 355 356 356 355
326 327 327 325 325 324 322 323 323 323 323 325 328 328 332 340 343 339 340 343 346 347 344 342 342 341 340 340 341 341 341 341 341 340 339 338 339 340 341 341 341 343 345 348 351 352 352 353 353 354 353 352 352 351 350 351 350 351 353 354 355 356 355
327 328 328 327 326 322 320 321 321 322 324 323 327 330 332 342 348 344 340 340 342 343 342 342 344 342 338 338 339 338 339 340 340 339 338 337 338 338 339 339 340 341 342 345 348 349 350 351 352 352 353 352 352 353 353 351 350 351 353 354 354 355 354
326 327 326 324 322 320 319 320 320 322 323 323 325 327 330 338 345 344 344 341 339 340 340 341 344 343 338 337 338 337 337 338 338 337 337 336 336 336 337 337 338 339 340 342 345 347 348 350 351 352 353 352 353 354 354 354 353 353 354 354 355 355 354
323 324 324 323 321 320 320 320 320 320 322 323 322 322 328 338 343 344 346 344 341 341 339 338 340 340 337 337 338 337 336 337 336 336 336 335 335 335 335 335 335 336 337 339 341 343 345 347 349 350 351 352 353 353 354 354 354 353 354 354 353 353 352
320 320 322 322 320 321 320 319 321 320 321 321 321 324 333 341 342 342 345 345 343 341 340 339 336 335 334 335 336 336 336 336 335 335 335 334 334 334 334 334 334 334 335 337 338 339 341 342 344 346 348 349 351 352 353 353 354 353 353 353 352 352 351
319 318 320 321 321 320 319 319 320 320 320 320 320 325 334 341 341 341 342 343 343 341 339 337 333 333 334 334 334 335 335 334 334 334 334 333 333 333 333 333 333 333 332 334 336 336 337 339 341 342 343 345 347 349 351 352 353 354 354 353 353 353 352
318 317 318 320 320 319 318 318 319 319 320 321 320 324 331 337 339 340 339 341 342 340 338 337 333 333 332 332 332 332 332 333 333 331 331 332 332 331 331 332 332 332 330 331 333 333 333 336 339 340 340 342 344 346 348 350 351 352 354 353 353 354 354
318 316 316 318 319 319 318 319 320 320 320 320 320 323 329 334 339 341 339 339 339 337 337 338 335 332 332 331 331 331 330 331 331 330 330 330 329 330 329 329 330 331 330 329 331 332 332 332 335 338 338 339 341 342 344 345 348 349 351 352 352 353 355
320 318 319 321 320 318 319 320 319 319 321 322 324 326 329 333 337 339 339 338 337 336 336 336 334 332 332 331 330 330 329 329 329 330 329 328 328 328 328 328 328 328 328 328 328 330 331 330 331 334 336 338 340 340 340 339 342 346 348 349 350 351 352
321 322 321 320 319 318 320 320 319 320 321 323 327 328 331 334 335 335 337 336 335 335 334 334 334 332 331 331 330 329 328 328 327 327 328 327 326 326 326 326 327 326 326 326 325 326 329 328 326 328 333 337 338 338 335 330 331 338 343 345 347 348 349
321 321 319 319 321 321 320 320 320 322 323 325 328 330 330 333 333 333 335 334 332 332 332 331 331 331 330 330 329 328 327 326 326 325 326 326 324 324 324 324 325 325 325 325 325 324 326 326 325 325 328 332 336 337 334 328 324 326 330 334 338 342 345
320 319 319 322 325 322 322 325 324 323 323 325 330 331 329 331 332 331 333 334 332 331 330 330 329 329 329 328 328 328 327 325 324 324 324 324 323 322 322 322 323 324 323 324 323 323 324 325 325 324 323 325 329 333 334 331 323 319 321 324 326 331 336
322 320 319 321 322 321 324 327 324 321 319 320 327 333 330 329 330 330 331 332 332 330 329 329 328 328 328 329 328 327 326 325 323 323 322 322 322 321 321 321 322 322 322 322 322 322 323 323 324 325 324 321 319 322 327 327 321 316 318 320 320 323 325
326 323 319 319 322 327 330 326 321 319 316 316 324 329 327 328 330 329 330 329 328 328 329 328 328 327 328 329 326 323 324 323 322 322 321 321 321 320 320 320 321 321 321 321 321 321 321 322 322 324 324 322 317 315 319 321 318 315 315 316 317 319 321
326 324 320 321 326 331 331 325 319 317 317 318 321 321 322 327 327 324 327 327 325 325 326 327 328 328 328 327 324 322 322 321 321 321 321 320 320 319 319 320 320 320 320 320 320 320 320 321 322 322 322 322 318 315 316 318 318 316 314 314 314 315 318
323 323 321 323 327 328 326 323 318 315 317 320 322 322 325 327 323 320 323 324 323 324 324 325 326 326 325 324 322 321 321 320 320 320 320 320 319 319 319 319 319 319 319 320 319 319 319 319 321 321 320 319 317 315 317 319 319 317 315 313 314 314 315
320 320 320 325 328 326 322 320 317 317 322 325 325 326 326 323 321 321 321 321 322 323 323 323 323 322 321 321 320 320 320 320 319 320 320 319 319 319 319 319 319 318 319 319 318 318 318 319 320 319 317 316 314 315 321 322 319 315 314 314 317 319 317
319 318 319 325 329 326 320 321 323 325 327 328 326 324 322 321 321 321 319 319 321 321 321 321 321 320 320 320 319 319 319 319 319 320 320 319 319 319 319 320 320 319 318 317 317 318 318 319 319 316 315 315 313 317 323 323 317 313 315 316 320 324 323
320 320 321 324 327 324 320 323 326 326 326 326 324 321 321 321 321 320 320 319 319 319 320 320 320 320 320 319 319 319 319 319 319 319 319 319 319 319 319 320 319 318 316 316 317 319 319 319 318 316 316 316 315 317 320 319 314 315 318 317 318 322 322
323 324 325 324 323 323 322 323 323 323 323 323 323 321 321 320 319 320 320 319 319 319 319 319 319 319 318 318 318 318 318 319 319 318 318 319 318 319 319 318 317 316 315 316 317 319 318 317 316 316 316 316 317 317 317 316 315 317 317 315 315 316 315
325 323 323 322 320 321 322 321 321 321 321 321 321 320 320 320 319 319 318 318 319 318 318 318 318 318 318 318 318 318 318 319 318 318 318 318 317 317 317 316 316 316 315 316 317 317 317 316 315 316 316 316 316 318 317 316 315 314 312 311 311 311 310
323 322 323 324 322 321 319 320 320 319 319 319 319 319 318 318 318 318 318 318 319 318 318 318 318 318 318 318 318 318 317 317 317 317 317 316 316 316 316 315 315 315 315 315 316 316 317 316 316 316 316 314 314 317 318 316 314 310 308 308 309 308 309
323 323 322 321 320 320 319 319 319 318 318 318 318 318 317 317 317 318 317 317 317 317 318 318 318 318 318 316 316 316 316 316 316 316 315 315 315 315 315 315 314 314 314 315 315 315 316 316 316 316 316 315 315 317 318 318 316 314 311 311 309 308 308
324 326 324 321 321 322 319 318 319 318 318 318 318 317 317 317 317 317 317 317 316 316 316 317 317 317 316 316 316 316 315 315 315 315 314 315 314 314 314 314 314 314 313 313 314 315 316 316 317 317 317 318 318 317 317 318 318 317 316 315 313 309 308
325 326 324 323 325 324 321 319 319 318 318 318 318 318 318 318 317 317 316 316 316 316 316 316 316 315 315 315 314 314 314 314 314 314 314 313 313 313 313 313 313 312 312 313 314 315 315 316 316 316 316 316 317 317 317 317 317 317 317 317 315 313 312
325 324 321 321 322 322 321 320 320 319 318 319 318 318 318 318 317 316 316 315 315 315 315 314 314 314 314 313 312 312 313 313 313 313 313 312 312 312 312 312 312 312 312 314 314 314 314 314 314 314 315 315 315 315 316 316 316 316 316 317 317 317 317
324 322 321 320 321 321 320 320 320 320 320 319 319 318 318 318 317 317 316 316 315 315 315 314 313 313 313 313 313 313 313 313 313 312 312 312 312 311 311 311 312 312 313 313 313 313 313 313 313 314 314 314 315 315 316 316 316 316 316 316 316 317 317
322 322 321 321 321 320 320 319 320 320 319 318 319 319 318 318 318 317 316 316 316 315 315 315 314 314 313 313 313 312 312 312 312 312 312 312 311 311 311 312 312 312 313 312 312 313 313 313 314 315 315 315 316 316 316 315 316 316 316 316 316 316 316

ECMWFFLT2_850_thetae_096.txt.gz
Theta_e
327 326 327 327 326 330 331 326 326 331 336 335 328 328 334 330 329 336 343 348 347 348 352 351 352 355 353 351 352 353 354 354 354 355 356 356 355 355 355 355 353 351 350 348 347 347 346 345 345 346 346 346 346 346 345 345 345 344 340 335 335 335 334
325 323 325 326 325 331 332 324 326 333 331 332 331 328 329 328 332 340 345 348 347 347 353 354 353 355 354 352 353 352 353 354 355 355 356 356 356 355 356 356 354 353 351 349 348 348 347 346 346 346 347 347 347 346 346 346 346 345 342 336 334 334 333
323 324 323 325 325 327 329 326 329 330 325 328 332 328 325 325 336 348 348 345 345 347 350 352 353 354 353 353 354 352 352 353 353 354 356 356 356 355 355 355 354 354 351 350 349 349 349 348 347 347 349 349 348 348 347 346 346 346 344 339 335 335 333
323 326 324 324 325 325 327 326 328 330 329 331 330 328 328 329 338 349 347 344 347 350 351 352 352 351 349 350 351 351 350 350 351 353 353 354 355 355 355 354 354 354 353 352 351 351 351 349 348 347 349 351 350 349 349 348 347 347 347 343 336 335 335
323 324 324 324 326 326 326 325 325 325 327 328 327 327 328 331 341 348 346 347 350 349 348 348 348 348 346 347 347 346 346 347 349 350 350 351 353 354 355 355 355 354 353 353 352 352 351 350 349 347 347 350 350 349 349 347 347 348 348 347 341 336 335
322 323 323 323 324 325 325 325 325 325 326 325 324 324 326 331 341 344 345 348 349 345 345 345 345 345 345 345 345 344 345 345 346 347 347 348 350 351 353 354 354 354 353 353 353 352 352 350 350 348 347 349 351 351 350 348 348 347 348 348 345 339 336
322 322 323 323 323 323 325 324 325 326 328 328 324 323 329 336 339 340 344 348 348 344 343 343 344 344 344 344 343 342 342 342 344 345 345 347 349 350 352 354 354 354 354 354 353 353 352 351 350 349 348 350 351 352 352 351 350 348 349 350 347 342 338
328 326 326 325 323 324 326 324 324 324 323 327 328 328 336 342 342 344 347 349 348 346 343 342 342 343 344 343 341 341 340 340 342 343 344 346 347 348 350 353 353 352 353 354 354 353 352 352 351 352 351 351 352 351 352 353 352 350 350 351 350 346 342
333 332 330 327 324 324 324 322 322 323 322 326 331 335 344 344 339 343 348 348 347 345 344 343 342 343 345 343 341 340 339 339 340 341 342 342 344 346 348 350 351 350 349 350 351 351 351 352 352 354 354 353 352 351 351 354 354 353 351 351 352 351 347
330 330 329 327 325 324 322 321 321 321 323 328 330 336 346 345 340 342 346 346 345 344 344 345 344 344 344 342 341 339 338 338 338 339 340 340 341 343 345 348 350 349 348 349 350 350 351 351 352 353 354 353 353 352 351 352 354 355 353 352 352 353 352
334 333 334 332 328 323 319 319 320 320 322 330 335 339 343 344 344 346 344 343 345 343 343 345 345 344 343 341 340 339 337 337 337 338 338 338 339 340 342 345 347 348 348 348 350 350 350 351 351 352 353 352 352 352 351 351 353 355 354 354 354 355 354
330 330 332 329 325 321 318 318 319 319 321 327 332 335 337 341 345 346 344 343 343 343 342 343 344 344 342 339 339 338 336 336 336 336 336 337 337 338 339 341 343 345 345 345 347 348 349 350 351 351 351 351 352 352 351 350 350 352 353 353 354 355 355
321 323 324 322 321 320 320 319 318 318 321 326 328 330 338 346 348 344 342 342 342 341 341 340 341 341 339 338 337 336 336 336 335 335 335 335 335 335 336 338 339 340 341 342 344 345 345 347 349 350 351 352 353 353 351 350 350 351 351 352 352 353 354
320 321 321 320 318 319 321 320 319 318 324 332 335 335 339 345 345 341 340 343 343 342 340 339 338 338 337 337 336 335 335 335 334 334 334 334 334 333 334 335 336 337 339 341 341 342 343 344 345 347 349 350 350 352 353 353 352 353 353 353 353 353 354
323 321 322 319 317 319 320 319 320 320 323 331 339 341 340 341 341 339 340 343 343 340 338 337 337 337 336 335 335 334 334 333 333 333 332 333 333 332 332 333 334 334 336 339 341 340 341 342 342 343 345 346 347 350 352 353 353 353 354 354 354 353 353
326 321 320 319 318 320 320 318 320 322 321 323 333 341 342 340 340 340 340 342 341 339 336 334 335 335 334 334 333 332 332 332 331 331 330 331 331 331 330 331 332 332 332 335 338 339 339 340 341 341 343 345 346 348 349 350 352 353 353 353 352 352 352
327 321 318 321 322 322 320 319 319 323 326 326 332 339 340 338 338 339 339 340 339 337 334 333 333 332 332 332 331 330 330 330 330 329 329 329 329 329 329 328 330 331 330 330 333 337 338 339 340 341 340 340 341 343 346 347 348 351 352 352 353 353 352
325 321 322 328 328 321 319 320 320 324 330 332 335 338 338 336 336 336 336 337 337 335 332 331 331 330 330 330 330 329 329 329 328 328 328 327 327 327 327 326 326 328 329 327 327 332 337 339 339 338 337 333 331 334 341 345 345 347 349 350 352 353 353
322 325 327 328 324 320 321 321 321 324 329 332 335 337 336 335 335 334 335 335 335 334 332 331 329 328 329 329 329 329 328 327 326 326 326 326 326 325 325 325 325 325 326 326 325 327 331 336 337 336 333 330 325 324 330 335 339 342 344 345 347 349 349
322 325 327 323 321 323 326 324 321 324 327 329 335 336 333 333 333 334 335 333 333 333 331 329 328 326 326 327 328 328 327 326 324 324 324 325 325 324 323 323 323 323 323 325 326 325 325 329 334 335 333 329 323 320 320 322 326 331 334 337 339 341 344
321 322 326 329 326 323 325 326 323 323 322 324 332 335 331 330 331 332 333 332 331 331 330 329 327 325 325 325 324 325 327 325 323 322 322 322 323 323 322 321 321 321 321 323 326 326 325 325 327 329 329 325 321 319 318 317 318 321 323 326 329 331 336
327 326 327 328 324 320 324 327 322 318 318 320 327 332 328 327 328 329 331 331 330 330 330 329 327 327 330 329 324 322 324 323 322 321 321 321 321 321 321 321 320 320 320 322 324 325 324 324 324 324 322 320 318 318 318 316 315 316 318 321 322 324 326
330 328 324 323 324 325 331 332 323 316 316 319 325 331 329 325 326 328 329 329 329 329 329 328 327 329 332 330 323 320 321 321 321 320 320 320 321 321 321 321 320 319 319 320 321 322 322 323 323 323 321 318 315 316 318 317 314 314 316 319 322 322 321
330 328 323 324 329 329 329 329 323 316 315 319 326 332 330 323 322 327 329 328 328 328 328 327 327 327 327 325 321 320 321 320 320 320 320 320 320 320 320 320 320 320 319 319 319 320 321 321 322 321 320 317 314 315 318 317 315 314 316 319 320 319 318
327 326 322 326 334 332 324 322 320 316 316 319 324 329 328 321 320 326 329 328 328 328 327 326 325 324 323 321 320 320 320 320 320 319 319 320 320 319 320 320 320 320 319 319 318 318 319 320 320 320 318 315 313 315 318 319 316 314 315 317 319 320 319
324 327 324 325 332 330 321 319 319 318 319 321 322 323 323 320 320 324 327 328 327 327 326 324 322 321 321 320 320 320 320 320 319 319 319 319 320 319 320 319 319 319 318 318 317 317 318 318 318 318 317 314 313 313 315 318 317 313 312 315 317 319 321
322 324 322 325 331 328 319 319 323 324 325 324 322 321 320 319 320 322 324 326 327 325 323 321 320 320 320 320 320 320 320 320 319 320 319 319 319 319 319 319 319 318 317 317 316 315 316 318 318 318 316 315 315 314 313 316 316 313 312 314 315 316 317
320 322 321 323 328 326 321 322 325 326 325 323 320 320 320 319 319 321 321 322 323 323 321 320 320 319 319 319 320 319 319 320 319 319 319 319 319 319 318 319 318 317 316 315 314 313 314 316 318 317 316 316 317 317 315 314 313 311 311 313 314 314 313
324 327 325 322 323 323 322 323 324 324 323 321 320 320 320 319 319 319 320 320 320 321 320 320 320 319 319 319 319 319 319 319 319 319 319 319 319 318 318 318 317 316 315 313 312 312 312 313 315 315 314 314 316 317 316 314 312 311 310 311 311 311 310
323 323 322 321 321 322 322 322 323 323 322 321 320 319 319 319 318 318 319 320 319 319 320 319 319 319 319 319 319 319 319 319 318 318 318 318 318 317 317 316 316 315 314 313 312 311 311 311 312 312 312 312 313 314 314 313 312 310 310 309 309 308 308
320 320 321 321 321 322 322 322 322 321 320 320 320 319 319 318 318 318 318 318 319 319 318 318 318 319 319 319 318 318 318 318 318 318 317 317 317 316 316 315 315 314 314 313 312 311 310 311 312 312 312 313 313 313 312 312 311 310 309 309 308 308 308
321 319 320 319 319 321 320 320 320 320 319 319 319 318 318 318 318 318 317 317 318 318 318 318 318 318 318 318 318 318 317 317 317 317 316 316 315 315 315 314 314 314 313 313 312 312 313 314 315 314 314 315 315 315 314 313 312 311 310 309 308 308 308
327 325 322 320 320 320 319 319 319 318 318 318 318 318 317 318 318 317 317 316 317 318 318 318 317 317 317 317 317 316 316 316 316 315 315 315 314 314 314 314 313 313 313 312 312 313 314 315 315 315 316 316 316 316 315 314 313 312 312 311 309 309 308
330 326 322 321 321 321 320 320 319 318 318 318 317 317 317 317 317 317 317 316 316 317 317 317 317 316 316 316 316 315 315 315 315 314 314 314 313 313 313 313 312 312 312 312 312 313 315 315 314 315 314 314 314 314 314 314 313 313 313 313 312 311 311
328 323 320 320 320 320 320 320 319 319 319 318 318 318 317 317 317 317 316 316 316 316 316 316 316 316 316 315 315 315 314 314 314 313 313 313 313 312 312 312 311 311 311 312 312 313 314 313 313 313 313 313 313 314 314 314 314 314 314 314 314 314 313
324 321 320 320 320 320 320 319 319 319 319 318 319 318 318 317 317 317 316 316 316 315 315 315 315 315 314 313 313 313 313 313 313 313 313 312 312 312 311 311 311 312 312 312 312 312 312 312 312 313 314 314 315 315 316 316 315 314 315 315 315 315 315
321 321 321 321 320 320 320 319 319 318 318 318 318 319 319 319 318 317 317 316 316 315 315 314 313 313 313 313 312 312 312 313 312 312 312 312 311 311 311 311 311 311 312 312 312 311 311 311 312 313 314 314 314 314 314 315 315 315 315 315 315 315 315

ECMWFFLT2_850_thetae_102.txt.gz
Theta_e
322 322 321 321 322 323 322 321 321 323 326 331 328 326 333 337 337 341 346 352 355 351 346 345 346 350 351 350 350 352 352 353 352 352 350 348 348 348 348 350 350 347 343 341 342 343 343 343 343 343 343 342 342 342 342 342 342 342 342 342 339 337 337
323 318 320 321 320 323 325 321 322 325 324 330 332 327 331 338 339 343 349 353 353 350 347 346 347 351 353 352 352 351 352 353 352 352 351 348 347 347 348 349 349 350 347 342 341 342 343 343 342 342 342 342 342 342 342 342 342 342 342 342 340 337 335
323 321 320 322 321 322 324 324 324 325 323 325 328 326 329 334 341 349 350 348 349 349 348 347 348 351 352 353 354 352 352 352 352 352 351 350 349 347 348 348 348 351 350 346 342 341 342 342 342 343 342 342 342 342 342 343 343 342 342 342 341 338 335
320 324 324 325 326 323 323 324 322 325 330 329 326 327 332 338 343 347 347 348 350 349 346 346 348 349 351 353 353 351 351 351 352 353 352 352 351 349 348 348 349 351 351 349 346 342 341 341 342 343 342 342 342 342 343 343 343 343 342 343 343 340 337
320 323 324 324 327 325 324 327 323 323 327 327 325 325 331 344 351 349 347 349 350 346 343 345 348 347 348 349 349 348 348 348 350 352 352 352 352 351 350 349 350 350 349 350 349 347 344 342 342 342 342 342 342 342 343 342 343 343 343 343 343 342 339
322 324 324 322 323 324 326 328 322 322 323 324 326 323 324 341 352 348 347 351 350 344 342 345 346 345 345 345 346 345 345 347 349 351 353 353 352 352 352 351 351 350 348 348 349 349 347 344 343 343 343 343 343 342 342 343 343 343 343 343 344 344 341
323 324 323 320 319 321 325 324 319 322 325 327 330 326 326 338 345 344 345 351 350 342 341 344 344 343 344 344 344 344 344 346 348 351 352 352 352 353 353 353 353 352 351 350 350 350 349 347 344 343 343 344 343 342 342 343 343 343 343 343 344 345 345
336 331 328 325 323 323 325 325 323 321 319 322 329 333 338 343 346 347 347 348 348 343 342 344 343 343 343 343 343 343 343 345 347 349 351 352 352 352 352 353 353 353 352 351 351 351 350 349 346 345 345 345 345 344 343 343 343 343 344 344 344 345 345
337 335 334 329 325 326 326 326 326 321 318 323 328 335 343 345 344 345 344 345 348 345 342 343 342 342 342 341 342 342 342 343 344 345 348 349 350 350 350 351 351 352 351 351 351 351 350 349 347 346 347 346 345 344 344 343 343 344 344 344 345 346 346
328 328 331 327 324 326 324 323 322 318 318 325 331 335 336 335 338 341 343 347 349 344 343 343 341 340 340 339 340 340 341 342 342 343 345 346 347 348 348 349 349 350 351 350 351 351 349 349 348 348 347 346 345 344 345 345 345 346 346 345 346 347 347
327 329 332 329 327 327 322 320 320 319 321 328 335 339 336 335 339 342 345 348 347 346 346 345 341 339 338 338 339 339 339 340 341 342 344 345 346 346 347 347 346 347 349 350 350 349 348 348 348 349 348 347 346 346 347 348 348 348 348 347 346 346 347
329 332 330 325 324 323 320 319 319 320 326 332 333 334 336 339 340 341 344 345 345 346 347 345 341 339 337 338 339 338 338 339 340 341 343 343 345 345 345 345 345 345 347 348 349 348 348 349 349 349 349 348 348 347 347 348 347 348 348 348 347 346 345
327 329 324 320 321 320 319 320 319 318 326 335 335 335 339 341 339 340 344 344 344 346 345 342 339 337 337 338 338 337 338 338 339 339 340 342 344 345 345 345 344 345 346 347 347 348 348 349 349 349 349 349 349 349 348 348 347 347 346 347 348 349 348
323 325 325 323 321 319 320 321 320 320 324 333 341 341 340 343 343 342 342 343 344 345 343 340 337 337 338 337 336 336 336 336 337 338 339 340 342 344 344 344 344 345 345 346 346 347 348 348 349 349 349 349 349 349 349 349 348 347 346 347 348 350 350
321 323 327 329 324 321 321 321 324 326 326 331 343 344 340 343 343 341 341 344 346 344 340 337 337 336 336 335 335 335 335 335 336 337 338 339 340 342 342 342 343 343 344 345 345 346 346 346 348 348 347 348 348 347 347 348 348 348 348 348 349 350 351
322 321 324 330 328 323 322 322 327 332 328 326 336 339 338 342 343 341 343 345 345 341 337 336 335 335 334 333 333 333 333 335 335 336 338 338 339 340 340 339 338 337 337 339 340 341 342 343 344 345 345 345 345 345 346 346 347 348 348 349 349 350 350
323 320 324 330 329 325 325 324 326 332 332 330 336 337 334 337 340 341 343 343 341 338 335 335 334 333 332 331 331 332 332 333 334 336 336 336 337 339 338 336 333 331 331 331 333 335 337 339 340 341 342 343 343 344 345 346 346 347 347 348 349 349 349
322 322 327 332 330 328 329 326 325 331 334 334 336 334 330 332 335 338 340 340 337 336 334 334 333 331 331 331 330 331 331 331 333 334 334 335 337 339 338 336 334 332 330 329 329 330 332 335 337 338 339 340 340 342 342 343 345 346 346 346 347 347 348
322 328 331 329 328 330 331 327 324 329 331 331 334 333 329 330 334 336 338 337 335 334 333 332 331 329 329 329 328 329 330 331 332 332 333 334 336 338 338 337 336 335 332 329 328 327 327 328 330 332 335 337 337 338 339 340 341 342 344 345 345 344 345
318 327 331 330 330 329 328 327 323 324 326 328 336 340 332 329 332 335 335 334 333 332 331 329 329 328 327 326 325 325 328 330 330 331 332 334 335 336 336 336 336 335 333 330 328 326 323 321 322 324 328 331 333 334 334 335 336 337 340 342 342 341 342
319 324 328 329 327 322 322 325 321 320 320 320 332 343 336 328 330 332 331 332 331 329 328 327 327 326 325 323 321 322 325 328 329 330 331 332 333 333 333 334 334 333 330 327 325 322 319 317 317 318 320 323 327 329 330 332 332 332 333 335 335 336 337
325 329 328 325 323 323 326 326 321 320 318 315 325 340 340 330 327 329 330 331 330 327 327 327 326 325 325 324 321 319 322 325 327 328 329 328 329 329 329 330 330 328 326 324 322 320 317 316 316 316 315 317 319 323 327 328 328 328 329 329 329 330 332
327 332 330 325 325 327 328 327 321 318 318 319 324 336 340 332 327 328 330 330 328 327 326 326 326 326 326 324 320 318 320 323 324 326 327 326 325 326 326 326 326 325 323 322 321 320 319 318 317 315 314 314 314 316 320 322 323 323 325 326 326 327 328
330 332 326 323 326 326 325 327 324 318 317 321 327 333 335 332 327 328 329 328 328 327 326 326 326 326 325 323 319 318 321 323 323 325 326 325 325 325 325 324 324 323 322 321 321 320 318 318 317 316 315 315 314 314 314 316 317 318 320 323 324 323 323
328 327 321 320 325 325 322 323 322 318 317 322 329 332 331 329 327 328 328 327 327 326 325 325 325 325 324 322 319 319 321 321 322 324 325 325 326 325 324 323 322 321 321 320 319 318 317 317 317 316 316 315 315 314 313 313 314 314 316 319 320 320 319
318 324 324 323 324 321 318 320 320 317 318 325 329 327 325 327 328 328 327 327 326 325 324 325 325 324 323 321 320 320 321 320 321 322 323 324 323 322 321 320 319 320 319 318 318 317 317 316 316 316 315 314 314 314 313 313 312 312 312 313 314 316 317
317 325 326 323 323 320 318 321 321 318 319 323 324 321 322 328 329 327 327 326 325 325 325 324 324 323 322 321 321 321 321 321 321 320 319 320 319 319 319 318 318 318 318 318 318 317 316 315 315 314 314 314 313 313 312 312 312 311 311 311 311 312 313
322 327 325 321 321 319 318 320 322 320 320 320 319 320 324 328 328 327 327 326 325 326 325 323 323 323 322 321 322 322 321 322 321 320 320 320 319 318 318 318 318 318 318 317 316 314 313 313 313 313 313 313 312 312 312 312 312 311 310 310 310 310 310
321 323 325 322 319 317 318 319 320 320 319 318 318 320 324 328 329 328 327 326 326 326 325 324 324 324 323 322 322 321 321 321 321 321 321 321 319 318 318 319 318 318 316 314 312 312 312 311 311 311 311 311 311 311 311 311 311 311 310 310 309 309 309
317 316 318 318 317 317 318 318 318 319 318 318 319 319 322 326 328 328 327 326 326 325 325 325 326 324 323 322 321 320 320 320 320 320 320 320 320 319 319 318 317 315 314 313 312 312 312 311 311 311 311 311 311 311 311 311 310 310 310 309 309 309 309
318 317 317 317 317 318 318 317 318 318 317 319 320 320 321 323 324 327 328 327 326 325 323 323 324 323 322 321 320 320 320 320 320 320 319 319 318 318 317 316 315 314 313 313 313 312 311 311 311 311 310 310 310 311 312 312 311 311 310 310 309 309 309
320 318 317 317 317 317 317 317 318 317 317 318 319 320 321 321 322 325 326 327 327 325 322 321 320 320 319 319 320 320 320 320 320 318 318 318 318 317 316 315 314 314 313 313 312 311 311 311 311 311 311 311 310 310 311 311 311 311 310 310 310 309 309
324 319 316 317 318 319 318 317 317 317 316 317 318 319 320 321 322 323 324 326 326 325 323 323 322 320 319 318 319 319 319 319 319 318 318 318 317 317 316 315 314 314 313 312 311 311 311 311 311 311 311 311 310 310 310 310 310 310 310 310 309 309 308
327 322 318 317 320 321 319 317 317 317 316 316 317 318 318 319 320 321 322 324 325 325 325 325 323 322 320 319 318 318 318 318 319 319 318 318 317 316 315 315 314 313 313 312 311 311 311 311 311 311 311 311 311 311 311 311 310 310 310 310 309 309 309
324 321 318 318 319 320 319 317 317 318 317 316 316 317 317 317 317 318 319 321 322 322 323 322 322 321 320 319 318 318 318 318 318 318 318 317 316 316 315 314 314 313 312 311 311 311 310 310 310 310 310 310 311 311 311 311 311 311 310 310 310 310 310
320 319 319 319 319 319 319 318 318 318 318 317 317 317 317 316 316 316 317 318 319 320 320 320 320 320 320 319 319 319 319 319 318 318 317 317 316 315 314 314 313 312 311 311 311 310 310 309 308 308 309 309 310 310 311 312 311 311 311 310 310 310 310
319 320 320 320 320 320 319 319 319 319 318 318 318 318 317 317 316 316 316 316 316 317 319 319 320 319 319 319 319 319 319 318 318 317 317 316 315 315 315 314 313 311 311 311 310 310 309 308 307 307 308 309 309 310 310 311 311 311 310 310 309 309 309

ECMWFFLT2_850_thetae_105.txt.gz
Theta_e
319 321 321 320 320 319 318 318 317 319 322 323 323 324 329 329 327 333 338 335 337 340 340 346 351 350 351 349 348 350 352 353 354 352 352 352 351 350 349 348 347 345 343 343 344 344 344 344 343 343 343 343 343 343 343 343 343 343 344 344 344 343 343
319 319 320 320 320 321 319 317 319 321 321 323 324 322 326 327 324 330 336 333 335 336 337 347 352 350 351 350 350 352 353 353 353 353 352 352 351 350 349 348 347 344 342 341 342 342 343 343 342 342 342 342 343 342 343 343 342 343 344 344 344 344 343
320 318 319 320 320 320 320 319 321 321 318 320 324 322 322 323 324 330 337 336 336 335 338 347 351 350 351 351 351 352 353 353 353 353 352 351 352 350 349 348 347 346 344 342 341 341 342 342 343 343 343 343 343 343 343 343 343 343 343 343 343 344 344
319 319 320 319 320 320 320 320 320 321 320 320 322 322 320 322 324 328 334 337 337 337 342 348 350 351 353 352 352 351 352 354 353 353 352 351 351 350 349 348 347 346 346 344 342 340 341 342 343 343 343 343 343 343 343 343 343 343 343 343 343 343 343
318 319 321 319 321 321 320 320 319 320 322 321 322 323 323 324 326 327 329 331 336 341 344 347 349 350 351 351 350 351 353 354 353 354 353 351 351 350 349 348 347 347 348 347 344 342 341 341 342 343 343 343 343 343 343 343 342 342 343 343 343 343 343
318 320 320 319 320 320 320 321 319 319 321 320 318 320 325 329 330 330 327 325 334 342 343 345 348 348 348 350 350 350 352 353 353 354 353 351 350 348 348 348 348 349 350 350 347 344 341 341 341 342 342 342 343 343 344 344 343 343 342 343 343 343 343
320 321 320 319 319 319 319 319 319 319 321 321 318 317 324 330 332 334 329 326 336 342 342 345 347 347 348 349 350 350 351 352 353 353 353 351 349 348 347 347 347 348 348 349 349 347 345 344 344 343 342 342 343 343 343 344 344 344 343 343 343 344 344
322 321 321 321 320 320 320 320 321 320 318 319 319 321 327 330 331 333 328 328 338 342 343 346 347 347 347 347 349 350 350 351 352 353 353 353 352 350 349 348 347 346 345 346 347 347 347 347 347 346 346 344 343 342 343 343 344 344 344 344 344 344 344
320 320 320 320 320 320 320 321 322 322 322 321 321 327 331 329 333 334 325 327 339 343 343 346 345 345 346 345 347 348 348 349 350 351 352 352 353 352 351 351 350 347 346 345 345 345 347 347 347 347 348 347 344 343 343 343 342 342 343 344 344 344 344
319 319 319 318 319 320 320 322 323 324 327 325 324 329 327 324 334 337 326 330 342 345 344 345 345 344 343 343 344 345 347 348 348 349 350 350 351 352 352 352 352 351 349 348 347 347 347 347 347 347 348 347 345 344 344 343 342 342 342 343 343 343 344
321 320 320 319 319 319 319 323 326 328 329 328 327 327 324 325 334 335 333 339 344 344 344 345 345 343 341 343 343 344 345 346 347 347 347 348 349 349 350 351 351 351 350 349 349 349 349 349 349 348 348 347 346 345 344 343 343 342 343 343 343 343 343
323 323 321 319 320 319 320 325 330 331 331 331 328 326 327 331 329 328 337 346 344 342 344 345 344 342 341 343 343 343 345 345 346 346 345 346 346 346 347 348 348 348 348 348 349 349 350 350 349 349 348 347 347 346 345 344 344 343 344 344 344 343 343
323 323 321 320 320 319 322 328 332 331 332 335 335 332 333 336 330 328 340 347 345 343 343 343 342 342 341 342 342 342 344 344 344 344 344 344 344 344 345 346 346 347 347 348 348 349 349 349 349 349 348 347 347 347 347 346 345 345 345 345 345 344 343
321 321 321 322 321 320 322 327 329 331 332 335 338 337 336 338 337 336 341 346 345 343 342 342 341 341 341 341 341 341 342 343 343 343 343 342 343 343 344 344 345 346 347 348 348 348 348 349 349 349 348 348 348 348 348 347 347 347 346 346 346 345 345
320 320 322 324 323 322 323 325 328 331 333 334 337 337 336 338 340 340 341 344 345 343 342 341 340 340 340 339 339 340 341 342 342 342 342 341 341 341 342 342 343 344 345 346 346 346 346 346 347 348 348 349 348 348 348 348 348 348 348 348 347 346 347
319 319 321 324 325 322 321 325 330 332 333 334 334 335 335 336 339 341 341 343 344 343 341 340 339 339 339 339 339 339 340 341 342 341 340 339 339 339 340 341 341 342 343 344 344 344 344 345 346 346 346 347 347 346 347 347 348 348 348 348 348 347 348
319 319 321 324 326 323 321 325 330 333 334 334 333 334 334 334 337 339 340 341 342 341 340 338 338 338 338 338 338 338 339 340 340 339 338 337 337 337 338 339 339 340 340 341 341 342 342 343 344 345 345 346 346 346 346 347 347 347 348 348 348 348 348
319 321 322 324 326 326 325 326 329 332 334 334 335 334 333 333 335 335 337 339 339 339 338 337 337 336 336 336 336 336 337 338 337 336 335 335 334 334 334 335 336 337 338 338 339 339 340 341 341 342 343 344 344 345 346 346 346 347 347 347 347 348 348
320 322 322 324 326 325 324 324 327 331 331 330 332 333 332 332 333 335 337 339 338 338 338 336 334 332 331 331 332 333 335 336 336 335 333 332 331 330 330 331 332 333 334 334 335 336 337 337 338 339 340 341 342 342 343 344 344 345 346 346 347 347 347
319 321 322 323 324 322 320 320 322 326 326 325 328 332 333 331 332 335 338 338 336 335 333 331 329 328 328 328 328 330 332 333 335 335 333 332 330 329 327 327 326 327 327 327 329 330 330 331 332 334 335 337 339 340 340 340 340 341 342 343 344 344 345
319 320 321 321 321 321 321 320 320 321 321 321 325 331 333 331 332 336 336 333 332 331 328 327 326 326 327 326 324 326 329 331 334 335 333 332 331 329 328 326 324 323 321 321 322 322 322 323 325 326 328 330 333 335 336 336 335 337 339 339 339 340 341
318 319 320 321 321 322 321 319 319 320 319 319 323 330 332 331 333 335 334 330 329 328 326 326 327 327 328 326 323 324 327 330 334 335 334 334 333 331 328 326 323 320 318 317 318 317 316 317 319 321 322 322 325 327 329 330 331 332 334 334 334 335 336
319 318 319 320 321 321 321 319 320 321 319 320 323 326 328 331 333 334 333 330 329 328 326 326 327 329 330 327 322 321 324 328 333 334 334 334 333 330 327 324 321 319 318 317 317 316 315 315 315 316 317 317 318 320 323 325 325 326 328 328 328 329 330
320 319 318 319 321 321 321 321 321 321 319 320 323 323 325 330 333 333 332 331 329 329 328 328 329 331 330 326 323 322 324 327 330 332 332 331 329 326 324 322 320 320 319 317 317 316 316 315 314 314 313 313 314 315 318 319 319 320 322 323 322 322 323
319 318 318 319 320 321 321 322 322 321 319 321 323 322 322 327 332 333 332 331 330 329 329 329 330 329 329 327 325 326 327 327 327 328 328 326 325 323 322 321 320 319 318 317 318 317 316 315 315 314 314 314 314 313 313 314 314 315 317 319 320 319 318
316 317 318 318 318 319 320 321 321 320 320 322 324 322 320 324 330 333 332 331 331 329 329 330 329 327 326 326 325 325 327 326 325 324 324 323 323 322 321 321 319 318 318 318 318 316 314 314 313 313 313 314 314 313 312 312 312 312 312 313 314 315 315
316 316 315 317 319 319 319 321 322 322 322 323 321 320 320 325 329 331 331 331 330 330 329 328 327 324 324 324 324 323 324 326 325 324 323 322 322 321 320 318 317 318 318 317 314 312 311 311 310 311 311 312 312 313 313 313 312 311 311 311 311 311 311
317 317 316 317 320 320 319 320 322 322 320 319 318 318 321 326 329 329 329 329 328 329 328 327 325 324 323 323 323 323 323 325 325 324 324 323 321 319 318 317 317 317 316 314 312 311 311 310 309 309 310 310 311 311 312 312 312 311 311 310 310 309 309
318 319 319 319 320 320 318 318 319 318 317 317 317 317 319 325 329 329 328 328 327 326 326 325 324 323 322 323 323 323 323 324 323 323 324 322 320 318 318 318 317 315 313 313 312 312 311 310 309 309 309 310 310 311 311 311 311 311 310 310 309 309 309
318 317 318 320 320 320 318 317 316 316 316 317 319 319 319 323 328 328 327 327 326 325 325 324 322 320 321 322 322 322 322 323 322 322 321 319 318 318 318 319 318 315 313 313 313 312 310 310 310 310 310 310 310 310 310 310 310 310 310 310 309 309 308
317 317 320 321 320 319 318 317 316 316 317 317 319 320 320 322 325 328 327 326 325 324 324 323 321 319 320 321 321 321 321 321 320 319 319 318 318 318 318 317 317 315 314 313 312 311 311 311 310 310 310 310 310 310 310 310 310 310 309 309 309 309 309
318 319 320 319 318 318 317 317 317 316 316 317 318 320 321 321 323 325 327 326 325 324 323 322 321 320 319 320 320 320 320 320 318 318 319 320 320 319 317 316 315 314 313 312 312 311 311 311 310 309 309 309 309 309 310 310 310 309 309 309 309 309 308
320 319 319 319 319 320 319 317 317 316 316 316 317 318 319 321 321 323 325 326 325 324 323 322 321 321 321 321 321 320 320 319 319 318 319 320 319 318 317 315 314 314 312 311 311 311 311 310 309 308 308 308 309 309 309 310 310 310 309 309 309 309 309
320 320 320 320 321 321 320 318 317 317 316 316 317 317 318 319 320 321 323 324 324 324 323 322 321 322 322 322 321 321 320 319 319 319 318 318 317 317 316 315 314 313 312 311 312 311 310 309 308 307 307 308 309 309 309 310 310 310 310 309 309 310 311
320 320 319 319 320 321 320 318 318 318 317 317 317 317 316 317 317 318 320 322 322 322 322 321 321 322 322 322 321 321 320 320 319 319 318 318 318 318 316 315 314 313 312 312 312 311 310 309 307 307 307 308 308 308 308 309 309 310 310 309 309 309 310
321 320 319 319 320 320 319 318 318 319 318 318 318 317 317 317 316 316 317 319 319 320 321 321 321 321 321 321 321 321 320 320 319 319 318 319 319 318 316 315 314 313 312 312 312 311 310 308 306 306 307 307 307 308 308 308 309 309 309 309 308 308 308
320 320 319 319 320 320 319 319 319 319 319 319 318 318 318 318 317 317 317 317 316 317 318 319 320 320 320 320 321 321 320 320 319 319 318 318 318 317 316 314 314 312 311 312 312 311 310 308 306 305 306 306 307 307 307 307 308 308 308 308 307 307 307

ECMWFFLT2_850_thetae_108.txt.gz
Theta_e
323 323 323 324 322 320 321 320 318 320 322 323 320 320 324 324 323 325 328 329 332 337 343 348 350 350 352 351 350 351 353 355 355 355 355 355 353 353 354 354 352 350 350 351 351 352 352 352 351 352 352 350 348 345 344 343 343 343 344 345 345 346 345
322 324 323 324 323 322 321 318 319 322 323 323 322 320 322 323 323 323 325 327 328 328 336 348 352 351 351 350 349 350 353 355 355 354 354 354 354 355 355 354 353 351 351 351 351 351 351 351 351 352 350 348 345 343 343 344 343 342 343 344 345 346 344
322 323 323 322 323 324 322 322 323 322 318 318 320 320 320 321 321 321 323 326 325 324 332 345 351 352 353 352 352 351 352 355 355 353 353 353 355 356 355 355 353 352 351 351 352 351 352 352 351 352 351 349 347 346 345 346 346 344 345 348 348 348 347
322 322 321 319 320 323 323 323 324 322 320 318 318 319 319 320 320 320 322 324 324 328 338 348 353 354 355 354 353 352 352 354 353 352 353 353 355 355 355 354 353 352 351 350 350 350 351 351 350 351 352 351 351 350 347 348 349 347 347 350 350 349 349
321 320 321 320 320 322 320 320 321 320 320 320 320 320 318 319 319 319 322 322 325 338 351 355 354 353 353 353 353 352 353 353 353 353 353 352 354 354 354 354 353 351 350 348 348 348 348 347 347 349 350 350 350 350 349 348 347 345 344 348 351 351 351
318 319 323 323 324 324 321 321 320 320 320 319 318 319 318 319 319 320 320 320 328 344 351 351 352 350 351 353 353 353 353 353 353 354 353 352 353 354 355 355 353 350 348 348 348 347 346 345 344 344 345 345 345 346 346 346 345 344 343 345 349 350 350
319 322 324 323 324 324 324 323 323 323 322 319 316 316 317 319 319 321 321 321 332 347 347 347 351 350 351 353 353 353 354 355 355 355 354 352 353 355 355 355 353 350 348 348 347 346 346 345 342 342 344 344 344 344 344 344 343 344 344 344 345 345 346
322 322 322 323 323 323 323 324 325 326 323 322 320 319 321 320 317 320 321 321 332 346 347 348 350 351 353 353 353 353 353 355 355 355 355 354 354 354 355 356 354 350 348 348 347 346 346 344 342 342 345 345 345 345 343 343 343 343 343 344 345 343 343
321 321 320 322 322 323 323 325 328 328 326 327 324 322 325 323 318 320 319 320 333 345 346 347 348 350 352 352 352 353 352 354 355 355 355 355 354 354 354 356 354 349 347 347 347 345 345 344 343 342 342 342 343 343 343 343 344 344 342 343 344 344 344
319 320 319 319 321 322 324 326 329 329 329 328 324 321 321 319 321 324 319 321 337 347 346 345 347 348 350 350 351 352 351 352 353 354 354 354 354 354 354 355 353 350 349 348 348 348 347 345 344 343 344 343 342 342 342 343 343 344 344 343 343 344 345
319 320 320 321 322 322 323 325 327 328 330 331 326 321 320 321 323 323 322 327 338 344 347 346 347 347 347 348 350 351 351 351 351 352 352 353 354 353 354 354 353 352 351 350 349 348 349 347 345 345 347 346 345 344 344 344 343 344 346 346 344 344 345
321 322 322 322 322 322 322 324 325 328 332 333 327 322 325 330 323 320 329 335 332 338 347 347 346 347 346 348 350 350 351 351 350 350 350 351 352 352 353 353 353 352 352 351 350 348 347 346 345 346 347 346 346 346 345 346 346 345 345 345 343 342 344
322 323 323 322 322 323 323 324 324 327 331 334 331 329 332 335 328 326 338 340 331 336 346 344 345 347 346 348 350 349 350 350 349 349 348 349 350 350 350 351 351 352 351 351 351 350 349 348 346 346 346 346 346 346 346 347 347 347 346 345 344 344 343
322 323 323 323 323 322 322 324 324 325 329 333 335 336 336 336 334 334 341 343 341 343 345 343 345 347 346 348 348 348 349 348 348 348 347 347 348 348 348 348 349 350 350 351 351 351 351 350 350 349 349 349 349 348 348 348 348 347 346 345 345 345 343
320 321 323 323 323 322 321 322 324 324 327 331 334 337 337 336 337 338 339 342 344 344 345 346 346 345 346 346 346 347 348 347 346 346 346 346 346 346 346 347 347 347 348 349 349 349 350 350 350 350 350 350 350 350 350 350 349 349 347 346 346 345 344
319 320 322 322 322 322 320 320 323 325 326 329 333 337 337 337 339 340 338 339 342 343 344 345 345 345 345 345 345 346 346 346 346 344 344 344 344 343 344 345 346 347 347 347 348 348 348 348 348 348 348 349 349 350 350 350 350 350 348 348 348 347 347
318 320 322 322 321 319 319 321 326 328 328 329 332 335 336 337 339 339 336 339 343 344 343 343 344 344 345 345 344 344 344 344 343 343 343 342 341 341 342 343 345 346 346 347 347 347 347 347 347 347 346 347 348 349 350 349 350 350 349 349 349 349 350
317 320 322 322 320 318 321 326 329 330 330 329 330 332 334 336 337 337 338 340 342 343 341 342 342 343 343 343 342 342 343 342 341 342 341 340 340 340 339 340 342 344 344 345 345 345 346 345 345 345 345 346 346 348 348 348 349 349 349 350 349 349 350
318 320 321 321 321 321 324 327 327 328 329 328 330 333 334 334 335 337 338 339 340 342 343 341 339 338 337 336 336 338 340 340 340 340 340 339 339 338 338 337 338 340 341 342 342 343 343 343 343 343 344 345 346 346 347 347 348 348 348 349 348 348 348
318 318 318 320 323 324 324 323 322 324 326 326 329 333 334 334 335 338 339 339 340 342 342 339 336 334 333 332 332 334 337 339 339 338 338 338 336 337 337 336 336 337 337 336 335 337 339 340 340 340 340 341 342 343 344 345 345 346 347 346 347 347 347
318 317 317 321 323 323 323 323 322 323 324 324 327 330 333 335 336 338 339 338 339 341 340 338 336 335 335 332 330 331 334 336 337 336 336 335 333 333 333 332 331 332 332 330 328 330 333 334 336 337 338 338 339 339 340 341 342 342 343 344 344 345 346
319 317 317 320 320 321 323 324 323 322 323 324 325 327 331 335 336 337 338 338 338 338 338 337 336 336 337 334 330 330 332 333 334 332 330 329 327 325 325 325 325 326 329 329 329 329 330 329 330 332 332 333 335 336 337 337 337 338 338 338 339 341 342
318 317 317 317 319 322 325 324 323 323 324 325 326 326 328 332 336 337 338 338 338 336 335 336 337 338 339 335 329 329 331 333 331 328 326 325 324 322 320 320 320 320 322 324 326 327 327 326 326 326 325 325 328 331 332 333 333 333 333 333 333 334 334
318 317 316 317 321 325 325 324 324 324 324 325 325 324 324 327 332 335 337 337 337 334 333 335 337 338 338 333 328 327 329 330 329 328 327 327 327 325 321 317 317 317 317 317 318 319 320 321 321 320 319 320 322 324 326 325 325 325 325 324 325 326 326
317 316 316 318 322 325 325 325 325 324 324 324 323 323 324 325 328 333 336 337 336 334 333 334 337 336 334 330 327 327 328 328 327 327 326 327 327 325 321 317 316 316 315 314 314 314 314 315 314 314 314 315 316 318 319 319 318 319 319 318 318 317 318
316 316 316 317 322 325 326 326 325 325 326 325 323 324 326 326 328 332 335 336 336 334 333 334 335 333 331 329 328 329 329 330 329 327 326 326 325 323 321 318 316 315 314 314 313 314 315 315 314 313 313 313 313 314 314 314 314 314 315 316 315 314 313
316 315 315 316 320 325 326 326 325 326 326 326 325 325 326 327 330 333 334 335 335 334 334 335 334 331 329 328 328 328 328 329 329 326 325 324 322 321 321 320 319 317 314 313 313 313 314 314 312 311 311 312 313 313 313 313 312 311 311 312 312 312 312
317 316 317 319 322 325 325 325 325 325 324 324 324 325 326 328 332 333 333 335 334 333 334 334 332 330 328 327 328 328 327 327 327 324 322 322 320 319 319 319 320 319 315 312 311 311 310 310 310 309 310 310 311 312 313 312 312 311 310 310 310 310 309
319 319 320 323 324 325 325 324 324 324 324 323 324 325 327 328 331 333 333 334 334 333 333 332 330 329 328 327 327 327 326 326 325 323 323 322 320 319 317 315 315 318 318 316 313 311 310 310 309 309 309 310 310 311 311 311 312 311 310 310 311 310 310
321 321 322 324 325 325 325 324 323 323 324 323 324 326 327 327 330 332 332 332 333 332 331 330 328 327 327 327 327 326 326 325 325 324 323 321 319 317 316 314 313 316 318 317 314 312 311 312 312 312 311 311 310 309 310 311 311 311 310 310 310 310 311
320 321 324 326 325 324 325 324 324 324 324 323 324 325 326 327 329 331 331 331 331 331 329 327 325 324 326 326 325 325 325 325 324 323 322 321 319 318 318 318 317 318 318 316 315 313 311 312 314 314 314 315 313 313 315 317 315 313 312 314 314 315 317
321 323 325 325 324 324 325 324 324 324 325 324 323 323 325 327 328 330 330 329 329 329 327 326 324 323 324 324 323 324 324 324 324 323 321 320 319 318 318 317 317 316 316 316 316 314 312 310 310 312 316 317 316 316 318 318 318 317 317 317 318 318 316
321 323 324 324 324 325 324 324 324 324 325 325 323 322 324 326 327 328 329 328 329 328 326 325 324 324 323 321 321 322 322 323 323 323 320 318 318 317 316 315 314 314 314 314 314 313 312 310 307 307 312 314 314 315 318 318 318 319 318 317 317 316 315
320 323 324 324 324 324 324 324 324 324 324 324 324 322 322 324 326 328 328 327 327 327 326 324 324 324 323 321 321 322 321 321 322 322 320 318 318 317 315 314 314 313 313 312 313 312 310 308 305 305 307 308 309 312 314 315 316 316 316 317 318 317 318
322 323 324 324 323 324 324 324 323 324 324 324 324 324 323 322 323 325 327 326 326 326 325 325 325 324 323 321 321 322 322 321 322 321 320 319 319 318 315 314 314 313 312 312 312 311 309 305 304 304 305 305 305 306 308 309 310 311 311 314 317 317 316
323 322 323 324 323 323 324 323 324 324 323 323 324 324 323 323 323 322 323 323 324 325 325 325 325 325 324 323 322 322 322 321 321 321 320 319 319 319 317 316 315 313 312 312 312 311 309 305 304 304 305 304 304 304 304 305 307 307 307 310 313 315 313
323 323 323 323 322 323 323 322 323 323 322 323 324 323 322 322 322 322 322 321 321 322 323 324 325 324 324 325 324 323 322 322 321 321 320 319 319 319 319 319 317 313 312 312 312 312 310 306 304 304 304 303 304 304 303 304 304 304 305 306 308 309 308

ECMWFFLT2_850_thetae_111.txt.gz
Theta_e
325 324 323 325 324 322 322 321 318 321 325 325 320 319 321 321 320 322 323 326 334 342 345 348 349 349 348 345 348 352 351 351 354 356 356 355 353 354 354 354 353 351 349 349 348 348 349 350 351 351 351 351 351 352 353 353 352 352 349 347 350 351 349
324 325 324 324 325 325 322 319 320 322 325 324 320 318 319 320 320 322 323 323 327 333 339 346 347 346 347 345 345 349 353 354 355 355 355 354 354 354 354 354 353 351 349 349 349 349 350 351 352 352 351 351 352 353 354 353 352 352 352 351 352 353 351
323 325 324 322 323 326 323 322 325 322 318 318 319 318 318 319 320 321 323 324 324 327 336 344 344 345 349 348 345 347 353 357 355 355 355 354 355 354 353 354 353 351 348 348 349 349 350 351 352 352 352 352 352 353 353 352 350 351 351 351 351 353 353
323 323 322 319 319 324 324 324 325 324 320 318 318 318 318 319 319 321 322 322 323 332 343 347 346 350 353 351 350 352 354 357 355 355 357 355 355 354 353 354 354 351 348 348 349 350 351 352 352 352 353 353 354 355 353 351 349 350 350 349 350 351 353
322 320 321 320 320 322 321 320 321 321 321 321 320 319 319 319 318 320 320 320 328 344 355 355 354 354 352 351 353 354 354 355 354 354 356 355 355 355 355 355 354 351 348 349 350 350 351 353 353 352 352 353 354 354 352 351 350 350 350 349 349 350 351
319 320 322 322 323 324 321 320 320 321 321 320 318 317 318 318 317 318 319 321 333 348 354 355 356 353 351 352 353 355 354 352 353 353 354 354 355 355 355 355 354 351 350 350 351 351 353 354 355 354 355 355 356 354 352 353 353 352 351 350 350 350 350
321 323 324 323 323 325 325 323 321 323 323 319 316 315 317 317 316 317 317 321 335 349 350 352 354 352 353 354 353 354 355 350 353 354 354 355 356 356 356 356 356 354 353 353 353 353 354 356 355 355 357 357 358 358 357 357 356 355 354 353 351 351 351
323 323 324 325 325 324 324 324 324 323 322 322 320 319 320 318 316 318 315 317 333 349 350 352 354 353 355 354 353 355 355 354 355 355 354 354 355 355 355 356 356 354 355 355 354 354 354 354 354 355 356 357 357 358 359 359 359 357 356 355 353 353 354
322 322 322 322 323 323 323 323 325 324 323 325 324 322 323 319 317 319 314 317 335 350 349 351 352 352 354 354 353 354 355 356 355 355 355 355 354 354 354 355 355 355 355 353 352 353 352 352 353 353 353 354 356 357 358 359 360 359 357 355 354 353 351
320 321 321 319 320 322 323 323 325 326 326 326 325 322 320 318 320 322 317 322 340 351 349 349 350 350 351 353 353 353 355 356 356 356 356 354 355 355 355 354 354 355 355 351 349 350 349 349 351 351 349 349 350 352 354 356 357 356 354 352 351 351 348
321 321 323 323 322 321 320 322 325 326 327 327 326 322 320 321 322 321 321 329 337 343 348 349 349 349 350 351 353 353 354 354 355 356 356 354 354 353 354 355 354 355 355 351 347 347 347 346 347 347 346 344 344 345 349 351 351 350 350 348 348 350 349
323 324 325 324 324 323 322 323 325 326 327 327 326 322 323 327 323 320 330 338 332 334 344 346 347 349 348 350 352 353 353 354 354 354 355 355 354 353 354 355 353 355 355 353 350 347 346 345 345 345 344 344 342 342 344 346 346 348 349 348 346 346 347
322 324 325 324 324 324 324 325 324 326 327 326 326 325 325 329 324 322 335 341 334 336 343 343 345 349 348 350 352 352 353 353 352 353 353 354 354 354 354 354 352 353 354 354 353 350 348 347 345 344 343 342 342 342 342 343 344 346 347 348 349 348 348
322 323 323 324 324 323 324 324 324 326 327 328 329 329 329 332 330 329 334 338 339 344 346 344 345 347 349 352 351 351 352 352 351 352 352 353 353 353 353 353 353 353 354 354 354 353 352 350 347 344 343 343 343 343 343 344 344 345 345 346 349 351 350
321 323 324 324 324 323 322 322 324 325 325 327 331 332 333 335 333 332 330 333 341 346 347 347 346 347 350 351 349 351 351 350 351 351 351 351 351 351 351 351 352 353 354 354 354 354 353 352 351 349 347 346 345 344 344 345 346 346 345 345 346 347 348
318 321 322 322 323 323 321 321 323 325 324 326 329 332 335 335 333 333 329 330 339 345 346 346 347 347 349 349 349 350 349 349 350 349 349 349 349 349 349 349 350 350 351 352 352 351 352 352 353 352 351 351 350 349 348 347 348 348 348 348 348 347 348
317 320 321 322 321 320 320 321 322 325 328 329 330 332 335 335 336 336 333 334 341 345 344 344 346 347 349 349 349 349 349 349 348 347 347 348 347 347 347 347 347 347 347 348 348 348 349 350 351 351 352 352 352 352 352 351 351 351 351 351 350 350 350
317 320 321 322 321 319 321 326 327 328 330 330 330 331 332 333 335 336 336 339 344 344 343 343 344 346 348 348 347 347 347 347 347 347 346 345 345 346 345 345 345 344 344 344 345 346 346 347 348 349 349 349 350 351 352 352 352 352 352 352 351 350 350
318 320 321 321 321 322 326 329 328 328 328 328 328 330 332 332 333 335 337 340 343 344 344 344 344 344 345 344 344 344 345 345 346 345 344 344 344 344 343 343 343 342 342 342 342 343 343 344 345 345 345 346 348 349 349 349 350 351 351 351 351 351 351
319 319 320 321 323 325 326 326 325 326 326 326 327 329 332 332 332 334 337 340 343 345 344 344 343 343 342 342 342 341 341 343 344 344 343 342 341 341 342 341 341 341 341 340 340 340 340 341 341 341 342 343 345 347 347 347 347 348 349 349 349 350 350
320 317 318 320 323 324 326 326 326 326 326 327 328 329 332 333 333 335 337 338 342 344 343 343 342 341 341 341 339 337 338 341 342 342 341 340 339 339 339 338 338 338 338 338 339 339 339 338 338 339 340 340 342 344 345 345 346 346 346 347 347 347 347
321 318 317 319 320 323 327 328 326 326 326 327 328 328 329 332 333 335 336 338 341 343 342 342 340 339 341 341 337 335 336 338 338 339 338 338 337 335 335 335 335 334 334 335 336 336 336 336 336 337 337 337 339 339 340 341 342 343 343 344 346 346 345
320 319 318 318 320 325 328 328 325 325 326 327 327 325 326 329 331 333 337 339 340 341 340 340 339 340 341 339 334 333 334 333 333 333 333 333 333 332 331 331 331 330 331 332 332 332 331 331 331 332 334 335 335 336 336 336 337 338 339 339 340 341 341
317 318 317 319 324 328 329 327 325 325 326 327 326 323 324 328 329 331 336 339 339 339 340 339 340 341 340 336 332 332 331 330 329 329 329 328 328 328 329 328 327 327 326 326 327 328 328 328 328 328 330 331 331 332 333 333 332 332 333 333 333 335 336
315 316 316 320 326 328 328 326 326 325 324 325 324 323 326 329 329 330 334 337 338 339 339 338 338 337 335 332 331 330 329 327 327 327 327 326 324 324 324 324 324 323 322 320 320 321 323 325 325 325 325 327 328 328 328 329 327 325 324 325 325 327 330
316 316 316 320 325 326 326 326 326 325 326 326 325 326 328 330 330 331 334 336 338 338 338 337 335 334 332 331 330 329 326 325 324 323 323 323 323 322 320 319 320 322 322 320 320 319 319 320 322 322 321 320 321 322 323 325 325 323 320 318 317 317 320
317 316 317 321 324 325 325 326 327 327 328 327 327 328 329 329 330 332 333 335 337 337 337 335 334 333 332 332 331 329 326 325 324 321 319 319 320 322 322 321 320 321 320 319 319 319 319 319 321 321 318 314 315 316 315 318 320 319 317 314 312 311 313
319 319 320 323 325 325 325 326 327 327 327 327 327 328 329 329 329 331 332 334 335 335 334 333 333 332 332 331 331 330 328 326 323 320 319 317 317 319 321 321 322 321 321 321 320 319 318 315 315 317 316 314 315 315 313 313 314 314 316 318 317 314 314
321 322 323 323 324 325 325 325 326 326 326 326 327 328 328 328 329 332 332 332 334 333 332 332 332 332 332 331 331 330 329 328 324 322 320 318 317 317 316 315 316 317 319 321 321 321 321 318 316 317 318 317 316 316 316 318 316 313 316 320 322 321 319
323 322 323 323 324 324 325 325 326 326 326 326 326 327 327 328 330 332 331 331 333 333 331 332 332 331 331 330 329 329 329 328 326 324 322 320 318 317 315 314 314 315 316 318 319 320 320 319 319 320 319 319 318 318 320 323 322 319 318 318 320 322 322
322 323 325 326 324 324 324 325 326 327 326 326 326 327 328 328 330 330 330 331 333 333 332 331 330 329 329 328 328 328 328 327 326 326 324 322 319 317 317 317 318 319 319 318 318 317 316 316 319 322 322 321 321 322 322 321 317 318 322 324 322 324 325
323 325 327 326 324 324 325 325 326 327 327 326 326 326 328 329 329 329 330 331 331 332 332 331 329 329 328 327 327 327 327 327 327 325 324 323 321 320 320 318 318 318 317 316 316 317 315 313 315 319 322 322 321 320 319 316 314 315 320 323 323 323 324
323 326 327 325 324 325 326 326 326 327 327 326 326 326 326 328 329 329 329 330 330 331 332 331 330 329 329 327 327 327 328 327 327 326 325 324 324 323 322 321 321 320 317 314 313 314 314 312 311 313 317 319 320 318 314 315 318 320 319 320 322 323 322
322 325 327 326 325 326 327 327 326 326 326 326 326 326 326 326 327 328 329 329 329 330 331 330 330 330 329 328 326 325 326 326 326 325 325 324 325 323 322 321 322 319 315 313 313 313 312 309 307 307 308 312 316 318 316 316 319 320 320 322 323 322 322
324 325 325 325 324 325 326 326 325 325 325 326 326 326 326 326 326 326 327 328 328 329 329 329 329 329 329 328 327 325 324 323 323 322 323 324 324 321 320 319 319 316 313 312 313 313 311 307 304 304 305 305 307 311 313 314 317 319 321 323 322 321 320
325 325 325 324 323 325 326 326 325 325 325 325 326 326 325 325 325 325 325 326 326 327 328 328 329 329 329 329 327 326 325 323 322 321 321 323 322 320 320 320 319 317 315 313 312 312 311 307 304 303 304 304 303 305 306 307 309 314 318 321 321 321 319
324 325 325 324 323 324 325 324 324 325 324 324 325 326 325 324 324 324 324 324 324 324 326 327 328 329 329 329 328 327 326 326 325 323 322 322 322 321 320 320 319 318 317 315 314 313 312 309 306 304 304 303 303 303 304 304 304 305 308 311 313 313 312

ECMWFFLT2_850_thetae_114.txt.gz
Theta_e
325 325 326 327 326 322 324 324 322 324 327 325 319 319 321 319 320 321 322 332 342 344 345 348 349 349 348 347 352 354 354 355 355 355 353 352 354 357 356 353 350 350 349 349 349 349 349 349 348 350 350 351 352 353 355 353 348 346 347 347 347 348 348
325 326 325 327 326 324 323 320 321 325 325 325 321 318 319 319 319 320 321 331 338 338 341 348 348 348 348 348 351 354 355 354 353 354 353 351 353 356 356 354 352 351 349 349 349 349 349 348 349 350 350 351 352 353 355 355 350 345 345 346 346 347 348
325 326 324 323 324 325 324 322 325 324 318 318 319 318 318 317 318 319 319 326 333 334 338 346 348 348 349 348 349 351 353 354 352 353 353 353 354 356 356 354 353 352 349 350 350 349 349 348 349 351 351 351 352 353 355 356 353 349 349 349 350 349 349
325 325 323 320 320 322 324 324 326 325 320 318 318 318 319 317 318 320 318 324 333 338 343 346 347 348 349 350 351 351 353 354 353 354 355 356 355 355 356 355 353 352 349 350 350 349 349 349 349 351 352 352 352 353 354 354 353 352 352 353 353 353 353
323 322 322 322 321 321 321 321 321 322 321 321 320 319 319 317 318 319 320 328 337 346 353 353 350 350 351 352 352 353 355 355 354 354 354 355 354 354 356 355 353 351 349 350 350 349 349 349 350 352 352 352 352 352 353 352 351 352 352 352 352 353 354
320 321 324 325 324 323 322 321 321 322 320 320 318 317 318 317 317 316 318 329 341 350 354 354 353 352 352 353 352 353 354 353 353 354 354 354 355 355 356 356 353 351 350 350 349 349 349 350 352 353 352 351 352 352 352 352 351 351 351 350 350 352 353
322 325 326 325 324 325 325 322 324 325 322 320 315 315 318 316 317 318 315 324 340 350 351 353 353 351 351 351 352 353 352 351 353 354 354 354 355 355 356 356 355 351 349 349 349 349 351 351 352 351 351 352 352 353 353 351 350 350 350 349 349 350 351
325 325 326 326 325 325 323 322 325 323 322 323 320 319 321 317 317 319 313 320 339 349 349 351 352 352 352 351 352 354 352 354 356 355 354 356 356 356 355 355 355 353 350 349 348 349 350 352 353 352 352 353 353 353 353 351 350 351 350 349 349 350 350
324 324 324 324 324 323 323 323 325 325 323 323 323 323 323 318 318 317 316 326 343 350 348 350 349 349 351 352 353 353 353 356 357 355 357 358 358 357 356 355 355 354 353 352 351 351 352 353 354 353 354 354 352 352 352 350 351 352 351 350 350 350 351
325 326 324 323 323 323 323 324 325 326 324 323 322 320 319 319 320 320 323 332 344 350 350 349 348 348 350 351 351 350 352 355 356 356 358 358 358 356 356 356 356 355 354 354 354 354 355 355 354 354 354 353 351 351 350 349 351 352 352 352 352 351 352
325 325 325 327 326 322 321 323 324 326 326 327 325 321 320 322 322 324 331 337 341 345 350 349 348 349 349 349 348 348 350 351 353 356 356 355 356 355 355 356 356 356 355 354 354 354 355 355 355 355 356 355 354 351 348 347 349 351 353 355 354 352 351
324 325 325 327 326 323 322 323 324 326 327 327 327 322 323 327 323 323 334 341 337 339 345 347 348 349 348 348 348 347 347 348 351 354 353 354 355 355 356 355 355 356 356 355 354 353 354 355 355 355 355 355 356 354 351 351 353 354 356 357 357 355 352
322 324 324 325 325 324 325 324 324 326 326 326 326 324 326 328 324 323 331 338 338 340 341 342 345 348 348 349 348 347 347 347 348 351 351 352 353 353 354 354 354 355 355 354 354 354 354 354 354 353 353 353 354 354 354 356 357 357 356 355 355 355 355
322 323 323 325 325 324 324 325 325 325 326 327 326 326 329 328 327 328 329 336 342 344 343 343 345 347 350 351 350 350 350 348 347 347 347 349 351 351 351 352 353 353 354 354 353 352 352 352 352 353 352 351 350 349 351 352 353 353 352 351 351 351 351
320 323 324 324 325 324 323 323 325 325 325 326 325 329 333 331 332 333 330 335 344 347 345 346 346 348 351 351 350 351 351 349 347 346 345 346 348 348 347 348 350 352 353 353 352 350 349 349 349 348 347 347 346 346 347 347 348 348 348 350 353 353 352
318 321 322 323 324 324 322 322 324 326 326 324 325 331 336 335 335 335 331 333 341 345 345 345 346 347 349 348 348 349 348 348 347 345 343 345 347 347 346 346 348 350 350 352 352 350 349 349 348 347 346 345 344 343 344 343 343 344 344 346 349 350 351
318 320 321 322 321 320 321 323 326 328 328 327 328 333 335 335 336 336 335 336 340 343 344 344 345 346 345 344 345 345 345 346 347 345 344 346 348 347 346 345 345 346 347 348 350 350 351 350 350 350 351 349 348 348 348 347 346 345 343 343 344 345 346
318 320 321 321 319 319 323 327 328 329 330 329 330 332 333 333 334 336 338 339 342 343 343 344 345 344 343 343 343 344 344 344 345 345 345 345 347 346 345 344 343 344 344 344 346 348 349 348 348 350 352 352 352 352 352 352 352 350 349 347 347 348 348
318 320 321 319 320 323 327 329 327 327 329 329 329 332 333 333 333 334 336 338 340 342 343 344 344 343 342 341 340 342 344 345 346 346 344 344 345 345 344 343 342 342 343 343 344 345 345 344 344 346 347 348 350 352 352 353 353 353 353 352 352 352 351
322 321 319 319 322 326 327 327 327 327 327 327 328 330 333 334 333 334 335 337 340 342 342 342 342 341 340 339 338 339 342 344 344 343 343 343 343 343 342 342 341 341 341 342 342 342 342 342 342 343 345 345 346 348 350 351 351 351 351 351 351 352 352
323 321 320 320 321 324 327 328 328 327 327 327 326 328 332 334 333 334 335 336 339 341 340 338 338 339 339 339 338 337 338 341 342 341 341 340 339 339 339 338 340 340 339 339 339 339 339 340 340 341 343 344 344 345 347 347 346 347 348 347 347 348 349
322 322 322 321 319 323 329 330 328 326 326 327 326 327 330 331 331 333 335 337 340 341 339 336 335 337 339 340 337 334 335 337 338 337 337 337 336 335 334 334 335 335 336 336 336 336 336 336 338 339 339 341 341 341 342 342 342 343 344 345 345 345 346
320 321 321 321 323 327 331 330 328 326 326 328 326 325 327 329 329 330 334 337 339 340 339 338 337 338 340 339 334 331 331 332 332 332 332 332 332 332 332 332 331 330 330 330 330 331 332 333 335 336 336 337 337 337 337 337 338 339 340 341 342 342 342
318 318 318 323 328 331 331 328 327 327 326 325 324 324 326 329 330 329 332 336 337 337 338 338 338 338 338 336 332 329 329 329 330 330 328 327 327 326 327 328 328 327 326 326 326 327 328 329 331 332 333 333 333 334 334 334 335 335 336 336 337 338 338
316 315 318 325 329 329 328 327 327 327 325 324 324 325 328 331 331 331 332 335 335 335 335 336 337 336 335 333 330 329 328 328 327 327 325 324 324 324 323 324 325 324 324 323 324 325 326 327 328 329 330 330 330 330 331 331 332 333 333 333 333 333 334
318 316 318 324 328 327 326 326 326 327 327 326 327 328 329 330 331 331 333 335 337 336 335 334 335 333 332 331 330 330 328 326 325 324 324 323 322 323 323 322 321 321 321 321 320 320 322 325 327 328 328 328 327 327 328 329 329 328 327 327 329 331 332
321 321 321 324 326 326 325 326 327 327 328 329 329 329 328 329 330 331 333 335 336 336 335 334 333 333 332 331 331 329 327 326 324 324 324 323 322 322 322 322 322 320 320 321 321 319 318 318 321 323 323 323 323 323 324 326 327 326 322 319 320 324 328
322 323 324 325 327 326 325 326 327 327 327 328 328 328 328 330 331 332 333 334 333 333 335 333 333 333 333 331 330 329 327 325 323 322 322 322 321 320 319 320 320 318 317 319 320 320 318 315 313 314 315 317 321 323 325 325 325 326 326 323 319 318 319
322 323 324 324 325 325 325 326 327 327 326 327 327 328 328 329 330 332 334 333 331 332 334 334 333 333 332 331 330 329 327 325 322 320 320 320 318 318 316 316 316 315 315 316 316 316 316 314 314 316 317 317 317 319 323 324 322 324 326 327 326 322 318
324 324 325 324 324 325 325 325 325 325 325 325 326 327 328 328 328 330 332 333 332 333 334 334 333 332 331 331 330 328 326 325 322 319 319 318 317 316 315 315 317 318 318 318 317 316 316 314 314 318 321 319 315 315 319 321 321 323 325 325 325 325 323
325 324 326 325 324 325 326 326 326 326 325 325 326 326 327 328 328 329 331 332 332 334 335 334 333 331 331 331 330 328 326 325 323 321 319 317 316 316 315 317 319 319 318 317 317 317 318 317 314 313 314 314 313 313 314 315 317 323 326 325 323 324 326
325 326 327 326 324 324 325 325 326 326 325 325 325 325 327 328 328 329 330 330 331 334 335 333 332 331 330 329 329 328 327 326 325 323 321 319 317 317 318 320 320 319 317 316 315 314 315 316 316 314 311 309 309 309 308 308 311 316 321 323 323 324 324
325 326 327 326 325 325 326 325 325 325 325 325 325 325 326 327 328 329 329 328 329 332 333 332 331 331 330 329 329 329 328 327 326 325 323 322 320 318 319 320 320 318 317 316 315 313 313 313 313 313 314 313 310 308 308 308 308 312 319 323 323 324 324
324 325 327 327 326 327 327 326 325 325 325 325 326 325 326 326 326 328 328 329 329 330 331 332 331 330 330 329 329 329 329 328 327 326 324 324 324 323 322 322 321 319 319 318 316 313 313 312 310 308 311 314 312 309 308 308 307 311 319 324 323 322 322
325 325 326 326 326 327 327 326 325 325 325 326 327 326 326 325 325 325 326 327 328 329 330 331 330 330 331 330 328 329 329 328 328 327 326 326 327 326 325 325 323 318 316 316 315 313 313 314 310 305 305 308 310 308 308 309 308 307 314 321 324 322 320
325 325 325 325 325 326 327 327 326 325 324 326 327 326 325 325 325 325 325 326 326 327 329 330 330 330 330 330 328 328 328 329 329 327 325 326 327 326 325 324 322 317 315 315 315 313 312 314 312 307 304 304 306 306 305 307 308 309 313 319 322 322 321
325 326 326 324 324 325 326 326 326 326 325 325 326 326 325 324 323 324 325 325 325 325 326 328 329 329 329 328 328 328 328 328 328 326 323 323 324 325 324 322 319 318 317 317 315 312 312 311 309 306 305 304 304 304 304 303 305 309 314 317 317 317 318

ECMWFFLT2_850_thetae_117.txt.gz
Theta_e
325 325 325 325 325 324 326 325 324 326 330 326 322 323 323 321 322 325 336 343 347 351 355 354 353 352 354 354 354 356 354 354 354 354 355 354 354 354 351 349 349 348 349 349 350 350 351 350 350 350 351 351 352 353 354 351 345 346 348 346 346 344 343
324 324 326 325 325 326 323 321 324 326 329 326 323 321 321 321 321 323 335 342 344 348 353 356 355 352 352 354 354 355 354 353 353 353 354 354 354 353 350 351 351 349 348 348 349 349 350 350 349 351 351 350 351 351 353 352 346 344 346 347 347 346 343
325 325 326 324 324 326 324 321 323 325 323 323 322 320 318 321 321 323 335 342 341 344 348 351 353 352 351 353 354 354 355 353 354 354 354 354 354 353 352 353 354 352 349 348 349 349 349 349 349 350 350 351 351 351 352 352 347 344 344 345 347 347 344
325 325 324 323 323 325 325 323 323 323 324 322 322 321 320 321 321 325 340 346 344 347 353 353 353 353 352 354 355 355 355 355 356 356 355 355 354 354 354 354 354 353 351 348 348 349 349 348 349 350 350 351 351 351 352 352 350 346 344 344 346 346 345
324 324 324 323 323 324 322 320 319 320 323 322 321 321 319 320 321 321 335 347 347 351 357 356 357 358 354 354 356 355 355 355 356 356 355 355 353 354 355 355 355 355 351 349 349 349 349 348 348 349 350 350 350 351 352 351 351 349 346 345 345 346 346
321 322 325 325 325 325 323 321 321 321 322 321 320 321 320 318 319 317 327 344 348 350 353 353 357 360 356 354 354 355 355 353 354 355 354 354 353 352 353 354 356 355 352 350 349 348 349 348 348 349 351 351 351 352 352 352 352 350 348 348 347 346 348
323 324 326 327 325 327 325 323 324 322 324 322 319 322 322 318 319 316 324 341 349 350 351 351 353 354 352 353 353 354 355 355 354 354 353 353 353 353 354 355 356 354 353 351 350 349 350 348 348 350 350 352 352 352 352 352 353 351 349 350 351 350 351
327 326 327 328 326 328 326 324 325 323 322 323 321 325 326 321 321 319 325 343 351 349 350 350 349 349 350 353 355 354 354 355 355 354 354 354 354 353 354 356 356 354 351 350 350 349 350 348 348 350 351 351 352 352 352 353 354 352 350 352 353 352 351
329 329 329 329 328 327 326 326 326 324 324 325 323 325 326 326 327 329 337 347 351 349 350 350 348 349 351 351 353 354 354 355 355 355 354 353 354 354 354 356 357 354 351 350 349 349 350 349 350 351 351 351 351 352 352 353 353 351 349 351 353 351 350
329 333 330 328 328 327 326 327 326 325 326 327 324 326 329 329 331 338 344 347 350 350 351 353 353 355 355 353 350 351 354 353 353 355 355 354 355 354 355 355 355 353 350 349 349 350 350 350 350 351 352 352 352 352 352 352 352 352 350 351 352 350 349
330 336 334 330 328 326 324 324 325 325 327 328 327 327 330 332 335 341 345 349 351 350 351 357 359 357 358 354 350 349 352 351 352 355 355 355 356 354 354 354 353 352 350 349 349 350 351 351 351 351 351 352 352 351 352 352 351 351 350 349 351 350 349
327 333 333 330 327 324 323 324 324 325 327 327 327 327 329 334 338 341 345 348 347 346 351 356 359 361 358 352 349 350 350 350 351 353 352 352 354 354 353 352 351 353 353 353 352 351 351 350 351 352 352 351 352 352 352 352 351 350 350 349 350 351 350
322 324 326 326 326 324 325 325 324 325 326 326 326 329 333 336 337 340 347 348 344 345 349 350 353 356 353 348 348 349 348 348 349 349 349 350 351 353 354 353 352 353 355 355 355 356 354 351 350 351 352 352 352 353 353 352 351 351 351 351 350 351 351
321 321 323 324 325 325 325 325 325 325 327 329 330 333 337 337 337 340 347 349 345 344 345 347 347 346 346 346 347 346 346 348 347 345 345 346 349 351 351 352 352 352 353 353 354 356 356 354 353 353 353 353 353 352 352 352 351 350 351 352 351 350 352
321 321 323 322 324 326 324 325 327 327 328 331 334 335 337 338 338 339 343 345 347 344 342 343 343 343 343 343 343 344 346 347 345 345 345 345 346 347 347 347 349 350 351 351 352 352 353 355 355 354 355 356 355 353 353 351 350 350 351 352 352 352 353
322 322 321 322 324 323 322 325 329 328 328 331 334 335 336 337 338 338 341 345 347 344 341 341 341 341 342 340 341 343 343 344 345 344 345 345 344 344 345 346 347 347 349 350 350 351 351 353 354 354 355 356 354 353 355 354 351 351 350 350 350 349 350
323 322 320 323 324 322 326 332 332 329 330 332 334 336 336 337 338 340 343 345 345 342 341 342 341 341 341 341 341 342 342 343 343 344 344 344 343 343 343 344 345 346 347 348 348 349 350 350 350 351 352 351 349 349 351 353 352 352 352 352 352 352 352
323 324 322 324 325 324 330 337 333 329 333 334 334 337 336 336 338 340 343 345 343 340 340 342 341 339 339 338 338 340 343 343 343 343 343 342 341 342 342 342 343 344 344 345 345 347 347 347 348 349 349 349 348 347 348 348 348 348 349 348 349 349 349
324 327 325 323 326 329 332 334 329 328 331 333 333 335 334 334 336 337 339 341 341 340 340 341 340 338 337 336 337 339 341 342 343 343 342 341 341 341 341 342 343 343 342 343 344 345 346 345 346 347 347 348 349 348 349 348 348 348 347 345 344 344 344
324 327 327 327 331 334 331 330 329 327 327 329 332 333 332 332 334 336 338 339 340 339 338 338 339 338 336 335 335 336 338 340 339 338 339 340 340 340 339 339 340 340 340 341 342 342 342 342 343 344 345 346 346 347 347 347 346 348 349 349 348 347 347
325 326 327 330 333 334 332 332 332 329 327 328 331 333 333 330 331 336 338 338 338 338 336 337 338 337 336 334 333 334 336 337 335 333 335 338 340 339 338 338 337 338 337 338 338 339 339 339 340 340 341 341 342 343 344 344 344 346 347 349 349 348 349
325 326 326 327 331 335 337 335 331 328 327 327 328 335 336 332 331 335 337 337 337 337 337 336 336 336 337 336 332 331 331 333 332 330 331 334 335 335 335 335 336 335 334 334 336 337 337 336 337 338 337 337 338 340 340 341 343 344 345 346 345 344 346
323 325 325 326 332 337 339 335 329 326 328 326 325 335 337 334 332 335 336 336 337 336 336 335 335 338 339 336 332 329 328 328 328 329 328 329 329 328 328 329 330 330 331 331 333 335 334 333 334 335 334 334 335 336 337 339 340 342 343 342 342 343 343
323 323 326 330 334 336 337 334 329 327 327 324 327 335 335 334 334 336 336 337 337 336 335 335 335 339 340 335 331 329 327 326 327 329 329 328 326 326 326 326 327 328 329 330 330 331 330 331 332 333 333 333 332 333 335 337 338 340 339 339 339 340 340
325 326 329 333 333 332 332 331 328 326 327 329 333 335 334 332 334 336 336 336 336 336 335 335 335 336 335 332 330 329 327 326 325 326 327 327 326 326 326 326 327 327 328 329 329 329 329 330 330 330 331 332 330 330 331 331 332 334 335 336 336 336 337
326 328 331 333 332 329 327 328 326 327 332 335 334 333 331 331 334 336 336 336 336 335 334 334 333 332 331 329 328 327 326 325 324 324 325 325 323 324 324 325 326 326 325 326 325 325 327 328 329 329 329 329 328 328 328 327 325 325 328 331 333 334 335
326 328 330 332 332 330 327 329 329 329 333 334 330 328 331 332 332 332 333 336 336 334 333 332 331 330 330 328 327 326 325 324 324 324 324 323 322 322 321 321 322 321 318 315 314 314 315 319 323 325 324 324 324 325 327 328 327 325 323 321 321 326 331
326 328 330 331 331 328 326 329 330 329 330 329 327 328 331 332 331 331 332 335 335 334 333 332 330 330 330 329 327 326 325 324 323 322 322 322 321 319 317 316 316 316 314 311 310 310 310 310 313 314 316 317 317 318 321 325 327 327 326 322 318 320 324
328 329 330 329 327 325 325 326 327 327 327 327 327 328 330 331 331 332 332 333 334 334 333 333 332 332 331 329 327 326 325 323 322 321 319 319 317 316 315 316 315 315 315 314 313 313 311 310 309 309 310 312 313 313 316 318 319 321 324 325 325 324 323
329 327 327 326 325 325 325 325 325 326 326 327 327 327 329 330 330 332 334 334 334 334 334 334 333 332 331 329 327 325 324 323 322 320 318 317 316 315 316 317 317 317 317 317 317 317 315 314 312 310 309 309 309 309 310 312 314 315 317 321 324 324 323
331 329 328 326 326 325 325 325 325 325 325 326 327 327 329 329 329 331 334 334 334 334 334 334 333 332 331 330 328 326 324 322 321 320 318 316 315 316 317 318 318 318 318 318 318 318 317 316 315 313 313 313 312 310 308 308 310 313 314 315 318 322 323
333 332 329 326 325 325 325 325 325 325 325 326 326 327 328 329 328 329 331 334 334 333 333 332 332 332 331 331 328 326 324 323 321 320 318 316 315 316 318 319 319 319 318 316 316 315 315 315 316 315 315 315 314 314 312 309 309 309 310 310 313 317 319
332 330 328 327 327 327 326 325 325 325 325 325 325 325 327 328 329 328 329 332 334 333 332 332 332 331 331 330 328 326 325 323 322 321 318 316 316 317 319 320 319 319 318 315 314 313 313 312 312 312 314 315 314 313 313 313 311 310 309 309 311 315 317
331 331 329 328 330 330 328 326 325 325 325 325 326 326 326 326 327 328 328 328 330 331 331 332 331 330 330 329 328 327 326 325 324 323 321 319 318 318 319 320 320 318 317 315 314 313 312 312 309 308 309 312 313 312 311 312 311 310 311 310 310 312 318
331 330 328 326 328 329 328 325 325 324 325 326 326 325 325 325 325 327 327 326 327 329 330 331 331 330 330 329 328 328 328 326 326 326 324 322 321 321 322 323 322 319 317 315 314 313 312 312 309 305 305 308 310 311 310 311 313 314 314 315 312 310 314
328 327 326 325 324 326 326 326 325 324 325 327 326 325 325 325 324 325 325 325 326 328 329 329 330 330 330 329 328 329 328 328 327 326 325 324 325 325 325 325 324 322 317 315 314 314 312 311 309 305 304 304 307 308 308 310 316 319 318 318 316 310 310
326 325 325 325 325 326 326 326 326 325 324 326 326 325 325 324 323 324 325 324 325 326 327 327 328 330 330 329 329 329 328 328 328 327 326 326 326 326 326 326 325 324 320 317 316 315 313 312 310 307 304 304 304 305 305 306 312 318 319 318 316 313 310

ECMWFFLT2_850_thetae_123.txt.gz
Theta_e
324 322 322 322 322 324 326 323 326 332 334 328 324 328 331 326 328 337 343 350 359 354 347 351 353 351 352 351 350 351 349 348 349 349 350 349 348 350 348 343 340 340 340 340 341 342 342 343 342 342 343 344 344 345 345 346 345 343 343 342 341 340 340
324 321 321 324 322 324 326 321 325 330 326 328 328 325 328 327 321 328 342 351 354 351 346 350 355 353 353 354 351 351 351 350 350 350 350 348 347 347 349 347 343 341 341 340 341 342 342 342 342 343 343 344 345 345 345 346 347 346 344 343 342 342 341
324 323 323 326 325 324 324 321 323 324 321 327 331 323 324 325 324 332 343 345 346 348 349 352 353 353 353 353 352 352 352 351 351 351 350 349 347 345 348 349 347 344 341 341 341 341 342 342 343 343 344 345 345 345 346 347 347 347 346 344 343 343 342
323 325 325 325 325 325 325 323 324 324 323 325 325 324 325 324 325 334 338 340 345 347 350 352 352 352 354 353 354 354 352 351 352 351 350 349 347 346 346 348 350 348 344 342 342 342 343 343 343 344 344 345 345 345 346 347 348 348 348 347 345 344 343
324 324 324 323 325 326 326 324 323 324 325 325 321 320 323 323 329 339 339 340 345 347 349 350 350 352 352 352 355 354 351 351 352 352 351 349 348 347 346 346 349 350 348 345 343 343 343 343 344 345 345 346 346 346 346 347 348 349 349 349 347 345 344
325 324 324 323 325 327 325 324 324 324 324 323 319 319 323 322 326 337 340 342 345 346 346 346 347 349 348 349 352 352 351 352 352 352 352 350 349 347 346 345 346 349 351 348 345 344 344 344 344 345 345 346 346 346 346 348 349 349 349 350 349 346 344
324 324 325 324 324 326 326 324 325 326 326 323 320 322 326 322 322 334 345 349 348 344 342 344 345 347 347 347 347 348 348 350 350 350 351 351 350 349 349 348 347 348 352 351 347 345 345 345 345 345 346 346 346 347 347 348 349 349 349 350 350 348 344
332 325 325 325 323 326 328 327 326 329 332 329 323 325 333 336 335 338 345 349 347 343 342 344 345 346 347 346 346 346 346 347 347 347 349 350 351 351 350 350 350 351 353 353 350 348 347 346 345 345 345 346 347 347 347 348 349 349 350 350 351 348 344
341 332 330 328 325 329 332 329 328 331 336 335 329 330 341 346 341 339 344 348 347 344 342 343 345 346 346 346 345 345 345 346 346 345 347 349 349 350 350 351 352 352 352 351 349 348 347 348 348 349 348 348 348 348 348 348 349 349 349 350 351 350 345
338 336 336 330 326 333 334 331 331 333 336 338 334 336 348 350 343 342 347 348 346 344 342 343 344 344 345 347 346 344 344 344 344 344 346 348 348 348 349 350 351 350 350 350 350 350 348 347 348 349 351 352 352 352 353 353 352 352 351 350 350 350 347
339 338 339 333 330 333 331 331 335 335 336 338 338 341 347 346 344 345 345 345 346 346 344 344 343 342 344 346 345 345 343 342 343 344 345 347 347 347 348 349 349 348 348 348 348 349 349 347 347 348 350 352 353 354 353 352 353 353 353 353 352 351 349
336 338 338 333 331 331 328 331 336 335 337 340 341 344 341 340 344 347 344 344 346 346 346 345 344 343 343 344 345 345 344 343 343 344 344 345 345 346 347 349 349 349 348 348 348 348 349 348 348 348 349 350 352 354 354 352 349 350 350 351 352 353 351
329 330 329 329 330 330 330 334 335 334 337 339 341 342 341 341 346 346 343 345 346 346 345 344 342 342 342 343 345 345 344 344 344 344 344 344 344 345 347 347 348 348 348 348 348 348 349 349 349 348 348 349 349 351 354 354 352 349 347 348 351 351 350
328 325 323 328 331 332 335 337 336 334 335 337 338 339 340 341 343 343 341 343 345 344 342 341 340 341 342 344 345 344 344 344 344 344 344 343 344 345 345 346 346 347 348 348 348 349 349 349 348 348 348 348 348 349 352 354 354 353 349 348 350 349 347
329 327 324 328 331 332 334 336 335 333 334 338 339 338 340 341 341 341 341 342 343 341 339 338 339 340 342 344 344 344 343 343 343 344 343 343 344 344 344 345 346 346 347 347 347 348 349 348 348 348 348 349 350 350 350 353 355 354 352 349 349 349 347
326 325 326 329 329 330 332 334 333 333 334 337 338 338 340 341 340 342 344 343 343 340 338 337 338 339 340 340 341 343 342 342 343 342 343 343 343 343 344 345 345 345 346 346 347 347 348 349 348 348 349 349 350 351 351 352 353 354 354 351 349 348 347
327 328 327 328 329 330 334 335 331 331 334 336 337 339 341 341 342 345 345 342 340 339 338 337 337 338 337 337 337 340 341 342 341 341 342 342 342 343 344 344 345 346 346 346 347 347 347 348 349 348 349 349 349 350 351 352 352 354 355 353 351 351 350
329 333 330 331 335 334 333 332 330 331 334 337 340 340 339 340 342 342 342 340 340 339 337 336 337 336 335 335 336 338 341 341 340 340 341 341 342 342 343 344 344 344 345 346 347 347 347 347 348 348 348 349 350 350 350 352 353 354 354 352 352 353 353
327 336 337 335 335 332 331 333 334 333 332 333 336 337 336 338 340 340 340 341 340 338 336 335 335 333 332 333 335 337 338 339 338 339 339 340 341 342 342 343 343 343 343 344 344 345 345 345 346 347 347 348 350 350 349 350 351 353 353 352 352 353 353
324 332 337 335 332 330 330 333 333 332 331 332 335 339 338 337 336 338 341 340 339 338 336 334 333 332 331 332 331 331 333 337 338 338 338 339 339 340 341 342 342 342 342 342 342 342 342 343 344 345 345 347 348 348 349 350 350 351 351 351 351 351 351
327 332 332 330 330 328 329 333 334 333 333 333 336 342 342 336 333 336 338 338 338 338 336 334 333 332 331 331 328 326 328 331 335 336 337 338 338 338 339 339 339 340 340 340 341 341 340 341 342 342 344 345 346 346 347 349 350 349 349 350 349 349 350
331 336 332 327 328 330 333 337 336 331 328 328 332 340 344 336 331 334 336 337 337 336 336 335 334 333 335 335 330 325 325 328 331 334 335 336 337 338 337 337 337 337 338 337 338 338 339 339 340 341 342 344 344 345 345 346 347 347 347 348 348 348 349
328 336 336 332 332 335 338 340 334 326 326 328 328 336 343 337 330 333 335 334 335 336 335 335 334 334 340 340 330 324 325 327 329 332 333 334 335 336 335 335 335 335 336 335 335 336 337 337 339 340 341 342 343 343 342 343 344 345 345 346 347 347 347
333 338 338 335 334 333 335 337 332 325 326 327 328 335 342 335 330 334 335 335 335 336 335 335 334 334 337 336 328 324 324 326 327 329 330 331 332 332 332 332 333 333 334 334 334 334 334 335 336 337 338 340 341 341 341 341 342 343 343 344 345 345 345
338 340 337 333 334 335 332 331 329 325 324 326 330 336 337 331 331 335 335 335 335 335 334 335 334 333 333 331 327 324 324 324 326 327 328 329 329 330 330 331 331 331 332 331 332 332 331 331 330 332 335 338 338 339 339 340 340 341 341 341 341 341 341
332 339 340 333 332 332 327 325 326 324 325 329 332 332 330 328 332 335 334 334 334 334 334 334 333 332 330 328 326 325 324 324 325 325 326 327 327 327 328 328 328 328 328 329 329 329 329 327 325 326 330 334 336 337 336 336 336 336 338 339 339 339 340
329 335 337 333 332 330 324 324 326 326 328 331 330 328 330 332 333 334 333 333 333 332 332 332 331 329 327 326 326 325 324 324 324 324 324 324 324 323 323 322 322 323 323 324 326 327 327 325 322 322 323 326 331 334 334 333 333 334 336 337 337 337 337
334 336 337 335 333 330 326 325 328 329 329 328 327 328 332 332 331 331 333 332 331 331 331 331 329 327 326 326 325 324 324 324 323 323 323 322 320 319 317 315 315 315 314 315 317 320 321 320 320 320 320 321 323 325 327 327 328 330 333 335 335 335 335
331 335 337 333 328 326 326 326 327 328 328 328 329 329 329 329 329 331 332 332 331 331 330 330 330 328 327 327 326 325 324 323 323 323 320 318 317 315 314 314 314 313 313 312 311 312 313 313 315 317 318 318 318 319 321 322 321 322 326 330 332 333 333
326 328 328 326 325 326 327 327 327 329 329 328 328 326 325 327 328 329 331 332 332 330 330 330 330 329 328 328 327 326 325 323 323 321 317 315 316 316 316 317 317 316 316 315 313 312 311 311 312 312 313 315 316 316 318 320 319 319 320 323 325 327 328
332 332 326 323 326 327 327 328 328 328 328 327 326 325 325 325 326 329 332 332 332 331 330 330 330 329 329 328 327 327 325 324 322 319 316 316 318 318 317 317 317 317 316 316 315 314 313 313 313 312 312 312 312 313 316 317 317 317 319 320 320 321 323
334 333 327 323 325 326 327 328 327 326 326 326 325 325 326 325 325 330 332 332 332 332 331 331 330 330 329 328 328 327 325 324 322 319 316 316 317 317 317 317 318 318 317 316 315 315 314 314 314 314 314 313 311 311 313 314 314 315 316 318 318 320 321
329 327 325 324 325 327 327 326 325 325 325 325 325 325 326 325 325 329 332 333 333 332 332 332 331 330 329 328 328 328 326 324 323 320 316 315 316 317 318 318 319 319 318 317 317 315 314 313 312 311 311 312 312 312 312 313 314 314 312 313 316 319 322
331 328 327 326 327 329 327 325 325 325 324 324 325 326 326 325 325 327 329 330 331 331 332 333 332 331 331 329 328 328 327 325 324 322 319 317 316 316 317 318 318 319 320 320 319 317 315 314 313 311 309 307 309 311 311 312 313 312 310 311 312 316 320
332 327 325 324 325 327 325 325 325 325 324 325 325 326 326 326 325 325 326 326 328 330 331 331 331 331 331 330 329 329 327 326 325 324 322 321 319 317 317 318 319 321 323 323 322 321 319 317 316 316 313 309 307 308 310 311 311 310 310 310 311 313 316
326 324 324 324 324 324 324 325 326 325 325 325 326 326 326 325 324 325 324 324 327 329 329 329 330 330 330 330 330 329 327 327 326 325 325 325 324 322 321 321 322 323 324 324 324 324 323 321 319 318 317 314 308 306 306 308 309 310 311 313 314 315 315
324 324 324 324 324 324 325 325 324 325 325 325 325 326 326 325 324 324 323 323 325 327 327 328 329 329 329 329 329 328 327 327 327 326 326 325 325 325 324 324 324 323 324 324 325 325 325 324 322 320 319 317 312 307 305 305 306 308 310 313 316 318 318

ECMWFFLT2_850_thetae_129.txt.gz
Theta_e
321 321 321 322 321 321 322 325 325 324 327 329 327 326 327 325 323 328 337 339 339 339 341 346 348 348 349 350 352 351 347 348 348 349 349 349 349 349 346 343 342 341 341 341 342 342 342 342 342 342 341 341 340 340 342 343 343 344 345 346 346 347 347
323 321 320 323 324 322 322 322 322 323 326 328 330 331 331 327 324 326 330 334 337 337 340 346 348 348 348 348 350 352 350 349 348 349 349 348 349 349 347 345 343 341 340 341 341 341 341 342 342 341 341 341 340 339 340 342 342 343 343 345 345 346 347
322 322 322 323 326 325 323 322 323 323 323 326 328 331 331 329 327 326 326 331 338 341 343 347 350 350 349 348 348 350 351 351 350 349 349 348 348 349 349 348 346 343 341 341 341 341 341 342 342 341 341 341 341 339 339 341 342 342 342 344 345 346 346
320 323 324 323 325 328 326 327 329 327 324 324 325 327 328 329 330 330 326 328 337 344 346 348 350 350 349 348 347 348 349 350 351 350 349 348 348 349 349 349 348 345 342 340 340 341 341 341 342 341 340 341 341 339 339 340 341 342 343 344 344 345 346
320 322 324 323 325 327 328 329 329 329 325 322 323 324 325 326 329 331 327 324 335 345 345 347 349 349 347 346 347 348 347 347 348 349 348 347 347 348 348 349 349 348 344 341 340 339 340 340 340 340 341 341 341 340 339 340 341 342 342 343 344 345 345
321 322 323 323 323 324 328 330 328 330 328 323 322 321 321 322 326 332 329 325 336 345 343 345 348 347 346 346 346 347 345 343 344 348 348 347 347 347 347 348 349 349 347 344 341 339 339 339 339 340 341 341 341 341 340 341 341 342 342 343 344 344 345
321 322 322 323 323 322 328 331 330 332 331 329 325 321 320 322 324 332 332 328 339 345 343 345 347 346 347 346 344 344 343 342 344 346 348 347 347 346 346 348 348 349 349 346 342 339 338 339 339 339 340 341 341 342 342 343 343 343 344 344 344 344 345
322 322 323 324 323 322 326 331 334 334 333 334 332 326 324 324 326 330 328 329 341 345 343 345 346 346 347 345 343 342 342 343 345 346 347 347 348 347 346 347 349 348 348 346 343 339 338 339 339 339 340 341 342 342 342 343 343 343 343 344 344 344 345
321 322 322 322 322 324 328 331 334 335 336 336 334 331 330 329 333 334 327 329 343 345 343 344 345 345 346 345 344 343 342 344 345 346 347 347 348 348 347 347 348 348 348 346 343 341 340 339 338 340 340 341 342 343 343 343 342 343 343 343 344 344 345
318 320 321 320 322 325 328 332 334 336 337 335 332 330 328 328 336 339 334 336 345 345 341 342 343 344 345 344 344 344 343 344 344 345 346 346 347 348 348 347 347 348 348 347 346 346 346 344 342 342 341 341 342 342 343 344 344 344 345 344 344 345 345
318 320 321 323 325 325 326 331 334 336 337 336 333 331 330 331 337 340 340 342 344 343 342 342 343 343 343 344 344 344 344 344 344 344 345 345 346 347 347 347 347 347 348 347 347 348 348 347 347 347 346 344 343 343 343 344 344 345 345 345 344 344 343
320 321 322 324 326 326 328 331 334 336 337 338 337 336 335 336 337 339 342 343 343 342 342 342 342 342 343 344 344 343 344 344 344 344 344 344 345 345 346 347 347 347 347 347 348 347 347 347 347 348 349 348 347 347 346 345 344 344 344 344 344 343 342
320 321 320 323 327 329 332 332 333 335 336 336 338 338 338 338 337 339 340 341 342 341 340 340 341 341 342 343 343 342 342 343 343 343 343 344 344 345 345 346 346 346 346 347 347 347 347 347 347 348 348 348 349 348 348 347 345 343 344 344 344 343 343
322 322 322 325 328 331 333 333 332 335 336 336 337 338 337 337 337 337 335 337 340 339 338 339 339 340 340 340 341 341 341 341 342 341 341 342 343 344 344 344 345 345 345 346 346 346 347 347 347 348 348 348 349 348 348 347 346 345 346 346 345 344 344
322 325 326 327 328 331 333 332 332 333 335 336 336 336 335 335 335 334 331 333 338 338 338 339 338 338 338 337 338 339 340 339 339 339 340 341 342 342 342 342 343 343 344 344 345 346 346 347 347 348 348 348 348 348 348 348 347 347 348 348 346 345 345
319 325 327 327 328 329 328 330 332 333 334 335 336 337 336 333 334 332 330 332 336 338 338 338 337 336 335 335 335 336 338 338 338 338 339 339 340 340 340 340 340 341 341 342 343 344 344 345 346 346 347 348 348 348 348 348 348 348 348 348 348 347 346
318 325 327 326 327 326 325 328 331 332 335 336 336 337 337 334 332 332 333 335 336 337 337 337 336 334 333 332 332 333 336 337 336 336 337 338 338 338 338 338 339 339 339 340 341 342 342 343 344 345 346 346 347 348 348 348 349 348 348 348 348 348 347
319 326 326 325 326 325 325 328 329 330 334 336 336 338 337 335 332 332 334 335 335 336 337 337 334 332 330 330 330 333 335 336 336 336 336 336 336 336 336 337 337 337 337 338 339 340 341 342 343 344 345 345 346 347 348 348 349 349 349 349 348 348 348
322 326 326 325 326 326 327 328 329 330 332 332 333 335 336 335 335 334 334 335 335 336 336 335 333 331 329 329 331 334 336 336 336 336 336 335 335 334 335 335 335 334 334 334 336 338 340 341 342 343 344 345 346 346 347 348 348 348 349 349 349 349 350
323 326 325 324 325 326 327 328 329 331 331 329 329 331 334 335 335 335 335 335 335 336 335 334 333 331 330 331 332 334 335 335 336 336 336 335 334 334 334 334 334 333 331 331 332 334 336 338 340 341 342 343 345 346 346 346 347 347 347 347 347 348 348
323 325 325 325 326 326 329 331 331 331 330 328 328 329 332 334 336 336 336 335 336 336 335 334 332 331 332 333 333 333 334 335 336 336 335 334 334 334 333 333 333 332 330 327 327 330 334 336 337 339 339 341 343 344 344 344 345 346 346 345 345 345 346
324 326 325 326 326 325 328 331 330 328 328 329 329 328 330 333 336 336 336 335 336 336 335 334 333 333 334 335 334 332 332 334 335 334 333 332 332 332 332 332 332 330 329 325 322 325 331 334 336 337 338 339 341 342 342 342 342 343 343 344 344 344 344
325 326 324 325 326 324 328 329 326 327 329 329 329 326 326 331 334 336 337 337 336 336 335 334 334 333 334 335 334 330 331 332 333 332 331 330 330 329 329 330 330 329 328 323 319 321 326 330 334 336 336 337 339 339 340 340 340 340 340 341 342 342 342
326 325 322 323 325 326 327 326 325 326 328 328 327 325 326 330 334 335 337 337 336 335 335 334 334 334 334 334 333 330 329 330 330 329 329 329 328 326 326 327 328 327 325 320 317 319 322 325 329 332 334 336 336 336 337 337 337 337 337 338 339 340 340
325 325 322 321 323 326 327 326 325 326 327 326 326 325 328 333 336 335 335 336 336 336 335 335 334 334 334 333 331 329 328 328 328 328 327 326 324 322 322 323 324 324 321 318 317 319 321 322 324 325 327 330 332 334 334 334 333 333 334 334 335 336 337
323 324 322 321 321 324 326 326 325 325 326 326 326 327 331 335 336 335 334 334 335 335 335 335 334 334 333 331 329 328 327 327 326 326 325 323 320 317 317 317 318 318 316 314 314 317 319 320 321 321 321 321 323 327 329 330 329 329 330 331 332 332 333
324 324 323 320 320 322 325 326 326 326 327 327 327 331 333 334 335 333 332 332 332 333 334 334 333 333 332 331 329 327 326 325 325 324 322 317 314 314 314 314 313 313 312 312 312 313 313 314 316 319 320 320 319 321 323 325 325 325 326 327 328 328 328
323 324 323 322 323 324 325 327 326 326 326 327 329 332 334 334 333 332 330 330 331 331 332 332 332 332 330 330 328 326 324 324 323 322 318 315 314 315 315 315 314 313 313 313 312 311 311 311 312 314 316 318 318 319 321 322 322 322 322 322 322 322 324
323 324 324 324 325 324 324 324 324 324 326 328 329 329 330 332 332 330 329 330 330 331 331 331 331 330 329 328 326 324 324 322 320 318 316 315 316 316 315 314 314 313 313 312 311 311 310 310 309 310 312 314 315 316 317 317 317 318 318 318 319 320 321
323 324 324 325 326 326 324 324 324 326 327 328 327 325 325 329 330 330 329 329 330 331 331 330 329 328 328 327 325 323 322 319 317 316 316 316 316 315 315 314 314 313 313 313 313 313 312 311 310 308 309 311 312 313 313 313 313 313 313 314 316 318 319
324 325 326 326 327 327 326 326 327 328 328 326 324 324 325 327 330 330 329 329 329 329 330 330 329 327 327 325 324 323 321 317 315 317 316 316 317 318 317 317 316 315 315 315 316 317 317 317 315 311 308 308 310 311 312 312 312 311 310 311 313 316 318
325 326 326 325 326 326 326 327 329 329 327 325 324 324 326 328 330 330 329 329 329 328 328 328 327 326 326 325 324 323 319 316 316 317 317 317 318 319 319 320 319 319 319 319 319 319 320 320 319 316 312 308 307 308 310 312 311 311 310 310 312 314 316
325 325 325 325 326 326 327 328 329 328 326 324 325 326 327 329 330 330 329 329 329 328 327 327 326 326 326 325 324 322 319 316 316 316 316 317 317 317 320 322 323 323 323 323 322 322 321 321 321 319 316 310 306 305 307 309 310 311 311 311 312 313 314
325 325 327 327 326 327 327 328 328 328 325 324 324 326 328 329 329 329 330 330 330 329 328 328 327 326 326 325 324 322 319 317 316 315 315 317 317 316 319 323 324 324 324 324 324 323 323 322 321 321 319 315 309 306 306 306 307 309 311 312 313 313 313
324 325 326 325 325 326 327 327 328 327 325 324 324 325 326 327 327 328 329 330 331 331 330 329 328 327 326 325 324 323 321 320 318 317 318 319 319 319 321 323 324 324 324 325 324 324 323 323 322 322 322 320 315 311 309 308 306 306 308 310 312 312 311
323 321 322 323 323 323 324 325 327 326 324 324 324 324 324 324 325 326 328 329 330 331 331 331 330 329 328 327 326 324 323 322 322 322 323 323 323 323 323 324 324 324 325 325 324 324 323 323 323 322 322 322 320 317 314 312 310 309 308 308 309 310 310
322 321 322 323 323 322 323 325 326 325 324 325 324 324 323 323 323 324 326 327 328 328 329 330 330 329 329 329 328 326 325 324 324 324 324 325 325 325 325 324 325 325 325 325 324 324 322 321 321 322 322 322 322 321 318 316 315 313 312 310 308 307 308

ECMWFFLT2_850_thetae_132.txt.gz
Theta_e
326 326 326 327 324 321 323 323 320 322 326 324 320 320 323 321 320 322 324 328 335 340 342 345 347 348 349 350 353 353 351 350 352 352 351 351 353 354 351 349 348 347 346 348 349 349 348 349 349 349 348 346 344 343 341 342 343 344 345 344 342 341 340
326 327 327 327 326 325 323 320 322 325 327 325 322 320 321 321 320 321 322 324 329 332 336 345 348 346 348 348 351 353 352 350 351 352 351 352 353 352 352 351 349 348 348 348 349 349 349 349 349 348 345 342 342 342 341 341 342 343 344 345 345 345 344
324 326 326 325 327 328 325 323 325 326 322 321 322 320 319 320 319 320 321 322 326 330 336 345 348 347 348 348 348 351 351 351 350 350 351 353 352 350 350 350 348 347 348 348 349 349 349 350 350 349 346 343 343 343 342 344 345 344 345 349 349 348 347
323 324 324 321 322 326 327 326 327 326 322 321 322 321 320 319 318 319 320 319 327 338 343 346 348 348 349 348 348 349 350 349 349 349 350 352 352 350 348 347 348 348 347 347 348 348 349 351 350 350 350 348 348 347 346 346 347 347 348 351 351 349 349
321 321 324 323 323 325 324 323 323 323 323 322 323 322 320 320 318 319 320 317 326 342 347 346 348 348 347 347 348 349 348 347 348 349 350 351 352 352 349 347 347 348 347 346 346 346 346 349 351 351 351 351 351 349 347 345 345 344 346 349 352 350 350
318 321 326 326 327 327 326 325 323 323 323 321 320 319 319 320 318 319 320 317 326 342 345 344 347 346 347 349 348 347 346 347 348 349 349 350 351 352 351 349 346 346 347 347 347 346 343 345 348 351 351 351 350 347 344 343 342 340 341 347 352 351 350
321 324 327 327 328 329 328 328 326 327 326 322 319 318 318 319 318 320 321 318 328 343 345 344 347 347 348 349 347 346 346 347 348 348 349 350 350 351 351 350 347 346 346 347 347 347 345 343 344 348 351 350 349 347 344 342 342 340 340 345 350 350 348
323 324 325 327 327 327 327 328 329 328 327 325 325 324 323 320 317 320 320 318 329 344 347 346 347 347 348 348 347 347 347 347 348 348 349 350 350 350 350 350 349 347 347 348 348 346 346 344 341 344 350 349 348 350 348 344 342 342 341 344 347 346 343
320 320 322 324 324 325 325 328 331 330 330 330 328 328 327 321 319 322 319 319 334 344 345 345 346 346 348 347 346 347 347 347 347 348 348 349 349 350 350 350 349 348 347 347 347 346 344 342 340 342 345 345 345 348 348 346 344 345 344 343 344 344 342
316 318 320 320 322 323 324 328 331 330 331 331 327 326 325 322 326 329 321 325 340 345 343 344 344 344 345 346 346 346 346 347 347 348 348 348 349 349 349 350 349 349 348 346 345 344 342 341 340 340 342 341 343 346 348 348 348 348 346 344 343 343 343
318 319 321 323 323 322 323 326 329 330 331 331 328 326 324 325 330 331 329 336 343 343 344 344 343 342 344 346 346 346 346 346 346 347 347 347 348 348 348 349 349 349 350 348 346 343 342 341 340 340 340 340 342 346 348 350 351 351 348 346 345 344 344
320 321 322 323 323 323 323 325 327 329 331 330 327 325 327 332 333 331 337 344 341 341 344 343 342 342 343 344 345 344 344 344 344 346 346 347 347 347 347 348 347 348 349 348 348 346 345 344 343 342 341 342 345 347 348 350 352 353 353 351 349 348 345
321 321 321 322 323 324 326 326 326 328 329 329 328 328 331 337 336 335 341 344 342 342 343 340 340 342 341 342 343 342 342 343 342 343 343 344 344 344 344 344 344 345 345 345 346 346 346 346 346 345 345 346 346 346 346 348 349 351 354 353 352 350 349
320 322 322 322 324 324 327 328 328 328 329 330 330 332 334 338 339 339 341 341 341 341 339 338 339 339 339 340 340 340 341 341 340 339 340 340 340 340 340 340 341 341 342 343 344 344 345 346 347 347 346 345 344 343 343 344 346 349 352 352 351 350 351
319 322 323 323 323 324 325 328 329 328 329 331 332 334 336 337 338 339 339 340 340 338 337 339 338 338 338 338 337 338 339 339 339 338 338 337 337 337 338 338 338 339 341 342 343 343 344 345 346 347 347 346 345 344 344 344 346 349 351 352 351 350 352
318 321 323 322 324 324 322 323 327 327 327 330 332 334 335 334 335 337 337 337 337 336 337 338 337 337 338 337 336 336 337 338 338 337 336 336 336 336 336 336 337 338 340 341 341 342 343 343 344 345 346 347 347 347 347 348 349 350 351 352 352 351 351
316 321 322 322 323 321 320 323 327 328 329 331 332 334 334 333 333 333 332 332 334 335 337 337 336 337 337 336 335 335 336 337 337 336 336 335 335 334 334 334 335 336 337 339 340 341 342 342 343 344 345 346 347 347 348 349 350 351 351 351 351 351 351
316 320 322 321 320 318 321 328 330 330 332 332 332 334 334 332 333 333 332 333 334 335 337 337 336 336 336 335 334 334 334 336 336 335 335 334 334 334 333 332 333 334 336 337 338 340 341 341 342 343 344 345 346 346 347 348 348 349 350 350 351 350 350
317 320 320 319 319 320 326 332 332 331 333 332 332 334 334 333 334 334 332 333 335 336 336 336 335 335 334 334 334 334 334 334 335 334 334 334 334 333 332 331 330 332 334 336 337 338 339 340 341 342 343 344 345 345 346 347 347 347 348 348 348 348 349
318 318 318 319 321 323 326 330 332 333 333 332 331 332 333 335 336 335 334 334 337 337 336 335 335 334 334 334 333 333 334 335 334 333 333 334 333 332 332 330 329 329 332 334 335 337 338 339 340 341 342 343 343 343 344 345 345 346 346 346 346 346 346
318 317 317 319 320 321 323 329 333 333 332 332 330 330 332 334 335 336 336 336 337 337 336 336 335 335 335 335 334 333 334 334 333 332 333 333 332 332 331 330 328 327 329 332 333 334 336 338 339 340 342 342 341 342 342 342 343 344 344 344 344 345 345
319 317 317 318 318 319 324 331 333 332 331 332 330 329 330 333 334 336 337 338 337 337 336 336 336 336 336 336 335 334 334 333 332 332 332 332 331 330 330 330 327 324 325 329 330 332 334 336 337 338 339 340 340 339 340 340 341 341 341 342 342 343 344
319 317 317 317 317 321 328 332 332 332 331 331 330 327 328 332 334 335 337 339 337 335 335 336 335 335 334 335 335 333 332 331 331 331 332 331 330 329 328 328 326 323 323 325 327 329 331 332 334 335 336 337 336 336 337 337 337 337 338 339 340 341 342
318 318 317 317 318 324 331 330 330 332 331 330 329 326 327 332 334 334 337 338 337 335 336 336 335 334 335 336 335 332 331 331 331 331 331 330 329 328 327 327 325 323 324 324 324 325 327 328 330 331 333 334 333 332 332 332 332 333 335 336 338 339 339
317 317 317 317 320 327 331 329 329 331 331 329 327 326 330 334 335 335 337 337 337 337 336 336 335 335 336 335 332 330 331 331 331 330 329 327 326 325 325 326 325 322 322 322 321 321 324 327 328 327 328 328 327 327 326 326 327 328 330 332 334 335 336
317 318 318 317 320 328 331 329 330 330 329 327 326 329 335 336 335 336 337 336 337 337 336 336 336 335 334 332 330 330 331 331 331 329 327 326 325 324 323 323 323 320 319 318 318 318 320 323 326 326 324 322 323 323 322 322 323 324 324 325 327 329 330
319 319 319 317 319 328 331 329 330 330 328 328 330 333 337 336 335 336 336 335 336 336 335 336 335 334 332 331 330 330 330 330 329 325 323 323 324 324 323 322 321 319 317 315 314 314 314 316 320 321 319 317 319 320 320 321 322 322 322 322 323 323 323
320 317 319 322 324 328 330 329 330 331 330 331 332 333 336 335 334 334 334 335 337 336 335 335 334 333 332 329 329 329 329 328 325 322 322 322 322 320 319 318 318 318 316 314 311 310 311 312 314 315 314 313 313 314 316 318 319 320 321 321 322 322 321
323 322 325 330 330 330 330 330 331 332 332 333 333 332 333 333 333 333 334 335 336 335 334 334 334 333 332 329 328 328 327 326 323 322 324 323 322 319 316 314 315 316 316 315 312 310 309 310 311 313 314 313 313 312 313 314 315 316 318 318 319 321 320
327 328 330 331 331 330 330 330 330 331 331 331 331 331 331 332 332 333 334 335 335 334 333 333 333 332 331 330 329 327 325 323 322 322 323 323 323 321 319 318 319 319 319 319 317 314 312 309 308 310 312 313 313 312 315 319 316 312 313 314 313 316 319
324 326 329 331 331 330 329 329 331 332 332 330 330 330 331 331 332 333 334 335 335 334 333 333 332 331 331 330 328 326 323 322 322 323 323 322 322 321 320 321 322 322 322 321 320 319 316 312 310 308 308 311 312 311 316 321 317 312 313 316 315 316 319
326 328 331 332 331 331 330 329 330 331 331 330 331 332 332 333 333 333 333 334 334 334 334 333 332 331 330 329 327 325 324 323 323 323 322 322 322 321 321 322 324 324 324 323 322 321 320 318 314 311 308 307 308 310 312 315 315 313 314 316 317 318 318
328 331 331 330 330 330 331 331 331 330 329 330 332 332 332 333 333 332 332 332 332 333 333 332 331 331 330 328 326 324 324 324 323 323 324 324 324 324 324 324 325 325 325 324 323 322 322 321 319 316 312 308 307 308 308 309 311 313 313 314 317 319 320
325 327 329 329 328 328 330 331 332 331 329 329 331 332 331 332 332 332 332 332 332 332 332 332 331 331 330 329 326 324 323 323 323 322 323 324 325 326 326 325 325 326 326 326 324 322 322 323 322 321 318 314 310 309 308 307 308 309 311 316 320 320 320
323 327 328 328 327 327 329 330 331 331 330 330 331 331 331 331 331 332 332 332 332 331 331 331 330 330 330 329 326 324 322 322 322 321 322 323 325 326 326 326 327 327 327 327 326 323 321 321 321 322 322 320 317 314 311 310 310 308 308 312 317 318 315
325 327 328 328 327 327 329 329 330 331 330 330 330 330 330 330 330 331 331 332 332 331 330 330 330 330 329 328 327 325 323 322 322 321 322 324 325 326 326 326 326 327 328 327 327 325 323 320 319 319 320 321 321 320 317 315 314 313 311 310 312 314 312
327 328 330 329 328 329 329 330 330 331 330 330 330 330 330 330 330 331 331 332 332 331 331 331 330 329 329 328 327 326 325 323 322 322 324 325 324 325 326 326 326 327 328 327 327 326 325 322 319 319 319 318 318 320 321 320 318 317 316 315 313 313 312

ECMWFFLT2_850_thetae_135.txt.gz
Theta_e
326 325 326 327 324 321 324 324 321 322 326 324 319 318 320 319 319 321 320 326 336 340 341 346 345 345 346 348 352 352 350 352 352 350 352 353 352 351 351 349 347 346 344 345 347 347 347 348 348 349 348 349 351 351 353 355 352 348 348 347 348 350 350
325 326 326 326 326 325 323 321 322 326 327 325 321 319 319 319 318 320 318 322 329 331 336 344 344 344 344 344 349 351 349 350 351 352 352 352 352 351 351 350 349 348 347 345 346 347 347 347 347 348 348 349 351 350 352 355 352 349 350 351 352 352 352
325 327 325 323 325 327 325 323 325 326 321 320 321 319 318 318 317 319 318 317 324 330 336 342 343 344 344 341 346 350 349 349 350 352 353 352 352 351 351 352 350 349 348 347 347 346 346 348 348 348 348 348 350 350 352 353 349 346 349 352 354 354 354
324 325 323 320 322 326 326 325 325 325 322 321 321 320 320 318 317 319 318 318 330 338 342 345 346 347 347 344 345 348 349 349 348 350 352 351 352 351 351 352 351 349 348 347 348 348 348 348 348 348 348 347 348 349 350 351 349 348 349 351 353 354 353
322 321 323 322 323 325 325 323 322 322 324 323 322 321 321 320 319 320 318 321 335 344 345 347 348 347 347 347 346 347 349 350 348 349 350 350 351 351 352 352 349 349 349 349 349 350 350 349 349 350 349 348 349 348 349 351 351 351 350 350 351 352 352
319 322 326 326 327 326 325 324 323 324 324 322 321 320 320 319 318 319 317 321 335 344 345 346 347 345 348 349 347 348 350 350 350 351 351 351 351 351 352 353 349 347 348 348 349 350 350 350 351 352 353 352 352 352 352 353 353 352 351 349 350 351 350
321 325 327 326 326 326 326 326 326 327 325 322 320 319 320 320 319 320 317 319 333 343 344 345 347 348 350 350 348 349 350 350 350 352 351 351 353 352 352 353 351 348 346 346 348 349 350 351 351 352 354 353 352 354 355 355 355 355 353 349 349 351 351
323 324 325 326 326 326 325 325 327 327 326 325 325 323 324 323 321 321 317 318 331 342 345 347 349 349 350 348 348 349 350 350 350 351 352 352 353 354 354 354 353 350 348 346 346 346 346 347 348 350 352 352 354 356 356 356 356 357 355 351 350 352 353
320 321 323 324 324 325 324 324 327 328 328 328 327 326 327 323 322 323 319 320 332 342 345 347 347 347 349 348 348 349 350 350 350 350 352 351 351 353 353 353 352 351 350 348 346 346 346 346 344 345 348 350 353 356 358 359 359 359 359 357 355 353 353
317 319 321 321 322 324 324 325 327 328 329 328 327 327 324 322 324 326 324 326 336 344 345 344 344 345 347 347 348 348 349 349 348 349 350 350 350 351 352 353 352 352 351 349 348 347 347 348 347 345 345 346 349 353 356 358 358 357 357 357 357 356 356
318 320 322 324 324 322 321 323 325 327 328 328 329 326 322 324 325 325 329 333 336 341 344 343 344 345 345 346 347 347 347 347 347 348 347 347 348 349 350 351 351 351 351 349 349 347 346 346 346 346 345 344 347 351 353 353 352 351 352 352 352 353 356
321 322 323 323 324 321 320 322 324 326 328 328 329 325 324 328 324 323 334 341 336 338 342 341 343 345 344 345 346 345 344 344 344 345 344 344 345 346 346 347 347 348 348 348 349 347 346 345 344 344 344 343 345 348 350 350 349 349 350 350 349 348 350
321 322 322 321 322 321 322 323 324 325 326 327 327 326 327 332 329 327 337 342 338 339 341 340 342 344 343 343 344 342 342 343 343 342 342 341 342 342 343 344 344 345 346 346 347 347 347 346 345 344 343 342 342 341 343 347 350 351 350 350 350 350 349
321 322 322 321 322 321 322 324 324 325 326 326 327 328 330 334 335 334 337 340 342 340 340 342 343 342 342 342 341 340 341 342 342 341 340 340 340 341 341 342 342 343 343 344 345 345 346 346 346 346 345 344 342 340 341 344 348 350 350 350 349 349 349
320 321 322 322 322 321 321 324 325 325 326 326 327 329 332 333 335 338 339 339 340 339 340 342 342 341 342 341 340 340 340 340 340 339 339 339 339 339 340 340 341 341 342 343 343 344 344 344 345 346 346 346 346 344 343 343 344 345 347 348 348 348 348
317 320 322 322 322 322 320 321 323 324 324 325 327 330 332 332 332 336 338 337 337 339 341 341 341 340 341 339 339 339 339 339 339 338 337 337 336 337 339 339 340 340 341 341 342 343 343 344 345 345 346 347 347 347 346 346 345 344 343 344 346 349 349
316 320 322 321 320 319 318 320 324 325 324 326 329 331 332 332 330 331 333 334 336 339 339 338 339 340 340 339 339 338 338 338 337 337 336 335 334 335 336 338 339 339 340 340 341 342 343 343 344 345 345 346 347 348 348 348 348 347 346 346 347 350 351
316 320 323 321 318 316 319 325 327 326 327 329 329 330 332 332 332 331 332 333 336 338 338 338 339 340 339 338 337 337 337 336 335 336 335 333 333 333 333 335 338 338 339 340 340 341 342 342 343 344 344 345 346 347 347 348 349 349 349 349 350 351 352
316 319 321 318 316 320 326 329 328 327 328 329 329 331 333 332 331 332 333 334 335 337 338 339 338 338 338 337 337 336 335 334 334 335 335 334 333 331 331 333 335 337 338 338 338 339 340 341 342 342 343 344 345 345 346 347 347 348 349 349 349 350 350
318 318 318 317 319 325 328 327 327 327 327 327 327 328 331 332 333 334 335 335 337 337 337 337 337 337 338 337 336 335 333 333 334 334 335 335 333 331 331 331 334 335 336 336 337 338 339 340 341 341 342 343 343 344 345 345 346 347 347 347 346 346 346
319 316 315 318 320 321 323 327 329 328 327 329 329 328 330 333 334 335 334 335 338 337 336 337 338 337 337 337 336 335 334 333 334 334 334 333 332 331 329 329 332 334 335 335 335 335 338 339 340 340 340 341 342 343 343 343 343 344 345 345 344 344 344
319 317 316 318 317 317 323 330 332 329 328 331 331 329 330 333 333 333 333 334 337 337 336 337 338 337 337 337 337 336 334 333 333 332 333 332 331 330 328 328 330 332 333 334 334 334 335 336 338 339 339 339 340 340 340 340 341 341 342 342 342 343 343
319 318 316 316 316 320 327 331 330 328 329 330 329 327 328 332 334 333 333 334 336 336 336 336 336 336 335 336 337 336 334 334 333 332 332 331 329 327 326 326 328 329 330 332 333 333 333 333 334 336 336 337 337 337 337 337 337 338 339 339 340 340 341
318 318 317 316 318 325 330 328 327 329 329 329 328 325 327 332 334 333 335 336 336 336 337 336 334 334 334 335 336 335 334 334 333 332 331 330 328 326 325 324 326 327 327 329 331 332 332 332 332 332 332 332 332 332 333 333 333 334 334 335 337 338 339
316 316 316 316 319 327 329 325 327 330 329 328 327 326 330 333 332 333 336 337 335 335 336 336 334 334 335 335 335 334 333 333 332 329 328 326 326 325 324 323 323 323 324 327 329 330 330 330 331 331 330 329 328 328 329 329 328 328 328 329 331 333 336
316 317 317 316 320 328 329 325 327 329 326 325 327 331 334 334 332 334 335 335 334 334 335 335 334 334 335 335 334 334 334 333 331 328 326 325 324 324 323 322 321 320 321 323 325 327 329 329 329 330 330 329 329 329 329 328 327 326 323 322 323 324 327
318 317 316 316 319 327 329 326 327 328 326 327 331 334 334 333 333 334 334 333 334 333 334 334 334 334 335 334 334 333 333 332 330 328 328 327 325 324 323 321 320 319 320 320 321 324 326 327 328 329 330 331 331 330 330 329 328 326 323 320 319 319 318
318 316 318 321 324 328 328 326 327 330 330 331 332 333 333 333 333 333 334 334 334 334 335 335 334 333 334 334 334 333 332 329 327 327 327 326 326 326 324 323 321 320 319 319 319 320 319 320 322 325 326 328 330 329 328 327 325 324 323 322 321 322 321
321 321 325 329 329 329 328 328 330 332 332 332 331 332 334 333 331 332 334 335 335 336 337 337 335 334 334 334 333 332 329 327 325 326 325 325 325 325 324 323 323 322 321 320 320 319 318 315 315 316 319 324 328 329 328 326 324 323 322 322 323 324 323
324 327 328 328 327 329 329 329 331 332 332 331 331 331 332 332 330 331 333 333 334 334 335 336 336 335 334 333 333 331 328 326 326 325 324 324 324 325 325 325 325 324 324 323 322 321 319 318 316 316 315 318 325 329 330 328 327 327 325 324 325 326 324
324 325 327 327 327 328 329 330 331 331 331 331 330 330 332 332 330 331 332 332 332 333 334 335 336 335 334 333 332 330 327 325 326 326 325 325 326 327 327 327 327 326 327 326 325 323 320 318 318 318 318 317 320 326 329 329 329 330 329 328 328 328 327
326 328 329 329 328 328 329 330 331 331 331 331 331 331 332 332 331 331 331 330 331 332 332 334 335 335 333 332 330 328 326 325 326 327 327 327 328 328 328 329 329 328 328 328 327 325 323 319 316 315 316 315 313 316 320 323 325 328 329 329 329 329 327
327 331 332 331 328 329 329 329 330 331 331 331 331 331 331 331 330 331 330 329 330 331 330 332 334 334 333 331 329 327 326 327 327 327 328 329 329 329 329 329 329 329 329 328 328 327 326 324 320 316 315 313 310 308 309 312 317 323 327 329 329 328 328
324 329 332 330 328 328 329 329 330 331 331 331 332 331 330 330 330 330 329 328 330 332 331 331 333 333 332 331 329 328 328 327 328 329 329 329 329 328 328 328 329 329 329 329 328 328 327 327 325 322 319 316 313 311 310 309 310 315 323 328 328 325 324
323 326 330 329 327 327 330 330 330 331 331 331 330 329 329 330 329 329 329 328 330 332 332 332 333 333 332 330 328 328 328 327 328 328 328 328 329 328 328 328 328 328 328 328 327 327 328 328 327 326 324 322 321 318 315 314 313 312 315 321 325 326 323
325 326 328 328 326 327 330 330 330 330 329 329 329 329 329 329 328 329 329 329 329 331 331 332 333 333 332 330 327 327 327 327 327 327 327 328 328 328 328 328 328 328 328 328 327 326 326 327 328 328 326 325 324 323 320 317 318 317 316 318 322 324 321
327 326 328 328 326 327 330 331 330 330 329 328 329 329 328 328 328 329 329 330 329 330 330 331 332 332 332 329 327 326 326 326 326 326 327 328 328 328 328 328 328 328 328 327 328 328 327 327 326 327 327 325 323 324 324 319 316 317 317 318 320 320 319

ECMWFFLT2_850_thetae_138.txt.gz
Theta_e
327 326 326 327 325 321 324 324 321 322 327 325 318 317 320 319 319 319 326 336 342 344 345 345 346 348 350 351 351 351 350 350 351 351 351 350 353 355 352 349 349 349 347 345 345 345 346 347 347 348 349 348 351 354 353 351 348 348 348 343 342 342 340
326 328 326 326 327 325 323 321 322 325 328 327 321 318 317 318 319 317 323 335 338 338 342 344 344 346 348 349 350 351 351 351 351 350 348 350 354 354 352 350 349 348 346 345 346 346 347 348 347 348 349 349 350 352 353 351 350 351 352 349 346 345 342
326 328 326 323 325 327 324 323 326 325 321 322 321 319 317 317 319 317 322 334 335 333 339 343 342 344 344 347 349 349 351 352 352 350 350 352 353 352 352 351 349 348 346 346 348 347 347 347 347 348 349 349 350 351 354 355 354 353 353 353 353 352 348
326 326 323 321 322 324 325 324 327 324 321 321 320 320 320 318 319 318 322 333 337 338 343 346 345 346 346 346 349 349 351 352 352 352 352 351 350 351 353 353 351 349 347 347 347 346 347 346 348 349 348 348 350 351 354 356 356 355 355 355 356 356 353
323 322 323 323 323 324 325 323 323 322 322 324 323 322 321 319 319 319 319 329 339 343 345 346 345 346 345 346 348 349 351 352 351 353 353 351 351 352 353 353 353 350 348 348 346 346 347 347 349 349 347 347 348 349 350 351 353 355 355 356 356 356 355
320 322 326 327 327 327 326 324 323 323 323 324 322 322 323 319 320 320 317 328 340 344 344 345 344 345 346 346 348 350 351 351 351 353 352 351 350 351 352 353 352 350 350 349 347 346 346 348 349 348 347 347 347 347 347 348 352 354 354 353 354 354 354
322 326 327 327 327 327 328 326 325 326 324 323 320 320 323 321 321 322 319 328 340 343 343 344 344 344 345 345 348 349 347 347 349 351 351 350 350 351 352 353 352 351 351 350 349 349 350 352 353 350 348 346 346 347 348 348 350 353 353 351 351 354 355
325 325 325 326 327 326 326 324 324 325 324 325 324 323 325 322 321 323 320 326 338 342 343 346 344 343 343 342 344 346 345 345 346 348 350 350 349 349 350 352 352 351 350 349 347 348 351 353 353 353 353 352 349 348 349 349 348 348 349 349 350 353 354
320 321 322 324 325 325 324 323 325 326 326 328 327 326 327 323 322 323 321 326 338 343 344 345 344 344 344 343 344 345 346 344 344 346 349 349 348 347 348 350 350 349 348 347 345 346 349 350 351 353 355 355 355 350 347 348 349 349 348 348 350 351 350
318 319 320 321 324 325 325 325 326 327 327 327 326 325 325 324 324 325 324 329 339 345 344 343 342 344 345 345 345 345 345 344 343 345 346 348 349 347 347 349 350 350 350 348 346 346 347 347 347 349 350 353 356 354 351 352 354 355 355 354 353 351 349
320 321 323 326 326 324 323 324 325 326 326 328 327 324 323 325 324 325 330 334 337 340 343 344 343 343 344 345 345 345 345 345 343 344 344 346 347 346 346 348 348 350 350 349 349 348 348 348 347 345 343 346 352 356 356 356 355 354 355 356 356 354 352
322 324 324 325 325 322 322 322 322 324 326 327 326 323 325 328 323 324 335 338 334 337 344 345 343 343 343 345 345 344 344 344 343 343 343 343 344 344 345 345 345 348 349 348 349 349 349 349 348 347 345 344 347 352 355 357 355 353 353 354 355 355 354
323 323 323 323 323 322 322 321 320 323 324 324 325 324 327 329 325 328 337 338 337 340 343 342 343 343 343 343 344 344 343 343 342 342 342 341 342 343 344 344 344 345 346 347 347 347 348 348 348 348 348 347 346 346 349 353 353 351 350 351 353 353 353
323 324 323 323 322 321 321 321 321 323 324 324 325 325 328 330 330 334 338 338 341 344 342 342 343 343 343 343 342 342 342 342 341 341 340 340 340 341 342 342 343 344 344 345 345 345 346 346 347 347 348 348 347 345 345 346 346 348 349 350 350 350 349
322 323 324 322 322 321 320 321 323 323 324 323 324 326 328 330 333 338 339 338 341 344 344 345 343 342 343 342 341 342 342 341 340 339 339 338 338 339 340 340 342 343 343 343 344 344 345 345 346 347 347 348 348 348 347 344 342 344 348 350 350 349 348
317 321 322 321 322 322 319 320 322 322 323 322 323 328 331 330 333 337 336 334 338 342 344 344 343 343 343 341 341 341 340 340 339 338 337 337 336 337 339 339 340 341 342 342 342 343 343 344 345 345 346 348 348 349 349 347 344 344 346 347 348 348 349
316 320 322 322 322 319 317 321 323 323 325 325 325 329 332 331 332 332 331 333 338 342 342 341 342 342 342 341 340 339 339 339 338 337 337 335 333 334 336 338 339 340 340 341 341 342 342 343 344 345 346 347 347 348 349 349 348 347 347 346 345 346 347
317 321 322 322 319 317 319 326 328 326 326 327 327 328 330 333 333 331 332 335 339 341 339 339 340 341 341 340 339 339 338 337 337 337 337 335 333 332 334 336 337 338 339 340 341 341 342 343 344 344 345 345 346 347 348 348 348 348 348 348 347 347 347
318 321 321 318 317 319 326 330 329 328 327 327 327 328 330 333 333 333 334 335 337 339 339 339 340 340 339 339 338 338 338 338 338 337 336 335 334 332 333 335 336 337 338 339 340 341 341 342 343 344 344 344 345 345 346 347 347 348 348 349 349 349 349
319 319 317 317 319 325 329 328 327 327 327 326 325 326 330 333 333 333 335 336 337 338 339 339 339 339 339 339 338 338 338 338 338 337 336 335 332 330 332 334 335 335 336 338 339 340 340 341 342 342 343 343 343 344 344 345 345 346 346 346 347 348 348
319 317 315 318 320 322 324 327 328 327 327 327 326 327 332 335 333 334 335 336 337 338 337 338 338 338 338 338 337 337 337 337 336 336 336 334 330 329 330 333 334 334 334 335 337 339 340 339 339 340 340 341 341 341 342 343 343 344 345 344 345 345 345
320 317 316 318 317 319 325 329 331 328 327 329 329 329 332 335 333 334 335 337 338 337 337 338 338 337 337 337 338 337 337 336 335 334 333 330 328 328 328 331 333 332 333 334 334 336 338 338 338 338 338 338 339 339 340 340 341 341 341 341 341 342 343
319 317 316 316 318 324 330 330 330 328 328 329 328 327 329 334 334 333 333 336 337 337 337 338 338 337 336 337 337 337 336 335 334 333 331 328 326 326 326 327 330 331 333 334 333 333 334 335 335 336 335 335 335 335 335 335 336 338 337 336 337 340 341
318 318 317 316 320 328 332 328 327 328 328 329 327 324 327 334 334 333 333 335 337 337 338 338 337 336 335 336 336 336 336 335 334 333 330 327 325 325 325 325 327 330 332 333 332 332 333 333 333 333 333 332 332 332 331 330 330 331 332 333 335 337 337
317 317 316 317 321 329 330 325 327 328 328 327 325 325 330 334 333 333 334 335 335 335 335 336 336 336 336 336 336 336 336 335 333 331 329 327 325 324 323 324 325 327 330 331 331 331 332 332 332 332 332 332 331 331 330 329 327 326 325 327 330 332 334
318 317 316 316 322 329 329 325 327 328 324 324 326 331 334 333 333 335 334 334 335 334 333 335 336 336 336 336 336 336 334 333 331 328 327 325 323 322 322 322 323 324 327 329 330 330 331 331 331 332 332 331 332 332 331 331 328 323 318 319 320 321 323
318 317 315 316 322 329 329 326 328 328 325 327 332 335 333 331 333 334 333 334 335 334 334 337 337 336 337 336 336 335 333 331 329 327 326 324 323 322 321 321 321 322 323 325 327 329 330 331 332 331 330 329 328 327 327 329 329 326 323 322 322 320 318
318 316 318 321 325 329 326 326 330 330 329 331 333 332 331 331 332 333 333 333 333 333 336 337 336 337 337 336 335 335 333 331 330 328 327 327 325 323 322 321 321 321 321 322 323 324 325 328 330 330 331 330 326 322 320 322 325 327 328 327 325 324 322
323 323 326 328 329 328 327 328 330 331 329 329 330 330 331 332 332 334 335 335 333 334 336 335 335 336 336 335 335 334 331 329 329 328 327 327 326 324 323 322 322 322 322 321 322 321 321 321 323 327 331 332 330 327 325 324 324 325 327 328 326 324 323
325 328 330 330 328 328 329 329 330 330 329 329 329 330 332 332 331 333 334 335 334 334 334 335 335 335 335 334 333 331 329 327 327 326 325 325 325 325 325 325 325 325 324 322 322 323 323 322 322 325 329 331 331 330 330 330 329 328 327 328 328 327 325
324 327 330 328 326 327 329 330 330 329 329 329 329 331 333 331 330 332 333 334 333 332 332 334 335 334 334 334 332 330 328 327 326 325 325 326 326 327 327 327 327 327 327 325 324 322 323 323 324 325 327 328 329 330 331 331 331 330 329 329 328 327 327
325 328 331 330 327 327 329 330 329 328 329 330 330 331 332 331 331 331 332 332 332 333 333 334 335 335 334 333 331 329 328 327 326 326 327 328 329 329 329 329 329 330 330 329 327 324 322 321 320 322 324 322 320 321 325 327 329 330 329 328 328 329 328
326 330 331 330 329 328 328 329 330 330 329 330 330 331 331 331 331 330 330 330 331 332 333 334 334 334 334 332 331 329 328 328 328 328 329 330 330 330 330 330 330 330 331 330 329 327 324 322 318 316 318 318 313 311 313 319 326 331 330 327 326 326 327
324 328 331 331 329 328 328 329 330 331 331 331 331 331 331 330 330 330 329 330 330 331 332 333 334 334 333 331 329 328 328 329 329 330 330 330 330 330 330 330 330 330 330 330 330 329 327 326 324 321 319 318 315 313 312 314 320 327 329 328 325 323 323
325 327 329 330 329 328 328 329 330 331 332 331 330 330 330 330 330 329 329 330 330 330 330 332 333 333 332 330 329 329 329 329 330 330 330 330 330 330 330 330 330 330 330 330 330 330 330 329 329 328 326 324 322 319 316 315 318 320 323 325 326 324 322
328 329 329 329 328 327 327 329 331 331 331 331 330 330 330 330 329 328 329 330 331 331 331 332 333 332 332 331 330 330 330 330 331 330 330 330 330 330 330 330 330 330 330 330 329 330 330 329 329 328 327 326 327 325 319 315 315 317 318 319 322 321 320
328 329 329 328 327 326 328 330 331 331 331 330 330 330 330 330 329 329 329 330 331 332 332 332 333 332 331 331 330 330 330 330 330 330 329 330 330 330 330 330 329 330 330 329 329 329 329 329 329 328 326 325 325 327 324 315 311 313 314 314 317 318 317